<?xml version="1.0" encoding="UTF-8" standalone="no" ?>
<gpx xmlns="http://www.topografix.com/GPX/1/1" xmlns:xsi="http://www.w3.org/2001/XMLSchema-instance" xsi:schemaLocation="http://www.topografix.com/GPX/1/1 http://www.topografix.com/GPX/1/1/gpx.xsd" version="1.1" creator="VisuGPX - https://www.visugpx.com">
  <metadata>
    <name>Balades autour d' Ustaritz</name>
  </metadata>
  <trk>
    <name><![CDATA[Balades autour d' Ustaritz_1]]></name>
    <trkseg>
      <trkpt lat="43.39558" lon="-1.45575">
        <ele>21</ele>
        <time>2021-12-14T14:13:48.000Z</time>
      </trkpt>
      <trkpt lat="43.39558" lon="-1.45575">
        <ele>21</ele>
        <time>2021-12-14T14:13:49.000Z</time>
      </trkpt>
      <trkpt lat="43.39558" lon="-1.45575">
        <ele>21</ele>
        <time>2021-12-14T14:13:50.000Z</time>
      </trkpt>
      <trkpt lat="43.39559" lon="-1.45575">
        <ele>21</ele>
        <time>2021-12-14T14:13:51.000Z</time>
      </trkpt>
      <trkpt lat="43.39559" lon="-1.45575">
        <ele>21</ele>
        <time>2021-12-14T14:13:52.000Z</time>
      </trkpt>
      <trkpt lat="43.39559" lon="-1.45575">
        <ele>21</ele>
        <time>2021-12-14T14:13:53.000Z</time>
      </trkpt>
      <trkpt lat="43.39547" lon="-1.45584">
        <ele>21.3</ele>
        <time>2021-12-14T14:13:54.000Z</time>
      </trkpt>
      <trkpt lat="43.39547" lon="-1.45584">
        <ele>21.3</ele>
        <time>2021-12-14T14:13:55.000Z</time>
      </trkpt>
      <trkpt lat="43.39546" lon="-1.45585">
        <ele>21.4</ele>
        <time>2021-12-14T14:13:56.000Z</time>
      </trkpt>
      <trkpt lat="43.39546" lon="-1.45586">
        <ele>21.4</ele>
        <time>2021-12-14T14:13:57.000Z</time>
      </trkpt>
      <trkpt lat="43.39546" lon="-1.45586">
        <ele>21.4</ele>
        <time>2021-12-14T14:13:58.000Z</time>
      </trkpt>
      <trkpt lat="43.39545" lon="-1.45587">
        <ele>21.4</ele>
        <time>2021-12-14T14:13:59.000Z</time>
      </trkpt>
      <trkpt lat="43.39545" lon="-1.45594">
        <ele>21.6</ele>
        <time>2021-12-14T14:14:00.000Z</time>
      </trkpt>
      <trkpt lat="43.39545" lon="-1.45595">
        <ele>21.6</ele>
        <time>2021-12-14T14:14:01.000Z</time>
      </trkpt>
      <trkpt lat="43.39544" lon="-1.45596">
        <ele>21.7</ele>
        <time>2021-12-14T14:14:02.000Z</time>
      </trkpt>
      <trkpt lat="43.39542" lon="-1.45597">
        <ele>21.7</ele>
        <time>2021-12-14T14:14:03.000Z</time>
      </trkpt>
      <trkpt lat="43.3954" lon="-1.45599">
        <ele>21.8</ele>
        <time>2021-12-14T14:14:04.000Z</time>
      </trkpt>
      <trkpt lat="43.39538" lon="-1.456">
        <ele>21.8</ele>
        <time>2021-12-14T14:14:05.000Z</time>
      </trkpt>
      <trkpt lat="43.39536" lon="-1.45601">
        <ele>21.9</ele>
        <time>2021-12-14T14:14:06.000Z</time>
      </trkpt>
      <trkpt lat="43.39535" lon="-1.45602">
        <ele>21.9</ele>
        <time>2021-12-14T14:14:07.000Z</time>
      </trkpt>
      <trkpt lat="43.39534" lon="-1.45602">
        <ele>21.9</ele>
        <time>2021-12-14T14:14:08.000Z</time>
      </trkpt>
      <trkpt lat="43.39528" lon="-1.45606">
        <ele>22</ele>
        <time>2021-12-14T14:14:09.000Z</time>
      </trkpt>
      <trkpt lat="43.39526" lon="-1.45606">
        <ele>22</ele>
        <time>2021-12-14T14:14:10.000Z</time>
      </trkpt>
      <trkpt lat="43.39524" lon="-1.45607">
        <ele>22</ele>
        <time>2021-12-14T14:14:11.000Z</time>
      </trkpt>
      <trkpt lat="43.39522" lon="-1.45609">
        <ele>22</ele>
        <time>2021-12-14T14:14:12.000Z</time>
      </trkpt>
      <trkpt lat="43.39519" lon="-1.4561">
        <ele>22</ele>
        <time>2021-12-14T14:14:13.000Z</time>
      </trkpt>
      <trkpt lat="43.39516" lon="-1.45613">
        <ele>22.1</ele>
        <time>2021-12-14T14:14:14.000Z</time>
      </trkpt>
      <trkpt lat="43.39512" lon="-1.45616">
        <ele>22.2</ele>
        <time>2021-12-14T14:14:15.000Z</time>
      </trkpt>
      <trkpt lat="43.39508" lon="-1.4562">
        <ele>22.3</ele>
        <time>2021-12-14T14:14:16.000Z</time>
      </trkpt>
      <trkpt lat="43.39505" lon="-1.45624">
        <ele>22.5</ele>
        <time>2021-12-14T14:14:17.000Z</time>
      </trkpt>
      <trkpt lat="43.39501" lon="-1.45629">
        <ele>22.7</ele>
        <time>2021-12-14T14:14:18.000Z</time>
      </trkpt>
      <trkpt lat="43.39498" lon="-1.45635">
        <ele>22.9</ele>
        <time>2021-12-14T14:14:19.000Z</time>
      </trkpt>
      <trkpt lat="43.39495" lon="-1.4564">
        <ele>23.2</ele>
        <time>2021-12-14T14:14:20.000Z</time>
      </trkpt>
      <trkpt lat="43.39492" lon="-1.45646">
        <ele>23.4</ele>
        <time>2021-12-14T14:14:21.000Z</time>
      </trkpt>
      <trkpt lat="43.39489" lon="-1.45652">
        <ele>23.5</ele>
        <time>2021-12-14T14:14:22.000Z</time>
      </trkpt>
      <trkpt lat="43.39486" lon="-1.45659">
        <ele>23.5</ele>
        <time>2021-12-14T14:14:23.000Z</time>
      </trkpt>
      <trkpt lat="43.39482" lon="-1.45665">
        <ele>23.4</ele>
        <time>2021-12-14T14:14:24.000Z</time>
      </trkpt>
      <trkpt lat="43.39479" lon="-1.45672">
        <ele>23.2</ele>
        <time>2021-12-14T14:14:25.000Z</time>
      </trkpt>
      <trkpt lat="43.39475" lon="-1.45679">
        <ele>23.1</ele>
        <time>2021-12-14T14:14:26.000Z</time>
      </trkpt>
      <trkpt lat="43.39472" lon="-1.45686">
        <ele>23</ele>
        <time>2021-12-14T14:14:27.000Z</time>
      </trkpt>
      <trkpt lat="43.39469" lon="-1.45693">
        <ele>23.3</ele>
        <time>2021-12-14T14:14:28.000Z</time>
      </trkpt>
      <trkpt lat="43.39465" lon="-1.457">
        <ele>23.6</ele>
        <time>2021-12-14T14:14:29.000Z</time>
      </trkpt>
      <trkpt lat="43.39462" lon="-1.45706">
        <ele>24</ele>
        <time>2021-12-14T14:14:30.000Z</time>
      </trkpt>
      <trkpt lat="43.3946" lon="-1.45712">
        <ele>24.3</ele>
        <time>2021-12-14T14:14:31.000Z</time>
      </trkpt>
      <trkpt lat="43.39457" lon="-1.45719">
        <ele>24.5</ele>
        <time>2021-12-14T14:14:32.000Z</time>
      </trkpt>
      <trkpt lat="43.39454" lon="-1.45725">
        <ele>24.7</ele>
        <time>2021-12-14T14:14:33.000Z</time>
      </trkpt>
      <trkpt lat="43.39452" lon="-1.45732">
        <ele>24.8</ele>
        <time>2021-12-14T14:14:34.000Z</time>
      </trkpt>
      <trkpt lat="43.39449" lon="-1.45738">
        <ele>24.9</ele>
        <time>2021-12-14T14:14:35.000Z</time>
      </trkpt>
      <trkpt lat="43.39447" lon="-1.45744">
        <ele>25</ele>
        <time>2021-12-14T14:14:36.000Z</time>
      </trkpt>
      <trkpt lat="43.39445" lon="-1.4575">
        <ele>25</ele>
        <time>2021-12-14T14:14:37.000Z</time>
      </trkpt>
      <trkpt lat="43.39443" lon="-1.45756">
        <ele>25.3</ele>
        <time>2021-12-14T14:14:38.000Z</time>
      </trkpt>
      <trkpt lat="43.3944" lon="-1.45762">
        <ele>25.7</ele>
        <time>2021-12-14T14:14:39.000Z</time>
      </trkpt>
      <trkpt lat="43.39439" lon="-1.45768">
        <ele>25.9</ele>
        <time>2021-12-14T14:14:40.000Z</time>
      </trkpt>
      <trkpt lat="43.39437" lon="-1.45773">
        <ele>26.2</ele>
        <time>2021-12-14T14:14:41.000Z</time>
      </trkpt>
      <trkpt lat="43.39435" lon="-1.45779">
        <ele>26.4</ele>
        <time>2021-12-14T14:14:42.000Z</time>
      </trkpt>
      <trkpt lat="43.39433" lon="-1.45785">
        <ele>26.6</ele>
        <time>2021-12-14T14:14:43.000Z</time>
      </trkpt>
      <trkpt lat="43.39431" lon="-1.45791">
        <ele>26.7</ele>
        <time>2021-12-14T14:14:44.000Z</time>
      </trkpt>
      <trkpt lat="43.39429" lon="-1.45798">
        <ele>26.9</ele>
        <time>2021-12-14T14:14:45.000Z</time>
      </trkpt>
      <trkpt lat="43.39427" lon="-1.45804">
        <ele>27</ele>
        <time>2021-12-14T14:14:46.000Z</time>
      </trkpt>
      <trkpt lat="43.39426" lon="-1.4581">
        <ele>27</ele>
        <time>2021-12-14T14:14:47.000Z</time>
      </trkpt>
      <trkpt lat="43.39424" lon="-1.45817">
        <ele>27</ele>
        <time>2021-12-14T14:14:48.000Z</time>
      </trkpt>
      <trkpt lat="43.39422" lon="-1.45824">
        <ele>27</ele>
        <time>2021-12-14T14:14:49.000Z</time>
      </trkpt>
      <trkpt lat="43.3942" lon="-1.45831">
        <ele>27</ele>
        <time>2021-12-14T14:14:50.000Z</time>
      </trkpt>
      <trkpt lat="43.39419" lon="-1.45838">
        <ele>27.4</ele>
        <time>2021-12-14T14:14:51.000Z</time>
      </trkpt>
      <trkpt lat="43.39417" lon="-1.45847">
        <ele>28</ele>
        <time>2021-12-14T14:14:52.000Z</time>
      </trkpt>
      <trkpt lat="43.39416" lon="-1.45855">
        <ele>28.7</ele>
        <time>2021-12-14T14:14:53.000Z</time>
      </trkpt>
      <trkpt lat="43.39415" lon="-1.45862">
        <ele>29.3</ele>
        <time>2021-12-14T14:14:54.000Z</time>
      </trkpt>
      <trkpt lat="43.39414" lon="-1.4587">
        <ele>29.6</ele>
        <time>2021-12-14T14:14:55.000Z</time>
      </trkpt>
      <trkpt lat="43.39414" lon="-1.45877">
        <ele>30</ele>
        <time>2021-12-14T14:14:56.000Z</time>
      </trkpt>
      <trkpt lat="43.39414" lon="-1.45885">
        <ele>30.2</ele>
        <time>2021-12-14T14:14:57.000Z</time>
      </trkpt>
      <trkpt lat="43.39414" lon="-1.45892">
        <ele>30.4</ele>
        <time>2021-12-14T14:14:58.000Z</time>
      </trkpt>
      <trkpt lat="43.39415" lon="-1.45899">
        <ele>30.3</ele>
        <time>2021-12-14T14:14:59.000Z</time>
      </trkpt>
      <trkpt lat="43.39416" lon="-1.45906">
        <ele>30.1</ele>
        <time>2021-12-14T14:15:00.000Z</time>
      </trkpt>
      <trkpt lat="43.39418" lon="-1.45912">
        <ele>30.1</ele>
        <time>2021-12-14T14:15:01.000Z</time>
      </trkpt>
      <trkpt lat="43.3942" lon="-1.45918">
        <ele>30.5</ele>
        <time>2021-12-14T14:15:02.000Z</time>
      </trkpt>
      <trkpt lat="43.39422" lon="-1.45923">
        <ele>31.8</ele>
        <time>2021-12-14T14:15:03.000Z</time>
      </trkpt>
      <trkpt lat="43.39425" lon="-1.45927">
        <ele>32.9</ele>
        <time>2021-12-14T14:15:04.000Z</time>
      </trkpt>
      <trkpt lat="43.39428" lon="-1.45931">
        <ele>33.5</ele>
        <time>2021-12-14T14:15:05.000Z</time>
      </trkpt>
      <trkpt lat="43.39431" lon="-1.45934">
        <ele>33.8</ele>
        <time>2021-12-14T14:15:06.000Z</time>
      </trkpt>
      <trkpt lat="43.39435" lon="-1.45936">
        <ele>33.7</ele>
        <time>2021-12-14T14:15:07.000Z</time>
      </trkpt>
      <trkpt lat="43.3944" lon="-1.45937">
        <ele>33.2</ele>
        <time>2021-12-14T14:15:08.000Z</time>
      </trkpt>
      <trkpt lat="43.39444" lon="-1.45935">
        <ele>32.7</ele>
        <time>2021-12-14T14:15:09.000Z</time>
      </trkpt>
      <trkpt lat="43.39446" lon="-1.45932">
        <ele>32.4</ele>
        <time>2021-12-14T14:15:10.000Z</time>
      </trkpt>
      <trkpt lat="43.39447" lon="-1.45928">
        <ele>32.2</ele>
        <time>2021-12-14T14:15:11.000Z</time>
      </trkpt>
      <trkpt lat="43.39446" lon="-1.45923">
        <ele>32.1</ele>
        <time>2021-12-14T14:15:12.000Z</time>
      </trkpt>
      <trkpt lat="43.39444" lon="-1.45919">
        <ele>32.1</ele>
        <time>2021-12-14T14:15:13.000Z</time>
      </trkpt>
      <trkpt lat="43.39441" lon="-1.45913">
        <ele>31.6</ele>
        <time>2021-12-14T14:15:14.000Z</time>
      </trkpt>
      <trkpt lat="43.39438" lon="-1.45908">
        <ele>31.1</ele>
        <time>2021-12-14T14:15:15.000Z</time>
      </trkpt>
      <trkpt lat="43.39435" lon="-1.45902">
        <ele>30.6</ele>
        <time>2021-12-14T14:15:16.000Z</time>
      </trkpt>
      <trkpt lat="43.39431" lon="-1.45896">
        <ele>30.3</ele>
        <time>2021-12-14T14:15:17.000Z</time>
      </trkpt>
      <trkpt lat="43.39427" lon="-1.4589">
        <ele>30</ele>
        <time>2021-12-14T14:15:18.000Z</time>
      </trkpt>
      <trkpt lat="43.39423" lon="-1.45885">
        <ele>29.8</ele>
        <time>2021-12-14T14:15:19.000Z</time>
      </trkpt>
      <trkpt lat="43.39418" lon="-1.45879">
        <ele>29.6</ele>
        <time>2021-12-14T14:15:20.000Z</time>
      </trkpt>
      <trkpt lat="43.39414" lon="-1.45873">
        <ele>29.7</ele>
        <time>2021-12-14T14:15:21.000Z</time>
      </trkpt>
      <trkpt lat="43.3941" lon="-1.45867">
        <ele>30</ele>
        <time>2021-12-14T14:15:22.000Z</time>
      </trkpt>
      <trkpt lat="43.39406" lon="-1.45861">
        <ele>30.2</ele>
        <time>2021-12-14T14:15:23.000Z</time>
      </trkpt>
      <trkpt lat="43.39402" lon="-1.45854">
        <ele>30.3</ele>
        <time>2021-12-14T14:15:24.000Z</time>
      </trkpt>
      <trkpt lat="43.39398" lon="-1.45848">
        <ele>30.4</ele>
        <time>2021-12-14T14:15:25.000Z</time>
      </trkpt>
      <trkpt lat="43.39394" lon="-1.45842">
        <ele>30.7</ele>
        <time>2021-12-14T14:15:26.000Z</time>
      </trkpt>
      <trkpt lat="43.39389" lon="-1.45835">
        <ele>31</ele>
        <time>2021-12-14T14:15:27.000Z</time>
      </trkpt>
      <trkpt lat="43.39385" lon="-1.45829">
        <ele>31.2</ele>
        <time>2021-12-14T14:15:28.000Z</time>
      </trkpt>
      <trkpt lat="43.39381" lon="-1.45822">
        <ele>31.4</ele>
        <time>2021-12-14T14:15:29.000Z</time>
      </trkpt>
      <trkpt lat="43.39376" lon="-1.45816">
        <ele>31.5</ele>
        <time>2021-12-14T14:15:30.000Z</time>
      </trkpt>
      <trkpt lat="43.39372" lon="-1.4581">
        <ele>31.5</ele>
        <time>2021-12-14T14:15:31.000Z</time>
      </trkpt>
      <trkpt lat="43.39367" lon="-1.45803">
        <ele>31.5</ele>
        <time>2021-12-14T14:15:32.000Z</time>
      </trkpt>
      <trkpt lat="43.39363" lon="-1.45797">
        <ele>31.6</ele>
        <time>2021-12-14T14:15:33.000Z</time>
      </trkpt>
      <trkpt lat="43.39359" lon="-1.45791">
        <ele>31.7</ele>
        <time>2021-12-14T14:15:34.000Z</time>
      </trkpt>
      <trkpt lat="43.39355" lon="-1.45784">
        <ele>31.7</ele>
        <time>2021-12-14T14:15:35.000Z</time>
      </trkpt>
      <trkpt lat="43.3935" lon="-1.45777">
        <ele>31.7</ele>
        <time>2021-12-14T14:15:36.000Z</time>
      </trkpt>
      <trkpt lat="43.39346" lon="-1.45771">
        <ele>31.6</ele>
        <time>2021-12-14T14:15:37.000Z</time>
      </trkpt>
      <trkpt lat="43.39342" lon="-1.45764">
        <ele>31.4</ele>
        <time>2021-12-14T14:15:38.000Z</time>
      </trkpt>
      <trkpt lat="43.39338" lon="-1.45757">
        <ele>31.2</ele>
        <time>2021-12-14T14:15:39.000Z</time>
      </trkpt>
      <trkpt lat="43.39334" lon="-1.45751">
        <ele>31</ele>
        <time>2021-12-14T14:15:40.000Z</time>
      </trkpt>
      <trkpt lat="43.3933" lon="-1.45744">
        <ele>30.9</ele>
        <time>2021-12-14T14:15:41.000Z</time>
      </trkpt>
      <trkpt lat="43.39326" lon="-1.45737">
        <ele>30.8</ele>
        <time>2021-12-14T14:15:42.000Z</time>
      </trkpt>
      <trkpt lat="43.39322" lon="-1.45731">
        <ele>30.6</ele>
        <time>2021-12-14T14:15:43.000Z</time>
      </trkpt>
      <trkpt lat="43.39318" lon="-1.45724">
        <ele>30.3</ele>
        <time>2021-12-14T14:15:44.000Z</time>
      </trkpt>
      <trkpt lat="43.39314" lon="-1.45717">
        <ele>30.2</ele>
        <time>2021-12-14T14:15:45.000Z</time>
      </trkpt>
      <trkpt lat="43.3931" lon="-1.45711">
        <ele>30.2</ele>
        <time>2021-12-14T14:15:46.000Z</time>
      </trkpt>
      <trkpt lat="43.39305" lon="-1.45704">
        <ele>30.4</ele>
        <time>2021-12-14T14:15:47.000Z</time>
      </trkpt>
      <trkpt lat="43.39301" lon="-1.45698">
        <ele>30.6</ele>
        <time>2021-12-14T14:15:48.000Z</time>
      </trkpt>
      <trkpt lat="43.39296" lon="-1.45691">
        <ele>30.8</ele>
        <time>2021-12-14T14:15:49.000Z</time>
      </trkpt>
      <trkpt lat="43.39292" lon="-1.45685">
        <ele>30.8</ele>
        <time>2021-12-14T14:15:50.000Z</time>
      </trkpt>
      <trkpt lat="43.39288" lon="-1.45678">
        <ele>30.8</ele>
        <time>2021-12-14T14:15:51.000Z</time>
      </trkpt>
      <trkpt lat="43.39283" lon="-1.45672">
        <ele>30.8</ele>
        <time>2021-12-14T14:15:52.000Z</time>
      </trkpt>
      <trkpt lat="43.39279" lon="-1.45665">
        <ele>30.8</ele>
        <time>2021-12-14T14:15:53.000Z</time>
      </trkpt>
      <trkpt lat="43.39274" lon="-1.45658">
        <ele>31</ele>
        <time>2021-12-14T14:15:54.000Z</time>
      </trkpt>
      <trkpt lat="43.39269" lon="-1.45652">
        <ele>31.1</ele>
        <time>2021-12-14T14:15:55.000Z</time>
      </trkpt>
      <trkpt lat="43.39265" lon="-1.45646">
        <ele>31.2</ele>
        <time>2021-12-14T14:15:56.000Z</time>
      </trkpt>
      <trkpt lat="43.3926" lon="-1.4564">
        <ele>31.3</ele>
        <time>2021-12-14T14:15:57.000Z</time>
      </trkpt>
      <trkpt lat="43.39255" lon="-1.45633">
        <ele>31.4</ele>
        <time>2021-12-14T14:15:58.000Z</time>
      </trkpt>
      <trkpt lat="43.3925" lon="-1.45627">
        <ele>31.6</ele>
        <time>2021-12-14T14:15:59.000Z</time>
      </trkpt>
      <trkpt lat="43.39245" lon="-1.45621">
        <ele>31.5</ele>
        <time>2021-12-14T14:16:00.000Z</time>
      </trkpt>
      <trkpt lat="43.3924" lon="-1.45615">
        <ele>31.5</ele>
        <time>2021-12-14T14:16:01.000Z</time>
      </trkpt>
      <trkpt lat="43.39235" lon="-1.4561">
        <ele>31.5</ele>
        <time>2021-12-14T14:16:02.000Z</time>
      </trkpt>
      <trkpt lat="43.3923" lon="-1.45604">
        <ele>31.5</ele>
        <time>2021-12-14T14:16:03.000Z</time>
      </trkpt>
      <trkpt lat="43.39224" lon="-1.45599">
        <ele>31.5</ele>
        <time>2021-12-14T14:16:04.000Z</time>
      </trkpt>
      <trkpt lat="43.39219" lon="-1.45593">
        <ele>31.6</ele>
        <time>2021-12-14T14:16:05.000Z</time>
      </trkpt>
      <trkpt lat="43.39213" lon="-1.45588">
        <ele>31.7</ele>
        <time>2021-12-14T14:16:06.000Z</time>
      </trkpt>
      <trkpt lat="43.39208" lon="-1.45583">
        <ele>32</ele>
        <time>2021-12-14T14:16:07.000Z</time>
      </trkpt>
      <trkpt lat="43.39203" lon="-1.45578">
        <ele>32.2</ele>
        <time>2021-12-14T14:16:08.000Z</time>
      </trkpt>
      <trkpt lat="43.39198" lon="-1.45573">
        <ele>32.4</ele>
        <time>2021-12-14T14:16:09.000Z</time>
      </trkpt>
      <trkpt lat="43.39193" lon="-1.45568">
        <ele>32.5</ele>
        <time>2021-12-14T14:16:10.000Z</time>
      </trkpt>
      <trkpt lat="43.39188" lon="-1.45563">
        <ele>32.5</ele>
        <time>2021-12-14T14:16:11.000Z</time>
      </trkpt>
      <trkpt lat="43.39184" lon="-1.45557">
        <ele>32.5</ele>
        <time>2021-12-14T14:16:12.000Z</time>
      </trkpt>
      <trkpt lat="43.39179" lon="-1.45552">
        <ele>32.5</ele>
        <time>2021-12-14T14:16:13.000Z</time>
      </trkpt>
      <trkpt lat="43.39174" lon="-1.45547">
        <ele>32.6</ele>
        <time>2021-12-14T14:16:14.000Z</time>
      </trkpt>
      <trkpt lat="43.39169" lon="-1.45542">
        <ele>32.8</ele>
        <time>2021-12-14T14:16:15.000Z</time>
      </trkpt>
      <trkpt lat="43.39164" lon="-1.45536">
        <ele>33.2</ele>
        <time>2021-12-14T14:16:16.000Z</time>
      </trkpt>
      <trkpt lat="43.3916" lon="-1.4553">
        <ele>33.5</ele>
        <time>2021-12-14T14:16:17.000Z</time>
      </trkpt>
      <trkpt lat="43.39155" lon="-1.45525">
        <ele>33.7</ele>
        <time>2021-12-14T14:16:18.000Z</time>
      </trkpt>
      <trkpt lat="43.39151" lon="-1.45519">
        <ele>33.8</ele>
        <time>2021-12-14T14:16:19.000Z</time>
      </trkpt>
      <trkpt lat="43.39147" lon="-1.45512">
        <ele>33.9</ele>
        <time>2021-12-14T14:16:20.000Z</time>
      </trkpt>
      <trkpt lat="43.39142" lon="-1.45506">
        <ele>34</ele>
        <time>2021-12-14T14:16:21.000Z</time>
      </trkpt>
      <trkpt lat="43.39139" lon="-1.45499">
        <ele>34</ele>
        <time>2021-12-14T14:16:22.000Z</time>
      </trkpt>
      <trkpt lat="43.39135" lon="-1.45493">
        <ele>34.5</ele>
        <time>2021-12-14T14:16:23.000Z</time>
      </trkpt>
      <trkpt lat="43.39131" lon="-1.45486">
        <ele>34.8</ele>
        <time>2021-12-14T14:16:24.000Z</time>
      </trkpt>
      <trkpt lat="43.39127" lon="-1.45478">
        <ele>35</ele>
        <time>2021-12-14T14:16:25.000Z</time>
      </trkpt>
      <trkpt lat="43.39124" lon="-1.45471">
        <ele>34.9</ele>
        <time>2021-12-14T14:16:26.000Z</time>
      </trkpt>
      <trkpt lat="43.39121" lon="-1.45463">
        <ele>34.5</ele>
        <time>2021-12-14T14:16:27.000Z</time>
      </trkpt>
      <trkpt lat="43.39118" lon="-1.45455">
        <ele>34.2</ele>
        <time>2021-12-14T14:16:28.000Z</time>
      </trkpt>
      <trkpt lat="43.39114" lon="-1.45447">
        <ele>33.9</ele>
        <time>2021-12-14T14:16:29.000Z</time>
      </trkpt>
      <trkpt lat="43.39111" lon="-1.4544">
        <ele>33.8</ele>
        <time>2021-12-14T14:16:30.000Z</time>
      </trkpt>
      <trkpt lat="43.39108" lon="-1.45432">
        <ele>33.8</ele>
        <time>2021-12-14T14:16:31.000Z</time>
      </trkpt>
      <trkpt lat="43.39105" lon="-1.45423">
        <ele>33.7</ele>
        <time>2021-12-14T14:16:32.000Z</time>
      </trkpt>
      <trkpt lat="43.39102" lon="-1.45415">
        <ele>33.5</ele>
        <time>2021-12-14T14:16:33.000Z</time>
      </trkpt>
      <trkpt lat="43.391" lon="-1.45406">
        <ele>33.3</ele>
        <time>2021-12-14T14:16:34.000Z</time>
      </trkpt>
      <trkpt lat="43.39097" lon="-1.45397">
        <ele>33</ele>
        <time>2021-12-14T14:16:35.000Z</time>
      </trkpt>
      <trkpt lat="43.39094" lon="-1.45389">
        <ele>32.6</ele>
        <time>2021-12-14T14:16:36.000Z</time>
      </trkpt>
      <trkpt lat="43.39091" lon="-1.4538">
        <ele>32.4</ele>
        <time>2021-12-14T14:16:37.000Z</time>
      </trkpt>
      <trkpt lat="43.39088" lon="-1.45371">
        <ele>32.2</ele>
        <time>2021-12-14T14:16:38.000Z</time>
      </trkpt>
      <trkpt lat="43.39084" lon="-1.45361">
        <ele>32</ele>
        <time>2021-12-14T14:16:39.000Z</time>
      </trkpt>
      <trkpt lat="43.3908" lon="-1.45352">
        <ele>30.9</ele>
        <time>2021-12-14T14:16:40.000Z</time>
      </trkpt>
      <trkpt lat="43.39076" lon="-1.45343">
        <ele>30</ele>
        <time>2021-12-14T14:16:41.000Z</time>
      </trkpt>
      <trkpt lat="43.39071" lon="-1.45333">
        <ele>29.1</ele>
        <time>2021-12-14T14:16:42.000Z</time>
      </trkpt>
      <trkpt lat="43.39067" lon="-1.45324">
        <ele>28.5</ele>
        <time>2021-12-14T14:16:43.000Z</time>
      </trkpt>
      <trkpt lat="43.39062" lon="-1.45314">
        <ele>28.1</ele>
        <time>2021-12-14T14:16:44.000Z</time>
      </trkpt>
      <trkpt lat="43.39057" lon="-1.45305">
        <ele>28</ele>
        <time>2021-12-14T14:16:45.000Z</time>
      </trkpt>
      <trkpt lat="43.39051" lon="-1.45296">
        <ele>27.6</ele>
        <time>2021-12-14T14:16:46.000Z</time>
      </trkpt>
      <trkpt lat="43.39045" lon="-1.45287">
        <ele>27.1</ele>
        <time>2021-12-14T14:16:47.000Z</time>
      </trkpt>
      <trkpt lat="43.39039" lon="-1.45278">
        <ele>26.6</ele>
        <time>2021-12-14T14:16:48.000Z</time>
      </trkpt>
      <trkpt lat="43.39033" lon="-1.45271">
        <ele>26.3</ele>
        <time>2021-12-14T14:16:49.000Z</time>
      </trkpt>
      <trkpt lat="43.39026" lon="-1.45265">
        <ele>26.1</ele>
        <time>2021-12-14T14:16:50.000Z</time>
      </trkpt>
      <trkpt lat="43.39019" lon="-1.45259">
        <ele>25.7</ele>
        <time>2021-12-14T14:16:51.000Z</time>
      </trkpt>
      <trkpt lat="43.39012" lon="-1.45253">
        <ele>24.9</ele>
        <time>2021-12-14T14:16:52.000Z</time>
      </trkpt>
      <trkpt lat="43.39006" lon="-1.45246">
        <ele>24.1</ele>
        <time>2021-12-14T14:16:53.000Z</time>
      </trkpt>
      <trkpt lat="43.39" lon="-1.45238">
        <ele>23.6</ele>
        <time>2021-12-14T14:16:54.000Z</time>
      </trkpt>
      <trkpt lat="43.38996" lon="-1.4523">
        <ele>23.8</ele>
        <time>2021-12-14T14:16:55.000Z</time>
      </trkpt>
      <trkpt lat="43.38991" lon="-1.45221">
        <ele>24.2</ele>
        <time>2021-12-14T14:16:56.000Z</time>
      </trkpt>
      <trkpt lat="43.38984" lon="-1.45213">
        <ele>24</ele>
        <time>2021-12-14T14:16:57.000Z</time>
      </trkpt>
      <trkpt lat="43.38978" lon="-1.45206">
        <ele>23.2</ele>
        <time>2021-12-14T14:16:58.000Z</time>
      </trkpt>
      <trkpt lat="43.3897" lon="-1.45199">
        <ele>22.1</ele>
        <time>2021-12-14T14:16:59.000Z</time>
      </trkpt>
      <trkpt lat="43.38963" lon="-1.45192">
        <ele>21.6</ele>
        <time>2021-12-14T14:17:00.000Z</time>
      </trkpt>
      <trkpt lat="43.38954" lon="-1.45186">
        <ele>21.3</ele>
        <time>2021-12-14T14:17:01.000Z</time>
      </trkpt>
      <trkpt lat="43.38945" lon="-1.45181">
        <ele>21</ele>
        <time>2021-12-14T14:17:02.000Z</time>
      </trkpt>
      <trkpt lat="43.38936" lon="-1.45176">
        <ele>19.7</ele>
        <time>2021-12-14T14:17:03.000Z</time>
      </trkpt>
      <trkpt lat="43.38927" lon="-1.45171">
        <ele>18.1</ele>
        <time>2021-12-14T14:17:04.000Z</time>
      </trkpt>
      <trkpt lat="43.38917" lon="-1.45167">
        <ele>16.2</ele>
        <time>2021-12-14T14:17:05.000Z</time>
      </trkpt>
      <trkpt lat="43.38908" lon="-1.45163">
        <ele>15.6</ele>
        <time>2021-12-14T14:17:06.000Z</time>
      </trkpt>
      <trkpt lat="43.38898" lon="-1.45159">
        <ele>15.3</ele>
        <time>2021-12-14T14:17:07.000Z</time>
      </trkpt>
      <trkpt lat="43.38888" lon="-1.45155">
        <ele>15.3</ele>
        <time>2021-12-14T14:17:08.000Z</time>
      </trkpt>
      <trkpt lat="43.38879" lon="-1.45152">
        <ele>15.7</ele>
        <time>2021-12-14T14:17:09.000Z</time>
      </trkpt>
      <trkpt lat="43.3887" lon="-1.45148">
        <ele>15.4</ele>
        <time>2021-12-14T14:17:10.000Z</time>
      </trkpt>
      <trkpt lat="43.3886" lon="-1.45144">
        <ele>14.7</ele>
        <time>2021-12-14T14:17:11.000Z</time>
      </trkpt>
      <trkpt lat="43.38851" lon="-1.4514">
        <ele>14</ele>
        <time>2021-12-14T14:17:12.000Z</time>
      </trkpt>
      <trkpt lat="43.38842" lon="-1.45135">
        <ele>13.9</ele>
        <time>2021-12-14T14:17:13.000Z</time>
      </trkpt>
      <trkpt lat="43.38833" lon="-1.45131">
        <ele>13.8</ele>
        <time>2021-12-14T14:17:14.000Z</time>
      </trkpt>
      <trkpt lat="43.38824" lon="-1.45126">
        <ele>14.3</ele>
        <time>2021-12-14T14:17:15.000Z</time>
      </trkpt>
      <trkpt lat="43.38816" lon="-1.45121">
        <ele>14.2</ele>
        <time>2021-12-14T14:17:16.000Z</time>
      </trkpt>
      <trkpt lat="43.38808" lon="-1.45116">
        <ele>13.4</ele>
        <time>2021-12-14T14:17:17.000Z</time>
      </trkpt>
      <trkpt lat="43.38801" lon="-1.45111">
        <ele>12.4</ele>
        <time>2021-12-14T14:17:18.000Z</time>
      </trkpt>
      <trkpt lat="43.38793" lon="-1.45106">
        <ele>12.5</ele>
        <time>2021-12-14T14:17:19.000Z</time>
      </trkpt>
      <trkpt lat="43.38786" lon="-1.45101">
        <ele>12.7</ele>
        <time>2021-12-14T14:17:20.000Z</time>
      </trkpt>
      <trkpt lat="43.38779" lon="-1.45096">
        <ele>12.8</ele>
        <time>2021-12-14T14:17:21.000Z</time>
      </trkpt>
      <trkpt lat="43.38773" lon="-1.45091">
        <ele>12.6</ele>
        <time>2021-12-14T14:17:22.000Z</time>
      </trkpt>
      <trkpt lat="43.38767" lon="-1.45086">
        <ele>12.2</ele>
        <time>2021-12-14T14:17:23.000Z</time>
      </trkpt>
      <trkpt lat="43.38761" lon="-1.45081">
        <ele>12</ele>
        <time>2021-12-14T14:17:24.000Z</time>
      </trkpt>
      <trkpt lat="43.38755" lon="-1.45076">
        <ele>11.9</ele>
        <time>2021-12-14T14:17:25.000Z</time>
      </trkpt>
      <trkpt lat="43.3875" lon="-1.4507">
        <ele>12</ele>
        <time>2021-12-14T14:17:26.000Z</time>
      </trkpt>
      <trkpt lat="43.38745" lon="-1.45065">
        <ele>12.4</ele>
        <time>2021-12-14T14:17:27.000Z</time>
      </trkpt>
      <trkpt lat="43.3874" lon="-1.45059">
        <ele>12.6</ele>
        <time>2021-12-14T14:17:28.000Z</time>
      </trkpt>
      <trkpt lat="43.38734" lon="-1.45054">
        <ele>12.5</ele>
        <time>2021-12-14T14:17:29.000Z</time>
      </trkpt>
      <trkpt lat="43.38729" lon="-1.45048">
        <ele>12.5</ele>
        <time>2021-12-14T14:17:30.000Z</time>
      </trkpt>
      <trkpt lat="43.38724" lon="-1.45043">
        <ele>12.5</ele>
        <time>2021-12-14T14:17:31.000Z</time>
      </trkpt>
      <trkpt lat="43.38719" lon="-1.45037">
        <ele>12.7</ele>
        <time>2021-12-14T14:17:32.000Z</time>
      </trkpt>
      <trkpt lat="43.38714" lon="-1.45031">
        <ele>12.9</ele>
        <time>2021-12-14T14:17:33.000Z</time>
      </trkpt>
      <trkpt lat="43.38709" lon="-1.45026">
        <ele>12.8</ele>
        <time>2021-12-14T14:17:34.000Z</time>
      </trkpt>
      <trkpt lat="43.38704" lon="-1.4502">
        <ele>12.8</ele>
        <time>2021-12-14T14:17:35.000Z</time>
      </trkpt>
      <trkpt lat="43.38699" lon="-1.45014">
        <ele>12.7</ele>
        <time>2021-12-14T14:17:36.000Z</time>
      </trkpt>
      <trkpt lat="43.38693" lon="-1.45008">
        <ele>12.7</ele>
        <time>2021-12-14T14:17:37.000Z</time>
      </trkpt>
      <trkpt lat="43.38689" lon="-1.45002">
        <ele>12.4</ele>
        <time>2021-12-14T14:17:38.000Z</time>
      </trkpt>
      <trkpt lat="43.38684" lon="-1.44997">
        <ele>12.2</ele>
        <time>2021-12-14T14:17:39.000Z</time>
      </trkpt>
      <trkpt lat="43.38679" lon="-1.44991">
        <ele>12.1</ele>
        <time>2021-12-14T14:17:40.000Z</time>
      </trkpt>
      <trkpt lat="43.38675" lon="-1.44985">
        <ele>12</ele>
        <time>2021-12-14T14:17:41.000Z</time>
      </trkpt>
      <trkpt lat="43.38671" lon="-1.44979">
        <ele>12</ele>
        <time>2021-12-14T14:17:42.000Z</time>
      </trkpt>
      <trkpt lat="43.38666" lon="-1.44973">
        <ele>12.1</ele>
        <time>2021-12-14T14:17:43.000Z</time>
      </trkpt>
      <trkpt lat="43.38662" lon="-1.44967">
        <ele>12.3</ele>
        <time>2021-12-14T14:17:44.000Z</time>
      </trkpt>
      <trkpt lat="43.38657" lon="-1.44961">
        <ele>12.3</ele>
        <time>2021-12-14T14:17:45.000Z</time>
      </trkpt>
      <trkpt lat="43.38652" lon="-1.44955">
        <ele>12.2</ele>
        <time>2021-12-14T14:17:46.000Z</time>
      </trkpt>
      <trkpt lat="43.38648" lon="-1.44949">
        <ele>11.9</ele>
        <time>2021-12-14T14:17:47.000Z</time>
      </trkpt>
      <trkpt lat="43.38643" lon="-1.44942">
        <ele>11.6</ele>
        <time>2021-12-14T14:17:48.000Z</time>
      </trkpt>
      <trkpt lat="43.38639" lon="-1.44936">
        <ele>11.7</ele>
        <time>2021-12-14T14:17:49.000Z</time>
      </trkpt>
      <trkpt lat="43.38634" lon="-1.4493">
        <ele>12.2</ele>
        <time>2021-12-14T14:17:50.000Z</time>
      </trkpt>
      <trkpt lat="43.38629" lon="-1.44924">
        <ele>12.4</ele>
        <time>2021-12-14T14:17:51.000Z</time>
      </trkpt>
      <trkpt lat="43.38625" lon="-1.44917">
        <ele>12.1</ele>
        <time>2021-12-14T14:17:52.000Z</time>
      </trkpt>
      <trkpt lat="43.3862" lon="-1.44911">
        <ele>12.2</ele>
        <time>2021-12-14T14:17:53.000Z</time>
      </trkpt>
      <trkpt lat="43.38615" lon="-1.44905">
        <ele>12.3</ele>
        <time>2021-12-14T14:17:54.000Z</time>
      </trkpt>
      <trkpt lat="43.38611" lon="-1.44898">
        <ele>12.3</ele>
        <time>2021-12-14T14:17:55.000Z</time>
      </trkpt>
      <trkpt lat="43.38608" lon="-1.44892">
        <ele>12.9</ele>
        <time>2021-12-14T14:17:56.000Z</time>
      </trkpt>
      <trkpt lat="43.38603" lon="-1.44885">
        <ele>13.1</ele>
        <time>2021-12-14T14:17:57.000Z</time>
      </trkpt>
      <trkpt lat="43.38599" lon="-1.44878">
        <ele>13.1</ele>
        <time>2021-12-14T14:17:58.000Z</time>
      </trkpt>
      <trkpt lat="43.38595" lon="-1.44871">
        <ele>12.7</ele>
        <time>2021-12-14T14:17:59.000Z</time>
      </trkpt>
      <trkpt lat="43.38592" lon="-1.44863">
        <ele>12</ele>
        <time>2021-12-14T14:18:00.000Z</time>
      </trkpt>
      <trkpt lat="43.38589" lon="-1.44856">
        <ele>11.7</ele>
        <time>2021-12-14T14:18:01.000Z</time>
      </trkpt>
      <trkpt lat="43.38586" lon="-1.44848">
        <ele>11.8</ele>
        <time>2021-12-14T14:18:02.000Z</time>
      </trkpt>
      <trkpt lat="43.38583" lon="-1.44841">
        <ele>12</ele>
        <time>2021-12-14T14:18:03.000Z</time>
      </trkpt>
      <trkpt lat="43.3858" lon="-1.44834">
        <ele>12.1</ele>
        <time>2021-12-14T14:18:04.000Z</time>
      </trkpt>
      <trkpt lat="43.38576" lon="-1.44827">
        <ele>11.8</ele>
        <time>2021-12-14T14:18:05.000Z</time>
      </trkpt>
      <trkpt lat="43.38573" lon="-1.44819">
        <ele>11.6</ele>
        <time>2021-12-14T14:18:06.000Z</time>
      </trkpt>
      <trkpt lat="43.3857" lon="-1.44812">
        <ele>11.3</ele>
        <time>2021-12-14T14:18:07.000Z</time>
      </trkpt>
      <trkpt lat="43.38567" lon="-1.44804">
        <ele>11.2</ele>
        <time>2021-12-14T14:18:08.000Z</time>
      </trkpt>
      <trkpt lat="43.38563" lon="-1.44797">
        <ele>11.4</ele>
        <time>2021-12-14T14:18:09.000Z</time>
      </trkpt>
      <trkpt lat="43.3856" lon="-1.44789">
        <ele>11.6</ele>
        <time>2021-12-14T14:18:10.000Z</time>
      </trkpt>
      <trkpt lat="43.38556" lon="-1.44782">
        <ele>11.9</ele>
        <time>2021-12-14T14:18:11.000Z</time>
      </trkpt>
      <trkpt lat="43.38553" lon="-1.44774">
        <ele>11.9</ele>
        <time>2021-12-14T14:18:12.000Z</time>
      </trkpt>
      <trkpt lat="43.38549" lon="-1.44767">
        <ele>11.5</ele>
        <time>2021-12-14T14:18:13.000Z</time>
      </trkpt>
      <trkpt lat="43.38546" lon="-1.4476">
        <ele>11</ele>
        <time>2021-12-14T14:18:14.000Z</time>
      </trkpt>
      <trkpt lat="43.38542" lon="-1.44752">
        <ele>10.7</ele>
        <time>2021-12-14T14:18:15.000Z</time>
      </trkpt>
      <trkpt lat="43.38539" lon="-1.44745">
        <ele>10.6</ele>
        <time>2021-12-14T14:18:16.000Z</time>
      </trkpt>
      <trkpt lat="43.38536" lon="-1.44738">
        <ele>10.9</ele>
        <time>2021-12-14T14:18:17.000Z</time>
      </trkpt>
      <trkpt lat="43.38533" lon="-1.44731">
        <ele>11.3</ele>
        <time>2021-12-14T14:18:18.000Z</time>
      </trkpt>
      <trkpt lat="43.3853" lon="-1.44723">
        <ele>11.8</ele>
        <time>2021-12-14T14:18:19.000Z</time>
      </trkpt>
      <trkpt lat="43.38527" lon="-1.44716">
        <ele>11.8</ele>
        <time>2021-12-14T14:18:20.000Z</time>
      </trkpt>
      <trkpt lat="43.38524" lon="-1.44708">
        <ele>11.4</ele>
        <time>2021-12-14T14:18:21.000Z</time>
      </trkpt>
      <trkpt lat="43.3852" lon="-1.44701">
        <ele>11.2</ele>
        <time>2021-12-14T14:18:22.000Z</time>
      </trkpt>
      <trkpt lat="43.38516" lon="-1.44693">
        <ele>11</ele>
        <time>2021-12-14T14:18:23.000Z</time>
      </trkpt>
      <trkpt lat="43.38513" lon="-1.44686">
        <ele>11</ele>
        <time>2021-12-14T14:18:24.000Z</time>
      </trkpt>
      <trkpt lat="43.38509" lon="-1.44678">
        <ele>11.2</ele>
        <time>2021-12-14T14:18:25.000Z</time>
      </trkpt>
      <trkpt lat="43.38505" lon="-1.44671">
        <ele>11.5</ele>
        <time>2021-12-14T14:18:26.000Z</time>
      </trkpt>
      <trkpt lat="43.38502" lon="-1.44663">
        <ele>11.9</ele>
        <time>2021-12-14T14:18:27.000Z</time>
      </trkpt>
      <trkpt lat="43.38498" lon="-1.44656">
        <ele>11.9</ele>
        <time>2021-12-14T14:18:28.000Z</time>
      </trkpt>
      <trkpt lat="43.38495" lon="-1.44648">
        <ele>11.7</ele>
        <time>2021-12-14T14:18:29.000Z</time>
      </trkpt>
      <trkpt lat="43.38491" lon="-1.44641">
        <ele>11.7</ele>
        <time>2021-12-14T14:18:30.000Z</time>
      </trkpt>
      <trkpt lat="43.38488" lon="-1.44633">
        <ele>11.3</ele>
        <time>2021-12-14T14:18:31.000Z</time>
      </trkpt>
      <trkpt lat="43.38485" lon="-1.44626">
        <ele>11</ele>
        <time>2021-12-14T14:18:32.000Z</time>
      </trkpt>
      <trkpt lat="43.38482" lon="-1.44618">
        <ele>10.8</ele>
        <time>2021-12-14T14:18:33.000Z</time>
      </trkpt>
      <trkpt lat="43.38479" lon="-1.44611">
        <ele>10.8</ele>
        <time>2021-12-14T14:18:34.000Z</time>
      </trkpt>
      <trkpt lat="43.38475" lon="-1.44603">
        <ele>11.1</ele>
        <time>2021-12-14T14:18:35.000Z</time>
      </trkpt>
      <trkpt lat="43.38472" lon="-1.44596">
        <ele>11.5</ele>
        <time>2021-12-14T14:18:36.000Z</time>
      </trkpt>
      <trkpt lat="43.38469" lon="-1.44589">
        <ele>11.7</ele>
        <time>2021-12-14T14:18:37.000Z</time>
      </trkpt>
      <trkpt lat="43.38464" lon="-1.44582">
        <ele>11.7</ele>
        <time>2021-12-14T14:18:38.000Z</time>
      </trkpt>
      <trkpt lat="43.38459" lon="-1.44577">
        <ele>11.4</ele>
        <time>2021-12-14T14:18:39.000Z</time>
      </trkpt>
      <trkpt lat="43.38454" lon="-1.44573">
        <ele>11.3</ele>
        <time>2021-12-14T14:18:40.000Z</time>
      </trkpt>
      <trkpt lat="43.38448" lon="-1.44571">
        <ele>11.4</ele>
        <time>2021-12-14T14:18:41.000Z</time>
      </trkpt>
      <trkpt lat="43.38442" lon="-1.4457">
        <ele>11.5</ele>
        <time>2021-12-14T14:18:42.000Z</time>
      </trkpt>
      <trkpt lat="43.38435" lon="-1.4457">
        <ele>11.5</ele>
        <time>2021-12-14T14:18:43.000Z</time>
      </trkpt>
      <trkpt lat="43.38429" lon="-1.44571">
        <ele>11.4</ele>
        <time>2021-12-14T14:18:44.000Z</time>
      </trkpt>
      <trkpt lat="43.38423" lon="-1.44573">
        <ele>11.4</ele>
        <time>2021-12-14T14:18:45.000Z</time>
      </trkpt>
      <trkpt lat="43.38417" lon="-1.44575">
        <ele>11.3</ele>
        <time>2021-12-14T14:18:46.000Z</time>
      </trkpt>
      <trkpt lat="43.38411" lon="-1.44576">
        <ele>11.2</ele>
        <time>2021-12-14T14:18:47.000Z</time>
      </trkpt>
      <trkpt lat="43.38404" lon="-1.44577">
        <ele>11.1</ele>
        <time>2021-12-14T14:18:48.000Z</time>
      </trkpt>
      <trkpt lat="43.38398" lon="-1.44577">
        <ele>11.1</ele>
        <time>2021-12-14T14:18:49.000Z</time>
      </trkpt>
      <trkpt lat="43.38392" lon="-1.44577">
        <ele>11</ele>
        <time>2021-12-14T14:18:50.000Z</time>
      </trkpt>
      <trkpt lat="43.38385" lon="-1.44576">
        <ele>11.1</ele>
        <time>2021-12-14T14:18:51.000Z</time>
      </trkpt>
      <trkpt lat="43.38379" lon="-1.44576">
        <ele>11.4</ele>
        <time>2021-12-14T14:18:52.000Z</time>
      </trkpt>
      <trkpt lat="43.38372" lon="-1.44574">
        <ele>11.6</ele>
        <time>2021-12-14T14:18:53.000Z</time>
      </trkpt>
      <trkpt lat="43.38367" lon="-1.4457">
        <ele>11.8</ele>
        <time>2021-12-14T14:18:54.000Z</time>
      </trkpt>
      <trkpt lat="43.38362" lon="-1.44566">
        <ele>12</ele>
        <time>2021-12-14T14:18:55.000Z</time>
      </trkpt>
      <trkpt lat="43.38357" lon="-1.44561">
        <ele>11.9</ele>
        <time>2021-12-14T14:18:56.000Z</time>
      </trkpt>
      <trkpt lat="43.38353" lon="-1.44555">
        <ele>11.7</ele>
        <time>2021-12-14T14:18:57.000Z</time>
      </trkpt>
      <trkpt lat="43.38349" lon="-1.44548">
        <ele>11.5</ele>
        <time>2021-12-14T14:18:58.000Z</time>
      </trkpt>
      <trkpt lat="43.38345" lon="-1.44541">
        <ele>11.5</ele>
        <time>2021-12-14T14:18:59.000Z</time>
      </trkpt>
      <trkpt lat="43.38342" lon="-1.44533">
        <ele>11.6</ele>
        <time>2021-12-14T14:19:00.000Z</time>
      </trkpt>
      <trkpt lat="43.38338" lon="-1.44525">
        <ele>11.8</ele>
        <time>2021-12-14T14:19:01.000Z</time>
      </trkpt>
      <trkpt lat="43.38335" lon="-1.44518">
        <ele>12</ele>
        <time>2021-12-14T14:19:02.000Z</time>
      </trkpt>
      <trkpt lat="43.38331" lon="-1.4451">
        <ele>12.4</ele>
        <time>2021-12-14T14:19:03.000Z</time>
      </trkpt>
      <trkpt lat="43.38328" lon="-1.44503">
        <ele>13.1</ele>
        <time>2021-12-14T14:19:04.000Z</time>
      </trkpt>
      <trkpt lat="43.38324" lon="-1.44496">
        <ele>13.8</ele>
        <time>2021-12-14T14:19:05.000Z</time>
      </trkpt>
      <trkpt lat="43.38321" lon="-1.44488">
        <ele>14.1</ele>
        <time>2021-12-14T14:19:06.000Z</time>
      </trkpt>
      <trkpt lat="43.38317" lon="-1.44481">
        <ele>14.3</ele>
        <time>2021-12-14T14:19:07.000Z</time>
      </trkpt>
      <trkpt lat="43.38314" lon="-1.44475">
        <ele>14.3</ele>
        <time>2021-12-14T14:19:08.000Z</time>
      </trkpt>
      <trkpt lat="43.3831" lon="-1.44468">
        <ele>14.2</ele>
        <time>2021-12-14T14:19:09.000Z</time>
      </trkpt>
      <trkpt lat="43.38307" lon="-1.44462">
        <ele>14.2</ele>
        <time>2021-12-14T14:19:10.000Z</time>
      </trkpt>
      <trkpt lat="43.38303" lon="-1.44456">
        <ele>14.7</ele>
        <time>2021-12-14T14:19:11.000Z</time>
      </trkpt>
      <trkpt lat="43.383" lon="-1.4445">
        <ele>15.3</ele>
        <time>2021-12-14T14:19:12.000Z</time>
      </trkpt>
      <trkpt lat="43.38296" lon="-1.44445">
        <ele>16.1</ele>
        <time>2021-12-14T14:19:13.000Z</time>
      </trkpt>
      <trkpt lat="43.38293" lon="-1.44441">
        <ele>16.8</ele>
        <time>2021-12-14T14:19:14.000Z</time>
      </trkpt>
      <trkpt lat="43.3829" lon="-1.44436">
        <ele>17.2</ele>
        <time>2021-12-14T14:19:15.000Z</time>
      </trkpt>
      <trkpt lat="43.38287" lon="-1.44432">
        <ele>17.5</ele>
        <time>2021-12-14T14:19:16.000Z</time>
      </trkpt>
      <trkpt lat="43.38284" lon="-1.44428">
        <ele>17.6</ele>
        <time>2021-12-14T14:19:17.000Z</time>
      </trkpt>
      <trkpt lat="43.38281" lon="-1.44423">
        <ele>17.6</ele>
        <time>2021-12-14T14:19:18.000Z</time>
      </trkpt>
      <trkpt lat="43.38277" lon="-1.44419">
        <ele>17.6</ele>
        <time>2021-12-14T14:19:19.000Z</time>
      </trkpt>
      <trkpt lat="43.38274" lon="-1.44415">
        <ele>18</ele>
        <time>2021-12-14T14:19:20.000Z</time>
      </trkpt>
      <trkpt lat="43.38271" lon="-1.44411">
        <ele>18.6</ele>
        <time>2021-12-14T14:19:21.000Z</time>
      </trkpt>
      <trkpt lat="43.38267" lon="-1.44406">
        <ele>19.2</ele>
        <time>2021-12-14T14:19:22.000Z</time>
      </trkpt>
      <trkpt lat="43.38264" lon="-1.44402">
        <ele>19.7</ele>
        <time>2021-12-14T14:19:23.000Z</time>
      </trkpt>
      <trkpt lat="43.3826" lon="-1.44398">
        <ele>20.1</ele>
        <time>2021-12-14T14:19:24.000Z</time>
      </trkpt>
      <trkpt lat="43.38257" lon="-1.44393">
        <ele>20.2</ele>
        <time>2021-12-14T14:19:25.000Z</time>
      </trkpt>
      <trkpt lat="43.38254" lon="-1.44389">
        <ele>20.3</ele>
        <time>2021-12-14T14:19:26.000Z</time>
      </trkpt>
      <trkpt lat="43.38251" lon="-1.44384">
        <ele>20.5</ele>
        <time>2021-12-14T14:19:27.000Z</time>
      </trkpt>
      <trkpt lat="43.38247" lon="-1.44379">
        <ele>21.2</ele>
        <time>2021-12-14T14:19:28.000Z</time>
      </trkpt>
      <trkpt lat="43.38244" lon="-1.44375">
        <ele>22</ele>
        <time>2021-12-14T14:19:29.000Z</time>
      </trkpt>
      <trkpt lat="43.38241" lon="-1.4437">
        <ele>22.7</ele>
        <time>2021-12-14T14:19:30.000Z</time>
      </trkpt>
      <trkpt lat="43.38238" lon="-1.44366">
        <ele>23.3</ele>
        <time>2021-12-14T14:19:31.000Z</time>
      </trkpt>
      <trkpt lat="43.38235" lon="-1.44362">
        <ele>24</ele>
        <time>2021-12-14T14:19:32.000Z</time>
      </trkpt>
      <trkpt lat="43.38232" lon="-1.44358">
        <ele>24.5</ele>
        <time>2021-12-14T14:19:33.000Z</time>
      </trkpt>
      <trkpt lat="43.38228" lon="-1.44354">
        <ele>24.9</ele>
        <time>2021-12-14T14:19:34.000Z</time>
      </trkpt>
      <trkpt lat="43.38225" lon="-1.4435">
        <ele>25.1</ele>
        <time>2021-12-14T14:19:35.000Z</time>
      </trkpt>
      <trkpt lat="43.38222" lon="-1.44345">
        <ele>25.2</ele>
        <time>2021-12-14T14:19:36.000Z</time>
      </trkpt>
      <trkpt lat="43.38219" lon="-1.44341">
        <ele>25</ele>
        <time>2021-12-14T14:19:37.000Z</time>
      </trkpt>
      <trkpt lat="43.38216" lon="-1.44336">
        <ele>24.9</ele>
        <time>2021-12-14T14:19:38.000Z</time>
      </trkpt>
      <trkpt lat="43.38213" lon="-1.44332">
        <ele>25.1</ele>
        <time>2021-12-14T14:19:39.000Z</time>
      </trkpt>
      <trkpt lat="43.3821" lon="-1.44328">
        <ele>25.5</ele>
        <time>2021-12-14T14:19:40.000Z</time>
      </trkpt>
      <trkpt lat="43.38207" lon="-1.44324">
        <ele>25.9</ele>
        <time>2021-12-14T14:19:41.000Z</time>
      </trkpt>
      <trkpt lat="43.38205" lon="-1.4432">
        <ele>26.3</ele>
        <time>2021-12-14T14:19:42.000Z</time>
      </trkpt>
      <trkpt lat="43.38202" lon="-1.44316">
        <ele>26.7</ele>
        <time>2021-12-14T14:19:43.000Z</time>
      </trkpt>
      <trkpt lat="43.38199" lon="-1.44312">
        <ele>27.1</ele>
        <time>2021-12-14T14:19:44.000Z</time>
      </trkpt>
      <trkpt lat="43.38196" lon="-1.44307">
        <ele>27.6</ele>
        <time>2021-12-14T14:19:45.000Z</time>
      </trkpt>
      <trkpt lat="43.38193" lon="-1.44303">
        <ele>28.1</ele>
        <time>2021-12-14T14:19:46.000Z</time>
      </trkpt>
      <trkpt lat="43.3819" lon="-1.44299">
        <ele>28.3</ele>
        <time>2021-12-14T14:19:47.000Z</time>
      </trkpt>
      <trkpt lat="43.38187" lon="-1.44295">
        <ele>28.6</ele>
        <time>2021-12-14T14:19:48.000Z</time>
      </trkpt>
      <trkpt lat="43.38184" lon="-1.4429">
        <ele>29</ele>
        <time>2021-12-14T14:19:49.000Z</time>
      </trkpt>
      <trkpt lat="43.38181" lon="-1.44286">
        <ele>29.5</ele>
        <time>2021-12-14T14:19:50.000Z</time>
      </trkpt>
      <trkpt lat="43.38177" lon="-1.44282">
        <ele>30.2</ele>
        <time>2021-12-14T14:19:51.000Z</time>
      </trkpt>
      <trkpt lat="43.38174" lon="-1.44277">
        <ele>30.9</ele>
        <time>2021-12-14T14:19:52.000Z</time>
      </trkpt>
      <trkpt lat="43.38172" lon="-1.44272">
        <ele>31.2</ele>
        <time>2021-12-14T14:19:53.000Z</time>
      </trkpt>
      <trkpt lat="43.38169" lon="-1.44268">
        <ele>31.7</ele>
        <time>2021-12-14T14:19:54.000Z</time>
      </trkpt>
      <trkpt lat="43.38166" lon="-1.44263">
        <ele>32</ele>
        <time>2021-12-14T14:19:55.000Z</time>
      </trkpt>
      <trkpt lat="43.38163" lon="-1.44258">
        <ele>32.3</ele>
        <time>2021-12-14T14:19:56.000Z</time>
      </trkpt>
      <trkpt lat="43.3816" lon="-1.44253">
        <ele>32.6</ele>
        <time>2021-12-14T14:19:57.000Z</time>
      </trkpt>
      <trkpt lat="43.38158" lon="-1.44248">
        <ele>33.1</ele>
        <time>2021-12-14T14:19:58.000Z</time>
      </trkpt>
      <trkpt lat="43.38155" lon="-1.44243">
        <ele>33.7</ele>
        <time>2021-12-14T14:19:59.000Z</time>
      </trkpt>
      <trkpt lat="43.38152" lon="-1.44238">
        <ele>34.2</ele>
        <time>2021-12-14T14:20:00.000Z</time>
      </trkpt>
      <trkpt lat="43.3815" lon="-1.44234">
        <ele>34.5</ele>
        <time>2021-12-14T14:20:01.000Z</time>
      </trkpt>
      <trkpt lat="43.38147" lon="-1.44229">
        <ele>34.8</ele>
        <time>2021-12-14T14:20:02.000Z</time>
      </trkpt>
      <trkpt lat="43.38144" lon="-1.44224">
        <ele>35</ele>
        <time>2021-12-14T14:20:03.000Z</time>
      </trkpt>
      <trkpt lat="43.38142" lon="-1.44219">
        <ele>35.2</ele>
        <time>2021-12-14T14:20:04.000Z</time>
      </trkpt>
      <trkpt lat="43.38139" lon="-1.44214">
        <ele>35.6</ele>
        <time>2021-12-14T14:20:05.000Z</time>
      </trkpt>
      <trkpt lat="43.38136" lon="-1.44209">
        <ele>35.9</ele>
        <time>2021-12-14T14:20:06.000Z</time>
      </trkpt>
      <trkpt lat="43.38133" lon="-1.44205">
        <ele>36.2</ele>
        <time>2021-12-14T14:20:07.000Z</time>
      </trkpt>
      <trkpt lat="43.38131" lon="-1.442">
        <ele>36.7</ele>
        <time>2021-12-14T14:20:08.000Z</time>
      </trkpt>
      <trkpt lat="43.38128" lon="-1.44195">
        <ele>37.3</ele>
        <time>2021-12-14T14:20:09.000Z</time>
      </trkpt>
      <trkpt lat="43.38126" lon="-1.44191">
        <ele>37.6</ele>
        <time>2021-12-14T14:20:10.000Z</time>
      </trkpt>
      <trkpt lat="43.38123" lon="-1.44186">
        <ele>37.8</ele>
        <time>2021-12-14T14:20:11.000Z</time>
      </trkpt>
      <trkpt lat="43.3812" lon="-1.4418">
        <ele>38</ele>
        <time>2021-12-14T14:20:12.000Z</time>
      </trkpt>
      <trkpt lat="43.38117" lon="-1.44175">
        <ele>38.1</ele>
        <time>2021-12-14T14:20:13.000Z</time>
      </trkpt>
      <trkpt lat="43.38115" lon="-1.4417">
        <ele>38.1</ele>
        <time>2021-12-14T14:20:14.000Z</time>
      </trkpt>
      <trkpt lat="43.38112" lon="-1.44165">
        <ele>38.2</ele>
        <time>2021-12-14T14:20:15.000Z</time>
      </trkpt>
      <trkpt lat="43.38109" lon="-1.44159">
        <ele>38.4</ele>
        <time>2021-12-14T14:20:16.000Z</time>
      </trkpt>
      <trkpt lat="43.38106" lon="-1.44154">
        <ele>38.7</ele>
        <time>2021-12-14T14:20:17.000Z</time>
      </trkpt>
      <trkpt lat="43.38104" lon="-1.44149">
        <ele>39</ele>
        <time>2021-12-14T14:20:18.000Z</time>
      </trkpt>
      <trkpt lat="43.38101" lon="-1.44144">
        <ele>39.5</ele>
        <time>2021-12-14T14:20:19.000Z</time>
      </trkpt>
      <trkpt lat="43.38098" lon="-1.44139">
        <ele>40</ele>
        <time>2021-12-14T14:20:20.000Z</time>
      </trkpt>
      <trkpt lat="43.38095" lon="-1.44135">
        <ele>40.2</ele>
        <time>2021-12-14T14:20:21.000Z</time>
      </trkpt>
      <trkpt lat="43.38092" lon="-1.4413">
        <ele>40.4</ele>
        <time>2021-12-14T14:20:22.000Z</time>
      </trkpt>
      <trkpt lat="43.38089" lon="-1.44125">
        <ele>40.7</ele>
        <time>2021-12-14T14:20:23.000Z</time>
      </trkpt>
      <trkpt lat="43.38087" lon="-1.4412">
        <ele>41.1</ele>
        <time>2021-12-14T14:20:24.000Z</time>
      </trkpt>
      <trkpt lat="43.38084" lon="-1.44115">
        <ele>41.5</ele>
        <time>2021-12-14T14:20:25.000Z</time>
      </trkpt>
      <trkpt lat="43.38081" lon="-1.44111">
        <ele>42</ele>
        <time>2021-12-14T14:20:26.000Z</time>
      </trkpt>
      <trkpt lat="43.38078" lon="-1.44106">
        <ele>42.3</ele>
        <time>2021-12-14T14:20:27.000Z</time>
      </trkpt>
      <trkpt lat="43.38074" lon="-1.44102">
        <ele>42.6</ele>
        <time>2021-12-14T14:20:28.000Z</time>
      </trkpt>
      <trkpt lat="43.38071" lon="-1.44099">
        <ele>42.9</ele>
        <time>2021-12-14T14:20:29.000Z</time>
      </trkpt>
      <trkpt lat="43.38067" lon="-1.44095">
        <ele>43.1</ele>
        <time>2021-12-14T14:20:30.000Z</time>
      </trkpt>
      <trkpt lat="43.38063" lon="-1.44092">
        <ele>43.4</ele>
        <time>2021-12-14T14:20:31.000Z</time>
      </trkpt>
      <trkpt lat="43.38059" lon="-1.44089">
        <ele>43.6</ele>
        <time>2021-12-14T14:20:32.000Z</time>
      </trkpt>
      <trkpt lat="43.38055" lon="-1.44086">
        <ele>43.8</ele>
        <time>2021-12-14T14:20:33.000Z</time>
      </trkpt>
      <trkpt lat="43.38052" lon="-1.44083">
        <ele>44.1</ele>
        <time>2021-12-14T14:20:34.000Z</time>
      </trkpt>
      <trkpt lat="43.38048" lon="-1.44081">
        <ele>44.4</ele>
        <time>2021-12-14T14:20:35.000Z</time>
      </trkpt>
      <trkpt lat="43.38043" lon="-1.44079">
        <ele>44.6</ele>
        <time>2021-12-14T14:20:36.000Z</time>
      </trkpt>
      <trkpt lat="43.38039" lon="-1.44077">
        <ele>44.8</ele>
        <time>2021-12-14T14:20:37.000Z</time>
      </trkpt>
      <trkpt lat="43.38035" lon="-1.44075">
        <ele>45</ele>
        <time>2021-12-14T14:20:38.000Z</time>
      </trkpt>
      <trkpt lat="43.38031" lon="-1.44073">
        <ele>45.3</ele>
        <time>2021-12-14T14:20:39.000Z</time>
      </trkpt>
      <trkpt lat="43.38027" lon="-1.44071">
        <ele>45.5</ele>
        <time>2021-12-14T14:20:40.000Z</time>
      </trkpt>
      <trkpt lat="43.38023" lon="-1.44069">
        <ele>45.6</ele>
        <time>2021-12-14T14:20:41.000Z</time>
      </trkpt>
      <trkpt lat="43.38019" lon="-1.44068">
        <ele>45.8</ele>
        <time>2021-12-14T14:20:42.000Z</time>
      </trkpt>
      <trkpt lat="43.38015" lon="-1.44066">
        <ele>46</ele>
        <time>2021-12-14T14:20:43.000Z</time>
      </trkpt>
      <trkpt lat="43.38011" lon="-1.44064">
        <ele>46.3</ele>
        <time>2021-12-14T14:20:44.000Z</time>
      </trkpt>
      <trkpt lat="43.38007" lon="-1.44062">
        <ele>46.7</ele>
        <time>2021-12-14T14:20:45.000Z</time>
      </trkpt>
      <trkpt lat="43.38002" lon="-1.44061">
        <ele>47.1</ele>
        <time>2021-12-14T14:20:46.000Z</time>
      </trkpt>
      <trkpt lat="43.37998" lon="-1.44059">
        <ele>47.6</ele>
        <time>2021-12-14T14:20:47.000Z</time>
      </trkpt>
      <trkpt lat="43.37994" lon="-1.44057">
        <ele>48</ele>
        <time>2021-12-14T14:20:48.000Z</time>
      </trkpt>
      <trkpt lat="43.37989" lon="-1.44055">
        <ele>48.4</ele>
        <time>2021-12-14T14:20:49.000Z</time>
      </trkpt>
      <trkpt lat="43.37985" lon="-1.44053">
        <ele>48.6</ele>
        <time>2021-12-14T14:20:50.000Z</time>
      </trkpt>
      <trkpt lat="43.37981" lon="-1.44052">
        <ele>48.8</ele>
        <time>2021-12-14T14:20:51.000Z</time>
      </trkpt>
      <trkpt lat="43.37977" lon="-1.4405">
        <ele>49</ele>
        <time>2021-12-14T14:20:52.000Z</time>
      </trkpt>
      <trkpt lat="43.37972" lon="-1.44048">
        <ele>49.3</ele>
        <time>2021-12-14T14:20:53.000Z</time>
      </trkpt>
      <trkpt lat="43.37968" lon="-1.44047">
        <ele>49.3</ele>
        <time>2021-12-14T14:20:54.000Z</time>
      </trkpt>
      <trkpt lat="43.37963" lon="-1.44045">
        <ele>49.3</ele>
        <time>2021-12-14T14:20:55.000Z</time>
      </trkpt>
      <trkpt lat="43.37959" lon="-1.44043">
        <ele>49.4</ele>
        <time>2021-12-14T14:20:56.000Z</time>
      </trkpt>
      <trkpt lat="43.37954" lon="-1.44041">
        <ele>49.6</ele>
        <time>2021-12-14T14:20:57.000Z</time>
      </trkpt>
      <trkpt lat="43.3795" lon="-1.44039">
        <ele>49.7</ele>
        <time>2021-12-14T14:20:58.000Z</time>
      </trkpt>
      <trkpt lat="43.37946" lon="-1.44037">
        <ele>50</ele>
        <time>2021-12-14T14:20:59.000Z</time>
      </trkpt>
      <trkpt lat="43.37941" lon="-1.44036">
        <ele>50.3</ele>
        <time>2021-12-14T14:21:00.000Z</time>
      </trkpt>
      <trkpt lat="43.37936" lon="-1.44034">
        <ele>50.8</ele>
        <time>2021-12-14T14:21:01.000Z</time>
      </trkpt>
      <trkpt lat="43.37932" lon="-1.44032">
        <ele>51.1</ele>
        <time>2021-12-14T14:21:02.000Z</time>
      </trkpt>
      <trkpt lat="43.37927" lon="-1.4403">
        <ele>51.5</ele>
        <time>2021-12-14T14:21:03.000Z</time>
      </trkpt>
      <trkpt lat="43.37923" lon="-1.44028">
        <ele>51.8</ele>
        <time>2021-12-14T14:21:04.000Z</time>
      </trkpt>
      <trkpt lat="43.37918" lon="-1.44026">
        <ele>51.9</ele>
        <time>2021-12-14T14:21:05.000Z</time>
      </trkpt>
      <trkpt lat="43.37914" lon="-1.44024">
        <ele>52</ele>
        <time>2021-12-14T14:21:06.000Z</time>
      </trkpt>
      <trkpt lat="43.37909" lon="-1.44022">
        <ele>52.1</ele>
        <time>2021-12-14T14:21:07.000Z</time>
      </trkpt>
      <trkpt lat="43.37904" lon="-1.44019">
        <ele>52.3</ele>
        <time>2021-12-14T14:21:08.000Z</time>
      </trkpt>
      <trkpt lat="43.379" lon="-1.44017">
        <ele>52.5</ele>
        <time>2021-12-14T14:21:09.000Z</time>
      </trkpt>
      <trkpt lat="43.37895" lon="-1.44015">
        <ele>52.7</ele>
        <time>2021-12-14T14:21:10.000Z</time>
      </trkpt>
      <trkpt lat="43.3789" lon="-1.44012">
        <ele>52.9</ele>
        <time>2021-12-14T14:21:11.000Z</time>
      </trkpt>
      <trkpt lat="43.37885" lon="-1.44009">
        <ele>53.2</ele>
        <time>2021-12-14T14:21:12.000Z</time>
      </trkpt>
      <trkpt lat="43.37881" lon="-1.44007">
        <ele>53.4</ele>
        <time>2021-12-14T14:21:13.000Z</time>
      </trkpt>
      <trkpt lat="43.37876" lon="-1.44004">
        <ele>53.6</ele>
        <time>2021-12-14T14:21:14.000Z</time>
      </trkpt>
      <trkpt lat="43.37871" lon="-1.44001">
        <ele>53.7</ele>
        <time>2021-12-14T14:21:15.000Z</time>
      </trkpt>
      <trkpt lat="43.37867" lon="-1.43997">
        <ele>53.8</ele>
        <time>2021-12-14T14:21:16.000Z</time>
      </trkpt>
      <trkpt lat="43.37862" lon="-1.43994">
        <ele>54</ele>
        <time>2021-12-14T14:21:17.000Z</time>
      </trkpt>
      <trkpt lat="43.37857" lon="-1.43991">
        <ele>54.3</ele>
        <time>2021-12-14T14:21:18.000Z</time>
      </trkpt>
      <trkpt lat="43.37852" lon="-1.43987">
        <ele>54.7</ele>
        <time>2021-12-14T14:21:19.000Z</time>
      </trkpt>
      <trkpt lat="43.37847" lon="-1.43984">
        <ele>54.9</ele>
        <time>2021-12-14T14:21:20.000Z</time>
      </trkpt>
      <trkpt lat="43.37843" lon="-1.43981">
        <ele>55.1</ele>
        <time>2021-12-14T14:21:21.000Z</time>
      </trkpt>
      <trkpt lat="43.37837" lon="-1.43978">
        <ele>55.2</ele>
        <time>2021-12-14T14:21:22.000Z</time>
      </trkpt>
      <trkpt lat="43.37832" lon="-1.43975">
        <ele>55.2</ele>
        <time>2021-12-14T14:21:23.000Z</time>
      </trkpt>
      <trkpt lat="43.37827" lon="-1.43971">
        <ele>55.4</ele>
        <time>2021-12-14T14:21:24.000Z</time>
      </trkpt>
      <trkpt lat="43.37821" lon="-1.43967">
        <ele>55.7</ele>
        <time>2021-12-14T14:21:25.000Z</time>
      </trkpt>
      <trkpt lat="43.37816" lon="-1.43963">
        <ele>56</ele>
        <time>2021-12-14T14:21:26.000Z</time>
      </trkpt>
      <trkpt lat="43.3781" lon="-1.4396">
        <ele>56.2</ele>
        <time>2021-12-14T14:21:27.000Z</time>
      </trkpt>
      <trkpt lat="43.37804" lon="-1.43957">
        <ele>56.5</ele>
        <time>2021-12-14T14:21:28.000Z</time>
      </trkpt>
      <trkpt lat="43.37799" lon="-1.43953">
        <ele>56.6</ele>
        <time>2021-12-14T14:21:29.000Z</time>
      </trkpt>
      <trkpt lat="43.37793" lon="-1.4395">
        <ele>56.6</ele>
        <time>2021-12-14T14:21:30.000Z</time>
      </trkpt>
      <trkpt lat="43.37787" lon="-1.43946">
        <ele>56.7</ele>
        <time>2021-12-14T14:21:31.000Z</time>
      </trkpt>
      <trkpt lat="43.37781" lon="-1.43942">
        <ele>56.7</ele>
        <time>2021-12-14T14:21:32.000Z</time>
      </trkpt>
      <trkpt lat="43.37775" lon="-1.43939">
        <ele>56.7</ele>
        <time>2021-12-14T14:21:33.000Z</time>
      </trkpt>
      <trkpt lat="43.37769" lon="-1.43935">
        <ele>56.7</ele>
        <time>2021-12-14T14:21:34.000Z</time>
      </trkpt>
      <trkpt lat="43.37763" lon="-1.43932">
        <ele>56.6</ele>
        <time>2021-12-14T14:21:35.000Z</time>
      </trkpt>
      <trkpt lat="43.37758" lon="-1.43928">
        <ele>56.6</ele>
        <time>2021-12-14T14:21:36.000Z</time>
      </trkpt>
      <trkpt lat="43.37752" lon="-1.43925">
        <ele>56.5</ele>
        <time>2021-12-14T14:21:37.000Z</time>
      </trkpt>
      <trkpt lat="43.37746" lon="-1.43921">
        <ele>56.5</ele>
        <time>2021-12-14T14:21:38.000Z</time>
      </trkpt>
      <trkpt lat="43.3774" lon="-1.43918">
        <ele>56.4</ele>
        <time>2021-12-14T14:21:39.000Z</time>
      </trkpt>
      <trkpt lat="43.37734" lon="-1.43914">
        <ele>56.5</ele>
        <time>2021-12-14T14:21:40.000Z</time>
      </trkpt>
      <trkpt lat="43.37729" lon="-1.4391">
        <ele>56.5</ele>
        <time>2021-12-14T14:21:41.000Z</time>
      </trkpt>
      <trkpt lat="43.37723" lon="-1.43906">
        <ele>56.6</ele>
        <time>2021-12-14T14:21:42.000Z</time>
      </trkpt>
      <trkpt lat="43.37717" lon="-1.43903">
        <ele>56.7</ele>
        <time>2021-12-14T14:21:43.000Z</time>
      </trkpt>
      <trkpt lat="43.37711" lon="-1.43899">
        <ele>56.8</ele>
        <time>2021-12-14T14:21:44.000Z</time>
      </trkpt>
      <trkpt lat="43.37705" lon="-1.43895">
        <ele>56.9</ele>
        <time>2021-12-14T14:21:45.000Z</time>
      </trkpt>
      <trkpt lat="43.37699" lon="-1.43892">
        <ele>56.9</ele>
        <time>2021-12-14T14:21:46.000Z</time>
      </trkpt>
      <trkpt lat="43.37693" lon="-1.43888">
        <ele>57</ele>
        <time>2021-12-14T14:21:47.000Z</time>
      </trkpt>
      <trkpt lat="43.37688" lon="-1.43884">
        <ele>56.9</ele>
        <time>2021-12-14T14:21:48.000Z</time>
      </trkpt>
      <trkpt lat="43.37682" lon="-1.43881">
        <ele>56.9</ele>
        <time>2021-12-14T14:21:49.000Z</time>
      </trkpt>
      <trkpt lat="43.37677" lon="-1.43878">
        <ele>56.8</ele>
        <time>2021-12-14T14:21:50.000Z</time>
      </trkpt>
      <trkpt lat="43.37671" lon="-1.43874">
        <ele>56.8</ele>
        <time>2021-12-14T14:21:51.000Z</time>
      </trkpt>
      <trkpt lat="43.37666" lon="-1.43871">
        <ele>56.8</ele>
        <time>2021-12-14T14:21:52.000Z</time>
      </trkpt>
      <trkpt lat="43.3766" lon="-1.43868">
        <ele>56.7</ele>
        <time>2021-12-14T14:21:53.000Z</time>
      </trkpt>
      <trkpt lat="43.37654" lon="-1.43864">
        <ele>56.7</ele>
        <time>2021-12-14T14:21:54.000Z</time>
      </trkpt>
      <trkpt lat="43.37649" lon="-1.43861">
        <ele>56.6</ele>
        <time>2021-12-14T14:21:55.000Z</time>
      </trkpt>
      <trkpt lat="43.37643" lon="-1.43857">
        <ele>56.7</ele>
        <time>2021-12-14T14:21:56.000Z</time>
      </trkpt>
      <trkpt lat="43.37637" lon="-1.43854">
        <ele>56.8</ele>
        <time>2021-12-14T14:21:57.000Z</time>
      </trkpt>
      <trkpt lat="43.37631" lon="-1.43851">
        <ele>56.9</ele>
        <time>2021-12-14T14:21:58.000Z</time>
      </trkpt>
      <trkpt lat="43.37626" lon="-1.43847">
        <ele>57</ele>
        <time>2021-12-14T14:21:59.000Z</time>
      </trkpt>
      <trkpt lat="43.3762" lon="-1.43843">
        <ele>57</ele>
        <time>2021-12-14T14:22:00.000Z</time>
      </trkpt>
      <trkpt lat="43.37614" lon="-1.4384">
        <ele>57.1</ele>
        <time>2021-12-14T14:22:01.000Z</time>
      </trkpt>
      <trkpt lat="43.37609" lon="-1.43836">
        <ele>57.2</ele>
        <time>2021-12-14T14:22:02.000Z</time>
      </trkpt>
      <trkpt lat="43.37603" lon="-1.43832">
        <ele>57.2</ele>
        <time>2021-12-14T14:22:03.000Z</time>
      </trkpt>
      <trkpt lat="43.37598" lon="-1.43828">
        <ele>57.3</ele>
        <time>2021-12-14T14:22:04.000Z</time>
      </trkpt>
      <trkpt lat="43.37592" lon="-1.43824">
        <ele>57.4</ele>
        <time>2021-12-14T14:22:05.000Z</time>
      </trkpt>
      <trkpt lat="43.37586" lon="-1.43821">
        <ele>57.4</ele>
        <time>2021-12-14T14:22:06.000Z</time>
      </trkpt>
      <trkpt lat="43.3758" lon="-1.43817">
        <ele>57.5</ele>
        <time>2021-12-14T14:22:07.000Z</time>
      </trkpt>
      <trkpt lat="43.37574" lon="-1.43813">
        <ele>57.4</ele>
        <time>2021-12-14T14:22:08.000Z</time>
      </trkpt>
      <trkpt lat="43.37568" lon="-1.43809">
        <ele>57.2</ele>
        <time>2021-12-14T14:22:09.000Z</time>
      </trkpt>
      <trkpt lat="43.37562" lon="-1.43805">
        <ele>57</ele>
        <time>2021-12-14T14:22:10.000Z</time>
      </trkpt>
      <trkpt lat="43.37556" lon="-1.43802">
        <ele>56.7</ele>
        <time>2021-12-14T14:22:11.000Z</time>
      </trkpt>
      <trkpt lat="43.3755" lon="-1.43798">
        <ele>56.9</ele>
        <time>2021-12-14T14:22:12.000Z</time>
      </trkpt>
      <trkpt lat="43.37544" lon="-1.43795">
        <ele>57.1</ele>
        <time>2021-12-14T14:22:13.000Z</time>
      </trkpt>
      <trkpt lat="43.37538" lon="-1.43791">
        <ele>57.2</ele>
        <time>2021-12-14T14:22:14.000Z</time>
      </trkpt>
      <trkpt lat="43.37532" lon="-1.43788">
        <ele>57.4</ele>
        <time>2021-12-14T14:22:15.000Z</time>
      </trkpt>
      <trkpt lat="43.37527" lon="-1.43784">
        <ele>57.6</ele>
        <time>2021-12-14T14:22:16.000Z</time>
      </trkpt>
      <trkpt lat="43.37521" lon="-1.43781">
        <ele>57.8</ele>
        <time>2021-12-14T14:22:17.000Z</time>
      </trkpt>
      <trkpt lat="43.37515" lon="-1.43778">
        <ele>57.9</ele>
        <time>2021-12-14T14:22:18.000Z</time>
      </trkpt>
      <trkpt lat="43.37509" lon="-1.43774">
        <ele>58.1</ele>
        <time>2021-12-14T14:22:19.000Z</time>
      </trkpt>
      <trkpt lat="43.37504" lon="-1.43771">
        <ele>58.2</ele>
        <time>2021-12-14T14:22:20.000Z</time>
      </trkpt>
      <trkpt lat="43.37498" lon="-1.43767">
        <ele>58.4</ele>
        <time>2021-12-14T14:22:21.000Z</time>
      </trkpt>
      <trkpt lat="43.37493" lon="-1.43764">
        <ele>58.5</ele>
        <time>2021-12-14T14:22:22.000Z</time>
      </trkpt>
      <trkpt lat="43.37488" lon="-1.4376">
        <ele>58.5</ele>
        <time>2021-12-14T14:22:23.000Z</time>
      </trkpt>
      <trkpt lat="43.37482" lon="-1.43756">
        <ele>58.4</ele>
        <time>2021-12-14T14:22:24.000Z</time>
      </trkpt>
      <trkpt lat="43.37477" lon="-1.43752">
        <ele>58.1</ele>
        <time>2021-12-14T14:22:25.000Z</time>
      </trkpt>
      <trkpt lat="43.37471" lon="-1.43748">
        <ele>58</ele>
        <time>2021-12-14T14:22:26.000Z</time>
      </trkpt>
      <trkpt lat="43.37465" lon="-1.43745">
        <ele>58.2</ele>
        <time>2021-12-14T14:22:27.000Z</time>
      </trkpt>
      <trkpt lat="43.3746" lon="-1.43742">
        <ele>58.4</ele>
        <time>2021-12-14T14:22:28.000Z</time>
      </trkpt>
      <trkpt lat="43.37454" lon="-1.43739">
        <ele>58.4</ele>
        <time>2021-12-14T14:22:29.000Z</time>
      </trkpt>
      <trkpt lat="43.37448" lon="-1.43736">
        <ele>58.4</ele>
        <time>2021-12-14T14:22:30.000Z</time>
      </trkpt>
      <trkpt lat="43.37441" lon="-1.43734">
        <ele>58.3</ele>
        <time>2021-12-14T14:22:31.000Z</time>
      </trkpt>
      <trkpt lat="43.37434" lon="-1.43731">
        <ele>58.2</ele>
        <time>2021-12-14T14:22:32.000Z</time>
      </trkpt>
      <trkpt lat="43.37427" lon="-1.43729">
        <ele>58</ele>
        <time>2021-12-14T14:22:33.000Z</time>
      </trkpt>
      <trkpt lat="43.37421" lon="-1.43726">
        <ele>57.7</ele>
        <time>2021-12-14T14:22:34.000Z</time>
      </trkpt>
      <trkpt lat="43.37414" lon="-1.43724">
        <ele>57.3</ele>
        <time>2021-12-14T14:22:35.000Z</time>
      </trkpt>
      <trkpt lat="43.37407" lon="-1.43721">
        <ele>57.2</ele>
        <time>2021-12-14T14:22:36.000Z</time>
      </trkpt>
      <trkpt lat="43.37401" lon="-1.43718">
        <ele>57.1</ele>
        <time>2021-12-14T14:22:37.000Z</time>
      </trkpt>
      <trkpt lat="43.37394" lon="-1.43716">
        <ele>56.8</ele>
        <time>2021-12-14T14:22:38.000Z</time>
      </trkpt>
      <trkpt lat="43.37387" lon="-1.43713">
        <ele>56.4</ele>
        <time>2021-12-14T14:22:39.000Z</time>
      </trkpt>
      <trkpt lat="43.37381" lon="-1.4371">
        <ele>56.2</ele>
        <time>2021-12-14T14:22:40.000Z</time>
      </trkpt>
      <trkpt lat="43.37375" lon="-1.43707">
        <ele>56</ele>
        <time>2021-12-14T14:22:41.000Z</time>
      </trkpt>
      <trkpt lat="43.37368" lon="-1.43703">
        <ele>55.8</ele>
        <time>2021-12-14T14:22:42.000Z</time>
      </trkpt>
      <trkpt lat="43.37363" lon="-1.43699">
        <ele>55.6</ele>
        <time>2021-12-14T14:22:43.000Z</time>
      </trkpt>
      <trkpt lat="43.37357" lon="-1.43695">
        <ele>55.5</ele>
        <time>2021-12-14T14:22:44.000Z</time>
      </trkpt>
      <trkpt lat="43.37352" lon="-1.43691">
        <ele>55.7</ele>
        <time>2021-12-14T14:22:45.000Z</time>
      </trkpt>
      <trkpt lat="43.37347" lon="-1.43686">
        <ele>56.1</ele>
        <time>2021-12-14T14:22:46.000Z</time>
      </trkpt>
      <trkpt lat="43.37341" lon="-1.43681">
        <ele>56.5</ele>
        <time>2021-12-14T14:22:47.000Z</time>
      </trkpt>
      <trkpt lat="43.37337" lon="-1.43676">
        <ele>56.9</ele>
        <time>2021-12-14T14:22:48.000Z</time>
      </trkpt>
      <trkpt lat="43.37332" lon="-1.4367">
        <ele>57.2</ele>
        <time>2021-12-14T14:22:49.000Z</time>
      </trkpt>
      <trkpt lat="43.37327" lon="-1.43665">
        <ele>57.1</ele>
        <time>2021-12-14T14:22:50.000Z</time>
      </trkpt>
      <trkpt lat="43.37323" lon="-1.4366">
        <ele>57</ele>
        <time>2021-12-14T14:22:51.000Z</time>
      </trkpt>
      <trkpt lat="43.37318" lon="-1.43654">
        <ele>56.9</ele>
        <time>2021-12-14T14:22:52.000Z</time>
      </trkpt>
      <trkpt lat="43.37313" lon="-1.43649">
        <ele>56.9</ele>
        <time>2021-12-14T14:22:53.000Z</time>
      </trkpt>
      <trkpt lat="43.37308" lon="-1.43643">
        <ele>57</ele>
        <time>2021-12-14T14:22:54.000Z</time>
      </trkpt>
      <trkpt lat="43.37303" lon="-1.43639">
        <ele>57</ele>
        <time>2021-12-14T14:22:55.000Z</time>
      </trkpt>
      <trkpt lat="43.37297" lon="-1.43634">
        <ele>56.9</ele>
        <time>2021-12-14T14:22:56.000Z</time>
      </trkpt>
      <trkpt lat="43.37291" lon="-1.4363">
        <ele>56.8</ele>
        <time>2021-12-14T14:22:57.000Z</time>
      </trkpt>
      <trkpt lat="43.37286" lon="-1.43625">
        <ele>56.9</ele>
        <time>2021-12-14T14:22:58.000Z</time>
      </trkpt>
      <trkpt lat="43.3728" lon="-1.43622">
        <ele>57</ele>
        <time>2021-12-14T14:22:59.000Z</time>
      </trkpt>
      <trkpt lat="43.37274" lon="-1.43618">
        <ele>57.1</ele>
        <time>2021-12-14T14:23:00.000Z</time>
      </trkpt>
      <trkpt lat="43.37268" lon="-1.43615">
        <ele>57.3</ele>
        <time>2021-12-14T14:23:01.000Z</time>
      </trkpt>
      <trkpt lat="43.37262" lon="-1.43613">
        <ele>57.6</ele>
        <time>2021-12-14T14:23:02.000Z</time>
      </trkpt>
      <trkpt lat="43.37257" lon="-1.43612">
        <ele>57.8</ele>
        <time>2021-12-14T14:23:03.000Z</time>
      </trkpt>
      <trkpt lat="43.37251" lon="-1.43612">
        <ele>58</ele>
        <time>2021-12-14T14:23:04.000Z</time>
      </trkpt>
      <trkpt lat="43.37246" lon="-1.43612">
        <ele>58</ele>
        <time>2021-12-14T14:23:05.000Z</time>
      </trkpt>
      <trkpt lat="43.3724" lon="-1.43614">
        <ele>58</ele>
        <time>2021-12-14T14:23:06.000Z</time>
      </trkpt>
      <trkpt lat="43.37235" lon="-1.43616">
        <ele>58</ele>
        <time>2021-12-14T14:23:07.000Z</time>
      </trkpt>
      <trkpt lat="43.3723" lon="-1.43617">
        <ele>58</ele>
        <time>2021-12-14T14:23:08.000Z</time>
      </trkpt>
      <trkpt lat="43.37226" lon="-1.43619">
        <ele>58</ele>
        <time>2021-12-14T14:23:09.000Z</time>
      </trkpt>
      <trkpt lat="43.37221" lon="-1.43621">
        <ele>58</ele>
        <time>2021-12-14T14:23:10.000Z</time>
      </trkpt>
      <trkpt lat="43.37215" lon="-1.43624">
        <ele>58</ele>
        <time>2021-12-14T14:23:11.000Z</time>
      </trkpt>
      <trkpt lat="43.3721" lon="-1.43627">
        <ele>58</ele>
        <time>2021-12-14T14:23:12.000Z</time>
      </trkpt>
      <trkpt lat="43.37204" lon="-1.43629">
        <ele>58</ele>
        <time>2021-12-14T14:23:13.000Z</time>
      </trkpt>
      <trkpt lat="43.37198" lon="-1.43632">
        <ele>58</ele>
        <time>2021-12-14T14:23:14.000Z</time>
      </trkpt>
      <trkpt lat="43.37191" lon="-1.43635">
        <ele>58.1</ele>
        <time>2021-12-14T14:23:15.000Z</time>
      </trkpt>
      <trkpt lat="43.37185" lon="-1.43638">
        <ele>58.3</ele>
        <time>2021-12-14T14:23:16.000Z</time>
      </trkpt>
      <trkpt lat="43.37179" lon="-1.43641">
        <ele>58.6</ele>
        <time>2021-12-14T14:23:17.000Z</time>
      </trkpt>
      <trkpt lat="43.37173" lon="-1.43644">
        <ele>58.8</ele>
        <time>2021-12-14T14:23:18.000Z</time>
      </trkpt>
      <trkpt lat="43.37167" lon="-1.43647">
        <ele>59</ele>
        <time>2021-12-14T14:23:19.000Z</time>
      </trkpt>
      <trkpt lat="43.3716" lon="-1.4365">
        <ele>59</ele>
        <time>2021-12-14T14:23:20.000Z</time>
      </trkpt>
      <trkpt lat="43.37154" lon="-1.43654">
        <ele>59</ele>
        <time>2021-12-14T14:23:21.000Z</time>
      </trkpt>
      <trkpt lat="43.37147" lon="-1.43657">
        <ele>59.2</ele>
        <time>2021-12-14T14:23:22.000Z</time>
      </trkpt>
      <trkpt lat="43.37141" lon="-1.4366">
        <ele>59.5</ele>
        <time>2021-12-14T14:23:23.000Z</time>
      </trkpt>
      <trkpt lat="43.37134" lon="-1.43663">
        <ele>59.4</ele>
        <time>2021-12-14T14:23:24.000Z</time>
      </trkpt>
      <trkpt lat="43.37128" lon="-1.43666">
        <ele>59.2</ele>
        <time>2021-12-14T14:23:25.000Z</time>
      </trkpt>
      <trkpt lat="43.37122" lon="-1.43669">
        <ele>58.9</ele>
        <time>2021-12-14T14:23:26.000Z</time>
      </trkpt>
      <trkpt lat="43.37116" lon="-1.43672">
        <ele>58.7</ele>
        <time>2021-12-14T14:23:27.000Z</time>
      </trkpt>
      <trkpt lat="43.3711" lon="-1.43675">
        <ele>58.6</ele>
        <time>2021-12-14T14:23:28.000Z</time>
      </trkpt>
      <trkpt lat="43.37104" lon="-1.43679">
        <ele>58.6</ele>
        <time>2021-12-14T14:23:29.000Z</time>
      </trkpt>
      <trkpt lat="43.37098" lon="-1.43684">
        <ele>58.8</ele>
        <time>2021-12-14T14:23:30.000Z</time>
      </trkpt>
      <trkpt lat="43.37093" lon="-1.43689">
        <ele>59</ele>
        <time>2021-12-14T14:23:31.000Z</time>
      </trkpt>
      <trkpt lat="43.37088" lon="-1.43694">
        <ele>59.2</ele>
        <time>2021-12-14T14:23:32.000Z</time>
      </trkpt>
      <trkpt lat="43.37083" lon="-1.437">
        <ele>59.4</ele>
        <time>2021-12-14T14:23:33.000Z</time>
      </trkpt>
      <trkpt lat="43.37077" lon="-1.43705">
        <ele>59.5</ele>
        <time>2021-12-14T14:23:34.000Z</time>
      </trkpt>
      <trkpt lat="43.37072" lon="-1.43711">
        <ele>59.5</ele>
        <time>2021-12-14T14:23:35.000Z</time>
      </trkpt>
      <trkpt lat="43.37067" lon="-1.43716">
        <ele>59.5</ele>
        <time>2021-12-14T14:23:36.000Z</time>
      </trkpt>
      <trkpt lat="43.37061" lon="-1.43722">
        <ele>59.4</ele>
        <time>2021-12-14T14:23:37.000Z</time>
      </trkpt>
      <trkpt lat="43.37056" lon="-1.43728">
        <ele>59.4</ele>
        <time>2021-12-14T14:23:38.000Z</time>
      </trkpt>
      <trkpt lat="43.37052" lon="-1.43734">
        <ele>59.1</ele>
        <time>2021-12-14T14:23:39.000Z</time>
      </trkpt>
      <trkpt lat="43.37048" lon="-1.43741">
        <ele>58.9</ele>
        <time>2021-12-14T14:23:40.000Z</time>
      </trkpt>
      <trkpt lat="43.37044" lon="-1.43748">
        <ele>58.8</ele>
        <time>2021-12-14T14:23:41.000Z</time>
      </trkpt>
      <trkpt lat="43.37042" lon="-1.43755">
        <ele>58.8</ele>
        <time>2021-12-14T14:23:42.000Z</time>
      </trkpt>
      <trkpt lat="43.37039" lon="-1.43762">
        <ele>59</ele>
        <time>2021-12-14T14:23:43.000Z</time>
      </trkpt>
      <trkpt lat="43.37037" lon="-1.4377">
        <ele>59.3</ele>
        <time>2021-12-14T14:23:44.000Z</time>
      </trkpt>
      <trkpt lat="43.37035" lon="-1.43778">
        <ele>59.7</ele>
        <time>2021-12-14T14:23:45.000Z</time>
      </trkpt>
      <trkpt lat="43.37032" lon="-1.43785">
        <ele>59.8</ele>
        <time>2021-12-14T14:23:46.000Z</time>
      </trkpt>
      <trkpt lat="43.3703" lon="-1.43792">
        <ele>59.9</ele>
        <time>2021-12-14T14:23:47.000Z</time>
      </trkpt>
      <trkpt lat="43.37028" lon="-1.43799">
        <ele>59.8</ele>
        <time>2021-12-14T14:23:48.000Z</time>
      </trkpt>
      <trkpt lat="43.37026" lon="-1.43806">
        <ele>60.1</ele>
        <time>2021-12-14T14:23:49.000Z</time>
      </trkpt>
      <trkpt lat="43.37022" lon="-1.43813">
        <ele>60.4</ele>
        <time>2021-12-14T14:23:50.000Z</time>
      </trkpt>
      <trkpt lat="43.37019" lon="-1.4382">
        <ele>60.7</ele>
        <time>2021-12-14T14:23:51.000Z</time>
      </trkpt>
      <trkpt lat="43.37015" lon="-1.43826">
        <ele>60.8</ele>
        <time>2021-12-14T14:23:52.000Z</time>
      </trkpt>
      <trkpt lat="43.37011" lon="-1.43832">
        <ele>60.7</ele>
        <time>2021-12-14T14:23:53.000Z</time>
      </trkpt>
      <trkpt lat="43.37006" lon="-1.43838">
        <ele>60.7</ele>
        <time>2021-12-14T14:23:54.000Z</time>
      </trkpt>
      <trkpt lat="43.37002" lon="-1.43843">
        <ele>60.8</ele>
        <time>2021-12-14T14:23:55.000Z</time>
      </trkpt>
      <trkpt lat="43.36997" lon="-1.43849">
        <ele>61.2</ele>
        <time>2021-12-14T14:23:56.000Z</time>
      </trkpt>
      <trkpt lat="43.36993" lon="-1.43854">
        <ele>61.7</ele>
        <time>2021-12-14T14:23:57.000Z</time>
      </trkpt>
      <trkpt lat="43.36989" lon="-1.43859">
        <ele>61.9</ele>
        <time>2021-12-14T14:23:58.000Z</time>
      </trkpt>
      <trkpt lat="43.36984" lon="-1.43863">
        <ele>62.1</ele>
        <time>2021-12-14T14:23:59.000Z</time>
      </trkpt>
      <trkpt lat="43.3698" lon="-1.43868">
        <ele>62.2</ele>
        <time>2021-12-14T14:24:00.000Z</time>
      </trkpt>
      <trkpt lat="43.36977" lon="-1.43872">
        <ele>62.4</ele>
        <time>2021-12-14T14:24:01.000Z</time>
      </trkpt>
      <trkpt lat="43.36973" lon="-1.43877">
        <ele>62.6</ele>
        <time>2021-12-14T14:24:02.000Z</time>
      </trkpt>
      <trkpt lat="43.36968" lon="-1.43881">
        <ele>62.8</ele>
        <time>2021-12-14T14:24:03.000Z</time>
      </trkpt>
      <trkpt lat="43.36964" lon="-1.43886">
        <ele>63</ele>
        <time>2021-12-14T14:24:04.000Z</time>
      </trkpt>
      <trkpt lat="43.3696" lon="-1.43891">
        <ele>63</ele>
        <time>2021-12-14T14:24:05.000Z</time>
      </trkpt>
      <trkpt lat="43.36956" lon="-1.43895">
        <ele>63</ele>
        <time>2021-12-14T14:24:06.000Z</time>
      </trkpt>
      <trkpt lat="43.36951" lon="-1.439">
        <ele>63</ele>
        <time>2021-12-14T14:24:07.000Z</time>
      </trkpt>
      <trkpt lat="43.36947" lon="-1.43905">
        <ele>63</ele>
        <time>2021-12-14T14:24:08.000Z</time>
      </trkpt>
      <trkpt lat="43.36942" lon="-1.43909">
        <ele>63.2</ele>
        <time>2021-12-14T14:24:09.000Z</time>
      </trkpt>
      <trkpt lat="43.36937" lon="-1.43914">
        <ele>63.5</ele>
        <time>2021-12-14T14:24:10.000Z</time>
      </trkpt>
      <trkpt lat="43.36933" lon="-1.43919">
        <ele>64</ele>
        <time>2021-12-14T14:24:11.000Z</time>
      </trkpt>
      <trkpt lat="43.36928" lon="-1.43923">
        <ele>64.5</ele>
        <time>2021-12-14T14:24:12.000Z</time>
      </trkpt>
      <trkpt lat="43.36924" lon="-1.43928">
        <ele>64.8</ele>
        <time>2021-12-14T14:24:13.000Z</time>
      </trkpt>
      <trkpt lat="43.36919" lon="-1.43932">
        <ele>65</ele>
        <time>2021-12-14T14:24:14.000Z</time>
      </trkpt>
      <trkpt lat="43.36915" lon="-1.43936">
        <ele>65.1</ele>
        <time>2021-12-14T14:24:15.000Z</time>
      </trkpt>
      <trkpt lat="43.36911" lon="-1.4394">
        <ele>65.3</ele>
        <time>2021-12-14T14:24:16.000Z</time>
      </trkpt>
      <trkpt lat="43.36906" lon="-1.43943">
        <ele>65.4</ele>
        <time>2021-12-14T14:24:17.000Z</time>
      </trkpt>
      <trkpt lat="43.36902" lon="-1.43947">
        <ele>65.6</ele>
        <time>2021-12-14T14:24:18.000Z</time>
      </trkpt>
      <trkpt lat="43.36897" lon="-1.4395">
        <ele>65.8</ele>
        <time>2021-12-14T14:24:19.000Z</time>
      </trkpt>
      <trkpt lat="43.36892" lon="-1.43953">
        <ele>65.9</ele>
        <time>2021-12-14T14:24:20.000Z</time>
      </trkpt>
      <trkpt lat="43.36887" lon="-1.43956">
        <ele>66.1</ele>
        <time>2021-12-14T14:24:21.000Z</time>
      </trkpt>
      <trkpt lat="43.36882" lon="-1.43958">
        <ele>66.2</ele>
        <time>2021-12-14T14:24:22.000Z</time>
      </trkpt>
      <trkpt lat="43.36877" lon="-1.4396">
        <ele>66.4</ele>
        <time>2021-12-14T14:24:23.000Z</time>
      </trkpt>
      <trkpt lat="43.36872" lon="-1.43962">
        <ele>66.6</ele>
        <time>2021-12-14T14:24:24.000Z</time>
      </trkpt>
      <trkpt lat="43.36867" lon="-1.43964">
        <ele>66.8</ele>
        <time>2021-12-14T14:24:25.000Z</time>
      </trkpt>
      <trkpt lat="43.36861" lon="-1.43965">
        <ele>67</ele>
        <time>2021-12-14T14:24:26.000Z</time>
      </trkpt>
      <trkpt lat="43.36856" lon="-1.43966">
        <ele>67.3</ele>
        <time>2021-12-14T14:24:27.000Z</time>
      </trkpt>
      <trkpt lat="43.36851" lon="-1.43967">
        <ele>67.7</ele>
        <time>2021-12-14T14:24:28.000Z</time>
      </trkpt>
      <trkpt lat="43.36845" lon="-1.43968">
        <ele>68</ele>
        <time>2021-12-14T14:24:29.000Z</time>
      </trkpt>
      <trkpt lat="43.3684" lon="-1.43968">
        <ele>68.4</ele>
        <time>2021-12-14T14:24:30.000Z</time>
      </trkpt>
      <trkpt lat="43.36835" lon="-1.43968">
        <ele>68.7</ele>
        <time>2021-12-14T14:24:31.000Z</time>
      </trkpt>
      <trkpt lat="43.3683" lon="-1.43968">
        <ele>69</ele>
        <time>2021-12-14T14:24:32.000Z</time>
      </trkpt>
      <trkpt lat="43.36825" lon="-1.43968">
        <ele>69.1</ele>
        <time>2021-12-14T14:24:33.000Z</time>
      </trkpt>
      <trkpt lat="43.3682" lon="-1.43967">
        <ele>69.3</ele>
        <time>2021-12-14T14:24:34.000Z</time>
      </trkpt>
      <trkpt lat="43.36815" lon="-1.43967">
        <ele>69.5</ele>
        <time>2021-12-14T14:24:35.000Z</time>
      </trkpt>
      <trkpt lat="43.3681" lon="-1.43967">
        <ele>69.6</ele>
        <time>2021-12-14T14:24:36.000Z</time>
      </trkpt>
      <trkpt lat="43.36805" lon="-1.43966">
        <ele>69.8</ele>
        <time>2021-12-14T14:24:37.000Z</time>
      </trkpt>
      <trkpt lat="43.368" lon="-1.43966">
        <ele>70.2</ele>
        <time>2021-12-14T14:24:38.000Z</time>
      </trkpt>
      <trkpt lat="43.36794" lon="-1.43965">
        <ele>70.7</ele>
        <time>2021-12-14T14:24:39.000Z</time>
      </trkpt>
      <trkpt lat="43.36789" lon="-1.43966">
        <ele>71.1</ele>
        <time>2021-12-14T14:24:40.000Z</time>
      </trkpt>
      <trkpt lat="43.36784" lon="-1.43966">
        <ele>71.5</ele>
        <time>2021-12-14T14:24:41.000Z</time>
      </trkpt>
      <trkpt lat="43.36779" lon="-1.43965">
        <ele>71.9</ele>
        <time>2021-12-14T14:24:42.000Z</time>
      </trkpt>
      <trkpt lat="43.36773" lon="-1.43965">
        <ele>72.1</ele>
        <time>2021-12-14T14:24:43.000Z</time>
      </trkpt>
      <trkpt lat="43.36768" lon="-1.43965">
        <ele>72.3</ele>
        <time>2021-12-14T14:24:44.000Z</time>
      </trkpt>
      <trkpt lat="43.36762" lon="-1.43964">
        <ele>72.4</ele>
        <time>2021-12-14T14:24:45.000Z</time>
      </trkpt>
      <trkpt lat="43.36755" lon="-1.43963">
        <ele>72.5</ele>
        <time>2021-12-14T14:24:46.000Z</time>
      </trkpt>
      <trkpt lat="43.36749" lon="-1.43962">
        <ele>72.6</ele>
        <time>2021-12-14T14:24:47.000Z</time>
      </trkpt>
      <trkpt lat="43.36742" lon="-1.43961">
        <ele>72.5</ele>
        <time>2021-12-14T14:24:48.000Z</time>
      </trkpt>
      <trkpt lat="43.36736" lon="-1.4396">
        <ele>72.5</ele>
        <time>2021-12-14T14:24:49.000Z</time>
      </trkpt>
      <trkpt lat="43.3673" lon="-1.4396">
        <ele>72.5</ele>
        <time>2021-12-14T14:24:50.000Z</time>
      </trkpt>
      <trkpt lat="43.36725" lon="-1.4396">
        <ele>72.5</ele>
        <time>2021-12-14T14:24:51.000Z</time>
      </trkpt>
      <trkpt lat="43.36719" lon="-1.4396">
        <ele>72.5</ele>
        <time>2021-12-14T14:24:52.000Z</time>
      </trkpt>
      <trkpt lat="43.36712" lon="-1.4396">
        <ele>72.6</ele>
        <time>2021-12-14T14:24:53.000Z</time>
      </trkpt>
      <trkpt lat="43.36706" lon="-1.43961">
        <ele>72.7</ele>
        <time>2021-12-14T14:24:54.000Z</time>
      </trkpt>
      <trkpt lat="43.367" lon="-1.43962">
        <ele>72.7</ele>
        <time>2021-12-14T14:24:55.000Z</time>
      </trkpt>
      <trkpt lat="43.36694" lon="-1.43964">
        <ele>72.7</ele>
        <time>2021-12-14T14:24:56.000Z</time>
      </trkpt>
      <trkpt lat="43.36688" lon="-1.43966">
        <ele>72.8</ele>
        <time>2021-12-14T14:24:57.000Z</time>
      </trkpt>
      <trkpt lat="43.36682" lon="-1.43969">
        <ele>73</ele>
        <time>2021-12-14T14:24:58.000Z</time>
      </trkpt>
      <trkpt lat="43.36677" lon="-1.43972">
        <ele>73.3</ele>
        <time>2021-12-14T14:24:59.000Z</time>
      </trkpt>
      <trkpt lat="43.36671" lon="-1.43976">
        <ele>73.1</ele>
        <time>2021-12-14T14:25:00.000Z</time>
      </trkpt>
      <trkpt lat="43.36666" lon="-1.4398">
        <ele>72.9</ele>
        <time>2021-12-14T14:25:01.000Z</time>
      </trkpt>
      <trkpt lat="43.3666" lon="-1.43984">
        <ele>72.9</ele>
        <time>2021-12-14T14:25:02.000Z</time>
      </trkpt>
      <trkpt lat="43.36656" lon="-1.43989">
        <ele>73</ele>
        <time>2021-12-14T14:25:03.000Z</time>
      </trkpt>
      <trkpt lat="43.36651" lon="-1.43993">
        <ele>73.3</ele>
        <time>2021-12-14T14:25:04.000Z</time>
      </trkpt>
      <trkpt lat="43.36646" lon="-1.43998">
        <ele>73.8</ele>
        <time>2021-12-14T14:25:05.000Z</time>
      </trkpt>
      <trkpt lat="43.36641" lon="-1.44003">
        <ele>74.4</ele>
        <time>2021-12-14T14:25:06.000Z</time>
      </trkpt>
      <trkpt lat="43.36636" lon="-1.44007">
        <ele>74.7</ele>
        <time>2021-12-14T14:25:07.000Z</time>
      </trkpt>
      <trkpt lat="43.36632" lon="-1.44012">
        <ele>74.8</ele>
        <time>2021-12-14T14:25:08.000Z</time>
      </trkpt>
      <trkpt lat="43.36627" lon="-1.44016">
        <ele>75</ele>
        <time>2021-12-14T14:25:09.000Z</time>
      </trkpt>
      <trkpt lat="43.36622" lon="-1.4402">
        <ele>75.2</ele>
        <time>2021-12-14T14:25:10.000Z</time>
      </trkpt>
      <trkpt lat="43.36618" lon="-1.44025">
        <ele>75.4</ele>
        <time>2021-12-14T14:25:11.000Z</time>
      </trkpt>
      <trkpt lat="43.36613" lon="-1.44029">
        <ele>75.6</ele>
        <time>2021-12-14T14:25:12.000Z</time>
      </trkpt>
      <trkpt lat="43.36609" lon="-1.44033">
        <ele>75.9</ele>
        <time>2021-12-14T14:25:13.000Z</time>
      </trkpt>
      <trkpt lat="43.36605" lon="-1.44037">
        <ele>76.1</ele>
        <time>2021-12-14T14:25:14.000Z</time>
      </trkpt>
      <trkpt lat="43.36601" lon="-1.4404">
        <ele>76.4</ele>
        <time>2021-12-14T14:25:15.000Z</time>
      </trkpt>
      <trkpt lat="43.36596" lon="-1.44043">
        <ele>76.8</ele>
        <time>2021-12-14T14:25:16.000Z</time>
      </trkpt>
      <trkpt lat="43.36591" lon="-1.44046">
        <ele>77.3</ele>
        <time>2021-12-14T14:25:17.000Z</time>
      </trkpt>
      <trkpt lat="43.36587" lon="-1.44049">
        <ele>77.8</ele>
        <time>2021-12-14T14:25:18.000Z</time>
      </trkpt>
      <trkpt lat="43.36582" lon="-1.44051">
        <ele>78.3</ele>
        <time>2021-12-14T14:25:19.000Z</time>
      </trkpt>
      <trkpt lat="43.36578" lon="-1.44053">
        <ele>78.7</ele>
        <time>2021-12-14T14:25:20.000Z</time>
      </trkpt>
      <trkpt lat="43.36574" lon="-1.44055">
        <ele>79.1</ele>
        <time>2021-12-14T14:25:21.000Z</time>
      </trkpt>
      <trkpt lat="43.36569" lon="-1.44057">
        <ele>79.4</ele>
        <time>2021-12-14T14:25:22.000Z</time>
      </trkpt>
      <trkpt lat="43.36565" lon="-1.44059">
        <ele>79.8</ele>
        <time>2021-12-14T14:25:23.000Z</time>
      </trkpt>
      <trkpt lat="43.3656" lon="-1.4406">
        <ele>80.2</ele>
        <time>2021-12-14T14:25:24.000Z</time>
      </trkpt>
      <trkpt lat="43.36556" lon="-1.44061">
        <ele>80.6</ele>
        <time>2021-12-14T14:25:25.000Z</time>
      </trkpt>
      <trkpt lat="43.36551" lon="-1.44062">
        <ele>80.7</ele>
        <time>2021-12-14T14:25:26.000Z</time>
      </trkpt>
      <trkpt lat="43.36547" lon="-1.44063">
        <ele>80.9</ele>
        <time>2021-12-14T14:25:27.000Z</time>
      </trkpt>
      <trkpt lat="43.36542" lon="-1.44063">
        <ele>81.1</ele>
        <time>2021-12-14T14:25:28.000Z</time>
      </trkpt>
      <trkpt lat="43.36537" lon="-1.44064">
        <ele>81.2</ele>
        <time>2021-12-14T14:25:29.000Z</time>
      </trkpt>
      <trkpt lat="43.36533" lon="-1.44064">
        <ele>81.5</ele>
        <time>2021-12-14T14:25:30.000Z</time>
      </trkpt>
      <trkpt lat="43.36528" lon="-1.44065">
        <ele>81.7</ele>
        <time>2021-12-14T14:25:31.000Z</time>
      </trkpt>
      <trkpt lat="43.36523" lon="-1.44065">
        <ele>81.8</ele>
        <time>2021-12-14T14:25:32.000Z</time>
      </trkpt>
      <trkpt lat="43.36518" lon="-1.44065">
        <ele>81.9</ele>
        <time>2021-12-14T14:25:33.000Z</time>
      </trkpt>
      <trkpt lat="43.36512" lon="-1.44064">
        <ele>82.1</ele>
        <time>2021-12-14T14:25:34.000Z</time>
      </trkpt>
      <trkpt lat="43.36507" lon="-1.44064">
        <ele>82.2</ele>
        <time>2021-12-14T14:25:35.000Z</time>
      </trkpt>
      <trkpt lat="43.36501" lon="-1.44063">
        <ele>82.4</ele>
        <time>2021-12-14T14:25:36.000Z</time>
      </trkpt>
      <trkpt lat="43.36495" lon="-1.44063">
        <ele>82.5</ele>
        <time>2021-12-14T14:25:37.000Z</time>
      </trkpt>
      <trkpt lat="43.36489" lon="-1.44061">
        <ele>82.5</ele>
        <time>2021-12-14T14:25:38.000Z</time>
      </trkpt>
      <trkpt lat="43.36484" lon="-1.4406">
        <ele>82.6</ele>
        <time>2021-12-14T14:25:39.000Z</time>
      </trkpt>
      <trkpt lat="43.36477" lon="-1.44057">
        <ele>82.8</ele>
        <time>2021-12-14T14:25:40.000Z</time>
      </trkpt>
      <trkpt lat="43.36471" lon="-1.44055">
        <ele>82.9</ele>
        <time>2021-12-14T14:25:41.000Z</time>
      </trkpt>
      <trkpt lat="43.36465" lon="-1.44053">
        <ele>82.6</ele>
        <time>2021-12-14T14:25:42.000Z</time>
      </trkpt>
      <trkpt lat="43.3646" lon="-1.4405">
        <ele>82.4</ele>
        <time>2021-12-14T14:25:43.000Z</time>
      </trkpt>
      <trkpt lat="43.36453" lon="-1.44047">
        <ele>82.2</ele>
        <time>2021-12-14T14:25:44.000Z</time>
      </trkpt>
      <trkpt lat="43.36448" lon="-1.44044">
        <ele>82</ele>
        <time>2021-12-14T14:25:45.000Z</time>
      </trkpt>
      <trkpt lat="43.36442" lon="-1.44041">
        <ele>81.9</ele>
        <time>2021-12-14T14:25:46.000Z</time>
      </trkpt>
      <trkpt lat="43.36436" lon="-1.44037">
        <ele>81.9</ele>
        <time>2021-12-14T14:25:47.000Z</time>
      </trkpt>
      <trkpt lat="43.3643" lon="-1.44033">
        <ele>82</ele>
        <time>2021-12-14T14:25:48.000Z</time>
      </trkpt>
      <trkpt lat="43.36424" lon="-1.4403">
        <ele>82.1</ele>
        <time>2021-12-14T14:25:49.000Z</time>
      </trkpt>
      <trkpt lat="43.36419" lon="-1.44026">
        <ele>82.2</ele>
        <time>2021-12-14T14:25:50.000Z</time>
      </trkpt>
      <trkpt lat="43.36414" lon="-1.44022">
        <ele>82.4</ele>
        <time>2021-12-14T14:25:51.000Z</time>
      </trkpt>
      <trkpt lat="43.36408" lon="-1.44019">
        <ele>82.7</ele>
        <time>2021-12-14T14:25:52.000Z</time>
      </trkpt>
      <trkpt lat="43.36403" lon="-1.44016">
        <ele>83</ele>
        <time>2021-12-14T14:25:53.000Z</time>
      </trkpt>
      <trkpt lat="43.36398" lon="-1.44013">
        <ele>83.4</ele>
        <time>2021-12-14T14:25:54.000Z</time>
      </trkpt>
      <trkpt lat="43.36393" lon="-1.4401">
        <ele>83.8</ele>
        <time>2021-12-14T14:25:55.000Z</time>
      </trkpt>
      <trkpt lat="43.36388" lon="-1.44007">
        <ele>84.2</ele>
        <time>2021-12-14T14:25:56.000Z</time>
      </trkpt>
      <trkpt lat="43.36383" lon="-1.44004">
        <ele>84.3</ele>
        <time>2021-12-14T14:25:57.000Z</time>
      </trkpt>
      <trkpt lat="43.36379" lon="-1.44001">
        <ele>84.5</ele>
        <time>2021-12-14T14:25:58.000Z</time>
      </trkpt>
      <trkpt lat="43.36374" lon="-1.43998">
        <ele>84.7</ele>
        <time>2021-12-14T14:25:59.000Z</time>
      </trkpt>
      <trkpt lat="43.36369" lon="-1.43995">
        <ele>84.9</ele>
        <time>2021-12-14T14:26:00.000Z</time>
      </trkpt>
      <trkpt lat="43.36364" lon="-1.43993">
        <ele>85.1</ele>
        <time>2021-12-14T14:26:01.000Z</time>
      </trkpt>
      <trkpt lat="43.36358" lon="-1.43991">
        <ele>85.5</ele>
        <time>2021-12-14T14:26:02.000Z</time>
      </trkpt>
      <trkpt lat="43.36353" lon="-1.43989">
        <ele>86</ele>
        <time>2021-12-14T14:26:03.000Z</time>
      </trkpt>
      <trkpt lat="43.36348" lon="-1.43987">
        <ele>86.6</ele>
        <time>2021-12-14T14:26:04.000Z</time>
      </trkpt>
      <trkpt lat="43.36343" lon="-1.43985">
        <ele>87.1</ele>
        <time>2021-12-14T14:26:05.000Z</time>
      </trkpt>
      <trkpt lat="43.36338" lon="-1.43985">
        <ele>87.5</ele>
        <time>2021-12-14T14:26:06.000Z</time>
      </trkpt>
      <trkpt lat="43.36334" lon="-1.43984">
        <ele>87.9</ele>
        <time>2021-12-14T14:26:07.000Z</time>
      </trkpt>
      <trkpt lat="43.36329" lon="-1.43983">
        <ele>88.5</ele>
        <time>2021-12-14T14:26:08.000Z</time>
      </trkpt>
      <trkpt lat="43.36324" lon="-1.43983">
        <ele>89</ele>
        <time>2021-12-14T14:26:09.000Z</time>
      </trkpt>
      <trkpt lat="43.3632" lon="-1.43982">
        <ele>89.5</ele>
        <time>2021-12-14T14:26:10.000Z</time>
      </trkpt>
      <trkpt lat="43.36315" lon="-1.43982">
        <ele>90.1</ele>
        <time>2021-12-14T14:26:11.000Z</time>
      </trkpt>
      <trkpt lat="43.3631" lon="-1.43981">
        <ele>90.6</ele>
        <time>2021-12-14T14:26:12.000Z</time>
      </trkpt>
      <trkpt lat="43.36305" lon="-1.43981">
        <ele>91.1</ele>
        <time>2021-12-14T14:26:13.000Z</time>
      </trkpt>
      <trkpt lat="43.36301" lon="-1.4398">
        <ele>91.2</ele>
        <time>2021-12-14T14:26:14.000Z</time>
      </trkpt>
      <trkpt lat="43.36296" lon="-1.43979">
        <ele>91.4</ele>
        <time>2021-12-14T14:26:15.000Z</time>
      </trkpt>
      <trkpt lat="43.36292" lon="-1.43978">
        <ele>91.5</ele>
        <time>2021-12-14T14:26:16.000Z</time>
      </trkpt>
      <trkpt lat="43.36287" lon="-1.43976">
        <ele>91.6</ele>
        <time>2021-12-14T14:26:17.000Z</time>
      </trkpt>
      <trkpt lat="43.36283" lon="-1.43975">
        <ele>91.8</ele>
        <time>2021-12-14T14:26:18.000Z</time>
      </trkpt>
      <trkpt lat="43.36278" lon="-1.43974">
        <ele>91.9</ele>
        <time>2021-12-14T14:26:19.000Z</time>
      </trkpt>
      <trkpt lat="43.36274" lon="-1.43972">
        <ele>92</ele>
        <time>2021-12-14T14:26:20.000Z</time>
      </trkpt>
      <trkpt lat="43.3627" lon="-1.43971">
        <ele>92.1</ele>
        <time>2021-12-14T14:26:21.000Z</time>
      </trkpt>
      <trkpt lat="43.36266" lon="-1.43969">
        <ele>92.2</ele>
        <time>2021-12-14T14:26:22.000Z</time>
      </trkpt>
      <trkpt lat="43.36262" lon="-1.43968">
        <ele>92.2</ele>
        <time>2021-12-14T14:26:23.000Z</time>
      </trkpt>
      <trkpt lat="43.36257" lon="-1.43967">
        <ele>92.2</ele>
        <time>2021-12-14T14:26:24.000Z</time>
      </trkpt>
      <trkpt lat="43.36251" lon="-1.43965">
        <ele>92.3</ele>
        <time>2021-12-14T14:26:25.000Z</time>
      </trkpt>
      <trkpt lat="43.36246" lon="-1.43963">
        <ele>92.2</ele>
        <time>2021-12-14T14:26:26.000Z</time>
      </trkpt>
      <trkpt lat="43.36241" lon="-1.43961">
        <ele>92.1</ele>
        <time>2021-12-14T14:26:27.000Z</time>
      </trkpt>
      <trkpt lat="43.36235" lon="-1.43959">
        <ele>92.2</ele>
        <time>2021-12-14T14:26:28.000Z</time>
      </trkpt>
      <trkpt lat="43.3623" lon="-1.43957">
        <ele>92.3</ele>
        <time>2021-12-14T14:26:29.000Z</time>
      </trkpt>
      <trkpt lat="43.36224" lon="-1.43955">
        <ele>92.5</ele>
        <time>2021-12-14T14:26:30.000Z</time>
      </trkpt>
      <trkpt lat="43.36219" lon="-1.43953">
        <ele>92.7</ele>
        <time>2021-12-14T14:26:31.000Z</time>
      </trkpt>
      <trkpt lat="43.36213" lon="-1.43951">
        <ele>92.9</ele>
        <time>2021-12-14T14:26:32.000Z</time>
      </trkpt>
      <trkpt lat="43.36208" lon="-1.43949">
        <ele>93.2</ele>
        <time>2021-12-14T14:26:33.000Z</time>
      </trkpt>
      <trkpt lat="43.36202" lon="-1.43947">
        <ele>93.5</ele>
        <time>2021-12-14T14:26:34.000Z</time>
      </trkpt>
      <trkpt lat="43.36197" lon="-1.43945">
        <ele>93.8</ele>
        <time>2021-12-14T14:26:35.000Z</time>
      </trkpt>
      <trkpt lat="43.36192" lon="-1.43943">
        <ele>94.1</ele>
        <time>2021-12-14T14:26:36.000Z</time>
      </trkpt>
      <trkpt lat="43.36186" lon="-1.43941">
        <ele>94.4</ele>
        <time>2021-12-14T14:26:37.000Z</time>
      </trkpt>
      <trkpt lat="43.3618" lon="-1.43939">
        <ele>94.7</ele>
        <time>2021-12-14T14:26:38.000Z</time>
      </trkpt>
      <trkpt lat="43.36175" lon="-1.43938">
        <ele>95</ele>
        <time>2021-12-14T14:26:39.000Z</time>
      </trkpt>
      <trkpt lat="43.3617" lon="-1.43936">
        <ele>95.2</ele>
        <time>2021-12-14T14:26:40.000Z</time>
      </trkpt>
      <trkpt lat="43.36165" lon="-1.43934">
        <ele>95.4</ele>
        <time>2021-12-14T14:26:41.000Z</time>
      </trkpt>
      <trkpt lat="43.3616" lon="-1.43933">
        <ele>95.6</ele>
        <time>2021-12-14T14:26:42.000Z</time>
      </trkpt>
      <trkpt lat="43.36155" lon="-1.43931">
        <ele>95.7</ele>
        <time>2021-12-14T14:26:43.000Z</time>
      </trkpt>
      <trkpt lat="43.3615" lon="-1.43928">
        <ele>95.8</ele>
        <time>2021-12-14T14:26:44.000Z</time>
      </trkpt>
      <trkpt lat="43.36146" lon="-1.43925">
        <ele>95.9</ele>
        <time>2021-12-14T14:26:45.000Z</time>
      </trkpt>
      <trkpt lat="43.3614" lon="-1.43921">
        <ele>96</ele>
        <time>2021-12-14T14:26:46.000Z</time>
      </trkpt>
      <trkpt lat="43.36135" lon="-1.43918">
        <ele>95.9</ele>
        <time>2021-12-14T14:26:47.000Z</time>
      </trkpt>
      <trkpt lat="43.36129" lon="-1.43914">
        <ele>95.6</ele>
        <time>2021-12-14T14:26:48.000Z</time>
      </trkpt>
      <trkpt lat="43.36124" lon="-1.43909">
        <ele>95.3</ele>
        <time>2021-12-14T14:26:49.000Z</time>
      </trkpt>
      <trkpt lat="43.36118" lon="-1.43905">
        <ele>95.1</ele>
        <time>2021-12-14T14:26:50.000Z</time>
      </trkpt>
      <trkpt lat="43.36113" lon="-1.439">
        <ele>95</ele>
        <time>2021-12-14T14:26:51.000Z</time>
      </trkpt>
      <trkpt lat="43.36107" lon="-1.43896">
        <ele>94.5</ele>
        <time>2021-12-14T14:26:52.000Z</time>
      </trkpt>
      <trkpt lat="43.36102" lon="-1.43891">
        <ele>94.2</ele>
        <time>2021-12-14T14:26:53.000Z</time>
      </trkpt>
      <trkpt lat="43.36097" lon="-1.43886">
        <ele>94.2</ele>
        <time>2021-12-14T14:26:54.000Z</time>
      </trkpt>
      <trkpt lat="43.36092" lon="-1.43882">
        <ele>94.2</ele>
        <time>2021-12-14T14:26:55.000Z</time>
      </trkpt>
      <trkpt lat="43.36087" lon="-1.43877">
        <ele>94.4</ele>
        <time>2021-12-14T14:26:56.000Z</time>
      </trkpt>
      <trkpt lat="43.36082" lon="-1.43872">
        <ele>94.8</ele>
        <time>2021-12-14T14:26:57.000Z</time>
      </trkpt>
      <trkpt lat="43.36076" lon="-1.43868">
        <ele>95.4</ele>
        <time>2021-12-14T14:26:58.000Z</time>
      </trkpt>
      <trkpt lat="43.36071" lon="-1.43863">
        <ele>96.1</ele>
        <time>2021-12-14T14:26:59.000Z</time>
      </trkpt>
      <trkpt lat="43.36067" lon="-1.43859">
        <ele>96.8</ele>
        <time>2021-12-14T14:27:00.000Z</time>
      </trkpt>
      <trkpt lat="43.36062" lon="-1.43855">
        <ele>97.4</ele>
        <time>2021-12-14T14:27:01.000Z</time>
      </trkpt>
      <trkpt lat="43.36057" lon="-1.43851">
        <ele>98</ele>
        <time>2021-12-14T14:27:02.000Z</time>
      </trkpt>
      <trkpt lat="43.36052" lon="-1.43847">
        <ele>98.5</ele>
        <time>2021-12-14T14:27:03.000Z</time>
      </trkpt>
      <trkpt lat="43.36048" lon="-1.43843">
        <ele>98.9</ele>
        <time>2021-12-14T14:27:04.000Z</time>
      </trkpt>
      <trkpt lat="43.36043" lon="-1.43839">
        <ele>99.3</ele>
        <time>2021-12-14T14:27:05.000Z</time>
      </trkpt>
      <trkpt lat="43.36038" lon="-1.43835">
        <ele>99.8</ele>
        <time>2021-12-14T14:27:06.000Z</time>
      </trkpt>
      <trkpt lat="43.36034" lon="-1.43831">
        <ele>100.2</ele>
        <time>2021-12-14T14:27:07.000Z</time>
      </trkpt>
      <trkpt lat="43.36029" lon="-1.43827">
        <ele>100.7</ele>
        <time>2021-12-14T14:27:08.000Z</time>
      </trkpt>
      <trkpt lat="43.36025" lon="-1.43823">
        <ele>100.9</ele>
        <time>2021-12-14T14:27:09.000Z</time>
      </trkpt>
      <trkpt lat="43.36021" lon="-1.43818">
        <ele>100.9</ele>
        <time>2021-12-14T14:27:10.000Z</time>
      </trkpt>
      <trkpt lat="43.36017" lon="-1.43812">
        <ele>100.9</ele>
        <time>2021-12-14T14:27:11.000Z</time>
      </trkpt>
      <trkpt lat="43.36013" lon="-1.43806">
        <ele>100.9</ele>
        <time>2021-12-14T14:27:12.000Z</time>
      </trkpt>
      <trkpt lat="43.3601" lon="-1.43799">
        <ele>100.9</ele>
        <time>2021-12-14T14:27:13.000Z</time>
      </trkpt>
      <trkpt lat="43.36007" lon="-1.43792">
        <ele>101</ele>
        <time>2021-12-14T14:27:14.000Z</time>
      </trkpt>
      <trkpt lat="43.36004" lon="-1.43784">
        <ele>101.1</ele>
        <time>2021-12-14T14:27:15.000Z</time>
      </trkpt>
      <trkpt lat="43.36002" lon="-1.43775">
        <ele>101.3</ele>
        <time>2021-12-14T14:27:16.000Z</time>
      </trkpt>
      <trkpt lat="43.35999" lon="-1.43766">
        <ele>101.2</ele>
        <time>2021-12-14T14:27:17.000Z</time>
      </trkpt>
      <trkpt lat="43.35997" lon="-1.43757">
        <ele>100.6</ele>
        <time>2021-12-14T14:27:18.000Z</time>
      </trkpt>
      <trkpt lat="43.35994" lon="-1.43748">
        <ele>99.8</ele>
        <time>2021-12-14T14:27:19.000Z</time>
      </trkpt>
      <trkpt lat="43.35992" lon="-1.43738">
        <ele>99.3</ele>
        <time>2021-12-14T14:27:20.000Z</time>
      </trkpt>
      <trkpt lat="43.35989" lon="-1.43728">
        <ele>98.8</ele>
        <time>2021-12-14T14:27:21.000Z</time>
      </trkpt>
      <trkpt lat="43.35985" lon="-1.43719">
        <ele>98.5</ele>
        <time>2021-12-14T14:27:22.000Z</time>
      </trkpt>
      <trkpt lat="43.35981" lon="-1.4371">
        <ele>98.4</ele>
        <time>2021-12-14T14:27:23.000Z</time>
      </trkpt>
      <trkpt lat="43.35976" lon="-1.43702">
        <ele>98.6</ele>
        <time>2021-12-14T14:27:24.000Z</time>
      </trkpt>
      <trkpt lat="43.35971" lon="-1.43694">
        <ele>98.8</ele>
        <time>2021-12-14T14:27:25.000Z</time>
      </trkpt>
      <trkpt lat="43.35965" lon="-1.43688">
        <ele>98.2</ele>
        <time>2021-12-14T14:27:26.000Z</time>
      </trkpt>
      <trkpt lat="43.3596" lon="-1.43682">
        <ele>97.8</ele>
        <time>2021-12-14T14:27:27.000Z</time>
      </trkpt>
      <trkpt lat="43.35954" lon="-1.43676">
        <ele>97.7</ele>
        <time>2021-12-14T14:27:28.000Z</time>
      </trkpt>
      <trkpt lat="43.35949" lon="-1.43671">
        <ele>97.8</ele>
        <time>2021-12-14T14:27:29.000Z</time>
      </trkpt>
      <trkpt lat="43.35943" lon="-1.43666">
        <ele>97.9</ele>
        <time>2021-12-14T14:27:30.000Z</time>
      </trkpt>
      <trkpt lat="43.35938" lon="-1.43661">
        <ele>97.8</ele>
        <time>2021-12-14T14:27:31.000Z</time>
      </trkpt>
      <trkpt lat="43.35932" lon="-1.43656">
        <ele>97.8</ele>
        <time>2021-12-14T14:27:32.000Z</time>
      </trkpt>
      <trkpt lat="43.35926" lon="-1.43651">
        <ele>98</ele>
        <time>2021-12-14T14:27:33.000Z</time>
      </trkpt>
      <trkpt lat="43.3592" lon="-1.43647">
        <ele>98.2</ele>
        <time>2021-12-14T14:27:34.000Z</time>
      </trkpt>
      <trkpt lat="43.35915" lon="-1.43642">
        <ele>98.5</ele>
        <time>2021-12-14T14:27:35.000Z</time>
      </trkpt>
      <trkpt lat="43.3591" lon="-1.43638">
        <ele>98.5</ele>
        <time>2021-12-14T14:27:36.000Z</time>
      </trkpt>
      <trkpt lat="43.35904" lon="-1.43633">
        <ele>98.2</ele>
        <time>2021-12-14T14:27:37.000Z</time>
      </trkpt>
      <trkpt lat="43.35899" lon="-1.43629">
        <ele>97.9</ele>
        <time>2021-12-14T14:27:38.000Z</time>
      </trkpt>
      <trkpt lat="43.35893" lon="-1.43624">
        <ele>97.8</ele>
        <time>2021-12-14T14:27:39.000Z</time>
      </trkpt>
      <trkpt lat="43.35888" lon="-1.4362">
        <ele>97.7</ele>
        <time>2021-12-14T14:27:40.000Z</time>
      </trkpt>
      <trkpt lat="43.35883" lon="-1.43615">
        <ele>97.5</ele>
        <time>2021-12-14T14:27:41.000Z</time>
      </trkpt>
      <trkpt lat="43.35877" lon="-1.43612">
        <ele>97.5</ele>
        <time>2021-12-14T14:27:42.000Z</time>
      </trkpt>
      <trkpt lat="43.35871" lon="-1.43608">
        <ele>97.4</ele>
        <time>2021-12-14T14:27:43.000Z</time>
      </trkpt>
      <trkpt lat="43.35865" lon="-1.43605">
        <ele>97.3</ele>
        <time>2021-12-14T14:27:44.000Z</time>
      </trkpt>
      <trkpt lat="43.35859" lon="-1.43602">
        <ele>97.3</ele>
        <time>2021-12-14T14:27:45.000Z</time>
      </trkpt>
      <trkpt lat="43.35854" lon="-1.436">
        <ele>97.3</ele>
        <time>2021-12-14T14:27:46.000Z</time>
      </trkpt>
      <trkpt lat="43.35848" lon="-1.43598">
        <ele>97.4</ele>
        <time>2021-12-14T14:27:47.000Z</time>
      </trkpt>
      <trkpt lat="43.35842" lon="-1.43596">
        <ele>97.6</ele>
        <time>2021-12-14T14:27:48.000Z</time>
      </trkpt>
      <trkpt lat="43.35837" lon="-1.43595">
        <ele>97.8</ele>
        <time>2021-12-14T14:27:49.000Z</time>
      </trkpt>
      <trkpt lat="43.35831" lon="-1.43593">
        <ele>98.1</ele>
        <time>2021-12-14T14:27:50.000Z</time>
      </trkpt>
      <trkpt lat="43.35825" lon="-1.43591">
        <ele>98.7</ele>
        <time>2021-12-14T14:27:51.000Z</time>
      </trkpt>
      <trkpt lat="43.35819" lon="-1.4359">
        <ele>99.3</ele>
        <time>2021-12-14T14:27:52.000Z</time>
      </trkpt>
      <trkpt lat="43.35814" lon="-1.43588">
        <ele>99.9</ele>
        <time>2021-12-14T14:27:53.000Z</time>
      </trkpt>
      <trkpt lat="43.35808" lon="-1.43586">
        <ele>100.6</ele>
        <time>2021-12-14T14:27:54.000Z</time>
      </trkpt>
      <trkpt lat="43.35803" lon="-1.43584">
        <ele>101.2</ele>
        <time>2021-12-14T14:27:55.000Z</time>
      </trkpt>
      <trkpt lat="43.35797" lon="-1.43582">
        <ele>101.6</ele>
        <time>2021-12-14T14:27:56.000Z</time>
      </trkpt>
      <trkpt lat="43.35792" lon="-1.43581">
        <ele>102</ele>
        <time>2021-12-14T14:27:57.000Z</time>
      </trkpt>
      <trkpt lat="43.35787" lon="-1.43579">
        <ele>102.3</ele>
        <time>2021-12-14T14:27:58.000Z</time>
      </trkpt>
      <trkpt lat="43.35782" lon="-1.43577">
        <ele>102.7</ele>
        <time>2021-12-14T14:27:59.000Z</time>
      </trkpt>
      <trkpt lat="43.35777" lon="-1.43576">
        <ele>103.1</ele>
        <time>2021-12-14T14:28:00.000Z</time>
      </trkpt>
      <trkpt lat="43.35773" lon="-1.43574">
        <ele>103.6</ele>
        <time>2021-12-14T14:28:01.000Z</time>
      </trkpt>
      <trkpt lat="43.35768" lon="-1.43572">
        <ele>104</ele>
        <time>2021-12-14T14:28:02.000Z</time>
      </trkpt>
      <trkpt lat="43.35764" lon="-1.43571">
        <ele>104.5</ele>
        <time>2021-12-14T14:28:03.000Z</time>
      </trkpt>
      <trkpt lat="43.35759" lon="-1.43569">
        <ele>105</ele>
        <time>2021-12-14T14:28:04.000Z</time>
      </trkpt>
      <trkpt lat="43.35755" lon="-1.43568">
        <ele>105.5</ele>
        <time>2021-12-14T14:28:05.000Z</time>
      </trkpt>
      <trkpt lat="43.3575" lon="-1.43566">
        <ele>106</ele>
        <time>2021-12-14T14:28:06.000Z</time>
      </trkpt>
      <trkpt lat="43.35745" lon="-1.43564">
        <ele>106.4</ele>
        <time>2021-12-14T14:28:07.000Z</time>
      </trkpt>
      <trkpt lat="43.35741" lon="-1.43562">
        <ele>106.8</ele>
        <time>2021-12-14T14:28:08.000Z</time>
      </trkpt>
      <trkpt lat="43.35736" lon="-1.43561">
        <ele>107.1</ele>
        <time>2021-12-14T14:28:09.000Z</time>
      </trkpt>
      <trkpt lat="43.35731" lon="-1.43559">
        <ele>107.4</ele>
        <time>2021-12-14T14:28:10.000Z</time>
      </trkpt>
      <trkpt lat="43.35727" lon="-1.43557">
        <ele>107.7</ele>
        <time>2021-12-14T14:28:11.000Z</time>
      </trkpt>
      <trkpt lat="43.35722" lon="-1.43556">
        <ele>108</ele>
        <time>2021-12-14T14:28:12.000Z</time>
      </trkpt>
      <trkpt lat="43.35717" lon="-1.43555">
        <ele>108.1</ele>
        <time>2021-12-14T14:28:13.000Z</time>
      </trkpt>
      <trkpt lat="43.35712" lon="-1.43553">
        <ele>108.1</ele>
        <time>2021-12-14T14:28:14.000Z</time>
      </trkpt>
      <trkpt lat="43.35707" lon="-1.43551">
        <ele>108</ele>
        <time>2021-12-14T14:28:15.000Z</time>
      </trkpt>
      <trkpt lat="43.35702" lon="-1.43549">
        <ele>107.8</ele>
        <time>2021-12-14T14:28:16.000Z</time>
      </trkpt>
      <trkpt lat="43.35697" lon="-1.43547">
        <ele>107.6</ele>
        <time>2021-12-14T14:28:17.000Z</time>
      </trkpt>
      <trkpt lat="43.35691" lon="-1.43544">
        <ele>107.6</ele>
        <time>2021-12-14T14:28:18.000Z</time>
      </trkpt>
      <trkpt lat="43.35686" lon="-1.4354">
        <ele>107.7</ele>
        <time>2021-12-14T14:28:19.000Z</time>
      </trkpt>
      <trkpt lat="43.35681" lon="-1.43536">
        <ele>107.9</ele>
        <time>2021-12-14T14:28:20.000Z</time>
      </trkpt>
      <trkpt lat="43.35676" lon="-1.43531">
        <ele>108</ele>
        <time>2021-12-14T14:28:21.000Z</time>
      </trkpt>
      <trkpt lat="43.35671" lon="-1.43526">
        <ele>108</ele>
        <time>2021-12-14T14:28:22.000Z</time>
      </trkpt>
      <trkpt lat="43.35667" lon="-1.4352">
        <ele>107.8</ele>
        <time>2021-12-14T14:28:23.000Z</time>
      </trkpt>
      <trkpt lat="43.35662" lon="-1.43513">
        <ele>107.6</ele>
        <time>2021-12-14T14:28:24.000Z</time>
      </trkpt>
      <trkpt lat="43.35657" lon="-1.43507">
        <ele>107.5</ele>
        <time>2021-12-14T14:28:25.000Z</time>
      </trkpt>
      <trkpt lat="43.35653" lon="-1.43501">
        <ele>107.6</ele>
        <time>2021-12-14T14:28:26.000Z</time>
      </trkpt>
      <trkpt lat="43.35648" lon="-1.43494">
        <ele>107.8</ele>
        <time>2021-12-14T14:28:27.000Z</time>
      </trkpt>
      <trkpt lat="43.35643" lon="-1.43487">
        <ele>107.9</ele>
        <time>2021-12-14T14:28:28.000Z</time>
      </trkpt>
      <trkpt lat="43.35638" lon="-1.4348">
        <ele>108</ele>
        <time>2021-12-14T14:28:29.000Z</time>
      </trkpt>
      <trkpt lat="43.35634" lon="-1.43474">
        <ele>107.9</ele>
        <time>2021-12-14T14:28:30.000Z</time>
      </trkpt>
      <trkpt lat="43.35628" lon="-1.43465">
        <ele>107.3</ele>
        <time>2021-12-14T14:28:31.000Z</time>
      </trkpt>
      <trkpt lat="43.35623" lon="-1.43456">
        <ele>106.7</ele>
        <time>2021-12-14T14:28:32.000Z</time>
      </trkpt>
      <trkpt lat="43.35618" lon="-1.43447">
        <ele>106.2</ele>
        <time>2021-12-14T14:28:33.000Z</time>
      </trkpt>
      <trkpt lat="43.35613" lon="-1.43439">
        <ele>106.3</ele>
        <time>2021-12-14T14:28:34.000Z</time>
      </trkpt>
      <trkpt lat="43.35608" lon="-1.43431">
        <ele>106.3</ele>
        <time>2021-12-14T14:28:35.000Z</time>
      </trkpt>
      <trkpt lat="43.35603" lon="-1.43423">
        <ele>106.1</ele>
        <time>2021-12-14T14:28:36.000Z</time>
      </trkpt>
      <trkpt lat="43.35599" lon="-1.43416">
        <ele>105.8</ele>
        <time>2021-12-14T14:28:37.000Z</time>
      </trkpt>
      <trkpt lat="43.35594" lon="-1.43408">
        <ele>105.4</ele>
        <time>2021-12-14T14:28:38.000Z</time>
      </trkpt>
      <trkpt lat="43.3559" lon="-1.43399">
        <ele>104.8</ele>
        <time>2021-12-14T14:28:39.000Z</time>
      </trkpt>
      <trkpt lat="43.35585" lon="-1.43391">
        <ele>104.2</ele>
        <time>2021-12-14T14:28:40.000Z</time>
      </trkpt>
      <trkpt lat="43.3558" lon="-1.43383">
        <ele>103.7</ele>
        <time>2021-12-14T14:28:41.000Z</time>
      </trkpt>
      <trkpt lat="43.35575" lon="-1.43374">
        <ele>103.2</ele>
        <time>2021-12-14T14:28:42.000Z</time>
      </trkpt>
      <trkpt lat="43.3557" lon="-1.43366">
        <ele>102.7</ele>
        <time>2021-12-14T14:28:43.000Z</time>
      </trkpt>
      <trkpt lat="43.35565" lon="-1.43358">
        <ele>102.3</ele>
        <time>2021-12-14T14:28:44.000Z</time>
      </trkpt>
      <trkpt lat="43.3556" lon="-1.43349">
        <ele>102.1</ele>
        <time>2021-12-14T14:28:45.000Z</time>
      </trkpt>
      <trkpt lat="43.35555" lon="-1.43341">
        <ele>101.9</ele>
        <time>2021-12-14T14:28:46.000Z</time>
      </trkpt>
      <trkpt lat="43.3555" lon="-1.43334">
        <ele>101.4</ele>
        <time>2021-12-14T14:28:47.000Z</time>
      </trkpt>
      <trkpt lat="43.35544" lon="-1.43326">
        <ele>101</ele>
        <time>2021-12-14T14:28:48.000Z</time>
      </trkpt>
      <trkpt lat="43.35539" lon="-1.43319">
        <ele>100.8</ele>
        <time>2021-12-14T14:28:49.000Z</time>
      </trkpt>
      <trkpt lat="43.35533" lon="-1.43313">
        <ele>100.8</ele>
        <time>2021-12-14T14:28:50.000Z</time>
      </trkpt>
      <trkpt lat="43.35528" lon="-1.43306">
        <ele>100.9</ele>
        <time>2021-12-14T14:28:51.000Z</time>
      </trkpt>
      <trkpt lat="43.35522" lon="-1.433">
        <ele>101</ele>
        <time>2021-12-14T14:28:52.000Z</time>
      </trkpt>
      <trkpt lat="43.35516" lon="-1.43295">
        <ele>101</ele>
        <time>2021-12-14T14:28:53.000Z</time>
      </trkpt>
      <trkpt lat="43.3551" lon="-1.43291">
        <ele>101.1</ele>
        <time>2021-12-14T14:28:54.000Z</time>
      </trkpt>
      <trkpt lat="43.35504" lon="-1.43287">
        <ele>101.2</ele>
        <time>2021-12-14T14:28:55.000Z</time>
      </trkpt>
      <trkpt lat="43.35498" lon="-1.43284">
        <ele>101.4</ele>
        <time>2021-12-14T14:28:56.000Z</time>
      </trkpt>
      <trkpt lat="43.35492" lon="-1.43281">
        <ele>101.9</ele>
        <time>2021-12-14T14:28:57.000Z</time>
      </trkpt>
      <trkpt lat="43.35487" lon="-1.43279">
        <ele>102.4</ele>
        <time>2021-12-14T14:28:58.000Z</time>
      </trkpt>
      <trkpt lat="43.35481" lon="-1.43277">
        <ele>102.7</ele>
        <time>2021-12-14T14:28:59.000Z</time>
      </trkpt>
      <trkpt lat="43.35475" lon="-1.43276">
        <ele>103</ele>
        <time>2021-12-14T14:29:00.000Z</time>
      </trkpt>
      <trkpt lat="43.3547" lon="-1.43275">
        <ele>103.1</ele>
        <time>2021-12-14T14:29:01.000Z</time>
      </trkpt>
      <trkpt lat="43.35464" lon="-1.43274">
        <ele>103.1</ele>
        <time>2021-12-14T14:29:02.000Z</time>
      </trkpt>
      <trkpt lat="43.35458" lon="-1.43274">
        <ele>103.1</ele>
        <time>2021-12-14T14:29:03.000Z</time>
      </trkpt>
      <trkpt lat="43.35452" lon="-1.43274">
        <ele>103</ele>
        <time>2021-12-14T14:29:04.000Z</time>
      </trkpt>
      <trkpt lat="43.35446" lon="-1.43275">
        <ele>103</ele>
        <time>2021-12-14T14:29:05.000Z</time>
      </trkpt>
      <trkpt lat="43.3544" lon="-1.43276">
        <ele>103</ele>
        <time>2021-12-14T14:29:06.000Z</time>
      </trkpt>
      <trkpt lat="43.35434" lon="-1.43277">
        <ele>103</ele>
        <time>2021-12-14T14:29:07.000Z</time>
      </trkpt>
      <trkpt lat="43.35429" lon="-1.43278">
        <ele>103</ele>
        <time>2021-12-14T14:29:08.000Z</time>
      </trkpt>
      <trkpt lat="43.35423" lon="-1.43279">
        <ele>103</ele>
        <time>2021-12-14T14:29:09.000Z</time>
      </trkpt>
      <trkpt lat="43.35416" lon="-1.4328">
        <ele>102.9</ele>
        <time>2021-12-14T14:29:10.000Z</time>
      </trkpt>
      <trkpt lat="43.35411" lon="-1.43281">
        <ele>102.7</ele>
        <time>2021-12-14T14:29:11.000Z</time>
      </trkpt>
      <trkpt lat="43.35406" lon="-1.43281">
        <ele>102.6</ele>
        <time>2021-12-14T14:29:12.000Z</time>
      </trkpt>
      <trkpt lat="43.35403" lon="-1.43282">
        <ele>102.5</ele>
        <time>2021-12-14T14:29:13.000Z</time>
      </trkpt>
      <trkpt lat="43.35399" lon="-1.43282">
        <ele>102.4</ele>
        <time>2021-12-14T14:29:14.000Z</time>
      </trkpt>
      <trkpt lat="43.35396" lon="-1.43284">
        <ele>102.4</ele>
        <time>2021-12-14T14:29:15.000Z</time>
      </trkpt>
      <trkpt lat="43.35392" lon="-1.43286">
        <ele>102.3</ele>
        <time>2021-12-14T14:29:16.000Z</time>
      </trkpt>
      <trkpt lat="43.35389" lon="-1.43288">
        <ele>102.4</ele>
        <time>2021-12-14T14:29:17.000Z</time>
      </trkpt>
      <trkpt lat="43.35385" lon="-1.43292">
        <ele>102.5</ele>
        <time>2021-12-14T14:29:18.000Z</time>
      </trkpt>
      <trkpt lat="43.35382" lon="-1.43296">
        <ele>102.6</ele>
        <time>2021-12-14T14:29:19.000Z</time>
      </trkpt>
      <trkpt lat="43.35378" lon="-1.433">
        <ele>102.8</ele>
        <time>2021-12-14T14:29:20.000Z</time>
      </trkpt>
      <trkpt lat="43.35374" lon="-1.43304">
        <ele>102.9</ele>
        <time>2021-12-14T14:29:21.000Z</time>
      </trkpt>
      <trkpt lat="43.3537" lon="-1.43309">
        <ele>102.9</ele>
        <time>2021-12-14T14:29:22.000Z</time>
      </trkpt>
      <trkpt lat="43.35365" lon="-1.43313">
        <ele>102.7</ele>
        <time>2021-12-14T14:29:23.000Z</time>
      </trkpt>
      <trkpt lat="43.3536" lon="-1.43317">
        <ele>102.6</ele>
        <time>2021-12-14T14:29:24.000Z</time>
      </trkpt>
      <trkpt lat="43.35354" lon="-1.43322">
        <ele>102.7</ele>
        <time>2021-12-14T14:29:25.000Z</time>
      </trkpt>
      <trkpt lat="43.35349" lon="-1.43326">
        <ele>102.9</ele>
        <time>2021-12-14T14:29:26.000Z</time>
      </trkpt>
      <trkpt lat="43.35344" lon="-1.4333">
        <ele>103.2</ele>
        <time>2021-12-14T14:29:27.000Z</time>
      </trkpt>
      <trkpt lat="43.35338" lon="-1.43334">
        <ele>103.6</ele>
        <time>2021-12-14T14:29:28.000Z</time>
      </trkpt>
      <trkpt lat="43.35332" lon="-1.43338">
        <ele>103.7</ele>
        <time>2021-12-14T14:29:29.000Z</time>
      </trkpt>
      <trkpt lat="43.35326" lon="-1.43342">
        <ele>103.7</ele>
        <time>2021-12-14T14:29:30.000Z</time>
      </trkpt>
      <trkpt lat="43.35321" lon="-1.43345">
        <ele>103.8</ele>
        <time>2021-12-14T14:29:31.000Z</time>
      </trkpt>
      <trkpt lat="43.35315" lon="-1.43349">
        <ele>103.9</ele>
        <time>2021-12-14T14:29:32.000Z</time>
      </trkpt>
      <trkpt lat="43.3531" lon="-1.43353">
        <ele>104</ele>
        <time>2021-12-14T14:29:33.000Z</time>
      </trkpt>
      <trkpt lat="43.35304" lon="-1.43358">
        <ele>104.2</ele>
        <time>2021-12-14T14:29:34.000Z</time>
      </trkpt>
      <trkpt lat="43.35298" lon="-1.43362">
        <ele>104.5</ele>
        <time>2021-12-14T14:29:35.000Z</time>
      </trkpt>
      <trkpt lat="43.35292" lon="-1.43366">
        <ele>104.6</ele>
        <time>2021-12-14T14:29:36.000Z</time>
      </trkpt>
      <trkpt lat="43.35286" lon="-1.43371">
        <ele>104.7</ele>
        <time>2021-12-14T14:29:37.000Z</time>
      </trkpt>
      <trkpt lat="43.3528" lon="-1.43375">
        <ele>104.8</ele>
        <time>2021-12-14T14:29:38.000Z</time>
      </trkpt>
      <trkpt lat="43.35275" lon="-1.4338">
        <ele>104.8</ele>
        <time>2021-12-14T14:29:39.000Z</time>
      </trkpt>
      <trkpt lat="43.35269" lon="-1.43384">
        <ele>104.9</ele>
        <time>2021-12-14T14:29:40.000Z</time>
      </trkpt>
      <trkpt lat="43.35264" lon="-1.43388">
        <ele>105.1</ele>
        <time>2021-12-14T14:29:41.000Z</time>
      </trkpt>
      <trkpt lat="43.35258" lon="-1.43392">
        <ele>105.3</ele>
        <time>2021-12-14T14:29:42.000Z</time>
      </trkpt>
      <trkpt lat="43.35252" lon="-1.43396">
        <ele>105.5</ele>
        <time>2021-12-14T14:29:43.000Z</time>
      </trkpt>
      <trkpt lat="43.35247" lon="-1.434">
        <ele>105.7</ele>
        <time>2021-12-14T14:29:44.000Z</time>
      </trkpt>
      <trkpt lat="43.35241" lon="-1.43404">
        <ele>105.9</ele>
        <time>2021-12-14T14:29:45.000Z</time>
      </trkpt>
      <trkpt lat="43.35236" lon="-1.43408">
        <ele>106.2</ele>
        <time>2021-12-14T14:29:46.000Z</time>
      </trkpt>
      <trkpt lat="43.3523" lon="-1.43412">
        <ele>106.5</ele>
        <time>2021-12-14T14:29:47.000Z</time>
      </trkpt>
      <trkpt lat="43.35225" lon="-1.43416">
        <ele>106.8</ele>
        <time>2021-12-14T14:29:48.000Z</time>
      </trkpt>
      <trkpt lat="43.35219" lon="-1.4342">
        <ele>106.8</ele>
        <time>2021-12-14T14:29:49.000Z</time>
      </trkpt>
      <trkpt lat="43.35214" lon="-1.43424">
        <ele>106.5</ele>
        <time>2021-12-14T14:29:50.000Z</time>
      </trkpt>
      <trkpt lat="43.35208" lon="-1.43428">
        <ele>106.4</ele>
        <time>2021-12-14T14:29:51.000Z</time>
      </trkpt>
      <trkpt lat="43.35203" lon="-1.43433">
        <ele>106.2</ele>
        <time>2021-12-14T14:29:52.000Z</time>
      </trkpt>
      <trkpt lat="43.35197" lon="-1.43437">
        <ele>106.2</ele>
        <time>2021-12-14T14:29:53.000Z</time>
      </trkpt>
      <trkpt lat="43.35191" lon="-1.43441">
        <ele>106.3</ele>
        <time>2021-12-14T14:29:54.000Z</time>
      </trkpt>
      <trkpt lat="43.35186" lon="-1.43446">
        <ele>106.5</ele>
        <time>2021-12-14T14:29:55.000Z</time>
      </trkpt>
      <trkpt lat="43.3518" lon="-1.4345">
        <ele>106.5</ele>
        <time>2021-12-14T14:29:56.000Z</time>
      </trkpt>
      <trkpt lat="43.35174" lon="-1.43454">
        <ele>106.4</ele>
        <time>2021-12-14T14:29:57.000Z</time>
      </trkpt>
      <trkpt lat="43.35169" lon="-1.43458">
        <ele>106.4</ele>
        <time>2021-12-14T14:29:58.000Z</time>
      </trkpt>
      <trkpt lat="43.35163" lon="-1.43462">
        <ele>106.4</ele>
        <time>2021-12-14T14:29:59.000Z</time>
      </trkpt>
      <trkpt lat="43.35157" lon="-1.43466">
        <ele>106.4</ele>
        <time>2021-12-14T14:30:00.000Z</time>
      </trkpt>
      <trkpt lat="43.35151" lon="-1.4347">
        <ele>106.7</ele>
        <time>2021-12-14T14:30:01.000Z</time>
      </trkpt>
      <trkpt lat="43.35146" lon="-1.43474">
        <ele>107.2</ele>
        <time>2021-12-14T14:30:02.000Z</time>
      </trkpt>
      <trkpt lat="43.3514" lon="-1.43478">
        <ele>107.7</ele>
        <time>2021-12-14T14:30:03.000Z</time>
      </trkpt>
      <trkpt lat="43.35135" lon="-1.43483">
        <ele>107.9</ele>
        <time>2021-12-14T14:30:04.000Z</time>
      </trkpt>
      <trkpt lat="43.35129" lon="-1.43487">
        <ele>108.2</ele>
        <time>2021-12-14T14:30:05.000Z</time>
      </trkpt>
      <trkpt lat="43.35123" lon="-1.43491">
        <ele>108.7</ele>
        <time>2021-12-14T14:30:06.000Z</time>
      </trkpt>
      <trkpt lat="43.35117" lon="-1.43496">
        <ele>109.2</ele>
        <time>2021-12-14T14:30:07.000Z</time>
      </trkpt>
      <trkpt lat="43.35112" lon="-1.435">
        <ele>109.9</ele>
        <time>2021-12-14T14:30:08.000Z</time>
      </trkpt>
      <trkpt lat="43.35106" lon="-1.43504">
        <ele>109.9</ele>
        <time>2021-12-14T14:30:09.000Z</time>
      </trkpt>
      <trkpt lat="43.35101" lon="-1.43508">
        <ele>109.8</ele>
        <time>2021-12-14T14:30:10.000Z</time>
      </trkpt>
      <trkpt lat="43.35095" lon="-1.43512">
        <ele>109.8</ele>
        <time>2021-12-14T14:30:11.000Z</time>
      </trkpt>
      <trkpt lat="43.3509" lon="-1.43516">
        <ele>109.9</ele>
        <time>2021-12-14T14:30:12.000Z</time>
      </trkpt>
      <trkpt lat="43.35085" lon="-1.43519">
        <ele>110</ele>
        <time>2021-12-14T14:30:13.000Z</time>
      </trkpt>
      <trkpt lat="43.3508" lon="-1.43523">
        <ele>110</ele>
        <time>2021-12-14T14:30:14.000Z</time>
      </trkpt>
      <trkpt lat="43.35075" lon="-1.43527">
        <ele>110</ele>
        <time>2021-12-14T14:30:15.000Z</time>
      </trkpt>
      <trkpt lat="43.35069" lon="-1.43531">
        <ele>109.8</ele>
        <time>2021-12-14T14:30:16.000Z</time>
      </trkpt>
      <trkpt lat="43.35064" lon="-1.43535">
        <ele>109.5</ele>
        <time>2021-12-14T14:30:17.000Z</time>
      </trkpt>
      <trkpt lat="43.35058" lon="-1.43539">
        <ele>109.2</ele>
        <time>2021-12-14T14:30:18.000Z</time>
      </trkpt>
      <trkpt lat="43.35053" lon="-1.43544">
        <ele>109</ele>
        <time>2021-12-14T14:30:19.000Z</time>
      </trkpt>
      <trkpt lat="43.35047" lon="-1.43549">
        <ele>109.1</ele>
        <time>2021-12-14T14:30:20.000Z</time>
      </trkpt>
      <trkpt lat="43.35041" lon="-1.43553">
        <ele>109.2</ele>
        <time>2021-12-14T14:30:21.000Z</time>
      </trkpt>
      <trkpt lat="43.35035" lon="-1.43558">
        <ele>109.2</ele>
        <time>2021-12-14T14:30:22.000Z</time>
      </trkpt>
      <trkpt lat="43.35029" lon="-1.43563">
        <ele>109.3</ele>
        <time>2021-12-14T14:30:23.000Z</time>
      </trkpt>
      <trkpt lat="43.35024" lon="-1.43568">
        <ele>109.3</ele>
        <time>2021-12-14T14:30:24.000Z</time>
      </trkpt>
      <trkpt lat="43.35017" lon="-1.43574">
        <ele>109.2</ele>
        <time>2021-12-14T14:30:25.000Z</time>
      </trkpt>
      <trkpt lat="43.35011" lon="-1.43579">
        <ele>109</ele>
        <time>2021-12-14T14:30:26.000Z</time>
      </trkpt>
      <trkpt lat="43.35006" lon="-1.43584">
        <ele>108.7</ele>
        <time>2021-12-14T14:30:27.000Z</time>
      </trkpt>
      <trkpt lat="43.34999" lon="-1.4359">
        <ele>108.8</ele>
        <time>2021-12-14T14:30:28.000Z</time>
      </trkpt>
      <trkpt lat="43.34993" lon="-1.43595">
        <ele>108.6</ele>
        <time>2021-12-14T14:30:29.000Z</time>
      </trkpt>
      <trkpt lat="43.34987" lon="-1.436">
        <ele>108.3</ele>
        <time>2021-12-14T14:30:30.000Z</time>
      </trkpt>
      <trkpt lat="43.3498" lon="-1.43606">
        <ele>107.7</ele>
        <time>2021-12-14T14:30:31.000Z</time>
      </trkpt>
      <trkpt lat="43.34974" lon="-1.43612">
        <ele>107.1</ele>
        <time>2021-12-14T14:30:32.000Z</time>
      </trkpt>
      <trkpt lat="43.34967" lon="-1.43618">
        <ele>107.1</ele>
        <time>2021-12-14T14:30:33.000Z</time>
      </trkpt>
      <trkpt lat="43.3496" lon="-1.43623">
        <ele>106.9</ele>
        <time>2021-12-14T14:30:34.000Z</time>
      </trkpt>
      <trkpt lat="43.34954" lon="-1.43629">
        <ele>106.3</ele>
        <time>2021-12-14T14:30:35.000Z</time>
      </trkpt>
      <trkpt lat="43.34946" lon="-1.43636">
        <ele>105.5</ele>
        <time>2021-12-14T14:30:36.000Z</time>
      </trkpt>
      <trkpt lat="43.34939" lon="-1.43642">
        <ele>104.7</ele>
        <time>2021-12-14T14:30:37.000Z</time>
      </trkpt>
      <trkpt lat="43.34931" lon="-1.43649">
        <ele>104.2</ele>
        <time>2021-12-14T14:30:38.000Z</time>
      </trkpt>
      <trkpt lat="43.34923" lon="-1.43656">
        <ele>103.6</ele>
        <time>2021-12-14T14:30:39.000Z</time>
      </trkpt>
      <trkpt lat="43.34915" lon="-1.43664">
        <ele>103</ele>
        <time>2021-12-14T14:30:40.000Z</time>
      </trkpt>
      <trkpt lat="43.34907" lon="-1.43671">
        <ele>102</ele>
        <time>2021-12-14T14:30:41.000Z</time>
      </trkpt>
      <trkpt lat="43.34899" lon="-1.43678">
        <ele>100.9</ele>
        <time>2021-12-14T14:30:42.000Z</time>
      </trkpt>
      <trkpt lat="43.3489" lon="-1.43686">
        <ele>99.7</ele>
        <time>2021-12-14T14:30:43.000Z</time>
      </trkpt>
      <trkpt lat="43.34881" lon="-1.43694">
        <ele>98.7</ele>
        <time>2021-12-14T14:30:44.000Z</time>
      </trkpt>
      <trkpt lat="43.34872" lon="-1.43702">
        <ele>97.7</ele>
        <time>2021-12-14T14:30:45.000Z</time>
      </trkpt>
      <trkpt lat="43.34863" lon="-1.4371">
        <ele>96.9</ele>
        <time>2021-12-14T14:30:46.000Z</time>
      </trkpt>
      <trkpt lat="43.34854" lon="-1.43717">
        <ele>96.3</ele>
        <time>2021-12-14T14:30:47.000Z</time>
      </trkpt>
      <trkpt lat="43.34845" lon="-1.43723">
        <ele>95.9</ele>
        <time>2021-12-14T14:30:48.000Z</time>
      </trkpt>
      <trkpt lat="43.34836" lon="-1.43728">
        <ele>95.4</ele>
        <time>2021-12-14T14:30:49.000Z</time>
      </trkpt>
      <trkpt lat="43.34826" lon="-1.43733">
        <ele>94.9</ele>
        <time>2021-12-14T14:30:50.000Z</time>
      </trkpt>
      <trkpt lat="43.34817" lon="-1.43736">
        <ele>94.8</ele>
        <time>2021-12-14T14:30:51.000Z</time>
      </trkpt>
      <trkpt lat="43.34807" lon="-1.43739">
        <ele>95</ele>
        <time>2021-12-14T14:30:52.000Z</time>
      </trkpt>
      <trkpt lat="43.34798" lon="-1.43741">
        <ele>94.9</ele>
        <time>2021-12-14T14:30:53.000Z</time>
      </trkpt>
      <trkpt lat="43.34788" lon="-1.43741">
        <ele>94.8</ele>
        <time>2021-12-14T14:30:54.000Z</time>
      </trkpt>
      <trkpt lat="43.3478" lon="-1.43741">
        <ele>94.7</ele>
        <time>2021-12-14T14:30:55.000Z</time>
      </trkpt>
      <trkpt lat="43.34771" lon="-1.43739">
        <ele>94.8</ele>
        <time>2021-12-14T14:30:56.000Z</time>
      </trkpt>
      <trkpt lat="43.34763" lon="-1.43737">
        <ele>95.2</ele>
        <time>2021-12-14T14:30:57.000Z</time>
      </trkpt>
      <trkpt lat="43.34755" lon="-1.43735">
        <ele>95.5</ele>
        <time>2021-12-14T14:30:58.000Z</time>
      </trkpt>
      <trkpt lat="43.34747" lon="-1.43732">
        <ele>95.8</ele>
        <time>2021-12-14T14:30:59.000Z</time>
      </trkpt>
      <trkpt lat="43.3474" lon="-1.4373">
        <ele>95.8</ele>
        <time>2021-12-14T14:31:00.000Z</time>
      </trkpt>
      <trkpt lat="43.34733" lon="-1.43727">
        <ele>95.9</ele>
        <time>2021-12-14T14:31:01.000Z</time>
      </trkpt>
      <trkpt lat="43.34725" lon="-1.43725">
        <ele>96</ele>
        <time>2021-12-14T14:31:02.000Z</time>
      </trkpt>
      <trkpt lat="43.34719" lon="-1.43722">
        <ele>96</ele>
        <time>2021-12-14T14:31:03.000Z</time>
      </trkpt>
      <trkpt lat="43.34712" lon="-1.4372">
        <ele>95.7</ele>
        <time>2021-12-14T14:31:04.000Z</time>
      </trkpt>
      <trkpt lat="43.34706" lon="-1.43719">
        <ele>95.6</ele>
        <time>2021-12-14T14:31:05.000Z</time>
      </trkpt>
      <trkpt lat="43.34699" lon="-1.43717">
        <ele>95.6</ele>
        <time>2021-12-14T14:31:06.000Z</time>
      </trkpt>
      <trkpt lat="43.34693" lon="-1.43717">
        <ele>95.6</ele>
        <time>2021-12-14T14:31:07.000Z</time>
      </trkpt>
      <trkpt lat="43.34686" lon="-1.43717">
        <ele>95.7</ele>
        <time>2021-12-14T14:31:08.000Z</time>
      </trkpt>
      <trkpt lat="43.3468" lon="-1.43719">
        <ele>95.7</ele>
        <time>2021-12-14T14:31:09.000Z</time>
      </trkpt>
      <trkpt lat="43.34674" lon="-1.43721">
        <ele>95.9</ele>
        <time>2021-12-14T14:31:10.000Z</time>
      </trkpt>
      <trkpt lat="43.34669" lon="-1.43723">
        <ele>96.1</ele>
        <time>2021-12-14T14:31:11.000Z</time>
      </trkpt>
      <trkpt lat="43.34663" lon="-1.43727">
        <ele>96.1</ele>
        <time>2021-12-14T14:31:12.000Z</time>
      </trkpt>
      <trkpt lat="43.34658" lon="-1.4373">
        <ele>96.1</ele>
        <time>2021-12-14T14:31:13.000Z</time>
      </trkpt>
      <trkpt lat="43.34653" lon="-1.43735">
        <ele>96.4</ele>
        <time>2021-12-14T14:31:14.000Z</time>
      </trkpt>
      <trkpt lat="43.34648" lon="-1.43739">
        <ele>96.7</ele>
        <time>2021-12-14T14:31:15.000Z</time>
      </trkpt>
      <trkpt lat="43.34643" lon="-1.43744">
        <ele>97.2</ele>
        <time>2021-12-14T14:31:16.000Z</time>
      </trkpt>
      <trkpt lat="43.34638" lon="-1.43749">
        <ele>97.7</ele>
        <time>2021-12-14T14:31:17.000Z</time>
      </trkpt>
      <trkpt lat="43.34633" lon="-1.43754">
        <ele>97.4</ele>
        <time>2021-12-14T14:31:18.000Z</time>
      </trkpt>
      <trkpt lat="43.34627" lon="-1.43759">
        <ele>96.9</ele>
        <time>2021-12-14T14:31:19.000Z</time>
      </trkpt>
      <trkpt lat="43.34621" lon="-1.43763">
        <ele>96.5</ele>
        <time>2021-12-14T14:31:20.000Z</time>
      </trkpt>
      <trkpt lat="43.34615" lon="-1.43766">
        <ele>95.9</ele>
        <time>2021-12-14T14:31:21.000Z</time>
      </trkpt>
      <trkpt lat="43.34608" lon="-1.43769">
        <ele>95.6</ele>
        <time>2021-12-14T14:31:22.000Z</time>
      </trkpt>
      <trkpt lat="43.34602" lon="-1.43771">
        <ele>95.7</ele>
        <time>2021-12-14T14:31:23.000Z</time>
      </trkpt>
      <trkpt lat="43.34595" lon="-1.43772">
        <ele>95.7</ele>
        <time>2021-12-14T14:31:24.000Z</time>
      </trkpt>
      <trkpt lat="43.34588" lon="-1.43772">
        <ele>95.5</ele>
        <time>2021-12-14T14:31:25.000Z</time>
      </trkpt>
      <trkpt lat="43.34581" lon="-1.43771">
        <ele>95.3</ele>
        <time>2021-12-14T14:31:26.000Z</time>
      </trkpt>
      <trkpt lat="43.34574" lon="-1.43769">
        <ele>95.3</ele>
        <time>2021-12-14T14:31:27.000Z</time>
      </trkpt>
      <trkpt lat="43.34568" lon="-1.43767">
        <ele>95.3</ele>
        <time>2021-12-14T14:31:28.000Z</time>
      </trkpt>
      <trkpt lat="43.34561" lon="-1.43764">
        <ele>95.3</ele>
        <time>2021-12-14T14:31:29.000Z</time>
      </trkpt>
      <trkpt lat="43.34555" lon="-1.43761">
        <ele>95.4</ele>
        <time>2021-12-14T14:31:30.000Z</time>
      </trkpt>
      <trkpt lat="43.34549" lon="-1.43759">
        <ele>95</ele>
        <time>2021-12-14T14:31:31.000Z</time>
      </trkpt>
      <trkpt lat="43.34543" lon="-1.43755">
        <ele>94.6</ele>
        <time>2021-12-14T14:31:32.000Z</time>
      </trkpt>
      <trkpt lat="43.34536" lon="-1.43752">
        <ele>94.3</ele>
        <time>2021-12-14T14:31:33.000Z</time>
      </trkpt>
      <trkpt lat="43.34529" lon="-1.43749">
        <ele>94.1</ele>
        <time>2021-12-14T14:31:34.000Z</time>
      </trkpt>
      <trkpt lat="43.34523" lon="-1.43747">
        <ele>93.8</ele>
        <time>2021-12-14T14:31:35.000Z</time>
      </trkpt>
      <trkpt lat="43.34516" lon="-1.43745">
        <ele>93.7</ele>
        <time>2021-12-14T14:31:36.000Z</time>
      </trkpt>
      <trkpt lat="43.34509" lon="-1.43743">
        <ele>93.5</ele>
        <time>2021-12-14T14:31:37.000Z</time>
      </trkpt>
      <trkpt lat="43.34502" lon="-1.43742">
        <ele>93.3</ele>
        <time>2021-12-14T14:31:38.000Z</time>
      </trkpt>
      <trkpt lat="43.34495" lon="-1.43742">
        <ele>93.2</ele>
        <time>2021-12-14T14:31:39.000Z</time>
      </trkpt>
      <trkpt lat="43.34488" lon="-1.43743">
        <ele>93</ele>
        <time>2021-12-14T14:31:40.000Z</time>
      </trkpt>
      <trkpt lat="43.34482" lon="-1.43744">
        <ele>92.7</ele>
        <time>2021-12-14T14:31:41.000Z</time>
      </trkpt>
      <trkpt lat="43.34475" lon="-1.43745">
        <ele>92.4</ele>
        <time>2021-12-14T14:31:42.000Z</time>
      </trkpt>
      <trkpt lat="43.34468" lon="-1.43748">
        <ele>92.1</ele>
        <time>2021-12-14T14:31:43.000Z</time>
      </trkpt>
      <trkpt lat="43.34461" lon="-1.43751">
        <ele>92</ele>
        <time>2021-12-14T14:31:44.000Z</time>
      </trkpt>
      <trkpt lat="43.34454" lon="-1.43754">
        <ele>91.7</ele>
        <time>2021-12-14T14:31:45.000Z</time>
      </trkpt>
      <trkpt lat="43.34447" lon="-1.43758">
        <ele>91.4</ele>
        <time>2021-12-14T14:31:46.000Z</time>
      </trkpt>
      <trkpt lat="43.34441" lon="-1.43762">
        <ele>91.2</ele>
        <time>2021-12-14T14:31:47.000Z</time>
      </trkpt>
      <trkpt lat="43.34434" lon="-1.43767">
        <ele>91</ele>
        <time>2021-12-14T14:31:48.000Z</time>
      </trkpt>
      <trkpt lat="43.34428" lon="-1.43772">
        <ele>90.9</ele>
        <time>2021-12-14T14:31:49.000Z</time>
      </trkpt>
      <trkpt lat="43.34422" lon="-1.43778">
        <ele>90.8</ele>
        <time>2021-12-14T14:31:50.000Z</time>
      </trkpt>
      <trkpt lat="43.34416" lon="-1.43785">
        <ele>90.3</ele>
        <time>2021-12-14T14:31:51.000Z</time>
      </trkpt>
      <trkpt lat="43.34411" lon="-1.43792">
        <ele>89.6</ele>
        <time>2021-12-14T14:31:52.000Z</time>
      </trkpt>
      <trkpt lat="43.34405" lon="-1.43799">
        <ele>89</ele>
        <time>2021-12-14T14:31:53.000Z</time>
      </trkpt>
      <trkpt lat="43.344" lon="-1.43807">
        <ele>88.5</ele>
        <time>2021-12-14T14:31:54.000Z</time>
      </trkpt>
      <trkpt lat="43.34395" lon="-1.43816">
        <ele>87.9</ele>
        <time>2021-12-14T14:31:55.000Z</time>
      </trkpt>
      <trkpt lat="43.3439" lon="-1.43826">
        <ele>87.5</ele>
        <time>2021-12-14T14:31:56.000Z</time>
      </trkpt>
      <trkpt lat="43.34385" lon="-1.43836">
        <ele>87.2</ele>
        <time>2021-12-14T14:31:57.000Z</time>
      </trkpt>
      <trkpt lat="43.34381" lon="-1.43846">
        <ele>86.9</ele>
        <time>2021-12-14T14:31:58.000Z</time>
      </trkpt>
      <trkpt lat="43.34377" lon="-1.43857">
        <ele>86.6</ele>
        <time>2021-12-14T14:31:59.000Z</time>
      </trkpt>
      <trkpt lat="43.34373" lon="-1.43867">
        <ele>86.1</ele>
        <time>2021-12-14T14:32:00.000Z</time>
      </trkpt>
      <trkpt lat="43.3437" lon="-1.43879">
        <ele>85.6</ele>
        <time>2021-12-14T14:32:01.000Z</time>
      </trkpt>
      <trkpt lat="43.34367" lon="-1.4389">
        <ele>85.1</ele>
        <time>2021-12-14T14:32:02.000Z</time>
      </trkpt>
      <trkpt lat="43.34363" lon="-1.43901">
        <ele>84.9</ele>
        <time>2021-12-14T14:32:03.000Z</time>
      </trkpt>
      <trkpt lat="43.34359" lon="-1.43913">
        <ele>84.5</ele>
        <time>2021-12-14T14:32:04.000Z</time>
      </trkpt>
      <trkpt lat="43.34355" lon="-1.43924">
        <ele>84.1</ele>
        <time>2021-12-14T14:32:05.000Z</time>
      </trkpt>
      <trkpt lat="43.3435" lon="-1.43935">
        <ele>83.8</ele>
        <time>2021-12-14T14:32:06.000Z</time>
      </trkpt>
      <trkpt lat="43.34346" lon="-1.43947">
        <ele>83.4</ele>
        <time>2021-12-14T14:32:07.000Z</time>
      </trkpt>
      <trkpt lat="43.34341" lon="-1.43958">
        <ele>82.8</ele>
        <time>2021-12-14T14:32:08.000Z</time>
      </trkpt>
      <trkpt lat="43.34335" lon="-1.43968">
        <ele>82.2</ele>
        <time>2021-12-14T14:32:09.000Z</time>
      </trkpt>
      <trkpt lat="43.3433" lon="-1.43978">
        <ele>81.6</ele>
        <time>2021-12-14T14:32:10.000Z</time>
      </trkpt>
      <trkpt lat="43.34324" lon="-1.43987">
        <ele>81</ele>
        <time>2021-12-14T14:32:11.000Z</time>
      </trkpt>
      <trkpt lat="43.34318" lon="-1.43997">
        <ele>80.5</ele>
        <time>2021-12-14T14:32:12.000Z</time>
      </trkpt>
      <trkpt lat="43.34312" lon="-1.44006">
        <ele>80</ele>
        <time>2021-12-14T14:32:13.000Z</time>
      </trkpt>
      <trkpt lat="43.34305" lon="-1.44014">
        <ele>79.5</ele>
        <time>2021-12-14T14:32:14.000Z</time>
      </trkpt>
      <trkpt lat="43.34299" lon="-1.44023">
        <ele>79.3</ele>
        <time>2021-12-14T14:32:15.000Z</time>
      </trkpt>
      <trkpt lat="43.34292" lon="-1.44031">
        <ele>79</ele>
        <time>2021-12-14T14:32:16.000Z</time>
      </trkpt>
      <trkpt lat="43.34285" lon="-1.4404">
        <ele>78.5</ele>
        <time>2021-12-14T14:32:17.000Z</time>
      </trkpt>
      <trkpt lat="43.34278" lon="-1.44048">
        <ele>78</ele>
        <time>2021-12-14T14:32:18.000Z</time>
      </trkpt>
      <trkpt lat="43.34272" lon="-1.44057">
        <ele>77.5</ele>
        <time>2021-12-14T14:32:19.000Z</time>
      </trkpt>
      <trkpt lat="43.34265" lon="-1.44066">
        <ele>77.2</ele>
        <time>2021-12-14T14:32:20.000Z</time>
      </trkpt>
      <trkpt lat="43.34258" lon="-1.44075">
        <ele>76.6</ele>
        <time>2021-12-14T14:32:21.000Z</time>
      </trkpt>
      <trkpt lat="43.34252" lon="-1.44084">
        <ele>75.8</ele>
        <time>2021-12-14T14:32:22.000Z</time>
      </trkpt>
      <trkpt lat="43.34246" lon="-1.44094">
        <ele>75.2</ele>
        <time>2021-12-14T14:32:23.000Z</time>
      </trkpt>
      <trkpt lat="43.3424" lon="-1.44104">
        <ele>74.5</ele>
        <time>2021-12-14T14:32:24.000Z</time>
      </trkpt>
      <trkpt lat="43.34234" lon="-1.44114">
        <ele>73.9</ele>
        <time>2021-12-14T14:32:25.000Z</time>
      </trkpt>
      <trkpt lat="43.34228" lon="-1.44124">
        <ele>73.6</ele>
        <time>2021-12-14T14:32:26.000Z</time>
      </trkpt>
      <trkpt lat="43.34223" lon="-1.44135">
        <ele>73.3</ele>
        <time>2021-12-14T14:32:27.000Z</time>
      </trkpt>
      <trkpt lat="43.34217" lon="-1.44146">
        <ele>72.7</ele>
        <time>2021-12-14T14:32:28.000Z</time>
      </trkpt>
      <trkpt lat="43.34212" lon="-1.44157">
        <ele>72.1</ele>
        <time>2021-12-14T14:32:29.000Z</time>
      </trkpt>
      <trkpt lat="43.34207" lon="-1.44168">
        <ele>71.5</ele>
        <time>2021-12-14T14:32:30.000Z</time>
      </trkpt>
      <trkpt lat="43.34203" lon="-1.4418">
        <ele>71.1</ele>
        <time>2021-12-14T14:32:31.000Z</time>
      </trkpt>
      <trkpt lat="43.34198" lon="-1.44192">
        <ele>70.8</ele>
        <time>2021-12-14T14:32:32.000Z</time>
      </trkpt>
      <trkpt lat="43.34194" lon="-1.44204">
        <ele>70.7</ele>
        <time>2021-12-14T14:32:33.000Z</time>
      </trkpt>
      <trkpt lat="43.34189" lon="-1.44215">
        <ele>70.2</ele>
        <time>2021-12-14T14:32:34.000Z</time>
      </trkpt>
      <trkpt lat="43.34184" lon="-1.44226">
        <ele>69.7</ele>
        <time>2021-12-14T14:32:35.000Z</time>
      </trkpt>
      <trkpt lat="43.34178" lon="-1.44237">
        <ele>68.9</ele>
        <time>2021-12-14T14:32:36.000Z</time>
      </trkpt>
      <trkpt lat="43.34172" lon="-1.44247">
        <ele>68.2</ele>
        <time>2021-12-14T14:32:37.000Z</time>
      </trkpt>
      <trkpt lat="43.34166" lon="-1.44258">
        <ele>67.7</ele>
        <time>2021-12-14T14:32:38.000Z</time>
      </trkpt>
      <trkpt lat="43.3416" lon="-1.44267">
        <ele>67.4</ele>
        <time>2021-12-14T14:32:39.000Z</time>
      </trkpt>
      <trkpt lat="43.34153" lon="-1.44277">
        <ele>67</ele>
        <time>2021-12-14T14:32:40.000Z</time>
      </trkpt>
      <trkpt lat="43.34145" lon="-1.44287">
        <ele>66.3</ele>
        <time>2021-12-14T14:32:41.000Z</time>
      </trkpt>
      <trkpt lat="43.34138" lon="-1.44295">
        <ele>65.7</ele>
        <time>2021-12-14T14:32:42.000Z</time>
      </trkpt>
      <trkpt lat="43.34129" lon="-1.44303">
        <ele>65.1</ele>
        <time>2021-12-14T14:32:43.000Z</time>
      </trkpt>
      <trkpt lat="43.34121" lon="-1.44311">
        <ele>64.6</ele>
        <time>2021-12-14T14:32:44.000Z</time>
      </trkpt>
      <trkpt lat="43.34112" lon="-1.44317">
        <ele>64.1</ele>
        <time>2021-12-14T14:32:45.000Z</time>
      </trkpt>
      <trkpt lat="43.34104" lon="-1.44323">
        <ele>63.7</ele>
        <time>2021-12-14T14:32:46.000Z</time>
      </trkpt>
      <trkpt lat="43.34094" lon="-1.44329">
        <ele>63.3</ele>
        <time>2021-12-14T14:32:47.000Z</time>
      </trkpt>
      <trkpt lat="43.34084" lon="-1.44334">
        <ele>63</ele>
        <time>2021-12-14T14:32:48.000Z</time>
      </trkpt>
      <trkpt lat="43.34075" lon="-1.44338">
        <ele>62.3</ele>
        <time>2021-12-14T14:32:49.000Z</time>
      </trkpt>
      <trkpt lat="43.34065" lon="-1.44341">
        <ele>61.4</ele>
        <time>2021-12-14T14:32:50.000Z</time>
      </trkpt>
      <trkpt lat="43.34055" lon="-1.44345">
        <ele>60.3</ele>
        <time>2021-12-14T14:32:51.000Z</time>
      </trkpt>
      <trkpt lat="43.34045" lon="-1.44349">
        <ele>60.1</ele>
        <time>2021-12-14T14:32:52.000Z</time>
      </trkpt>
      <trkpt lat="43.34036" lon="-1.44354">
        <ele>60.1</ele>
        <time>2021-12-14T14:32:53.000Z</time>
      </trkpt>
      <trkpt lat="43.34026" lon="-1.44359">
        <ele>60.1</ele>
        <time>2021-12-14T14:32:54.000Z</time>
      </trkpt>
      <trkpt lat="43.34017" lon="-1.44365">
        <ele>59.4</ele>
        <time>2021-12-14T14:32:55.000Z</time>
      </trkpt>
      <trkpt lat="43.34009" lon="-1.44372">
        <ele>59.1</ele>
        <time>2021-12-14T14:32:56.000Z</time>
      </trkpt>
      <trkpt lat="43.34001" lon="-1.44379">
        <ele>59</ele>
        <time>2021-12-14T14:32:57.000Z</time>
      </trkpt>
      <trkpt lat="43.33994" lon="-1.44386">
        <ele>59.2</ele>
        <time>2021-12-14T14:32:58.000Z</time>
      </trkpt>
      <trkpt lat="43.33988" lon="-1.44394">
        <ele>59.4</ele>
        <time>2021-12-14T14:32:59.000Z</time>
      </trkpt>
      <trkpt lat="43.33983" lon="-1.44401">
        <ele>59.7</ele>
        <time>2021-12-14T14:33:00.000Z</time>
      </trkpt>
      <trkpt lat="43.33978" lon="-1.44409">
        <ele>60.2</ele>
        <time>2021-12-14T14:33:01.000Z</time>
      </trkpt>
      <trkpt lat="43.33974" lon="-1.44416">
        <ele>60.8</ele>
        <time>2021-12-14T14:33:02.000Z</time>
      </trkpt>
      <trkpt lat="43.33971" lon="-1.44423">
        <ele>60.9</ele>
        <time>2021-12-14T14:33:03.000Z</time>
      </trkpt>
      <trkpt lat="43.33968" lon="-1.44429">
        <ele>60.7</ele>
        <time>2021-12-14T14:33:04.000Z</time>
      </trkpt>
      <trkpt lat="43.33966" lon="-1.44436">
        <ele>60.5</ele>
        <time>2021-12-14T14:33:05.000Z</time>
      </trkpt>
      <trkpt lat="43.33964" lon="-1.44443">
        <ele>60.4</ele>
        <time>2021-12-14T14:33:06.000Z</time>
      </trkpt>
      <trkpt lat="43.33961" lon="-1.4445">
        <ele>60.7</ele>
        <time>2021-12-14T14:33:07.000Z</time>
      </trkpt>
      <trkpt lat="43.33959" lon="-1.44457">
        <ele>61.4</ele>
        <time>2021-12-14T14:33:08.000Z</time>
      </trkpt>
      <trkpt lat="43.33957" lon="-1.44464">
        <ele>62.2</ele>
        <time>2021-12-14T14:33:09.000Z</time>
      </trkpt>
      <trkpt lat="43.33956" lon="-1.44471">
        <ele>63.1</ele>
        <time>2021-12-14T14:33:10.000Z</time>
      </trkpt>
      <trkpt lat="43.33953" lon="-1.44478">
        <ele>63.7</ele>
        <time>2021-12-14T14:33:11.000Z</time>
      </trkpt>
      <trkpt lat="43.33951" lon="-1.44484">
        <ele>64.4</ele>
        <time>2021-12-14T14:33:12.000Z</time>
      </trkpt>
      <trkpt lat="43.33948" lon="-1.4449">
        <ele>65.1</ele>
        <time>2021-12-14T14:33:13.000Z</time>
      </trkpt>
      <trkpt lat="43.33945" lon="-1.44496">
        <ele>65.7</ele>
        <time>2021-12-14T14:33:14.000Z</time>
      </trkpt>
      <trkpt lat="43.33942" lon="-1.44502">
        <ele>65.8</ele>
        <time>2021-12-14T14:33:15.000Z</time>
      </trkpt>
      <trkpt lat="43.33938" lon="-1.44507">
        <ele>65.8</ele>
        <time>2021-12-14T14:33:16.000Z</time>
      </trkpt>
      <trkpt lat="43.33934" lon="-1.44512">
        <ele>66</ele>
        <time>2021-12-14T14:33:17.000Z</time>
      </trkpt>
      <trkpt lat="43.3393" lon="-1.44516">
        <ele>66.3</ele>
        <time>2021-12-14T14:33:18.000Z</time>
      </trkpt>
      <trkpt lat="43.33926" lon="-1.4452">
        <ele>66.7</ele>
        <time>2021-12-14T14:33:19.000Z</time>
      </trkpt>
      <trkpt lat="43.33922" lon="-1.44523">
        <ele>67.2</ele>
        <time>2021-12-14T14:33:20.000Z</time>
      </trkpt>
      <trkpt lat="43.33917" lon="-1.44527">
        <ele>67.8</ele>
        <time>2021-12-14T14:33:21.000Z</time>
      </trkpt>
      <trkpt lat="43.33912" lon="-1.4453">
        <ele>68.5</ele>
        <time>2021-12-14T14:33:22.000Z</time>
      </trkpt>
      <trkpt lat="43.33908" lon="-1.44533">
        <ele>69.2</ele>
        <time>2021-12-14T14:33:23.000Z</time>
      </trkpt>
      <trkpt lat="43.33903" lon="-1.44536">
        <ele>69.7</ele>
        <time>2021-12-14T14:33:24.000Z</time>
      </trkpt>
      <trkpt lat="43.33899" lon="-1.44538">
        <ele>70.3</ele>
        <time>2021-12-14T14:33:25.000Z</time>
      </trkpt>
      <trkpt lat="43.33895" lon="-1.44541">
        <ele>70.8</ele>
        <time>2021-12-14T14:33:26.000Z</time>
      </trkpt>
      <trkpt lat="43.3389" lon="-1.44544">
        <ele>71.3</ele>
        <time>2021-12-14T14:33:27.000Z</time>
      </trkpt>
      <trkpt lat="43.33886" lon="-1.44547">
        <ele>71.7</ele>
        <time>2021-12-14T14:33:28.000Z</time>
      </trkpt>
      <trkpt lat="43.33882" lon="-1.4455">
        <ele>72.2</ele>
        <time>2021-12-14T14:33:29.000Z</time>
      </trkpt>
      <trkpt lat="43.33878" lon="-1.44554">
        <ele>72.7</ele>
        <time>2021-12-14T14:33:30.000Z</time>
      </trkpt>
      <trkpt lat="43.33874" lon="-1.44558">
        <ele>73.2</ele>
        <time>2021-12-14T14:33:31.000Z</time>
      </trkpt>
      <trkpt lat="43.3387" lon="-1.44562">
        <ele>73.5</ele>
        <time>2021-12-14T14:33:32.000Z</time>
      </trkpt>
      <trkpt lat="43.33866" lon="-1.44567">
        <ele>73.9</ele>
        <time>2021-12-14T14:33:33.000Z</time>
      </trkpt>
      <trkpt lat="43.33863" lon="-1.44572">
        <ele>74.2</ele>
        <time>2021-12-14T14:33:34.000Z</time>
      </trkpt>
      <trkpt lat="43.33859" lon="-1.44577">
        <ele>74.7</ele>
        <time>2021-12-14T14:33:35.000Z</time>
      </trkpt>
      <trkpt lat="43.33857" lon="-1.44583">
        <ele>75.3</ele>
        <time>2021-12-14T14:33:36.000Z</time>
      </trkpt>
      <trkpt lat="43.33855" lon="-1.44589">
        <ele>76</ele>
        <time>2021-12-14T14:33:37.000Z</time>
      </trkpt>
      <trkpt lat="43.33853" lon="-1.44595">
        <ele>76.6</ele>
        <time>2021-12-14T14:33:38.000Z</time>
      </trkpt>
      <trkpt lat="43.33852" lon="-1.44601">
        <ele>77.2</ele>
        <time>2021-12-14T14:33:39.000Z</time>
      </trkpt>
      <trkpt lat="43.33851" lon="-1.44608">
        <ele>77.7</ele>
        <time>2021-12-14T14:33:40.000Z</time>
      </trkpt>
      <trkpt lat="43.33851" lon="-1.44614">
        <ele>78</ele>
        <time>2021-12-14T14:33:41.000Z</time>
      </trkpt>
      <trkpt lat="43.3385" lon="-1.44622">
        <ele>77.8</ele>
        <time>2021-12-14T14:33:42.000Z</time>
      </trkpt>
      <trkpt lat="43.3385" lon="-1.44629">
        <ele>77.7</ele>
        <time>2021-12-14T14:33:43.000Z</time>
      </trkpt>
      <trkpt lat="43.3385" lon="-1.44636">
        <ele>77.6</ele>
        <time>2021-12-14T14:33:44.000Z</time>
      </trkpt>
      <trkpt lat="43.3385" lon="-1.44644">
        <ele>77.6</ele>
        <time>2021-12-14T14:33:45.000Z</time>
      </trkpt>
      <trkpt lat="43.3385" lon="-1.44651">
        <ele>77.5</ele>
        <time>2021-12-14T14:33:46.000Z</time>
      </trkpt>
      <trkpt lat="43.33849" lon="-1.44659">
        <ele>77.5</ele>
        <time>2021-12-14T14:33:47.000Z</time>
      </trkpt>
      <trkpt lat="43.33847" lon="-1.44667">
        <ele>77.5</ele>
        <time>2021-12-14T14:33:48.000Z</time>
      </trkpt>
      <trkpt lat="43.33846" lon="-1.44675">
        <ele>77.4</ele>
        <time>2021-12-14T14:33:49.000Z</time>
      </trkpt>
      <trkpt lat="43.33845" lon="-1.44684">
        <ele>77.2</ele>
        <time>2021-12-14T14:33:50.000Z</time>
      </trkpt>
      <trkpt lat="43.33844" lon="-1.44692">
        <ele>77</ele>
        <time>2021-12-14T14:33:51.000Z</time>
      </trkpt>
      <trkpt lat="43.33843" lon="-1.44702">
        <ele>76.8</ele>
        <time>2021-12-14T14:33:52.000Z</time>
      </trkpt>
      <trkpt lat="43.33842" lon="-1.44711">
        <ele>76.6</ele>
        <time>2021-12-14T14:33:53.000Z</time>
      </trkpt>
      <trkpt lat="43.33843" lon="-1.4472">
        <ele>76.4</ele>
        <time>2021-12-14T14:33:54.000Z</time>
      </trkpt>
      <trkpt lat="43.33843" lon="-1.4473">
        <ele>76.1</ele>
        <time>2021-12-14T14:33:55.000Z</time>
      </trkpt>
      <trkpt lat="43.33843" lon="-1.4474">
        <ele>75.7</ele>
        <time>2021-12-14T14:33:56.000Z</time>
      </trkpt>
      <trkpt lat="43.33844" lon="-1.4475">
        <ele>75.4</ele>
        <time>2021-12-14T14:33:57.000Z</time>
      </trkpt>
      <trkpt lat="43.33844" lon="-1.4476">
        <ele>75</ele>
        <time>2021-12-14T14:33:58.000Z</time>
      </trkpt>
      <trkpt lat="43.33844" lon="-1.4477">
        <ele>74.7</ele>
        <time>2021-12-14T14:33:59.000Z</time>
      </trkpt>
      <trkpt lat="43.33844" lon="-1.44781">
        <ele>74.2</ele>
        <time>2021-12-14T14:34:00.000Z</time>
      </trkpt>
      <trkpt lat="43.33844" lon="-1.44793">
        <ele>73.6</ele>
        <time>2021-12-14T14:34:01.000Z</time>
      </trkpt>
      <trkpt lat="43.33844" lon="-1.44804">
        <ele>73.1</ele>
        <time>2021-12-14T14:34:02.000Z</time>
      </trkpt>
      <trkpt lat="43.33845" lon="-1.44816">
        <ele>72.5</ele>
        <time>2021-12-14T14:34:03.000Z</time>
      </trkpt>
      <trkpt lat="43.33846" lon="-1.44827">
        <ele>71.9</ele>
        <time>2021-12-14T14:34:04.000Z</time>
      </trkpt>
      <trkpt lat="43.33847" lon="-1.44839">
        <ele>71.3</ele>
        <time>2021-12-14T14:34:05.000Z</time>
      </trkpt>
      <trkpt lat="43.33849" lon="-1.44851">
        <ele>70.7</ele>
        <time>2021-12-14T14:34:06.000Z</time>
      </trkpt>
      <trkpt lat="43.33852" lon="-1.44862">
        <ele>70</ele>
        <time>2021-12-14T14:34:07.000Z</time>
      </trkpt>
      <trkpt lat="43.33855" lon="-1.44873">
        <ele>70</ele>
        <time>2021-12-14T14:34:08.000Z</time>
      </trkpt>
      <trkpt lat="43.3386" lon="-1.44884">
        <ele>70</ele>
        <time>2021-12-14T14:34:09.000Z</time>
      </trkpt>
      <trkpt lat="43.33864" lon="-1.44895">
        <ele>69.4</ele>
        <time>2021-12-14T14:34:10.000Z</time>
      </trkpt>
      <trkpt lat="43.33869" lon="-1.44906">
        <ele>68.3</ele>
        <time>2021-12-14T14:34:11.000Z</time>
      </trkpt>
      <trkpt lat="43.33875" lon="-1.44917">
        <ele>67</ele>
        <time>2021-12-14T14:34:12.000Z</time>
      </trkpt>
      <trkpt lat="43.33881" lon="-1.44927">
        <ele>66.8</ele>
        <time>2021-12-14T14:34:13.000Z</time>
      </trkpt>
      <trkpt lat="43.33886" lon="-1.44938">
        <ele>66.3</ele>
        <time>2021-12-14T14:34:14.000Z</time>
      </trkpt>
      <trkpt lat="43.33892" lon="-1.44948">
        <ele>66</ele>
        <time>2021-12-14T14:34:15.000Z</time>
      </trkpt>
      <trkpt lat="43.33898" lon="-1.44958">
        <ele>65.7</ele>
        <time>2021-12-14T14:34:16.000Z</time>
      </trkpt>
      <trkpt lat="43.33904" lon="-1.44968">
        <ele>65.1</ele>
        <time>2021-12-14T14:34:17.000Z</time>
      </trkpt>
      <trkpt lat="43.33909" lon="-1.44977">
        <ele>64.8</ele>
        <time>2021-12-14T14:34:18.000Z</time>
      </trkpt>
      <trkpt lat="43.33915" lon="-1.44987">
        <ele>64.7</ele>
        <time>2021-12-14T14:34:19.000Z</time>
      </trkpt>
      <trkpt lat="43.3392" lon="-1.44996">
        <ele>64.7</ele>
        <time>2021-12-14T14:34:20.000Z</time>
      </trkpt>
      <trkpt lat="43.33926" lon="-1.45005">
        <ele>64.5</ele>
        <time>2021-12-14T14:34:21.000Z</time>
      </trkpt>
      <trkpt lat="43.33931" lon="-1.45014">
        <ele>64.5</ele>
        <time>2021-12-14T14:34:22.000Z</time>
      </trkpt>
      <trkpt lat="43.33936" lon="-1.45023">
        <ele>64.4</ele>
        <time>2021-12-14T14:34:23.000Z</time>
      </trkpt>
      <trkpt lat="43.33941" lon="-1.45032">
        <ele>64.3</ele>
        <time>2021-12-14T14:34:24.000Z</time>
      </trkpt>
      <trkpt lat="43.33946" lon="-1.4504">
        <ele>63.9</ele>
        <time>2021-12-14T14:34:25.000Z</time>
      </trkpt>
      <trkpt lat="43.33951" lon="-1.45049">
        <ele>63.4</ele>
        <time>2021-12-14T14:34:26.000Z</time>
      </trkpt>
      <trkpt lat="43.33956" lon="-1.45057">
        <ele>62.9</ele>
        <time>2021-12-14T14:34:27.000Z</time>
      </trkpt>
      <trkpt lat="43.3396" lon="-1.45066">
        <ele>62.8</ele>
        <time>2021-12-14T14:34:28.000Z</time>
      </trkpt>
      <trkpt lat="43.33965" lon="-1.45075">
        <ele>62.3</ele>
        <time>2021-12-14T14:34:29.000Z</time>
      </trkpt>
      <trkpt lat="43.3397" lon="-1.45084">
        <ele>61.5</ele>
        <time>2021-12-14T14:34:30.000Z</time>
      </trkpt>
      <trkpt lat="43.33975" lon="-1.45092">
        <ele>61.3</ele>
        <time>2021-12-14T14:34:31.000Z</time>
      </trkpt>
      <trkpt lat="43.3398" lon="-1.45101">
        <ele>61.2</ele>
        <time>2021-12-14T14:34:32.000Z</time>
      </trkpt>
      <trkpt lat="43.33986" lon="-1.4511">
        <ele>60.6</ele>
        <time>2021-12-14T14:34:33.000Z</time>
      </trkpt>
      <trkpt lat="43.33992" lon="-1.45117">
        <ele>60.4</ele>
        <time>2021-12-14T14:34:34.000Z</time>
      </trkpt>
      <trkpt lat="43.33997" lon="-1.45123">
        <ele>60.2</ele>
        <time>2021-12-14T14:34:35.000Z</time>
      </trkpt>
      <trkpt lat="43.34003" lon="-1.45129">
        <ele>60.7</ele>
        <time>2021-12-14T14:34:36.000Z</time>
      </trkpt>
      <trkpt lat="43.34007" lon="-1.45136">
        <ele>61.4</ele>
        <time>2021-12-14T14:34:37.000Z</time>
      </trkpt>
      <trkpt lat="43.3401" lon="-1.45143">
        <ele>61.5</ele>
        <time>2021-12-14T14:34:38.000Z</time>
      </trkpt>
      <trkpt lat="43.34011" lon="-1.4515">
        <ele>61.3</ele>
        <time>2021-12-14T14:34:39.000Z</time>
      </trkpt>
      <trkpt lat="43.34011" lon="-1.45157">
        <ele>60.9</ele>
        <time>2021-12-14T14:34:40.000Z</time>
      </trkpt>
      <trkpt lat="43.34009" lon="-1.45164">
        <ele>60.5</ele>
        <time>2021-12-14T14:34:41.000Z</time>
      </trkpt>
      <trkpt lat="43.34007" lon="-1.45171">
        <ele>60.2</ele>
        <time>2021-12-14T14:34:42.000Z</time>
      </trkpt>
      <trkpt lat="43.34004" lon="-1.45178">
        <ele>60.1</ele>
        <time>2021-12-14T14:34:43.000Z</time>
      </trkpt>
      <trkpt lat="43.34" lon="-1.45185">
        <ele>60</ele>
        <time>2021-12-14T14:34:44.000Z</time>
      </trkpt>
      <trkpt lat="43.33997" lon="-1.45194">
        <ele>60.5</ele>
        <time>2021-12-14T14:34:45.000Z</time>
      </trkpt>
      <trkpt lat="43.33995" lon="-1.45202">
        <ele>60.5</ele>
        <time>2021-12-14T14:34:46.000Z</time>
      </trkpt>
      <trkpt lat="43.33992" lon="-1.45211">
        <ele>60.3</ele>
        <time>2021-12-14T14:34:47.000Z</time>
      </trkpt>
      <trkpt lat="43.3399" lon="-1.45219">
        <ele>59.9</ele>
        <time>2021-12-14T14:34:48.000Z</time>
      </trkpt>
      <trkpt lat="43.33988" lon="-1.45227">
        <ele>59.7</ele>
        <time>2021-12-14T14:34:49.000Z</time>
      </trkpt>
      <trkpt lat="43.33985" lon="-1.45235">
        <ele>59.6</ele>
        <time>2021-12-14T14:34:50.000Z</time>
      </trkpt>
      <trkpt lat="43.33982" lon="-1.45242">
        <ele>59.5</ele>
        <time>2021-12-14T14:34:51.000Z</time>
      </trkpt>
      <trkpt lat="43.33979" lon="-1.4525">
        <ele>59.5</ele>
        <time>2021-12-14T14:34:52.000Z</time>
      </trkpt>
      <trkpt lat="43.33976" lon="-1.45257">
        <ele>59.7</ele>
        <time>2021-12-14T14:34:53.000Z</time>
      </trkpt>
      <trkpt lat="43.33972" lon="-1.45263">
        <ele>60</ele>
        <time>2021-12-14T14:34:54.000Z</time>
      </trkpt>
      <trkpt lat="43.33969" lon="-1.4527">
        <ele>60.4</ele>
        <time>2021-12-14T14:34:55.000Z</time>
      </trkpt>
      <trkpt lat="43.33964" lon="-1.45276">
        <ele>60.7</ele>
        <time>2021-12-14T14:34:56.000Z</time>
      </trkpt>
      <trkpt lat="43.3396" lon="-1.45281">
        <ele>60.8</ele>
        <time>2021-12-14T14:34:57.000Z</time>
      </trkpt>
      <trkpt lat="43.33955" lon="-1.45286">
        <ele>61</ele>
        <time>2021-12-14T14:34:58.000Z</time>
      </trkpt>
      <trkpt lat="43.3395" lon="-1.45292">
        <ele>61.2</ele>
        <time>2021-12-14T14:34:59.000Z</time>
      </trkpt>
      <trkpt lat="43.33945" lon="-1.45297">
        <ele>61.3</ele>
        <time>2021-12-14T14:35:00.000Z</time>
      </trkpt>
      <trkpt lat="43.33941" lon="-1.45302">
        <ele>61.3</ele>
        <time>2021-12-14T14:35:01.000Z</time>
      </trkpt>
      <trkpt lat="43.33935" lon="-1.45308">
        <ele>61.1</ele>
        <time>2021-12-14T14:35:02.000Z</time>
      </trkpt>
      <trkpt lat="43.3393" lon="-1.45313">
        <ele>60.7</ele>
        <time>2021-12-14T14:35:03.000Z</time>
      </trkpt>
      <trkpt lat="43.33925" lon="-1.45319">
        <ele>60.2</ele>
        <time>2021-12-14T14:35:04.000Z</time>
      </trkpt>
      <trkpt lat="43.33919" lon="-1.45325">
        <ele>59.8</ele>
        <time>2021-12-14T14:35:05.000Z</time>
      </trkpt>
      <trkpt lat="43.33913" lon="-1.4533">
        <ele>59.6</ele>
        <time>2021-12-14T14:35:06.000Z</time>
      </trkpt>
      <trkpt lat="43.33908" lon="-1.45336">
        <ele>59.6</ele>
        <time>2021-12-14T14:35:07.000Z</time>
      </trkpt>
      <trkpt lat="43.33902" lon="-1.45342">
        <ele>59.7</ele>
        <time>2021-12-14T14:35:08.000Z</time>
      </trkpt>
      <trkpt lat="43.33896" lon="-1.45348">
        <ele>59.7</ele>
        <time>2021-12-14T14:35:09.000Z</time>
      </trkpt>
      <trkpt lat="43.3389" lon="-1.45354">
        <ele>59.5</ele>
        <time>2021-12-14T14:35:10.000Z</time>
      </trkpt>
      <trkpt lat="43.33884" lon="-1.4536">
        <ele>59.3</ele>
        <time>2021-12-14T14:35:11.000Z</time>
      </trkpt>
      <trkpt lat="43.33878" lon="-1.45366">
        <ele>58.9</ele>
        <time>2021-12-14T14:35:12.000Z</time>
      </trkpt>
      <trkpt lat="43.33873" lon="-1.45373">
        <ele>58.6</ele>
        <time>2021-12-14T14:35:13.000Z</time>
      </trkpt>
      <trkpt lat="43.33867" lon="-1.45379">
        <ele>58.4</ele>
        <time>2021-12-14T14:35:14.000Z</time>
      </trkpt>
      <trkpt lat="43.33861" lon="-1.45386">
        <ele>58.2</ele>
        <time>2021-12-14T14:35:15.000Z</time>
      </trkpt>
      <trkpt lat="43.33856" lon="-1.45393">
        <ele>57.9</ele>
        <time>2021-12-14T14:35:16.000Z</time>
      </trkpt>
      <trkpt lat="43.33851" lon="-1.454">
        <ele>57.5</ele>
        <time>2021-12-14T14:35:17.000Z</time>
      </trkpt>
      <trkpt lat="43.33847" lon="-1.45408">
        <ele>57.2</ele>
        <time>2021-12-14T14:35:18.000Z</time>
      </trkpt>
      <trkpt lat="43.33842" lon="-1.45416">
        <ele>56.7</ele>
        <time>2021-12-14T14:35:19.000Z</time>
      </trkpt>
      <trkpt lat="43.33838" lon="-1.45424">
        <ele>56.4</ele>
        <time>2021-12-14T14:35:20.000Z</time>
      </trkpt>
      <trkpt lat="43.33834" lon="-1.45432">
        <ele>55.9</ele>
        <time>2021-12-14T14:35:21.000Z</time>
      </trkpt>
      <trkpt lat="43.33831" lon="-1.4544">
        <ele>55.6</ele>
        <time>2021-12-14T14:35:22.000Z</time>
      </trkpt>
      <trkpt lat="43.33828" lon="-1.45447">
        <ele>55.5</ele>
        <time>2021-12-14T14:35:23.000Z</time>
      </trkpt>
      <trkpt lat="43.33824" lon="-1.45455">
        <ele>55.6</ele>
        <time>2021-12-14T14:35:24.000Z</time>
      </trkpt>
      <trkpt lat="43.33821" lon="-1.45463">
        <ele>55.6</ele>
        <time>2021-12-14T14:35:25.000Z</time>
      </trkpt>
      <trkpt lat="43.33818" lon="-1.45471">
        <ele>55.7</ele>
        <time>2021-12-14T14:35:26.000Z</time>
      </trkpt>
      <trkpt lat="43.33815" lon="-1.45479">
        <ele>55.9</ele>
        <time>2021-12-14T14:35:27.000Z</time>
      </trkpt>
      <trkpt lat="43.33812" lon="-1.45486">
        <ele>56.1</ele>
        <time>2021-12-14T14:35:28.000Z</time>
      </trkpt>
      <trkpt lat="43.33809" lon="-1.45493">
        <ele>56.5</ele>
        <time>2021-12-14T14:35:29.000Z</time>
      </trkpt>
      <trkpt lat="43.33806" lon="-1.455">
        <ele>56.9</ele>
        <time>2021-12-14T14:35:30.000Z</time>
      </trkpt>
      <trkpt lat="43.33803" lon="-1.45508">
        <ele>56.8</ele>
        <time>2021-12-14T14:35:31.000Z</time>
      </trkpt>
      <trkpt lat="43.33799" lon="-1.45515">
        <ele>56.8</ele>
        <time>2021-12-14T14:35:32.000Z</time>
      </trkpt>
      <trkpt lat="43.33796" lon="-1.45522">
        <ele>57</ele>
        <time>2021-12-14T14:35:33.000Z</time>
      </trkpt>
      <trkpt lat="43.33792" lon="-1.45529">
        <ele>57.3</ele>
        <time>2021-12-14T14:35:34.000Z</time>
      </trkpt>
      <trkpt lat="43.33789" lon="-1.45536">
        <ele>57.4</ele>
        <time>2021-12-14T14:35:35.000Z</time>
      </trkpt>
      <trkpt lat="43.33785" lon="-1.45542">
        <ele>57.5</ele>
        <time>2021-12-14T14:35:36.000Z</time>
      </trkpt>
      <trkpt lat="43.33782" lon="-1.4555">
        <ele>57.2</ele>
        <time>2021-12-14T14:35:37.000Z</time>
      </trkpt>
      <trkpt lat="43.33778" lon="-1.45557">
        <ele>56.9</ele>
        <time>2021-12-14T14:35:38.000Z</time>
      </trkpt>
      <trkpt lat="43.33774" lon="-1.45564">
        <ele>57.4</ele>
        <time>2021-12-14T14:35:39.000Z</time>
      </trkpt>
      <trkpt lat="43.33769" lon="-1.45571">
        <ele>57.7</ele>
        <time>2021-12-14T14:35:40.000Z</time>
      </trkpt>
      <trkpt lat="43.33766" lon="-1.45579">
        <ele>57.7</ele>
        <time>2021-12-14T14:35:41.000Z</time>
      </trkpt>
      <trkpt lat="43.33762" lon="-1.45585">
        <ele>57.7</ele>
        <time>2021-12-14T14:35:42.000Z</time>
      </trkpt>
      <trkpt lat="43.33757" lon="-1.45592">
        <ele>57.7</ele>
        <time>2021-12-14T14:35:43.000Z</time>
      </trkpt>
      <trkpt lat="43.33753" lon="-1.45599">
        <ele>57.7</ele>
        <time>2021-12-14T14:35:44.000Z</time>
      </trkpt>
      <trkpt lat="43.33749" lon="-1.45606">
        <ele>58</ele>
        <time>2021-12-14T14:35:45.000Z</time>
      </trkpt>
      <trkpt lat="43.33745" lon="-1.45612">
        <ele>58.3</ele>
        <time>2021-12-14T14:35:46.000Z</time>
      </trkpt>
      <trkpt lat="43.33741" lon="-1.45619">
        <ele>58.3</ele>
        <time>2021-12-14T14:35:47.000Z</time>
      </trkpt>
      <trkpt lat="43.33736" lon="-1.45625">
        <ele>58.2</ele>
        <time>2021-12-14T14:35:48.000Z</time>
      </trkpt>
      <trkpt lat="43.33732" lon="-1.45632">
        <ele>58</ele>
        <time>2021-12-14T14:35:49.000Z</time>
      </trkpt>
      <trkpt lat="43.33728" lon="-1.45638">
        <ele>57.7</ele>
        <time>2021-12-14T14:35:50.000Z</time>
      </trkpt>
      <trkpt lat="43.33724" lon="-1.45645">
        <ele>57.6</ele>
        <time>2021-12-14T14:35:51.000Z</time>
      </trkpt>
      <trkpt lat="43.33719" lon="-1.45652">
        <ele>57.5</ele>
        <time>2021-12-14T14:35:52.000Z</time>
      </trkpt>
      <trkpt lat="43.33715" lon="-1.45659">
        <ele>57.2</ele>
        <time>2021-12-14T14:35:53.000Z</time>
      </trkpt>
      <trkpt lat="43.3371" lon="-1.45665">
        <ele>56.9</ele>
        <time>2021-12-14T14:35:54.000Z</time>
      </trkpt>
      <trkpt lat="43.33706" lon="-1.45672">
        <ele>57</ele>
        <time>2021-12-14T14:35:55.000Z</time>
      </trkpt>
      <trkpt lat="43.33702" lon="-1.45678">
        <ele>57.4</ele>
        <time>2021-12-14T14:35:56.000Z</time>
      </trkpt>
      <trkpt lat="43.33697" lon="-1.45684">
        <ele>57.6</ele>
        <time>2021-12-14T14:35:57.000Z</time>
      </trkpt>
      <trkpt lat="43.33693" lon="-1.4569">
        <ele>57.8</ele>
        <time>2021-12-14T14:35:58.000Z</time>
      </trkpt>
      <trkpt lat="43.33689" lon="-1.45696">
        <ele>57.8</ele>
        <time>2021-12-14T14:35:59.000Z</time>
      </trkpt>
      <trkpt lat="43.33684" lon="-1.45702">
        <ele>57.5</ele>
        <time>2021-12-14T14:36:00.000Z</time>
      </trkpt>
      <trkpt lat="43.33679" lon="-1.45709">
        <ele>57.4</ele>
        <time>2021-12-14T14:36:01.000Z</time>
      </trkpt>
      <trkpt lat="43.33675" lon="-1.45716">
        <ele>57.2</ele>
        <time>2021-12-14T14:36:02.000Z</time>
      </trkpt>
      <trkpt lat="43.3367" lon="-1.45722">
        <ele>57.2</ele>
        <time>2021-12-14T14:36:03.000Z</time>
      </trkpt>
      <trkpt lat="43.33666" lon="-1.45728">
        <ele>57.5</ele>
        <time>2021-12-14T14:36:04.000Z</time>
      </trkpt>
      <trkpt lat="43.33661" lon="-1.45735">
        <ele>57.6</ele>
        <time>2021-12-14T14:36:05.000Z</time>
      </trkpt>
      <trkpt lat="43.33657" lon="-1.45742">
        <ele>57.4</ele>
        <time>2021-12-14T14:36:06.000Z</time>
      </trkpt>
      <trkpt lat="43.33653" lon="-1.45748">
        <ele>56.8</ele>
        <time>2021-12-14T14:36:07.000Z</time>
      </trkpt>
      <trkpt lat="43.33648" lon="-1.45755">
        <ele>56.7</ele>
        <time>2021-12-14T14:36:08.000Z</time>
      </trkpt>
      <trkpt lat="43.33644" lon="-1.45762">
        <ele>56.9</ele>
        <time>2021-12-14T14:36:09.000Z</time>
      </trkpt>
      <trkpt lat="43.3364" lon="-1.45768">
        <ele>57.2</ele>
        <time>2021-12-14T14:36:10.000Z</time>
      </trkpt>
      <trkpt lat="43.33636" lon="-1.45775">
        <ele>57.4</ele>
        <time>2021-12-14T14:36:11.000Z</time>
      </trkpt>
      <trkpt lat="43.33631" lon="-1.45782">
        <ele>57.3</ele>
        <time>2021-12-14T14:36:12.000Z</time>
      </trkpt>
      <trkpt lat="43.33627" lon="-1.45788">
        <ele>57.3</ele>
        <time>2021-12-14T14:36:13.000Z</time>
      </trkpt>
      <trkpt lat="43.33623" lon="-1.45795">
        <ele>57.3</ele>
        <time>2021-12-14T14:36:14.000Z</time>
      </trkpt>
      <trkpt lat="43.33619" lon="-1.45801">
        <ele>57.4</ele>
        <time>2021-12-14T14:36:15.000Z</time>
      </trkpt>
      <trkpt lat="43.33614" lon="-1.45807">
        <ele>57.6</ele>
        <time>2021-12-14T14:36:16.000Z</time>
      </trkpt>
      <trkpt lat="43.3361" lon="-1.45814">
        <ele>58</ele>
        <time>2021-12-14T14:36:17.000Z</time>
      </trkpt>
      <trkpt lat="43.33605" lon="-1.4582">
        <ele>58.4</ele>
        <time>2021-12-14T14:36:18.000Z</time>
      </trkpt>
      <trkpt lat="43.33601" lon="-1.45827">
        <ele>58.3</ele>
        <time>2021-12-14T14:36:19.000Z</time>
      </trkpt>
      <trkpt lat="43.33597" lon="-1.45833">
        <ele>57.6</ele>
        <time>2021-12-14T14:36:20.000Z</time>
      </trkpt>
      <trkpt lat="43.33592" lon="-1.4584">
        <ele>57.3</ele>
        <time>2021-12-14T14:36:21.000Z</time>
      </trkpt>
      <trkpt lat="43.33588" lon="-1.45846">
        <ele>57.2</ele>
        <time>2021-12-14T14:36:22.000Z</time>
      </trkpt>
      <trkpt lat="43.33584" lon="-1.45853">
        <ele>57.3</ele>
        <time>2021-12-14T14:36:23.000Z</time>
      </trkpt>
      <trkpt lat="43.33579" lon="-1.4586">
        <ele>57.4</ele>
        <time>2021-12-14T14:36:24.000Z</time>
      </trkpt>
      <trkpt lat="43.33576" lon="-1.45867">
        <ele>57.4</ele>
        <time>2021-12-14T14:36:25.000Z</time>
      </trkpt>
      <trkpt lat="43.33572" lon="-1.45874">
        <ele>57.4</ele>
        <time>2021-12-14T14:36:26.000Z</time>
      </trkpt>
      <trkpt lat="43.33569" lon="-1.45882">
        <ele>57.3</ele>
        <time>2021-12-14T14:36:27.000Z</time>
      </trkpt>
      <trkpt lat="43.33566" lon="-1.45889">
        <ele>57.3</ele>
        <time>2021-12-14T14:36:28.000Z</time>
      </trkpt>
      <trkpt lat="43.33563" lon="-1.45897">
        <ele>57.1</ele>
        <time>2021-12-14T14:36:29.000Z</time>
      </trkpt>
      <trkpt lat="43.3356" lon="-1.45905">
        <ele>57</ele>
        <time>2021-12-14T14:36:30.000Z</time>
      </trkpt>
      <trkpt lat="43.33558" lon="-1.45913">
        <ele>56.8</ele>
        <time>2021-12-14T14:36:31.000Z</time>
      </trkpt>
      <trkpt lat="43.33557" lon="-1.45921">
        <ele>56.7</ele>
        <time>2021-12-14T14:36:32.000Z</time>
      </trkpt>
      <trkpt lat="43.33556" lon="-1.4593">
        <ele>56.5</ele>
        <time>2021-12-14T14:36:33.000Z</time>
      </trkpt>
      <trkpt lat="43.33555" lon="-1.45939">
        <ele>56.2</ele>
        <time>2021-12-14T14:36:34.000Z</time>
      </trkpt>
      <trkpt lat="43.33555" lon="-1.45949">
        <ele>56</ele>
        <time>2021-12-14T14:36:35.000Z</time>
      </trkpt>
      <trkpt lat="43.33555" lon="-1.45958">
        <ele>56</ele>
        <time>2021-12-14T14:36:36.000Z</time>
      </trkpt>
      <trkpt lat="43.33555" lon="-1.45968">
        <ele>56</ele>
        <time>2021-12-14T14:36:37.000Z</time>
      </trkpt>
      <trkpt lat="43.33556" lon="-1.45977">
        <ele>55.8</ele>
        <time>2021-12-14T14:36:38.000Z</time>
      </trkpt>
      <trkpt lat="43.33557" lon="-1.45987">
        <ele>55.4</ele>
        <time>2021-12-14T14:36:39.000Z</time>
      </trkpt>
      <trkpt lat="43.33558" lon="-1.45996">
        <ele>55</ele>
        <time>2021-12-14T14:36:40.000Z</time>
      </trkpt>
      <trkpt lat="43.33559" lon="-1.46005">
        <ele>54.8</ele>
        <time>2021-12-14T14:36:41.000Z</time>
      </trkpt>
      <trkpt lat="43.33561" lon="-1.46014">
        <ele>54.7</ele>
        <time>2021-12-14T14:36:42.000Z</time>
      </trkpt>
      <trkpt lat="43.33563" lon="-1.46022">
        <ele>54.7</ele>
        <time>2021-12-14T14:36:43.000Z</time>
      </trkpt>
      <trkpt lat="43.33565" lon="-1.46031">
        <ele>54.6</ele>
        <time>2021-12-14T14:36:44.000Z</time>
      </trkpt>
      <trkpt lat="43.33566" lon="-1.46039">
        <ele>54.2</ele>
        <time>2021-12-14T14:36:45.000Z</time>
      </trkpt>
      <trkpt lat="43.33569" lon="-1.46047">
        <ele>53.8</ele>
        <time>2021-12-14T14:36:46.000Z</time>
      </trkpt>
      <trkpt lat="43.33571" lon="-1.46055">
        <ele>53.5</ele>
        <time>2021-12-14T14:36:47.000Z</time>
      </trkpt>
      <trkpt lat="43.33573" lon="-1.46063">
        <ele>53.5</ele>
        <time>2021-12-14T14:36:48.000Z</time>
      </trkpt>
      <trkpt lat="43.33576" lon="-1.4607">
        <ele>53.7</ele>
        <time>2021-12-14T14:36:49.000Z</time>
      </trkpt>
      <trkpt lat="43.33579" lon="-1.46078">
        <ele>53.8</ele>
        <time>2021-12-14T14:36:50.000Z</time>
      </trkpt>
      <trkpt lat="43.33582" lon="-1.46085">
        <ele>54.1</ele>
        <time>2021-12-14T14:36:51.000Z</time>
      </trkpt>
      <trkpt lat="43.33585" lon="-1.46093">
        <ele>54.3</ele>
        <time>2021-12-14T14:36:52.000Z</time>
      </trkpt>
      <trkpt lat="43.33589" lon="-1.46101">
        <ele>54.5</ele>
        <time>2021-12-14T14:36:53.000Z</time>
      </trkpt>
      <trkpt lat="43.33593" lon="-1.46108">
        <ele>54.6</ele>
        <time>2021-12-14T14:36:54.000Z</time>
      </trkpt>
      <trkpt lat="43.33597" lon="-1.46115">
        <ele>54.5</ele>
        <time>2021-12-14T14:36:55.000Z</time>
      </trkpt>
      <trkpt lat="43.33601" lon="-1.46122">
        <ele>54.4</ele>
        <time>2021-12-14T14:36:56.000Z</time>
      </trkpt>
      <trkpt lat="43.33605" lon="-1.46128">
        <ele>54.2</ele>
        <time>2021-12-14T14:36:57.000Z</time>
      </trkpt>
      <trkpt lat="43.33608" lon="-1.46135">
        <ele>54.1</ele>
        <time>2021-12-14T14:36:58.000Z</time>
      </trkpt>
      <trkpt lat="43.33612" lon="-1.46141">
        <ele>54.1</ele>
        <time>2021-12-14T14:36:59.000Z</time>
      </trkpt>
      <trkpt lat="43.33616" lon="-1.46148">
        <ele>54.3</ele>
        <time>2021-12-14T14:37:00.000Z</time>
      </trkpt>
      <trkpt lat="43.33619" lon="-1.46155">
        <ele>54.6</ele>
        <time>2021-12-14T14:37:01.000Z</time>
      </trkpt>
      <trkpt lat="43.33623" lon="-1.46163">
        <ele>54.9</ele>
        <time>2021-12-14T14:37:02.000Z</time>
      </trkpt>
      <trkpt lat="43.33627" lon="-1.4617">
        <ele>55.1</ele>
        <time>2021-12-14T14:37:03.000Z</time>
      </trkpt>
      <trkpt lat="43.3363" lon="-1.46178">
        <ele>55.1</ele>
        <time>2021-12-14T14:37:04.000Z</time>
      </trkpt>
      <trkpt lat="43.33633" lon="-1.46185">
        <ele>55.1</ele>
        <time>2021-12-14T14:37:05.000Z</time>
      </trkpt>
      <trkpt lat="43.33636" lon="-1.46193">
        <ele>55.1</ele>
        <time>2021-12-14T14:37:06.000Z</time>
      </trkpt>
      <trkpt lat="43.33639" lon="-1.46201">
        <ele>55</ele>
        <time>2021-12-14T14:37:07.000Z</time>
      </trkpt>
      <trkpt lat="43.33642" lon="-1.46208">
        <ele>55.1</ele>
        <time>2021-12-14T14:37:08.000Z</time>
      </trkpt>
      <trkpt lat="43.33645" lon="-1.46216">
        <ele>55.2</ele>
        <time>2021-12-14T14:37:09.000Z</time>
      </trkpt>
      <trkpt lat="43.33647" lon="-1.46224">
        <ele>55.3</ele>
        <time>2021-12-14T14:37:10.000Z</time>
      </trkpt>
      <trkpt lat="43.33649" lon="-1.46232">
        <ele>55.2</ele>
        <time>2021-12-14T14:37:11.000Z</time>
      </trkpt>
      <trkpt lat="43.33651" lon="-1.4624">
        <ele>55.2</ele>
        <time>2021-12-14T14:37:12.000Z</time>
      </trkpt>
      <trkpt lat="43.33653" lon="-1.46249">
        <ele>55</ele>
        <time>2021-12-14T14:37:13.000Z</time>
      </trkpt>
      <trkpt lat="43.33654" lon="-1.46257">
        <ele>55.1</ele>
        <time>2021-12-14T14:37:14.000Z</time>
      </trkpt>
      <trkpt lat="43.33656" lon="-1.46265">
        <ele>55.2</ele>
        <time>2021-12-14T14:37:15.000Z</time>
      </trkpt>
      <trkpt lat="43.33658" lon="-1.46273">
        <ele>55.3</ele>
        <time>2021-12-14T14:37:16.000Z</time>
      </trkpt>
      <trkpt lat="43.33659" lon="-1.46281">
        <ele>55.4</ele>
        <time>2021-12-14T14:37:17.000Z</time>
      </trkpt>
      <trkpt lat="43.33661" lon="-1.4629">
        <ele>55.6</ele>
        <time>2021-12-14T14:37:18.000Z</time>
      </trkpt>
      <trkpt lat="43.33662" lon="-1.46299">
        <ele>55.8</ele>
        <time>2021-12-14T14:37:19.000Z</time>
      </trkpt>
      <trkpt lat="43.33664" lon="-1.46307">
        <ele>56.1</ele>
        <time>2021-12-14T14:37:20.000Z</time>
      </trkpt>
      <trkpt lat="43.33665" lon="-1.46316">
        <ele>56.4</ele>
        <time>2021-12-14T14:37:21.000Z</time>
      </trkpt>
      <trkpt lat="43.33666" lon="-1.46324">
        <ele>56.7</ele>
        <time>2021-12-14T14:37:22.000Z</time>
      </trkpt>
      <trkpt lat="43.33667" lon="-1.46333">
        <ele>56.9</ele>
        <time>2021-12-14T14:37:23.000Z</time>
      </trkpt>
      <trkpt lat="43.33669" lon="-1.46341">
        <ele>57.1</ele>
        <time>2021-12-14T14:37:24.000Z</time>
      </trkpt>
      <trkpt lat="43.3367" lon="-1.46349">
        <ele>57.2</ele>
        <time>2021-12-14T14:37:25.000Z</time>
      </trkpt>
      <trkpt lat="43.33671" lon="-1.46357">
        <ele>57.4</ele>
        <time>2021-12-14T14:37:26.000Z</time>
      </trkpt>
      <trkpt lat="43.33673" lon="-1.46365">
        <ele>57.4</ele>
        <time>2021-12-14T14:37:27.000Z</time>
      </trkpt>
      <trkpt lat="43.33674" lon="-1.46373">
        <ele>57.4</ele>
        <time>2021-12-14T14:37:28.000Z</time>
      </trkpt>
      <trkpt lat="43.33676" lon="-1.46382">
        <ele>57.5</ele>
        <time>2021-12-14T14:37:29.000Z</time>
      </trkpt>
      <trkpt lat="43.33677" lon="-1.4639">
        <ele>57.7</ele>
        <time>2021-12-14T14:37:30.000Z</time>
      </trkpt>
      <trkpt lat="43.33678" lon="-1.46398">
        <ele>58.1</ele>
        <time>2021-12-14T14:37:31.000Z</time>
      </trkpt>
      <trkpt lat="43.33679" lon="-1.46406">
        <ele>58.5</ele>
        <time>2021-12-14T14:37:32.000Z</time>
      </trkpt>
      <trkpt lat="43.3368" lon="-1.46414">
        <ele>58.9</ele>
        <time>2021-12-14T14:37:33.000Z</time>
      </trkpt>
      <trkpt lat="43.33681" lon="-1.46422">
        <ele>59.4</ele>
        <time>2021-12-14T14:37:34.000Z</time>
      </trkpt>
      <trkpt lat="43.33682" lon="-1.46431">
        <ele>59.9</ele>
        <time>2021-12-14T14:37:35.000Z</time>
      </trkpt>
      <trkpt lat="43.33683" lon="-1.46439">
        <ele>60.4</ele>
        <time>2021-12-14T14:37:36.000Z</time>
      </trkpt>
      <trkpt lat="43.33684" lon="-1.46446">
        <ele>60.7</ele>
        <time>2021-12-14T14:37:37.000Z</time>
      </trkpt>
      <trkpt lat="43.33686" lon="-1.46454">
        <ele>60.7</ele>
        <time>2021-12-14T14:37:38.000Z</time>
      </trkpt>
      <trkpt lat="43.33687" lon="-1.46461">
        <ele>60.7</ele>
        <time>2021-12-14T14:37:39.000Z</time>
      </trkpt>
      <trkpt lat="43.33688" lon="-1.46469">
        <ele>60.6</ele>
        <time>2021-12-14T14:37:40.000Z</time>
      </trkpt>
      <trkpt lat="43.3369" lon="-1.46476">
        <ele>60.7</ele>
        <time>2021-12-14T14:37:41.000Z</time>
      </trkpt>
      <trkpt lat="43.33691" lon="-1.46484">
        <ele>60.8</ele>
        <time>2021-12-14T14:37:42.000Z</time>
      </trkpt>
      <trkpt lat="43.33692" lon="-1.46491">
        <ele>61</ele>
        <time>2021-12-14T14:37:43.000Z</time>
      </trkpt>
      <trkpt lat="43.33694" lon="-1.46499">
        <ele>61.1</ele>
        <time>2021-12-14T14:37:44.000Z</time>
      </trkpt>
      <trkpt lat="43.33695" lon="-1.46507">
        <ele>61</ele>
        <time>2021-12-14T14:37:45.000Z</time>
      </trkpt>
      <trkpt lat="43.33697" lon="-1.46514">
        <ele>61</ele>
        <time>2021-12-14T14:37:46.000Z</time>
      </trkpt>
      <trkpt lat="43.33698" lon="-1.46522">
        <ele>61</ele>
        <time>2021-12-14T14:37:47.000Z</time>
      </trkpt>
      <trkpt lat="43.33699" lon="-1.4653">
        <ele>61.1</ele>
        <time>2021-12-14T14:37:48.000Z</time>
      </trkpt>
      <trkpt lat="43.337" lon="-1.46537">
        <ele>61.3</ele>
        <time>2021-12-14T14:37:49.000Z</time>
      </trkpt>
      <trkpt lat="43.33701" lon="-1.46545">
        <ele>61.5</ele>
        <time>2021-12-14T14:37:50.000Z</time>
      </trkpt>
      <trkpt lat="43.33701" lon="-1.46552">
        <ele>61.7</ele>
        <time>2021-12-14T14:37:51.000Z</time>
      </trkpt>
      <trkpt lat="43.33701" lon="-1.4656">
        <ele>61.9</ele>
        <time>2021-12-14T14:37:52.000Z</time>
      </trkpt>
      <trkpt lat="43.33702" lon="-1.46568">
        <ele>62.2</ele>
        <time>2021-12-14T14:37:53.000Z</time>
      </trkpt>
      <trkpt lat="43.33702" lon="-1.46576">
        <ele>62.5</ele>
        <time>2021-12-14T14:37:54.000Z</time>
      </trkpt>
      <trkpt lat="43.33702" lon="-1.46584">
        <ele>62.7</ele>
        <time>2021-12-14T14:37:55.000Z</time>
      </trkpt>
      <trkpt lat="43.33702" lon="-1.46592">
        <ele>62.7</ele>
        <time>2021-12-14T14:37:56.000Z</time>
      </trkpt>
      <trkpt lat="43.33702" lon="-1.466">
        <ele>62.7</ele>
        <time>2021-12-14T14:37:57.000Z</time>
      </trkpt>
      <trkpt lat="43.33702" lon="-1.46608">
        <ele>62.7</ele>
        <time>2021-12-14T14:37:58.000Z</time>
      </trkpt>
      <trkpt lat="43.33702" lon="-1.46616">
        <ele>62.8</ele>
        <time>2021-12-14T14:37:59.000Z</time>
      </trkpt>
      <trkpt lat="43.33702" lon="-1.46625">
        <ele>62.9</ele>
        <time>2021-12-14T14:38:00.000Z</time>
      </trkpt>
      <trkpt lat="43.33702" lon="-1.46633">
        <ele>62.9</ele>
        <time>2021-12-14T14:38:01.000Z</time>
      </trkpt>
      <trkpt lat="43.33701" lon="-1.46641">
        <ele>63</ele>
        <time>2021-12-14T14:38:02.000Z</time>
      </trkpt>
      <trkpt lat="43.33701" lon="-1.4665">
        <ele>63.2</ele>
        <time>2021-12-14T14:38:03.000Z</time>
      </trkpt>
      <trkpt lat="43.337" lon="-1.46658">
        <ele>63.4</ele>
        <time>2021-12-14T14:38:04.000Z</time>
      </trkpt>
      <trkpt lat="43.337" lon="-1.46666">
        <ele>63.6</ele>
        <time>2021-12-14T14:38:05.000Z</time>
      </trkpt>
      <trkpt lat="43.337" lon="-1.46674">
        <ele>63.7</ele>
        <time>2021-12-14T14:38:06.000Z</time>
      </trkpt>
      <trkpt lat="43.337" lon="-1.46682">
        <ele>63.7</ele>
        <time>2021-12-14T14:38:07.000Z</time>
      </trkpt>
      <trkpt lat="43.337" lon="-1.46691">
        <ele>63.8</ele>
        <time>2021-12-14T14:38:08.000Z</time>
      </trkpt>
      <trkpt lat="43.33701" lon="-1.46699">
        <ele>64</ele>
        <time>2021-12-14T14:38:09.000Z</time>
      </trkpt>
      <trkpt lat="43.33701" lon="-1.46708">
        <ele>64.2</ele>
        <time>2021-12-14T14:38:10.000Z</time>
      </trkpt>
      <trkpt lat="43.33702" lon="-1.46716">
        <ele>64.5</ele>
        <time>2021-12-14T14:38:11.000Z</time>
      </trkpt>
      <trkpt lat="43.33704" lon="-1.46725">
        <ele>64.7</ele>
        <time>2021-12-14T14:38:12.000Z</time>
      </trkpt>
      <trkpt lat="43.33705" lon="-1.46733">
        <ele>64.8</ele>
        <time>2021-12-14T14:38:13.000Z</time>
      </trkpt>
      <trkpt lat="43.33707" lon="-1.46742">
        <ele>64.9</ele>
        <time>2021-12-14T14:38:14.000Z</time>
      </trkpt>
      <trkpt lat="43.33709" lon="-1.4675">
        <ele>65</ele>
        <time>2021-12-14T14:38:15.000Z</time>
      </trkpt>
      <trkpt lat="43.33711" lon="-1.46758">
        <ele>65.5</ele>
        <time>2021-12-14T14:38:16.000Z</time>
      </trkpt>
      <trkpt lat="43.33713" lon="-1.46766">
        <ele>66</ele>
        <time>2021-12-14T14:38:17.000Z</time>
      </trkpt>
      <trkpt lat="43.33715" lon="-1.46773">
        <ele>66.3</ele>
        <time>2021-12-14T14:38:18.000Z</time>
      </trkpt>
      <trkpt lat="43.33717" lon="-1.46781">
        <ele>66.4</ele>
        <time>2021-12-14T14:38:19.000Z</time>
      </trkpt>
      <trkpt lat="43.3372" lon="-1.46788">
        <ele>66.2</ele>
        <time>2021-12-14T14:38:20.000Z</time>
      </trkpt>
      <trkpt lat="43.33723" lon="-1.46797">
        <ele>66</ele>
        <time>2021-12-14T14:38:21.000Z</time>
      </trkpt>
      <trkpt lat="43.33727" lon="-1.46806">
        <ele>65.9</ele>
        <time>2021-12-14T14:38:22.000Z</time>
      </trkpt>
      <trkpt lat="43.33731" lon="-1.46814">
        <ele>66.2</ele>
        <time>2021-12-14T14:38:23.000Z</time>
      </trkpt>
      <trkpt lat="43.33734" lon="-1.46822">
        <ele>66.5</ele>
        <time>2021-12-14T14:38:24.000Z</time>
      </trkpt>
      <trkpt lat="43.33738" lon="-1.46829">
        <ele>66.6</ele>
        <time>2021-12-14T14:38:25.000Z</time>
      </trkpt>
      <trkpt lat="43.33743" lon="-1.46836">
        <ele>66.6</ele>
        <time>2021-12-14T14:38:26.000Z</time>
      </trkpt>
      <trkpt lat="43.33747" lon="-1.46843">
        <ele>66.3</ele>
        <time>2021-12-14T14:38:27.000Z</time>
      </trkpt>
      <trkpt lat="43.33751" lon="-1.46849">
        <ele>65.9</ele>
        <time>2021-12-14T14:38:28.000Z</time>
      </trkpt>
      <trkpt lat="43.33756" lon="-1.46855">
        <ele>65.8</ele>
        <time>2021-12-14T14:38:29.000Z</time>
      </trkpt>
      <trkpt lat="43.33761" lon="-1.46861">
        <ele>65.6</ele>
        <time>2021-12-14T14:38:30.000Z</time>
      </trkpt>
      <trkpt lat="43.33766" lon="-1.46866">
        <ele>65.7</ele>
        <time>2021-12-14T14:38:31.000Z</time>
      </trkpt>
      <trkpt lat="43.33771" lon="-1.46871">
        <ele>65.9</ele>
        <time>2021-12-14T14:38:32.000Z</time>
      </trkpt>
      <trkpt lat="43.33776" lon="-1.46877">
        <ele>66.1</ele>
        <time>2021-12-14T14:38:33.000Z</time>
      </trkpt>
      <trkpt lat="43.33782" lon="-1.46882">
        <ele>66.4</ele>
        <time>2021-12-14T14:38:34.000Z</time>
      </trkpt>
      <trkpt lat="43.33787" lon="-1.46887">
        <ele>66.5</ele>
        <time>2021-12-14T14:38:35.000Z</time>
      </trkpt>
      <trkpt lat="43.33793" lon="-1.46891">
        <ele>66.5</ele>
        <time>2021-12-14T14:38:36.000Z</time>
      </trkpt>
      <trkpt lat="43.33798" lon="-1.46896">
        <ele>66.5</ele>
        <time>2021-12-14T14:38:37.000Z</time>
      </trkpt>
      <trkpt lat="43.33804" lon="-1.469">
        <ele>66.5</ele>
        <time>2021-12-14T14:38:38.000Z</time>
      </trkpt>
      <trkpt lat="43.33809" lon="-1.46904">
        <ele>66.4</ele>
        <time>2021-12-14T14:38:39.000Z</time>
      </trkpt>
      <trkpt lat="43.33815" lon="-1.46909">
        <ele>66.4</ele>
        <time>2021-12-14T14:38:40.000Z</time>
      </trkpt>
      <trkpt lat="43.33821" lon="-1.46913">
        <ele>66.3</ele>
        <time>2021-12-14T14:38:41.000Z</time>
      </trkpt>
      <trkpt lat="43.33827" lon="-1.46917">
        <ele>66.3</ele>
        <time>2021-12-14T14:38:42.000Z</time>
      </trkpt>
      <trkpt lat="43.33833" lon="-1.46922">
        <ele>66.2</ele>
        <time>2021-12-14T14:38:43.000Z</time>
      </trkpt>
      <trkpt lat="43.33839" lon="-1.46926">
        <ele>66.1</ele>
        <time>2021-12-14T14:38:44.000Z</time>
      </trkpt>
      <trkpt lat="43.33845" lon="-1.4693">
        <ele>65.8</ele>
        <time>2021-12-14T14:38:45.000Z</time>
      </trkpt>
      <trkpt lat="43.33851" lon="-1.46934">
        <ele>65.6</ele>
        <time>2021-12-14T14:38:46.000Z</time>
      </trkpt>
      <trkpt lat="43.33857" lon="-1.46939">
        <ele>65.2</ele>
        <time>2021-12-14T14:38:47.000Z</time>
      </trkpt>
      <trkpt lat="43.33864" lon="-1.46943">
        <ele>64.9</ele>
        <time>2021-12-14T14:38:48.000Z</time>
      </trkpt>
      <trkpt lat="43.3387" lon="-1.46947">
        <ele>64.8</ele>
        <time>2021-12-14T14:38:49.000Z</time>
      </trkpt>
      <trkpt lat="43.33876" lon="-1.46952">
        <ele>64.7</ele>
        <time>2021-12-14T14:38:50.000Z</time>
      </trkpt>
      <trkpt lat="43.33882" lon="-1.46957">
        <ele>64.5</ele>
        <time>2021-12-14T14:38:51.000Z</time>
      </trkpt>
      <trkpt lat="43.33888" lon="-1.46962">
        <ele>64.1</ele>
        <time>2021-12-14T14:38:52.000Z</time>
      </trkpt>
      <trkpt lat="43.33894" lon="-1.46967">
        <ele>63.6</ele>
        <time>2021-12-14T14:38:53.000Z</time>
      </trkpt>
      <trkpt lat="43.339" lon="-1.46972">
        <ele>63.2</ele>
        <time>2021-12-14T14:38:54.000Z</time>
      </trkpt>
      <trkpt lat="43.33906" lon="-1.46978">
        <ele>63.1</ele>
        <time>2021-12-14T14:38:55.000Z</time>
      </trkpt>
      <trkpt lat="43.33911" lon="-1.46983">
        <ele>62.9</ele>
        <time>2021-12-14T14:38:56.000Z</time>
      </trkpt>
      <trkpt lat="43.33917" lon="-1.46989">
        <ele>62.6</ele>
        <time>2021-12-14T14:38:57.000Z</time>
      </trkpt>
      <trkpt lat="43.33922" lon="-1.46995">
        <ele>62.6</ele>
        <time>2021-12-14T14:38:58.000Z</time>
      </trkpt>
      <trkpt lat="43.33928" lon="-1.47001">
        <ele>62.6</ele>
        <time>2021-12-14T14:38:59.000Z</time>
      </trkpt>
      <trkpt lat="43.33933" lon="-1.47007">
        <ele>62.6</ele>
        <time>2021-12-14T14:39:00.000Z</time>
      </trkpt>
      <trkpt lat="43.33939" lon="-1.47013">
        <ele>62.4</ele>
        <time>2021-12-14T14:39:01.000Z</time>
      </trkpt>
      <trkpt lat="43.33944" lon="-1.47018">
        <ele>62</ele>
        <time>2021-12-14T14:39:02.000Z</time>
      </trkpt>
      <trkpt lat="43.33949" lon="-1.47024">
        <ele>62</ele>
        <time>2021-12-14T14:39:03.000Z</time>
      </trkpt>
      <trkpt lat="43.33954" lon="-1.4703">
        <ele>62.1</ele>
        <time>2021-12-14T14:39:04.000Z</time>
      </trkpt>
      <trkpt lat="43.33959" lon="-1.47036">
        <ele>62.3</ele>
        <time>2021-12-14T14:39:05.000Z</time>
      </trkpt>
      <trkpt lat="43.33964" lon="-1.47042">
        <ele>62.3</ele>
        <time>2021-12-14T14:39:06.000Z</time>
      </trkpt>
      <trkpt lat="43.33968" lon="-1.47048">
        <ele>62.2</ele>
        <time>2021-12-14T14:39:07.000Z</time>
      </trkpt>
      <trkpt lat="43.33972" lon="-1.47054">
        <ele>62</ele>
        <time>2021-12-14T14:39:08.000Z</time>
      </trkpt>
      <trkpt lat="43.33976" lon="-1.4706">
        <ele>62.1</ele>
        <time>2021-12-14T14:39:09.000Z</time>
      </trkpt>
      <trkpt lat="43.3398" lon="-1.47066">
        <ele>62.3</ele>
        <time>2021-12-14T14:39:10.000Z</time>
      </trkpt>
      <trkpt lat="43.33984" lon="-1.47073">
        <ele>62.4</ele>
        <time>2021-12-14T14:39:11.000Z</time>
      </trkpt>
      <trkpt lat="43.33987" lon="-1.4708">
        <ele>62.4</ele>
        <time>2021-12-14T14:39:12.000Z</time>
      </trkpt>
      <trkpt lat="43.3399" lon="-1.47087">
        <ele>62.3</ele>
        <time>2021-12-14T14:39:13.000Z</time>
      </trkpt>
      <trkpt lat="43.33994" lon="-1.47094">
        <ele>62.2</ele>
        <time>2021-12-14T14:39:14.000Z</time>
      </trkpt>
      <trkpt lat="43.33997" lon="-1.47101">
        <ele>62.1</ele>
        <time>2021-12-14T14:39:15.000Z</time>
      </trkpt>
      <trkpt lat="43.34001" lon="-1.47109">
        <ele>62</ele>
        <time>2021-12-14T14:39:16.000Z</time>
      </trkpt>
      <trkpt lat="43.34004" lon="-1.47116">
        <ele>62</ele>
        <time>2021-12-14T14:39:17.000Z</time>
      </trkpt>
      <trkpt lat="43.34008" lon="-1.47123">
        <ele>62</ele>
        <time>2021-12-14T14:39:18.000Z</time>
      </trkpt>
      <trkpt lat="43.34011" lon="-1.4713">
        <ele>62</ele>
        <time>2021-12-14T14:39:19.000Z</time>
      </trkpt>
      <trkpt lat="43.34015" lon="-1.47137">
        <ele>61.9</ele>
        <time>2021-12-14T14:39:20.000Z</time>
      </trkpt>
      <trkpt lat="43.34019" lon="-1.47144">
        <ele>61.8</ele>
        <time>2021-12-14T14:39:21.000Z</time>
      </trkpt>
      <trkpt lat="43.34023" lon="-1.47151">
        <ele>61.7</ele>
        <time>2021-12-14T14:39:22.000Z</time>
      </trkpt>
      <trkpt lat="43.34026" lon="-1.47158">
        <ele>61.8</ele>
        <time>2021-12-14T14:39:23.000Z</time>
      </trkpt>
      <trkpt lat="43.34029" lon="-1.47165">
        <ele>61.8</ele>
        <time>2021-12-14T14:39:24.000Z</time>
      </trkpt>
      <trkpt lat="43.34033" lon="-1.47172">
        <ele>61.7</ele>
        <time>2021-12-14T14:39:25.000Z</time>
      </trkpt>
      <trkpt lat="43.34036" lon="-1.4718">
        <ele>61.5</ele>
        <time>2021-12-14T14:39:26.000Z</time>
      </trkpt>
      <trkpt lat="43.3404" lon="-1.47187">
        <ele>61.5</ele>
        <time>2021-12-14T14:39:27.000Z</time>
      </trkpt>
      <trkpt lat="43.34043" lon="-1.47195">
        <ele>61.5</ele>
        <time>2021-12-14T14:39:28.000Z</time>
      </trkpt>
      <trkpt lat="43.34047" lon="-1.47203">
        <ele>61.6</ele>
        <time>2021-12-14T14:39:29.000Z</time>
      </trkpt>
      <trkpt lat="43.3405" lon="-1.47211">
        <ele>61.8</ele>
        <time>2021-12-14T14:39:30.000Z</time>
      </trkpt>
      <trkpt lat="43.34053" lon="-1.47219">
        <ele>62</ele>
        <time>2021-12-14T14:39:31.000Z</time>
      </trkpt>
      <trkpt lat="43.34056" lon="-1.47226">
        <ele>62</ele>
        <time>2021-12-14T14:39:32.000Z</time>
      </trkpt>
      <trkpt lat="43.34059" lon="-1.47234">
        <ele>61.8</ele>
        <time>2021-12-14T14:39:33.000Z</time>
      </trkpt>
      <trkpt lat="43.34062" lon="-1.4724">
        <ele>61.8</ele>
        <time>2021-12-14T14:39:34.000Z</time>
      </trkpt>
      <trkpt lat="43.34066" lon="-1.47245">
        <ele>61.9</ele>
        <time>2021-12-14T14:39:35.000Z</time>
      </trkpt>
      <trkpt lat="43.34071" lon="-1.47249">
        <ele>62</ele>
        <time>2021-12-14T14:39:36.000Z</time>
      </trkpt>
      <trkpt lat="43.34075" lon="-1.47251">
        <ele>62</ele>
        <time>2021-12-14T14:39:37.000Z</time>
      </trkpt>
      <trkpt lat="43.34079" lon="-1.4725">
        <ele>62</ele>
        <time>2021-12-14T14:39:38.000Z</time>
      </trkpt>
      <trkpt lat="43.34082" lon="-1.47248">
        <ele>61.8</ele>
        <time>2021-12-14T14:39:39.000Z</time>
      </trkpt>
      <trkpt lat="43.34085" lon="-1.47243">
        <ele>61.5</ele>
        <time>2021-12-14T14:39:40.000Z</time>
      </trkpt>
      <trkpt lat="43.34089" lon="-1.47238">
        <ele>61.2</ele>
        <time>2021-12-14T14:39:41.000Z</time>
      </trkpt>
      <trkpt lat="43.34093" lon="-1.47233">
        <ele>60.8</ele>
        <time>2021-12-14T14:39:42.000Z</time>
      </trkpt>
      <trkpt lat="43.34097" lon="-1.47227">
        <ele>60.3</ele>
        <time>2021-12-14T14:39:43.000Z</time>
      </trkpt>
      <trkpt lat="43.34102" lon="-1.47221">
        <ele>59.9</ele>
        <time>2021-12-14T14:39:44.000Z</time>
      </trkpt>
      <trkpt lat="43.34107" lon="-1.47214">
        <ele>59.5</ele>
        <time>2021-12-14T14:39:45.000Z</time>
      </trkpt>
      <trkpt lat="43.34112" lon="-1.47208">
        <ele>59</ele>
        <time>2021-12-14T14:39:46.000Z</time>
      </trkpt>
      <trkpt lat="43.34118" lon="-1.47203">
        <ele>58.9</ele>
        <time>2021-12-14T14:39:47.000Z</time>
      </trkpt>
      <trkpt lat="43.34123" lon="-1.47199">
        <ele>58.8</ele>
        <time>2021-12-14T14:39:48.000Z</time>
      </trkpt>
      <trkpt lat="43.3413" lon="-1.47195">
        <ele>58.7</ele>
        <time>2021-12-14T14:39:49.000Z</time>
      </trkpt>
      <trkpt lat="43.34136" lon="-1.47192">
        <ele>59</ele>
        <time>2021-12-14T14:39:50.000Z</time>
      </trkpt>
      <trkpt lat="43.34143" lon="-1.47189">
        <ele>59.3</ele>
        <time>2021-12-14T14:39:51.000Z</time>
      </trkpt>
      <trkpt lat="43.3415" lon="-1.47187">
        <ele>59.6</ele>
        <time>2021-12-14T14:39:52.000Z</time>
      </trkpt>
      <trkpt lat="43.34156" lon="-1.47184">
        <ele>59.8</ele>
        <time>2021-12-14T14:39:53.000Z</time>
      </trkpt>
      <trkpt lat="43.34163" lon="-1.47182">
        <ele>59.9</ele>
        <time>2021-12-14T14:39:54.000Z</time>
      </trkpt>
      <trkpt lat="43.34169" lon="-1.47179">
        <ele>60.1</ele>
        <time>2021-12-14T14:39:55.000Z</time>
      </trkpt>
      <trkpt lat="43.34175" lon="-1.47177">
        <ele>60.5</ele>
        <time>2021-12-14T14:39:56.000Z</time>
      </trkpt>
      <trkpt lat="43.34182" lon="-1.47175">
        <ele>60.9</ele>
        <time>2021-12-14T14:39:57.000Z</time>
      </trkpt>
      <trkpt lat="43.34188" lon="-1.47173">
        <ele>61.4</ele>
        <time>2021-12-14T14:39:58.000Z</time>
      </trkpt>
      <trkpt lat="43.34194" lon="-1.47171">
        <ele>61.8</ele>
        <time>2021-12-14T14:39:59.000Z</time>
      </trkpt>
      <trkpt lat="43.34199" lon="-1.47169">
        <ele>62.3</ele>
        <time>2021-12-14T14:40:00.000Z</time>
      </trkpt>
      <trkpt lat="43.34205" lon="-1.47167">
        <ele>62.7</ele>
        <time>2021-12-14T14:40:01.000Z</time>
      </trkpt>
      <trkpt lat="43.3421" lon="-1.47165">
        <ele>63.3</ele>
        <time>2021-12-14T14:40:02.000Z</time>
      </trkpt>
      <trkpt lat="43.34215" lon="-1.47164">
        <ele>63.8</ele>
        <time>2021-12-14T14:40:03.000Z</time>
      </trkpt>
      <trkpt lat="43.3422" lon="-1.47163">
        <ele>64.3</ele>
        <time>2021-12-14T14:40:04.000Z</time>
      </trkpt>
      <trkpt lat="43.34224" lon="-1.47162">
        <ele>64.9</ele>
        <time>2021-12-14T14:40:05.000Z</time>
      </trkpt>
      <trkpt lat="43.34229" lon="-1.47162">
        <ele>65.6</ele>
        <time>2021-12-14T14:40:06.000Z</time>
      </trkpt>
      <trkpt lat="43.34234" lon="-1.47162">
        <ele>66.2</ele>
        <time>2021-12-14T14:40:07.000Z</time>
      </trkpt>
      <trkpt lat="43.34238" lon="-1.47162">
        <ele>66.8</ele>
        <time>2021-12-14T14:40:08.000Z</time>
      </trkpt>
      <trkpt lat="43.34242" lon="-1.47162">
        <ele>67.4</ele>
        <time>2021-12-14T14:40:09.000Z</time>
      </trkpt>
      <trkpt lat="43.34247" lon="-1.47162">
        <ele>67.9</ele>
        <time>2021-12-14T14:40:10.000Z</time>
      </trkpt>
      <trkpt lat="43.3425" lon="-1.47163">
        <ele>68.3</ele>
        <time>2021-12-14T14:40:11.000Z</time>
      </trkpt>
      <trkpt lat="43.34254" lon="-1.47164">
        <ele>68.8</ele>
        <time>2021-12-14T14:40:12.000Z</time>
      </trkpt>
      <trkpt lat="43.34258" lon="-1.47165">
        <ele>69.3</ele>
        <time>2021-12-14T14:40:13.000Z</time>
      </trkpt>
      <trkpt lat="43.34262" lon="-1.47166">
        <ele>69.8</ele>
        <time>2021-12-14T14:40:14.000Z</time>
      </trkpt>
      <trkpt lat="43.34265" lon="-1.47167">
        <ele>70.2</ele>
        <time>2021-12-14T14:40:15.000Z</time>
      </trkpt>
      <trkpt lat="43.34269" lon="-1.47168">
        <ele>70.5</ele>
        <time>2021-12-14T14:40:16.000Z</time>
      </trkpt>
      <trkpt lat="43.34273" lon="-1.47168">
        <ele>70.9</ele>
        <time>2021-12-14T14:40:17.000Z</time>
      </trkpt>
      <trkpt lat="43.34276" lon="-1.47169">
        <ele>71.3</ele>
        <time>2021-12-14T14:40:18.000Z</time>
      </trkpt>
      <trkpt lat="43.3428" lon="-1.4717">
        <ele>71.7</ele>
        <time>2021-12-14T14:40:19.000Z</time>
      </trkpt>
      <trkpt lat="43.34284" lon="-1.47171">
        <ele>72</ele>
        <time>2021-12-14T14:40:20.000Z</time>
      </trkpt>
      <trkpt lat="43.34287" lon="-1.47171">
        <ele>72.4</ele>
        <time>2021-12-14T14:40:21.000Z</time>
      </trkpt>
      <trkpt lat="43.34291" lon="-1.47172">
        <ele>72.8</ele>
        <time>2021-12-14T14:40:22.000Z</time>
      </trkpt>
      <trkpt lat="43.34295" lon="-1.47173">
        <ele>73.2</ele>
        <time>2021-12-14T14:40:23.000Z</time>
      </trkpt>
      <trkpt lat="43.34299" lon="-1.47173">
        <ele>73.6</ele>
        <time>2021-12-14T14:40:24.000Z</time>
      </trkpt>
      <trkpt lat="43.34303" lon="-1.47174">
        <ele>74.1</ele>
        <time>2021-12-14T14:40:25.000Z</time>
      </trkpt>
      <trkpt lat="43.34307" lon="-1.47174">
        <ele>74.6</ele>
        <time>2021-12-14T14:40:26.000Z</time>
      </trkpt>
      <trkpt lat="43.34311" lon="-1.47174">
        <ele>74.9</ele>
        <time>2021-12-14T14:40:27.000Z</time>
      </trkpt>
      <trkpt lat="43.34315" lon="-1.47174">
        <ele>75.3</ele>
        <time>2021-12-14T14:40:28.000Z</time>
      </trkpt>
      <trkpt lat="43.34319" lon="-1.47173">
        <ele>75.6</ele>
        <time>2021-12-14T14:40:29.000Z</time>
      </trkpt>
      <trkpt lat="43.34323" lon="-1.47173">
        <ele>76</ele>
        <time>2021-12-14T14:40:30.000Z</time>
      </trkpt>
      <trkpt lat="43.34327" lon="-1.47172">
        <ele>76.3</ele>
        <time>2021-12-14T14:40:31.000Z</time>
      </trkpt>
      <trkpt lat="43.34332" lon="-1.47171">
        <ele>76.7</ele>
        <time>2021-12-14T14:40:32.000Z</time>
      </trkpt>
      <trkpt lat="43.34336" lon="-1.47171">
        <ele>77</ele>
        <time>2021-12-14T14:40:33.000Z</time>
      </trkpt>
      <trkpt lat="43.34341" lon="-1.4717">
        <ele>77.1</ele>
        <time>2021-12-14T14:40:34.000Z</time>
      </trkpt>
      <trkpt lat="43.34346" lon="-1.47169">
        <ele>77.3</ele>
        <time>2021-12-14T14:40:35.000Z</time>
      </trkpt>
      <trkpt lat="43.34351" lon="-1.47168">
        <ele>77.5</ele>
        <time>2021-12-14T14:40:36.000Z</time>
      </trkpt>
      <trkpt lat="43.34356" lon="-1.47168">
        <ele>77.7</ele>
        <time>2021-12-14T14:40:37.000Z</time>
      </trkpt>
      <trkpt lat="43.34361" lon="-1.47167">
        <ele>78</ele>
        <time>2021-12-14T14:40:38.000Z</time>
      </trkpt>
      <trkpt lat="43.34365" lon="-1.47166">
        <ele>78.1</ele>
        <time>2021-12-14T14:40:39.000Z</time>
      </trkpt>
      <trkpt lat="43.3437" lon="-1.47165">
        <ele>78.3</ele>
        <time>2021-12-14T14:40:40.000Z</time>
      </trkpt>
      <trkpt lat="43.34374" lon="-1.47164">
        <ele>78.4</ele>
        <time>2021-12-14T14:40:41.000Z</time>
      </trkpt>
      <trkpt lat="43.34379" lon="-1.47164">
        <ele>78.6</ele>
        <time>2021-12-14T14:40:42.000Z</time>
      </trkpt>
      <trkpt lat="43.34384" lon="-1.47162">
        <ele>78.8</ele>
        <time>2021-12-14T14:40:43.000Z</time>
      </trkpt>
      <trkpt lat="43.34389" lon="-1.47161">
        <ele>79</ele>
        <time>2021-12-14T14:40:44.000Z</time>
      </trkpt>
      <trkpt lat="43.34394" lon="-1.47161">
        <ele>79.3</ele>
        <time>2021-12-14T14:40:45.000Z</time>
      </trkpt>
      <trkpt lat="43.34399" lon="-1.47159">
        <ele>79.5</ele>
        <time>2021-12-14T14:40:46.000Z</time>
      </trkpt>
      <trkpt lat="43.34403" lon="-1.47158">
        <ele>79.7</ele>
        <time>2021-12-14T14:40:47.000Z</time>
      </trkpt>
      <trkpt lat="43.34408" lon="-1.47156">
        <ele>79.9</ele>
        <time>2021-12-14T14:40:48.000Z</time>
      </trkpt>
      <trkpt lat="43.34414" lon="-1.47154">
        <ele>80</ele>
        <time>2021-12-14T14:40:49.000Z</time>
      </trkpt>
      <trkpt lat="43.34419" lon="-1.47152">
        <ele>80</ele>
        <time>2021-12-14T14:40:50.000Z</time>
      </trkpt>
      <trkpt lat="43.34424" lon="-1.4715">
        <ele>80</ele>
        <time>2021-12-14T14:40:51.000Z</time>
      </trkpt>
      <trkpt lat="43.34429" lon="-1.47147">
        <ele>80.1</ele>
        <time>2021-12-14T14:40:52.000Z</time>
      </trkpt>
      <trkpt lat="43.34435" lon="-1.47145">
        <ele>80.1</ele>
        <time>2021-12-14T14:40:53.000Z</time>
      </trkpt>
      <trkpt lat="43.3444" lon="-1.47142">
        <ele>80.1</ele>
        <time>2021-12-14T14:40:54.000Z</time>
      </trkpt>
      <trkpt lat="43.34446" lon="-1.4714">
        <ele>80.1</ele>
        <time>2021-12-14T14:40:55.000Z</time>
      </trkpt>
      <trkpt lat="43.34452" lon="-1.47137">
        <ele>80.1</ele>
        <time>2021-12-14T14:40:56.000Z</time>
      </trkpt>
      <trkpt lat="43.34458" lon="-1.47134">
        <ele>80</ele>
        <time>2021-12-14T14:40:57.000Z</time>
      </trkpt>
      <trkpt lat="43.34463" lon="-1.47132">
        <ele>79.9</ele>
        <time>2021-12-14T14:40:58.000Z</time>
      </trkpt>
      <trkpt lat="43.34469" lon="-1.47129">
        <ele>79.8</ele>
        <time>2021-12-14T14:40:59.000Z</time>
      </trkpt>
      <trkpt lat="43.34474" lon="-1.47126">
        <ele>79.7</ele>
        <time>2021-12-14T14:41:00.000Z</time>
      </trkpt>
      <trkpt lat="43.3448" lon="-1.47123">
        <ele>79.6</ele>
        <time>2021-12-14T14:41:01.000Z</time>
      </trkpt>
      <trkpt lat="43.34486" lon="-1.4712">
        <ele>79.6</ele>
        <time>2021-12-14T14:41:02.000Z</time>
      </trkpt>
      <trkpt lat="43.34492" lon="-1.47117">
        <ele>79.7</ele>
        <time>2021-12-14T14:41:03.000Z</time>
      </trkpt>
      <trkpt lat="43.34497" lon="-1.47114">
        <ele>80</ele>
        <time>2021-12-14T14:41:04.000Z</time>
      </trkpt>
      <trkpt lat="43.34503" lon="-1.47112">
        <ele>80</ele>
        <time>2021-12-14T14:41:05.000Z</time>
      </trkpt>
      <trkpt lat="43.34509" lon="-1.47109">
        <ele>80</ele>
        <time>2021-12-14T14:41:06.000Z</time>
      </trkpt>
      <trkpt lat="43.34515" lon="-1.47106">
        <ele>80</ele>
        <time>2021-12-14T14:41:07.000Z</time>
      </trkpt>
      <trkpt lat="43.34521" lon="-1.47104">
        <ele>80</ele>
        <time>2021-12-14T14:41:08.000Z</time>
      </trkpt>
      <trkpt lat="43.34526" lon="-1.47101">
        <ele>80</ele>
        <time>2021-12-14T14:41:09.000Z</time>
      </trkpt>
      <trkpt lat="43.34532" lon="-1.47098">
        <ele>80.1</ele>
        <time>2021-12-14T14:41:10.000Z</time>
      </trkpt>
      <trkpt lat="43.34538" lon="-1.47096">
        <ele>80.2</ele>
        <time>2021-12-14T14:41:11.000Z</time>
      </trkpt>
      <trkpt lat="43.34544" lon="-1.47094">
        <ele>80.2</ele>
        <time>2021-12-14T14:41:12.000Z</time>
      </trkpt>
      <trkpt lat="43.3455" lon="-1.47092">
        <ele>80.2</ele>
        <time>2021-12-14T14:41:13.000Z</time>
      </trkpt>
      <trkpt lat="43.34556" lon="-1.4709">
        <ele>80.2</ele>
        <time>2021-12-14T14:41:14.000Z</time>
      </trkpt>
      <trkpt lat="43.34562" lon="-1.47088">
        <ele>80.4</ele>
        <time>2021-12-14T14:41:15.000Z</time>
      </trkpt>
      <trkpt lat="43.34568" lon="-1.47086">
        <ele>80.5</ele>
        <time>2021-12-14T14:41:16.000Z</time>
      </trkpt>
      <trkpt lat="43.34574" lon="-1.47084">
        <ele>80.7</ele>
        <time>2021-12-14T14:41:17.000Z</time>
      </trkpt>
      <trkpt lat="43.34581" lon="-1.47082">
        <ele>80.8</ele>
        <time>2021-12-14T14:41:18.000Z</time>
      </trkpt>
      <trkpt lat="43.34587" lon="-1.47081">
        <ele>80.8</ele>
        <time>2021-12-14T14:41:19.000Z</time>
      </trkpt>
      <trkpt lat="43.34593" lon="-1.4708">
        <ele>80.7</ele>
        <time>2021-12-14T14:41:20.000Z</time>
      </trkpt>
      <trkpt lat="43.346" lon="-1.47079">
        <ele>80.7</ele>
        <time>2021-12-14T14:41:21.000Z</time>
      </trkpt>
      <trkpt lat="43.34606" lon="-1.47078">
        <ele>80.7</ele>
        <time>2021-12-14T14:41:22.000Z</time>
      </trkpt>
      <trkpt lat="43.34612" lon="-1.47078">
        <ele>80.8</ele>
        <time>2021-12-14T14:41:23.000Z</time>
      </trkpt>
      <trkpt lat="43.34618" lon="-1.47078">
        <ele>81.1</ele>
        <time>2021-12-14T14:41:24.000Z</time>
      </trkpt>
      <trkpt lat="43.34624" lon="-1.47079">
        <ele>81.3</ele>
        <time>2021-12-14T14:41:25.000Z</time>
      </trkpt>
      <trkpt lat="43.34632" lon="-1.47081">
        <ele>81.7</ele>
        <time>2021-12-14T14:41:26.000Z</time>
      </trkpt>
      <trkpt lat="43.34641" lon="-1.47084">
        <ele>82.1</ele>
        <time>2021-12-14T14:41:27.000Z</time>
      </trkpt>
      <trkpt lat="43.34648" lon="-1.47086">
        <ele>82.6</ele>
        <time>2021-12-14T14:41:28.000Z</time>
      </trkpt>
      <trkpt lat="43.34655" lon="-1.47089">
        <ele>83</ele>
        <time>2021-12-14T14:41:29.000Z</time>
      </trkpt>
      <trkpt lat="43.34662" lon="-1.47092">
        <ele>83.4</ele>
        <time>2021-12-14T14:41:30.000Z</time>
      </trkpt>
      <trkpt lat="43.34668" lon="-1.47094">
        <ele>83.8</ele>
        <time>2021-12-14T14:41:31.000Z</time>
      </trkpt>
      <trkpt lat="43.34674" lon="-1.47097">
        <ele>84.1</ele>
        <time>2021-12-14T14:41:32.000Z</time>
      </trkpt>
      <trkpt lat="43.34679" lon="-1.47099">
        <ele>84.3</ele>
        <time>2021-12-14T14:41:33.000Z</time>
      </trkpt>
      <trkpt lat="43.34685" lon="-1.47102">
        <ele>84.5</ele>
        <time>2021-12-14T14:41:34.000Z</time>
      </trkpt>
      <trkpt lat="43.34691" lon="-1.47104">
        <ele>84.7</ele>
        <time>2021-12-14T14:41:35.000Z</time>
      </trkpt>
      <trkpt lat="43.34696" lon="-1.47106">
        <ele>84.9</ele>
        <time>2021-12-14T14:41:36.000Z</time>
      </trkpt>
      <trkpt lat="43.34702" lon="-1.47108">
        <ele>85.2</ele>
        <time>2021-12-14T14:41:37.000Z</time>
      </trkpt>
      <trkpt lat="43.34707" lon="-1.4711">
        <ele>85.4</ele>
        <time>2021-12-14T14:41:38.000Z</time>
      </trkpt>
      <trkpt lat="43.34712" lon="-1.47113">
        <ele>85.7</ele>
        <time>2021-12-14T14:41:39.000Z</time>
      </trkpt>
      <trkpt lat="43.34717" lon="-1.47115">
        <ele>86</ele>
        <time>2021-12-14T14:41:40.000Z</time>
      </trkpt>
      <trkpt lat="43.34722" lon="-1.47117">
        <ele>86.2</ele>
        <time>2021-12-14T14:41:41.000Z</time>
      </trkpt>
      <trkpt lat="43.34726" lon="-1.47119">
        <ele>86.6</ele>
        <time>2021-12-14T14:41:42.000Z</time>
      </trkpt>
      <trkpt lat="43.34731" lon="-1.47121">
        <ele>87.1</ele>
        <time>2021-12-14T14:41:43.000Z</time>
      </trkpt>
      <trkpt lat="43.34735" lon="-1.47123">
        <ele>87.6</ele>
        <time>2021-12-14T14:41:44.000Z</time>
      </trkpt>
      <trkpt lat="43.34739" lon="-1.47124">
        <ele>88</ele>
        <time>2021-12-14T14:41:45.000Z</time>
      </trkpt>
      <trkpt lat="43.34743" lon="-1.47126">
        <ele>88.5</ele>
        <time>2021-12-14T14:41:46.000Z</time>
      </trkpt>
      <trkpt lat="43.34747" lon="-1.47128">
        <ele>89</ele>
        <time>2021-12-14T14:41:47.000Z</time>
      </trkpt>
      <trkpt lat="43.34752" lon="-1.47129">
        <ele>89.5</ele>
        <time>2021-12-14T14:41:48.000Z</time>
      </trkpt>
      <trkpt lat="43.34756" lon="-1.47131">
        <ele>90</ele>
        <time>2021-12-14T14:41:49.000Z</time>
      </trkpt>
      <trkpt lat="43.3476" lon="-1.47132">
        <ele>90.6</ele>
        <time>2021-12-14T14:41:50.000Z</time>
      </trkpt>
      <trkpt lat="43.34764" lon="-1.47134">
        <ele>91.1</ele>
        <time>2021-12-14T14:41:51.000Z</time>
      </trkpt>
      <trkpt lat="43.34768" lon="-1.47136">
        <ele>91.7</ele>
        <time>2021-12-14T14:41:52.000Z</time>
      </trkpt>
      <trkpt lat="43.34772" lon="-1.47137">
        <ele>92.2</ele>
        <time>2021-12-14T14:41:53.000Z</time>
      </trkpt>
      <trkpt lat="43.34775" lon="-1.47139">
        <ele>92.7</ele>
        <time>2021-12-14T14:41:54.000Z</time>
      </trkpt>
      <trkpt lat="43.34779" lon="-1.47141">
        <ele>93.2</ele>
        <time>2021-12-14T14:41:55.000Z</time>
      </trkpt>
      <trkpt lat="43.34783" lon="-1.47142">
        <ele>93.6</ele>
        <time>2021-12-14T14:41:56.000Z</time>
      </trkpt>
      <trkpt lat="43.34786" lon="-1.47144">
        <ele>94</ele>
        <time>2021-12-14T14:41:57.000Z</time>
      </trkpt>
      <trkpt lat="43.3479" lon="-1.47145">
        <ele>94.5</ele>
        <time>2021-12-14T14:41:58.000Z</time>
      </trkpt>
      <trkpt lat="43.34793" lon="-1.47146">
        <ele>95</ele>
        <time>2021-12-14T14:41:59.000Z</time>
      </trkpt>
      <trkpt lat="43.34797" lon="-1.47147">
        <ele>95.5</ele>
        <time>2021-12-14T14:42:00.000Z</time>
      </trkpt>
      <trkpt lat="43.34801" lon="-1.47149">
        <ele>96</ele>
        <time>2021-12-14T14:42:01.000Z</time>
      </trkpt>
      <trkpt lat="43.34804" lon="-1.4715">
        <ele>96.6</ele>
        <time>2021-12-14T14:42:02.000Z</time>
      </trkpt>
      <trkpt lat="43.34807" lon="-1.47151">
        <ele>97.1</ele>
        <time>2021-12-14T14:42:03.000Z</time>
      </trkpt>
      <trkpt lat="43.34811" lon="-1.47152">
        <ele>97.6</ele>
        <time>2021-12-14T14:42:04.000Z</time>
      </trkpt>
      <trkpt lat="43.34814" lon="-1.47154">
        <ele>98.1</ele>
        <time>2021-12-14T14:42:05.000Z</time>
      </trkpt>
      <trkpt lat="43.34818" lon="-1.47155">
        <ele>98.7</ele>
        <time>2021-12-14T14:42:06.000Z</time>
      </trkpt>
      <trkpt lat="43.34821" lon="-1.47157">
        <ele>99.3</ele>
        <time>2021-12-14T14:42:07.000Z</time>
      </trkpt>
      <trkpt lat="43.34825" lon="-1.47158">
        <ele>99.9</ele>
        <time>2021-12-14T14:42:08.000Z</time>
      </trkpt>
      <trkpt lat="43.34828" lon="-1.47159">
        <ele>100.5</ele>
        <time>2021-12-14T14:42:09.000Z</time>
      </trkpt>
      <trkpt lat="43.34831" lon="-1.47161">
        <ele>101.1</ele>
        <time>2021-12-14T14:42:10.000Z</time>
      </trkpt>
      <trkpt lat="43.34835" lon="-1.47163">
        <ele>101.6</ele>
        <time>2021-12-14T14:42:11.000Z</time>
      </trkpt>
      <trkpt lat="43.34838" lon="-1.47164">
        <ele>102</ele>
        <time>2021-12-14T14:42:12.000Z</time>
      </trkpt>
      <trkpt lat="43.34842" lon="-1.47167">
        <ele>102.3</ele>
        <time>2021-12-14T14:42:13.000Z</time>
      </trkpt>
      <trkpt lat="43.34845" lon="-1.47169">
        <ele>102.6</ele>
        <time>2021-12-14T14:42:14.000Z</time>
      </trkpt>
      <trkpt lat="43.34849" lon="-1.47172">
        <ele>102.9</ele>
        <time>2021-12-14T14:42:15.000Z</time>
      </trkpt>
      <trkpt lat="43.34852" lon="-1.47175">
        <ele>103.2</ele>
        <time>2021-12-14T14:42:16.000Z</time>
      </trkpt>
      <trkpt lat="43.34855" lon="-1.47178">
        <ele>103.6</ele>
        <time>2021-12-14T14:42:17.000Z</time>
      </trkpt>
      <trkpt lat="43.34857" lon="-1.47181">
        <ele>103.9</ele>
        <time>2021-12-14T14:42:18.000Z</time>
      </trkpt>
      <trkpt lat="43.3486" lon="-1.47185">
        <ele>104.3</ele>
        <time>2021-12-14T14:42:19.000Z</time>
      </trkpt>
      <trkpt lat="43.34863" lon="-1.47188">
        <ele>104.6</ele>
        <time>2021-12-14T14:42:20.000Z</time>
      </trkpt>
      <trkpt lat="43.34865" lon="-1.47192">
        <ele>105</ele>
        <time>2021-12-14T14:42:21.000Z</time>
      </trkpt>
      <trkpt lat="43.34868" lon="-1.47196">
        <ele>105.4</ele>
        <time>2021-12-14T14:42:22.000Z</time>
      </trkpt>
      <trkpt lat="43.3487" lon="-1.47199">
        <ele>105.8</ele>
        <time>2021-12-14T14:42:23.000Z</time>
      </trkpt>
      <trkpt lat="43.34873" lon="-1.47203">
        <ele>106.3</ele>
        <time>2021-12-14T14:42:24.000Z</time>
      </trkpt>
      <trkpt lat="43.34875" lon="-1.47208">
        <ele>106.7</ele>
        <time>2021-12-14T14:42:25.000Z</time>
      </trkpt>
      <trkpt lat="43.34878" lon="-1.47212">
        <ele>107.1</ele>
        <time>2021-12-14T14:42:26.000Z</time>
      </trkpt>
      <trkpt lat="43.34881" lon="-1.47217">
        <ele>107.6</ele>
        <time>2021-12-14T14:42:27.000Z</time>
      </trkpt>
      <trkpt lat="43.34883" lon="-1.47222">
        <ele>107.9</ele>
        <time>2021-12-14T14:42:28.000Z</time>
      </trkpt>
      <trkpt lat="43.34886" lon="-1.47226">
        <ele>108.4</ele>
        <time>2021-12-14T14:42:29.000Z</time>
      </trkpt>
      <trkpt lat="43.34889" lon="-1.47231">
        <ele>108.9</ele>
        <time>2021-12-14T14:42:30.000Z</time>
      </trkpt>
      <trkpt lat="43.34892" lon="-1.47236">
        <ele>109</ele>
        <time>2021-12-14T14:42:31.000Z</time>
      </trkpt>
      <trkpt lat="43.34895" lon="-1.4724">
        <ele>109.2</ele>
        <time>2021-12-14T14:42:32.000Z</time>
      </trkpt>
      <trkpt lat="43.34898" lon="-1.47245">
        <ele>109.4</ele>
        <time>2021-12-14T14:42:33.000Z</time>
      </trkpt>
      <trkpt lat="43.34901" lon="-1.47249">
        <ele>109.5</ele>
        <time>2021-12-14T14:42:34.000Z</time>
      </trkpt>
      <trkpt lat="43.34905" lon="-1.47253">
        <ele>109.7</ele>
        <time>2021-12-14T14:42:35.000Z</time>
      </trkpt>
      <trkpt lat="43.34908" lon="-1.47256">
        <ele>109.9</ele>
        <time>2021-12-14T14:42:36.000Z</time>
      </trkpt>
      <trkpt lat="43.34912" lon="-1.4726">
        <ele>110.1</ele>
        <time>2021-12-14T14:42:37.000Z</time>
      </trkpt>
      <trkpt lat="43.34916" lon="-1.47263">
        <ele>110.4</ele>
        <time>2021-12-14T14:42:38.000Z</time>
      </trkpt>
      <trkpt lat="43.3492" lon="-1.47266">
        <ele>110.6</ele>
        <time>2021-12-14T14:42:39.000Z</time>
      </trkpt>
      <trkpt lat="43.34924" lon="-1.47269">
        <ele>110.8</ele>
        <time>2021-12-14T14:42:40.000Z</time>
      </trkpt>
      <trkpt lat="43.34928" lon="-1.47272">
        <ele>111.2</ele>
        <time>2021-12-14T14:42:41.000Z</time>
      </trkpt>
      <trkpt lat="43.34931" lon="-1.47274">
        <ele>111.6</ele>
        <time>2021-12-14T14:42:42.000Z</time>
      </trkpt>
      <trkpt lat="43.34935" lon="-1.47277">
        <ele>112</ele>
        <time>2021-12-14T14:42:43.000Z</time>
      </trkpt>
      <trkpt lat="43.34939" lon="-1.47279">
        <ele>112.4</ele>
        <time>2021-12-14T14:42:44.000Z</time>
      </trkpt>
      <trkpt lat="43.34944" lon="-1.47281">
        <ele>112.8</ele>
        <time>2021-12-14T14:42:45.000Z</time>
      </trkpt>
      <trkpt lat="43.34948" lon="-1.47284">
        <ele>112.9</ele>
        <time>2021-12-14T14:42:46.000Z</time>
      </trkpt>
      <trkpt lat="43.34953" lon="-1.47286">
        <ele>112.9</ele>
        <time>2021-12-14T14:42:47.000Z</time>
      </trkpt>
      <trkpt lat="43.34957" lon="-1.47288">
        <ele>112.9</ele>
        <time>2021-12-14T14:42:48.000Z</time>
      </trkpt>
      <trkpt lat="43.34962" lon="-1.4729">
        <ele>113</ele>
        <time>2021-12-14T14:42:49.000Z</time>
      </trkpt>
      <trkpt lat="43.34967" lon="-1.47292">
        <ele>113.1</ele>
        <time>2021-12-14T14:42:50.000Z</time>
      </trkpt>
      <trkpt lat="43.34971" lon="-1.47294">
        <ele>113.2</ele>
        <time>2021-12-14T14:42:51.000Z</time>
      </trkpt>
      <trkpt lat="43.34976" lon="-1.47296">
        <ele>113.9</ele>
        <time>2021-12-14T14:42:52.000Z</time>
      </trkpt>
      <trkpt lat="43.34981" lon="-1.47298">
        <ele>114.6</ele>
        <time>2021-12-14T14:42:53.000Z</time>
      </trkpt>
      <trkpt lat="43.34986" lon="-1.473">
        <ele>115.4</ele>
        <time>2021-12-14T14:42:54.000Z</time>
      </trkpt>
      <trkpt lat="43.3499" lon="-1.47302">
        <ele>116</ele>
        <time>2021-12-14T14:42:55.000Z</time>
      </trkpt>
      <trkpt lat="43.34995" lon="-1.47304">
        <ele>116.5</ele>
        <time>2021-12-14T14:42:56.000Z</time>
      </trkpt>
      <trkpt lat="43.35" lon="-1.47306">
        <ele>117</ele>
        <time>2021-12-14T14:42:57.000Z</time>
      </trkpt>
      <trkpt lat="43.35005" lon="-1.47307">
        <ele>117.4</ele>
        <time>2021-12-14T14:42:58.000Z</time>
      </trkpt>
      <trkpt lat="43.35009" lon="-1.47308">
        <ele>117.8</ele>
        <time>2021-12-14T14:42:59.000Z</time>
      </trkpt>
      <trkpt lat="43.35013" lon="-1.4731">
        <ele>118.2</ele>
        <time>2021-12-14T14:43:00.000Z</time>
      </trkpt>
      <trkpt lat="43.35018" lon="-1.47311">
        <ele>118.5</ele>
        <time>2021-12-14T14:43:01.000Z</time>
      </trkpt>
      <trkpt lat="43.35023" lon="-1.47313">
        <ele>118.8</ele>
        <time>2021-12-14T14:43:02.000Z</time>
      </trkpt>
      <trkpt lat="43.35029" lon="-1.47314">
        <ele>119</ele>
        <time>2021-12-14T14:43:03.000Z</time>
      </trkpt>
      <trkpt lat="43.35034" lon="-1.47316">
        <ele>119.2</ele>
        <time>2021-12-14T14:43:04.000Z</time>
      </trkpt>
      <trkpt lat="43.35039" lon="-1.47318">
        <ele>119.3</ele>
        <time>2021-12-14T14:43:05.000Z</time>
      </trkpt>
      <trkpt lat="43.35045" lon="-1.47319">
        <ele>119.3</ele>
        <time>2021-12-14T14:43:06.000Z</time>
      </trkpt>
      <trkpt lat="43.35051" lon="-1.47321">
        <ele>119.2</ele>
        <time>2021-12-14T14:43:07.000Z</time>
      </trkpt>
      <trkpt lat="43.35057" lon="-1.47324">
        <ele>119</ele>
        <time>2021-12-14T14:43:08.000Z</time>
      </trkpt>
      <trkpt lat="43.35063" lon="-1.47327">
        <ele>118.7</ele>
        <time>2021-12-14T14:43:09.000Z</time>
      </trkpt>
      <trkpt lat="43.35069" lon="-1.47329">
        <ele>118.4</ele>
        <time>2021-12-14T14:43:10.000Z</time>
      </trkpt>
      <trkpt lat="43.35074" lon="-1.47332">
        <ele>118.1</ele>
        <time>2021-12-14T14:43:11.000Z</time>
      </trkpt>
      <trkpt lat="43.35081" lon="-1.47336">
        <ele>117.7</ele>
        <time>2021-12-14T14:43:12.000Z</time>
      </trkpt>
      <trkpt lat="43.35087" lon="-1.47339">
        <ele>117.4</ele>
        <time>2021-12-14T14:43:13.000Z</time>
      </trkpt>
      <trkpt lat="43.35093" lon="-1.47342">
        <ele>117.4</ele>
        <time>2021-12-14T14:43:14.000Z</time>
      </trkpt>
      <trkpt lat="43.35099" lon="-1.47345">
        <ele>117.6</ele>
        <time>2021-12-14T14:43:15.000Z</time>
      </trkpt>
      <trkpt lat="43.35105" lon="-1.47348">
        <ele>117.9</ele>
        <time>2021-12-14T14:43:16.000Z</time>
      </trkpt>
      <trkpt lat="43.35111" lon="-1.47352">
        <ele>118.3</ele>
        <time>2021-12-14T14:43:17.000Z</time>
      </trkpt>
      <trkpt lat="43.35118" lon="-1.47355">
        <ele>118</ele>
        <time>2021-12-14T14:43:18.000Z</time>
      </trkpt>
      <trkpt lat="43.35124" lon="-1.47358">
        <ele>117.7</ele>
        <time>2021-12-14T14:43:19.000Z</time>
      </trkpt>
      <trkpt lat="43.3513" lon="-1.47361">
        <ele>117.3</ele>
        <time>2021-12-14T14:43:20.000Z</time>
      </trkpt>
      <trkpt lat="43.35136" lon="-1.47364">
        <ele>117.1</ele>
        <time>2021-12-14T14:43:21.000Z</time>
      </trkpt>
      <trkpt lat="43.35143" lon="-1.47366">
        <ele>116.9</ele>
        <time>2021-12-14T14:43:22.000Z</time>
      </trkpt>
      <trkpt lat="43.35149" lon="-1.47369">
        <ele>116.6</ele>
        <time>2021-12-14T14:43:23.000Z</time>
      </trkpt>
      <trkpt lat="43.35156" lon="-1.47372">
        <ele>116.4</ele>
        <time>2021-12-14T14:43:24.000Z</time>
      </trkpt>
      <trkpt lat="43.35162" lon="-1.47374">
        <ele>116.2</ele>
        <time>2021-12-14T14:43:25.000Z</time>
      </trkpt>
      <trkpt lat="43.3517" lon="-1.47375">
        <ele>115.8</ele>
        <time>2021-12-14T14:43:26.000Z</time>
      </trkpt>
      <trkpt lat="43.35177" lon="-1.47376">
        <ele>115.3</ele>
        <time>2021-12-14T14:43:27.000Z</time>
      </trkpt>
      <trkpt lat="43.35184" lon="-1.47376">
        <ele>114.7</ele>
        <time>2021-12-14T14:43:28.000Z</time>
      </trkpt>
      <trkpt lat="43.35192" lon="-1.47375">
        <ele>114.2</ele>
        <time>2021-12-14T14:43:29.000Z</time>
      </trkpt>
      <trkpt lat="43.35199" lon="-1.47374">
        <ele>113.8</ele>
        <time>2021-12-14T14:43:30.000Z</time>
      </trkpt>
      <trkpt lat="43.35206" lon="-1.47373">
        <ele>113.6</ele>
        <time>2021-12-14T14:43:31.000Z</time>
      </trkpt>
      <trkpt lat="43.35213" lon="-1.47371">
        <ele>113.3</ele>
        <time>2021-12-14T14:43:32.000Z</time>
      </trkpt>
      <trkpt lat="43.3522" lon="-1.4737">
        <ele>113.1</ele>
        <time>2021-12-14T14:43:33.000Z</time>
      </trkpt>
      <trkpt lat="43.35227" lon="-1.47368">
        <ele>113</ele>
        <time>2021-12-14T14:43:34.000Z</time>
      </trkpt>
      <trkpt lat="43.35233" lon="-1.47366">
        <ele>112.9</ele>
        <time>2021-12-14T14:43:35.000Z</time>
      </trkpt>
      <trkpt lat="43.35239" lon="-1.47364">
        <ele>112.9</ele>
        <time>2021-12-14T14:43:36.000Z</time>
      </trkpt>
      <trkpt lat="43.35246" lon="-1.47362">
        <ele>113</ele>
        <time>2021-12-14T14:43:37.000Z</time>
      </trkpt>
      <trkpt lat="43.35252" lon="-1.4736">
        <ele>113</ele>
        <time>2021-12-14T14:43:38.000Z</time>
      </trkpt>
      <trkpt lat="43.35259" lon="-1.47358">
        <ele>113.1</ele>
        <time>2021-12-14T14:43:39.000Z</time>
      </trkpt>
      <trkpt lat="43.35265" lon="-1.47357">
        <ele>113.2</ele>
        <time>2021-12-14T14:43:40.000Z</time>
      </trkpt>
      <trkpt lat="43.35272" lon="-1.47355">
        <ele>113.4</ele>
        <time>2021-12-14T14:43:41.000Z</time>
      </trkpt>
      <trkpt lat="43.35278" lon="-1.47354">
        <ele>113.5</ele>
        <time>2021-12-14T14:43:42.000Z</time>
      </trkpt>
      <trkpt lat="43.35284" lon="-1.47352">
        <ele>113.4</ele>
        <time>2021-12-14T14:43:43.000Z</time>
      </trkpt>
      <trkpt lat="43.3529" lon="-1.4735">
        <ele>113.4</ele>
        <time>2021-12-14T14:43:44.000Z</time>
      </trkpt>
      <trkpt lat="43.35296" lon="-1.47349">
        <ele>113.4</ele>
        <time>2021-12-14T14:43:45.000Z</time>
      </trkpt>
      <trkpt lat="43.35303" lon="-1.47348">
        <ele>113.5</ele>
        <time>2021-12-14T14:43:46.000Z</time>
      </trkpt>
      <trkpt lat="43.35309" lon="-1.47346">
        <ele>113.6</ele>
        <time>2021-12-14T14:43:47.000Z</time>
      </trkpt>
      <trkpt lat="43.35315" lon="-1.47346">
        <ele>113.8</ele>
        <time>2021-12-14T14:43:48.000Z</time>
      </trkpt>
      <trkpt lat="43.35322" lon="-1.47345">
        <ele>114.1</ele>
        <time>2021-12-14T14:43:49.000Z</time>
      </trkpt>
      <trkpt lat="43.35328" lon="-1.47344">
        <ele>114.4</ele>
        <time>2021-12-14T14:43:50.000Z</time>
      </trkpt>
      <trkpt lat="43.35334" lon="-1.47343">
        <ele>114.7</ele>
        <time>2021-12-14T14:43:51.000Z</time>
      </trkpt>
      <trkpt lat="43.3534" lon="-1.47341">
        <ele>114.6</ele>
        <time>2021-12-14T14:43:52.000Z</time>
      </trkpt>
      <trkpt lat="43.35346" lon="-1.4734">
        <ele>114.5</ele>
        <time>2021-12-14T14:43:53.000Z</time>
      </trkpt>
      <trkpt lat="43.35353" lon="-1.47339">
        <ele>114.5</ele>
        <time>2021-12-14T14:43:54.000Z</time>
      </trkpt>
      <trkpt lat="43.35359" lon="-1.47337">
        <ele>114.6</ele>
        <time>2021-12-14T14:43:55.000Z</time>
      </trkpt>
      <trkpt lat="43.35365" lon="-1.47336">
        <ele>114.7</ele>
        <time>2021-12-14T14:43:56.000Z</time>
      </trkpt>
      <trkpt lat="43.35372" lon="-1.47335">
        <ele>114.8</ele>
        <time>2021-12-14T14:43:57.000Z</time>
      </trkpt>
      <trkpt lat="43.35377" lon="-1.47334">
        <ele>114.9</ele>
        <time>2021-12-14T14:43:58.000Z</time>
      </trkpt>
      <trkpt lat="43.35383" lon="-1.47334">
        <ele>114.9</ele>
        <time>2021-12-14T14:43:59.000Z</time>
      </trkpt>
      <trkpt lat="43.35389" lon="-1.47334">
        <ele>114.9</ele>
        <time>2021-12-14T14:44:00.000Z</time>
      </trkpt>
      <trkpt lat="43.35394" lon="-1.47335">
        <ele>115</ele>
        <time>2021-12-14T14:44:01.000Z</time>
      </trkpt>
      <trkpt lat="43.354" lon="-1.47336">
        <ele>115.1</ele>
        <time>2021-12-14T14:44:02.000Z</time>
      </trkpt>
      <trkpt lat="43.35405" lon="-1.47338">
        <ele>115.2</ele>
        <time>2021-12-14T14:44:03.000Z</time>
      </trkpt>
      <trkpt lat="43.35411" lon="-1.47341">
        <ele>115.4</ele>
        <time>2021-12-14T14:44:04.000Z</time>
      </trkpt>
      <trkpt lat="43.35416" lon="-1.47344">
        <ele>115.6</ele>
        <time>2021-12-14T14:44:05.000Z</time>
      </trkpt>
      <trkpt lat="43.35421" lon="-1.47347">
        <ele>115.9</ele>
        <time>2021-12-14T14:44:06.000Z</time>
      </trkpt>
      <trkpt lat="43.35425" lon="-1.47351">
        <ele>116.2</ele>
        <time>2021-12-14T14:44:07.000Z</time>
      </trkpt>
      <trkpt lat="43.35431" lon="-1.47356">
        <ele>116.6</ele>
        <time>2021-12-14T14:44:08.000Z</time>
      </trkpt>
      <trkpt lat="43.35435" lon="-1.47362">
        <ele>116.9</ele>
        <time>2021-12-14T14:44:09.000Z</time>
      </trkpt>
      <trkpt lat="43.35439" lon="-1.47367">
        <ele>117.2</ele>
        <time>2021-12-14T14:44:10.000Z</time>
      </trkpt>
      <trkpt lat="43.35442" lon="-1.47372">
        <ele>117.7</ele>
        <time>2021-12-14T14:44:11.000Z</time>
      </trkpt>
      <trkpt lat="43.35446" lon="-1.47376">
        <ele>118.3</ele>
        <time>2021-12-14T14:44:12.000Z</time>
      </trkpt>
      <trkpt lat="43.35449" lon="-1.47381">
        <ele>118.9</ele>
        <time>2021-12-14T14:44:13.000Z</time>
      </trkpt>
      <trkpt lat="43.35452" lon="-1.47385">
        <ele>119.6</ele>
        <time>2021-12-14T14:44:14.000Z</time>
      </trkpt>
      <trkpt lat="43.35454" lon="-1.4739">
        <ele>120</ele>
        <time>2021-12-14T14:44:15.000Z</time>
      </trkpt>
      <trkpt lat="43.35457" lon="-1.47394">
        <ele>120.2</ele>
        <time>2021-12-14T14:44:16.000Z</time>
      </trkpt>
      <trkpt lat="43.35459" lon="-1.47398">
        <ele>120.4</ele>
        <time>2021-12-14T14:44:17.000Z</time>
      </trkpt>
      <trkpt lat="43.35462" lon="-1.47402">
        <ele>120.7</ele>
        <time>2021-12-14T14:44:18.000Z</time>
      </trkpt>
      <trkpt lat="43.35464" lon="-1.47407">
        <ele>121</ele>
        <time>2021-12-14T14:44:19.000Z</time>
      </trkpt>
      <trkpt lat="43.35467" lon="-1.47411">
        <ele>121.5</ele>
        <time>2021-12-14T14:44:20.000Z</time>
      </trkpt>
      <trkpt lat="43.35469" lon="-1.47416">
        <ele>122.1</ele>
        <time>2021-12-14T14:44:21.000Z</time>
      </trkpt>
      <trkpt lat="43.35472" lon="-1.4742">
        <ele>123.1</ele>
        <time>2021-12-14T14:44:22.000Z</time>
      </trkpt>
      <trkpt lat="43.35475" lon="-1.47425">
        <ele>123.8</ele>
        <time>2021-12-14T14:44:23.000Z</time>
      </trkpt>
      <trkpt lat="43.35478" lon="-1.47429">
        <ele>124.6</ele>
        <time>2021-12-14T14:44:24.000Z</time>
      </trkpt>
      <trkpt lat="43.35481" lon="-1.47433">
        <ele>125.2</ele>
        <time>2021-12-14T14:44:25.000Z</time>
      </trkpt>
      <trkpt lat="43.35484" lon="-1.47436">
        <ele>125.9</ele>
        <time>2021-12-14T14:44:26.000Z</time>
      </trkpt>
      <trkpt lat="43.35488" lon="-1.47439">
        <ele>126.4</ele>
        <time>2021-12-14T14:44:27.000Z</time>
      </trkpt>
      <trkpt lat="43.35492" lon="-1.47442">
        <ele>126.9</ele>
        <time>2021-12-14T14:44:28.000Z</time>
      </trkpt>
      <trkpt lat="43.35496" lon="-1.47443">
        <ele>127.5</ele>
        <time>2021-12-14T14:44:29.000Z</time>
      </trkpt>
      <trkpt lat="43.355" lon="-1.47444">
        <ele>128</ele>
        <time>2021-12-14T14:44:30.000Z</time>
      </trkpt>
      <trkpt lat="43.35503" lon="-1.47444">
        <ele>128.2</ele>
        <time>2021-12-14T14:44:31.000Z</time>
      </trkpt>
      <trkpt lat="43.35508" lon="-1.47443">
        <ele>128.4</ele>
        <time>2021-12-14T14:44:32.000Z</time>
      </trkpt>
      <trkpt lat="43.35511" lon="-1.47442">
        <ele>128.6</ele>
        <time>2021-12-14T14:44:33.000Z</time>
      </trkpt>
      <trkpt lat="43.35515" lon="-1.4744">
        <ele>128.9</ele>
        <time>2021-12-14T14:44:34.000Z</time>
      </trkpt>
      <trkpt lat="43.35519" lon="-1.47438">
        <ele>129.3</ele>
        <time>2021-12-14T14:44:35.000Z</time>
      </trkpt>
      <trkpt lat="43.35522" lon="-1.47436">
        <ele>129.7</ele>
        <time>2021-12-14T14:44:36.000Z</time>
      </trkpt>
      <trkpt lat="43.35526" lon="-1.47433">
        <ele>130.1</ele>
        <time>2021-12-14T14:44:37.000Z</time>
      </trkpt>
      <trkpt lat="43.3553" lon="-1.47431">
        <ele>130.5</ele>
        <time>2021-12-14T14:44:38.000Z</time>
      </trkpt>
      <trkpt lat="43.35534" lon="-1.47429">
        <ele>130.9</ele>
        <time>2021-12-14T14:44:39.000Z</time>
      </trkpt>
      <trkpt lat="43.35538" lon="-1.47426">
        <ele>131.3</ele>
        <time>2021-12-14T14:44:40.000Z</time>
      </trkpt>
      <trkpt lat="43.35542" lon="-1.47425">
        <ele>131.6</ele>
        <time>2021-12-14T14:44:41.000Z</time>
      </trkpt>
      <trkpt lat="43.35546" lon="-1.47424">
        <ele>131.9</ele>
        <time>2021-12-14T14:44:42.000Z</time>
      </trkpt>
      <trkpt lat="43.3555" lon="-1.47423">
        <ele>132.1</ele>
        <time>2021-12-14T14:44:43.000Z</time>
      </trkpt>
      <trkpt lat="43.35555" lon="-1.47423">
        <ele>132.3</ele>
        <time>2021-12-14T14:44:44.000Z</time>
      </trkpt>
      <trkpt lat="43.35559" lon="-1.47424">
        <ele>132.7</ele>
        <time>2021-12-14T14:44:45.000Z</time>
      </trkpt>
      <trkpt lat="43.35563" lon="-1.47426">
        <ele>133.2</ele>
        <time>2021-12-14T14:44:46.000Z</time>
      </trkpt>
      <trkpt lat="43.35567" lon="-1.47429">
        <ele>133.7</ele>
        <time>2021-12-14T14:44:47.000Z</time>
      </trkpt>
      <trkpt lat="43.35571" lon="-1.47432">
        <ele>134.2</ele>
        <time>2021-12-14T14:44:48.000Z</time>
      </trkpt>
      <trkpt lat="43.35575" lon="-1.47435">
        <ele>134.7</ele>
        <time>2021-12-14T14:44:49.000Z</time>
      </trkpt>
      <trkpt lat="43.35578" lon="-1.47439">
        <ele>135.2</ele>
        <time>2021-12-14T14:44:50.000Z</time>
      </trkpt>
      <trkpt lat="43.35582" lon="-1.47443">
        <ele>135.7</ele>
        <time>2021-12-14T14:44:51.000Z</time>
      </trkpt>
      <trkpt lat="43.35585" lon="-1.47448">
        <ele>136.2</ele>
        <time>2021-12-14T14:44:52.000Z</time>
      </trkpt>
      <trkpt lat="43.35589" lon="-1.47452">
        <ele>136.6</ele>
        <time>2021-12-14T14:44:53.000Z</time>
      </trkpt>
      <trkpt lat="43.35592" lon="-1.47457">
        <ele>137.1</ele>
        <time>2021-12-14T14:44:54.000Z</time>
      </trkpt>
      <trkpt lat="43.35595" lon="-1.47462">
        <ele>137.6</ele>
        <time>2021-12-14T14:44:55.000Z</time>
      </trkpt>
      <trkpt lat="43.35598" lon="-1.47466">
        <ele>138.3</ele>
        <time>2021-12-14T14:44:56.000Z</time>
      </trkpt>
      <trkpt lat="43.35601" lon="-1.47471">
        <ele>138.9</ele>
        <time>2021-12-14T14:44:57.000Z</time>
      </trkpt>
      <trkpt lat="43.35604" lon="-1.47476">
        <ele>139.4</ele>
        <time>2021-12-14T14:44:58.000Z</time>
      </trkpt>
      <trkpt lat="43.35607" lon="-1.47481">
        <ele>139.9</ele>
        <time>2021-12-14T14:44:59.000Z</time>
      </trkpt>
      <trkpt lat="43.3561" lon="-1.47485">
        <ele>140.6</ele>
        <time>2021-12-14T14:45:00.000Z</time>
      </trkpt>
      <trkpt lat="43.35612" lon="-1.4749">
        <ele>141</ele>
        <time>2021-12-14T14:45:01.000Z</time>
      </trkpt>
      <trkpt lat="43.35615" lon="-1.47494">
        <ele>141.2</ele>
        <time>2021-12-14T14:45:02.000Z</time>
      </trkpt>
      <trkpt lat="43.35618" lon="-1.47498">
        <ele>141.5</ele>
        <time>2021-12-14T14:45:03.000Z</time>
      </trkpt>
      <trkpt lat="43.3562" lon="-1.47502">
        <ele>141.8</ele>
        <time>2021-12-14T14:45:04.000Z</time>
      </trkpt>
      <trkpt lat="43.35623" lon="-1.47506">
        <ele>142.1</ele>
        <time>2021-12-14T14:45:05.000Z</time>
      </trkpt>
      <trkpt lat="43.35626" lon="-1.4751">
        <ele>142.5</ele>
        <time>2021-12-14T14:45:06.000Z</time>
      </trkpt>
      <trkpt lat="43.35629" lon="-1.47513">
        <ele>142.8</ele>
        <time>2021-12-14T14:45:07.000Z</time>
      </trkpt>
      <trkpt lat="43.35632" lon="-1.47517">
        <ele>143.3</ele>
        <time>2021-12-14T14:45:08.000Z</time>
      </trkpt>
      <trkpt lat="43.35635" lon="-1.4752">
        <ele>143.8</ele>
        <time>2021-12-14T14:45:09.000Z</time>
      </trkpt>
      <trkpt lat="43.35639" lon="-1.47522">
        <ele>144.4</ele>
        <time>2021-12-14T14:45:10.000Z</time>
      </trkpt>
      <trkpt lat="43.35643" lon="-1.47524">
        <ele>144.1</ele>
        <time>2021-12-14T14:45:11.000Z</time>
      </trkpt>
      <trkpt lat="43.35647" lon="-1.47526">
        <ele>143.9</ele>
        <time>2021-12-14T14:45:12.000Z</time>
      </trkpt>
      <trkpt lat="43.35652" lon="-1.47527">
        <ele>143.6</ele>
        <time>2021-12-14T14:45:13.000Z</time>
      </trkpt>
      <trkpt lat="43.35657" lon="-1.47527">
        <ele>143.4</ele>
        <time>2021-12-14T14:45:14.000Z</time>
      </trkpt>
      <trkpt lat="43.35662" lon="-1.47527">
        <ele>143.2</ele>
        <time>2021-12-14T14:45:15.000Z</time>
      </trkpt>
      <trkpt lat="43.35668" lon="-1.47527">
        <ele>143</ele>
        <time>2021-12-14T14:45:16.000Z</time>
      </trkpt>
      <trkpt lat="43.35674" lon="-1.47526">
        <ele>142.8</ele>
        <time>2021-12-14T14:45:17.000Z</time>
      </trkpt>
      <trkpt lat="43.35681" lon="-1.47525">
        <ele>142.6</ele>
        <time>2021-12-14T14:45:18.000Z</time>
      </trkpt>
      <trkpt lat="43.35687" lon="-1.47523">
        <ele>142.2</ele>
        <time>2021-12-14T14:45:19.000Z</time>
      </trkpt>
      <trkpt lat="43.35694" lon="-1.47521">
        <ele>141.8</ele>
        <time>2021-12-14T14:45:20.000Z</time>
      </trkpt>
      <trkpt lat="43.35701" lon="-1.47519">
        <ele>140.9</ele>
        <time>2021-12-14T14:45:21.000Z</time>
      </trkpt>
      <trkpt lat="43.35708" lon="-1.47517">
        <ele>139.9</ele>
        <time>2021-12-14T14:45:22.000Z</time>
      </trkpt>
      <trkpt lat="43.35715" lon="-1.47514">
        <ele>138.8</ele>
        <time>2021-12-14T14:45:23.000Z</time>
      </trkpt>
      <trkpt lat="43.35723" lon="-1.47511">
        <ele>138</ele>
        <time>2021-12-14T14:45:24.000Z</time>
      </trkpt>
      <trkpt lat="43.35731" lon="-1.47508">
        <ele>137.9</ele>
        <time>2021-12-14T14:45:25.000Z</time>
      </trkpt>
      <trkpt lat="43.3574" lon="-1.47504">
        <ele>137.9</ele>
        <time>2021-12-14T14:45:26.000Z</time>
      </trkpt>
      <trkpt lat="43.35748" lon="-1.47501">
        <ele>138</ele>
        <time>2021-12-14T14:45:27.000Z</time>
      </trkpt>
      <trkpt lat="43.35756" lon="-1.47498">
        <ele>137.5</ele>
        <time>2021-12-14T14:45:28.000Z</time>
      </trkpt>
      <trkpt lat="43.35764" lon="-1.47495">
        <ele>137</ele>
        <time>2021-12-14T14:45:29.000Z</time>
      </trkpt>
      <trkpt lat="43.35772" lon="-1.47492">
        <ele>136.5</ele>
        <time>2021-12-14T14:45:30.000Z</time>
      </trkpt>
      <trkpt lat="43.3578" lon="-1.4749">
        <ele>136.4</ele>
        <time>2021-12-14T14:45:31.000Z</time>
      </trkpt>
      <trkpt lat="43.35787" lon="-1.47487">
        <ele>136.7</ele>
        <time>2021-12-14T14:45:32.000Z</time>
      </trkpt>
      <trkpt lat="43.35794" lon="-1.47485">
        <ele>137.1</ele>
        <time>2021-12-14T14:45:33.000Z</time>
      </trkpt>
      <trkpt lat="43.35801" lon="-1.47483">
        <ele>137.6</ele>
        <time>2021-12-14T14:45:34.000Z</time>
      </trkpt>
      <trkpt lat="43.35807" lon="-1.47481">
        <ele>138.1</ele>
        <time>2021-12-14T14:45:35.000Z</time>
      </trkpt>
      <trkpt lat="43.35813" lon="-1.47479">
        <ele>138.7</ele>
        <time>2021-12-14T14:45:36.000Z</time>
      </trkpt>
      <trkpt lat="43.35818" lon="-1.47478">
        <ele>139.3</ele>
        <time>2021-12-14T14:45:37.000Z</time>
      </trkpt>
      <trkpt lat="43.35823" lon="-1.47476">
        <ele>139.8</ele>
        <time>2021-12-14T14:45:38.000Z</time>
      </trkpt>
      <trkpt lat="43.35828" lon="-1.47475">
        <ele>140.3</ele>
        <time>2021-12-14T14:45:39.000Z</time>
      </trkpt>
      <trkpt lat="43.35832" lon="-1.47474">
        <ele>140.8</ele>
        <time>2021-12-14T14:45:40.000Z</time>
      </trkpt>
      <trkpt lat="43.35836" lon="-1.47472">
        <ele>141.4</ele>
        <time>2021-12-14T14:45:41.000Z</time>
      </trkpt>
      <trkpt lat="43.3584" lon="-1.4747">
        <ele>141.9</ele>
        <time>2021-12-14T14:45:42.000Z</time>
      </trkpt>
      <trkpt lat="43.35844" lon="-1.47469">
        <ele>142.5</ele>
        <time>2021-12-14T14:45:43.000Z</time>
      </trkpt>
      <trkpt lat="43.35848" lon="-1.47468">
        <ele>143</ele>
        <time>2021-12-14T14:45:44.000Z</time>
      </trkpt>
      <trkpt lat="43.35852" lon="-1.47466">
        <ele>143.6</ele>
        <time>2021-12-14T14:45:45.000Z</time>
      </trkpt>
      <trkpt lat="43.35856" lon="-1.47465">
        <ele>144.2</ele>
        <time>2021-12-14T14:45:46.000Z</time>
      </trkpt>
      <trkpt lat="43.3586" lon="-1.47464">
        <ele>144.8</ele>
        <time>2021-12-14T14:45:47.000Z</time>
      </trkpt>
      <trkpt lat="43.35863" lon="-1.47464">
        <ele>145.3</ele>
        <time>2021-12-14T14:45:48.000Z</time>
      </trkpt>
      <trkpt lat="43.35867" lon="-1.47463">
        <ele>145.8</ele>
        <time>2021-12-14T14:45:49.000Z</time>
      </trkpt>
      <trkpt lat="43.3587" lon="-1.47462">
        <ele>146.4</ele>
        <time>2021-12-14T14:45:50.000Z</time>
      </trkpt>
      <trkpt lat="43.35873" lon="-1.47462">
        <ele>146.9</ele>
        <time>2021-12-14T14:45:51.000Z</time>
      </trkpt>
      <trkpt lat="43.35876" lon="-1.47461">
        <ele>147.4</ele>
        <time>2021-12-14T14:45:52.000Z</time>
      </trkpt>
      <trkpt lat="43.35879" lon="-1.47461">
        <ele>147.9</ele>
        <time>2021-12-14T14:45:53.000Z</time>
      </trkpt>
      <trkpt lat="43.35883" lon="-1.47461">
        <ele>148.4</ele>
        <time>2021-12-14T14:45:54.000Z</time>
      </trkpt>
      <trkpt lat="43.35886" lon="-1.47461">
        <ele>148.9</ele>
        <time>2021-12-14T14:45:55.000Z</time>
      </trkpt>
      <trkpt lat="43.35889" lon="-1.47461">
        <ele>149.4</ele>
        <time>2021-12-14T14:45:56.000Z</time>
      </trkpt>
      <trkpt lat="43.35892" lon="-1.47461">
        <ele>149.5</ele>
        <time>2021-12-14T14:45:57.000Z</time>
      </trkpt>
      <trkpt lat="43.35895" lon="-1.47462">
        <ele>149.7</ele>
        <time>2021-12-14T14:45:58.000Z</time>
      </trkpt>
      <trkpt lat="43.35899" lon="-1.47463">
        <ele>149.8</ele>
        <time>2021-12-14T14:45:59.000Z</time>
      </trkpt>
      <trkpt lat="43.35903" lon="-1.47463">
        <ele>150</ele>
        <time>2021-12-14T14:46:00.000Z</time>
      </trkpt>
      <trkpt lat="43.35907" lon="-1.47464">
        <ele>150.2</ele>
        <time>2021-12-14T14:46:01.000Z</time>
      </trkpt>
      <trkpt lat="43.35911" lon="-1.47465">
        <ele>150.5</ele>
        <time>2021-12-14T14:46:02.000Z</time>
      </trkpt>
      <trkpt lat="43.35916" lon="-1.47467">
        <ele>150.7</ele>
        <time>2021-12-14T14:46:03.000Z</time>
      </trkpt>
      <trkpt lat="43.3592" lon="-1.47468">
        <ele>150.7</ele>
        <time>2021-12-14T14:46:04.000Z</time>
      </trkpt>
      <trkpt lat="43.35925" lon="-1.4747">
        <ele>150.6</ele>
        <time>2021-12-14T14:46:05.000Z</time>
      </trkpt>
      <trkpt lat="43.3593" lon="-1.47472">
        <ele>150.5</ele>
        <time>2021-12-14T14:46:06.000Z</time>
      </trkpt>
      <trkpt lat="43.35936" lon="-1.47474">
        <ele>150.3</ele>
        <time>2021-12-14T14:46:07.000Z</time>
      </trkpt>
      <trkpt lat="43.35941" lon="-1.47476">
        <ele>150.1</ele>
        <time>2021-12-14T14:46:08.000Z</time>
      </trkpt>
      <trkpt lat="43.35947" lon="-1.47478">
        <ele>149.8</ele>
        <time>2021-12-14T14:46:09.000Z</time>
      </trkpt>
      <trkpt lat="43.35953" lon="-1.47481">
        <ele>149.3</ele>
        <time>2021-12-14T14:46:10.000Z</time>
      </trkpt>
      <trkpt lat="43.35959" lon="-1.47484">
        <ele>149.1</ele>
        <time>2021-12-14T14:46:11.000Z</time>
      </trkpt>
      <trkpt lat="43.35965" lon="-1.47487">
        <ele>148.9</ele>
        <time>2021-12-14T14:46:12.000Z</time>
      </trkpt>
      <trkpt lat="43.35971" lon="-1.4749">
        <ele>149</ele>
        <time>2021-12-14T14:46:13.000Z</time>
      </trkpt>
      <trkpt lat="43.35977" lon="-1.47494">
        <ele>149</ele>
        <time>2021-12-14T14:46:14.000Z</time>
      </trkpt>
      <trkpt lat="43.35983" lon="-1.47498">
        <ele>149</ele>
        <time>2021-12-14T14:46:15.000Z</time>
      </trkpt>
      <trkpt lat="43.35989" lon="-1.47502">
        <ele>148.8</ele>
        <time>2021-12-14T14:46:16.000Z</time>
      </trkpt>
      <trkpt lat="43.35995" lon="-1.47506">
        <ele>148.6</ele>
        <time>2021-12-14T14:46:17.000Z</time>
      </trkpt>
      <trkpt lat="43.36" lon="-1.4751">
        <ele>148.4</ele>
        <time>2021-12-14T14:46:18.000Z</time>
      </trkpt>
      <trkpt lat="43.36006" lon="-1.47515">
        <ele>148.3</ele>
        <time>2021-12-14T14:46:19.000Z</time>
      </trkpt>
      <trkpt lat="43.36012" lon="-1.47518">
        <ele>148.2</ele>
        <time>2021-12-14T14:46:20.000Z</time>
      </trkpt>
      <trkpt lat="43.36019" lon="-1.47522">
        <ele>148.1</ele>
        <time>2021-12-14T14:46:21.000Z</time>
      </trkpt>
      <trkpt lat="43.36025" lon="-1.47525">
        <ele>148</ele>
        <time>2021-12-14T14:46:22.000Z</time>
      </trkpt>
      <trkpt lat="43.36032" lon="-1.47527">
        <ele>147.7</ele>
        <time>2021-12-14T14:46:23.000Z</time>
      </trkpt>
      <trkpt lat="43.36039" lon="-1.47529">
        <ele>147.1</ele>
        <time>2021-12-14T14:46:24.000Z</time>
      </trkpt>
      <trkpt lat="43.36047" lon="-1.4753">
        <ele>146.6</ele>
        <time>2021-12-14T14:46:25.000Z</time>
      </trkpt>
      <trkpt lat="43.36055" lon="-1.47532">
        <ele>146.1</ele>
        <time>2021-12-14T14:46:26.000Z</time>
      </trkpt>
      <trkpt lat="43.36063" lon="-1.47533">
        <ele>145.7</ele>
        <time>2021-12-14T14:46:27.000Z</time>
      </trkpt>
      <trkpt lat="43.36071" lon="-1.47533">
        <ele>145.3</ele>
        <time>2021-12-14T14:46:28.000Z</time>
      </trkpt>
      <trkpt lat="43.3608" lon="-1.47533">
        <ele>145</ele>
        <time>2021-12-14T14:46:29.000Z</time>
      </trkpt>
      <trkpt lat="43.36088" lon="-1.47532">
        <ele>144.5</ele>
        <time>2021-12-14T14:46:30.000Z</time>
      </trkpt>
      <trkpt lat="43.36097" lon="-1.4753">
        <ele>144</ele>
        <time>2021-12-14T14:46:31.000Z</time>
      </trkpt>
      <trkpt lat="43.36105" lon="-1.47528">
        <ele>143.4</ele>
        <time>2021-12-14T14:46:32.000Z</time>
      </trkpt>
      <trkpt lat="43.36113" lon="-1.47523">
        <ele>143.2</ele>
        <time>2021-12-14T14:46:33.000Z</time>
      </trkpt>
      <trkpt lat="43.3612" lon="-1.47518">
        <ele>142.9</ele>
        <time>2021-12-14T14:46:34.000Z</time>
      </trkpt>
      <trkpt lat="43.36127" lon="-1.47512">
        <ele>142.7</ele>
        <time>2021-12-14T14:46:35.000Z</time>
      </trkpt>
      <trkpt lat="43.36133" lon="-1.47504">
        <ele>142.5</ele>
        <time>2021-12-14T14:46:36.000Z</time>
      </trkpt>
      <trkpt lat="43.36138" lon="-1.47496">
        <ele>142.1</ele>
        <time>2021-12-14T14:46:37.000Z</time>
      </trkpt>
      <trkpt lat="43.36143" lon="-1.47487">
        <ele>141.3</ele>
        <time>2021-12-14T14:46:38.000Z</time>
      </trkpt>
      <trkpt lat="43.36147" lon="-1.47476">
        <ele>140.6</ele>
        <time>2021-12-14T14:46:39.000Z</time>
      </trkpt>
      <trkpt lat="43.3615" lon="-1.47465">
        <ele>139.4</ele>
        <time>2021-12-14T14:46:40.000Z</time>
      </trkpt>
      <trkpt lat="43.36154" lon="-1.47453">
        <ele>138</ele>
        <time>2021-12-14T14:46:41.000Z</time>
      </trkpt>
      <trkpt lat="43.36157" lon="-1.47441">
        <ele>136.7</ele>
        <time>2021-12-14T14:46:42.000Z</time>
      </trkpt>
      <trkpt lat="43.36161" lon="-1.47429">
        <ele>135.8</ele>
        <time>2021-12-14T14:46:43.000Z</time>
      </trkpt>
      <trkpt lat="43.36165" lon="-1.47417">
        <ele>135.2</ele>
        <time>2021-12-14T14:46:44.000Z</time>
      </trkpt>
      <trkpt lat="43.3617" lon="-1.47406">
        <ele>134.1</ele>
        <time>2021-12-14T14:46:45.000Z</time>
      </trkpt>
      <trkpt lat="43.36175" lon="-1.47394">
        <ele>133.1</ele>
        <time>2021-12-14T14:46:46.000Z</time>
      </trkpt>
      <trkpt lat="43.36181" lon="-1.47383">
        <ele>132.4</ele>
        <time>2021-12-14T14:46:47.000Z</time>
      </trkpt>
      <trkpt lat="43.36188" lon="-1.47372">
        <ele>132</ele>
        <time>2021-12-14T14:46:48.000Z</time>
      </trkpt>
      <trkpt lat="43.36195" lon="-1.47362">
        <ele>131.9</ele>
        <time>2021-12-14T14:46:49.000Z</time>
      </trkpt>
      <trkpt lat="43.36202" lon="-1.47351">
        <ele>131.2</ele>
        <time>2021-12-14T14:46:50.000Z</time>
      </trkpt>
      <trkpt lat="43.36209" lon="-1.47341">
        <ele>130.6</ele>
        <time>2021-12-14T14:46:51.000Z</time>
      </trkpt>
      <trkpt lat="43.36215" lon="-1.4733">
        <ele>130.2</ele>
        <time>2021-12-14T14:46:52.000Z</time>
      </trkpt>
      <trkpt lat="43.36221" lon="-1.47319">
        <ele>130</ele>
        <time>2021-12-14T14:46:53.000Z</time>
      </trkpt>
      <trkpt lat="43.36225" lon="-1.47308">
        <ele>129.8</ele>
        <time>2021-12-14T14:46:54.000Z</time>
      </trkpt>
      <trkpt lat="43.36229" lon="-1.47297">
        <ele>129.1</ele>
        <time>2021-12-14T14:46:55.000Z</time>
      </trkpt>
      <trkpt lat="43.36232" lon="-1.47285">
        <ele>128.6</ele>
        <time>2021-12-14T14:46:56.000Z</time>
      </trkpt>
      <trkpt lat="43.36234" lon="-1.47273">
        <ele>128.4</ele>
        <time>2021-12-14T14:46:57.000Z</time>
      </trkpt>
      <trkpt lat="43.36236" lon="-1.47262">
        <ele>128.2</ele>
        <time>2021-12-14T14:46:58.000Z</time>
      </trkpt>
      <trkpt lat="43.36236" lon="-1.4725">
        <ele>128</ele>
        <time>2021-12-14T14:46:59.000Z</time>
      </trkpt>
      <trkpt lat="43.36236" lon="-1.47239">
        <ele>128</ele>
        <time>2021-12-14T14:47:00.000Z</time>
      </trkpt>
      <trkpt lat="43.36235" lon="-1.47228">
        <ele>127.9</ele>
        <time>2021-12-14T14:47:01.000Z</time>
      </trkpt>
      <trkpt lat="43.36234" lon="-1.47218">
        <ele>127.9</ele>
        <time>2021-12-14T14:47:02.000Z</time>
      </trkpt>
      <trkpt lat="43.36233" lon="-1.47207">
        <ele>127.8</ele>
        <time>2021-12-14T14:47:03.000Z</time>
      </trkpt>
      <trkpt lat="43.36231" lon="-1.47197">
        <ele>127.6</ele>
        <time>2021-12-14T14:47:04.000Z</time>
      </trkpt>
      <trkpt lat="43.36229" lon="-1.47187">
        <ele>127.7</ele>
        <time>2021-12-14T14:47:05.000Z</time>
      </trkpt>
      <trkpt lat="43.36228" lon="-1.47177">
        <ele>127.9</ele>
        <time>2021-12-14T14:47:06.000Z</time>
      </trkpt>
      <trkpt lat="43.36227" lon="-1.47168">
        <ele>128.1</ele>
        <time>2021-12-14T14:47:07.000Z</time>
      </trkpt>
      <trkpt lat="43.36226" lon="-1.47158">
        <ele>127.8</ele>
        <time>2021-12-14T14:47:08.000Z</time>
      </trkpt>
      <trkpt lat="43.36225" lon="-1.47149">
        <ele>127.4</ele>
        <time>2021-12-14T14:47:09.000Z</time>
      </trkpt>
      <trkpt lat="43.36224" lon="-1.47139">
        <ele>127.1</ele>
        <time>2021-12-14T14:47:10.000Z</time>
      </trkpt>
      <trkpt lat="43.36224" lon="-1.4713">
        <ele>127</ele>
        <time>2021-12-14T14:47:11.000Z</time>
      </trkpt>
      <trkpt lat="43.36225" lon="-1.47121">
        <ele>127</ele>
        <time>2021-12-14T14:47:12.000Z</time>
      </trkpt>
      <trkpt lat="43.36225" lon="-1.47112">
        <ele>126.9</ele>
        <time>2021-12-14T14:47:13.000Z</time>
      </trkpt>
      <trkpt lat="43.36226" lon="-1.47103">
        <ele>126.5</ele>
        <time>2021-12-14T14:47:14.000Z</time>
      </trkpt>
      <trkpt lat="43.36227" lon="-1.47093">
        <ele>126</ele>
        <time>2021-12-14T14:47:15.000Z</time>
      </trkpt>
      <trkpt lat="43.36229" lon="-1.47084">
        <ele>125.6</ele>
        <time>2021-12-14T14:47:16.000Z</time>
      </trkpt>
      <trkpt lat="43.36231" lon="-1.47075">
        <ele>125.2</ele>
        <time>2021-12-14T14:47:17.000Z</time>
      </trkpt>
      <trkpt lat="43.36232" lon="-1.47065">
        <ele>124.9</ele>
        <time>2021-12-14T14:47:18.000Z</time>
      </trkpt>
      <trkpt lat="43.36234" lon="-1.47056">
        <ele>124.6</ele>
        <time>2021-12-14T14:47:19.000Z</time>
      </trkpt>
      <trkpt lat="43.36237" lon="-1.47048">
        <ele>124.3</ele>
        <time>2021-12-14T14:47:20.000Z</time>
      </trkpt>
      <trkpt lat="43.36239" lon="-1.47039">
        <ele>124.2</ele>
        <time>2021-12-14T14:47:21.000Z</time>
      </trkpt>
      <trkpt lat="43.36242" lon="-1.47031">
        <ele>124</ele>
        <time>2021-12-14T14:47:22.000Z</time>
      </trkpt>
      <trkpt lat="43.36245" lon="-1.47023">
        <ele>124.1</ele>
        <time>2021-12-14T14:47:23.000Z</time>
      </trkpt>
      <trkpt lat="43.36248" lon="-1.47015">
        <ele>124.4</ele>
        <time>2021-12-14T14:47:24.000Z</time>
      </trkpt>
      <trkpt lat="43.36251" lon="-1.47008">
        <ele>124.6</ele>
        <time>2021-12-14T14:47:25.000Z</time>
      </trkpt>
      <trkpt lat="43.36254" lon="-1.47002">
        <ele>124.7</ele>
        <time>2021-12-14T14:47:26.000Z</time>
      </trkpt>
      <trkpt lat="43.36257" lon="-1.46995">
        <ele>124.4</ele>
        <time>2021-12-14T14:47:27.000Z</time>
      </trkpt>
      <trkpt lat="43.36261" lon="-1.46988">
        <ele>124.3</ele>
        <time>2021-12-14T14:47:28.000Z</time>
      </trkpt>
      <trkpt lat="43.36264" lon="-1.46982">
        <ele>124.3</ele>
        <time>2021-12-14T14:47:29.000Z</time>
      </trkpt>
      <trkpt lat="43.36268" lon="-1.46975">
        <ele>124.5</ele>
        <time>2021-12-14T14:47:30.000Z</time>
      </trkpt>
      <trkpt lat="43.36271" lon="-1.46968">
        <ele>124.9</ele>
        <time>2021-12-14T14:47:31.000Z</time>
      </trkpt>
      <trkpt lat="43.36275" lon="-1.46961">
        <ele>125.3</ele>
        <time>2021-12-14T14:47:32.000Z</time>
      </trkpt>
      <trkpt lat="43.36278" lon="-1.46954">
        <ele>125.6</ele>
        <time>2021-12-14T14:47:33.000Z</time>
      </trkpt>
      <trkpt lat="43.36281" lon="-1.46947">
        <ele>125.8</ele>
        <time>2021-12-14T14:47:34.000Z</time>
      </trkpt>
      <trkpt lat="43.36284" lon="-1.4694">
        <ele>126.1</ele>
        <time>2021-12-14T14:47:35.000Z</time>
      </trkpt>
      <trkpt lat="43.36287" lon="-1.46932">
        <ele>126.4</ele>
        <time>2021-12-14T14:47:36.000Z</time>
      </trkpt>
      <trkpt lat="43.36289" lon="-1.46925">
        <ele>126.7</ele>
        <time>2021-12-14T14:47:37.000Z</time>
      </trkpt>
      <trkpt lat="43.36292" lon="-1.46918">
        <ele>126.9</ele>
        <time>2021-12-14T14:47:38.000Z</time>
      </trkpt>
      <trkpt lat="43.36295" lon="-1.4691">
        <ele>127.1</ele>
        <time>2021-12-14T14:47:39.000Z</time>
      </trkpt>
      <trkpt lat="43.36297" lon="-1.46903">
        <ele>127.4</ele>
        <time>2021-12-14T14:47:40.000Z</time>
      </trkpt>
      <trkpt lat="43.363" lon="-1.46896">
        <ele>127.7</ele>
        <time>2021-12-14T14:47:41.000Z</time>
      </trkpt>
      <trkpt lat="43.36304" lon="-1.46889">
        <ele>128.1</ele>
        <time>2021-12-14T14:47:42.000Z</time>
      </trkpt>
      <trkpt lat="43.36307" lon="-1.46883">
        <ele>128.4</ele>
        <time>2021-12-14T14:47:43.000Z</time>
      </trkpt>
      <trkpt lat="43.36311" lon="-1.46877">
        <ele>128.7</ele>
        <time>2021-12-14T14:47:44.000Z</time>
      </trkpt>
      <trkpt lat="43.36315" lon="-1.46871">
        <ele>128.9</ele>
        <time>2021-12-14T14:47:45.000Z</time>
      </trkpt>
      <trkpt lat="43.3632" lon="-1.46866">
        <ele>129.1</ele>
        <time>2021-12-14T14:47:46.000Z</time>
      </trkpt>
      <trkpt lat="43.36324" lon="-1.46862">
        <ele>129.2</ele>
        <time>2021-12-14T14:47:47.000Z</time>
      </trkpt>
      <trkpt lat="43.3633" lon="-1.46859">
        <ele>129.4</ele>
        <time>2021-12-14T14:47:48.000Z</time>
      </trkpt>
      <trkpt lat="43.36335" lon="-1.46856">
        <ele>129.6</ele>
        <time>2021-12-14T14:47:49.000Z</time>
      </trkpt>
      <trkpt lat="43.36341" lon="-1.46853">
        <ele>130</ele>
        <time>2021-12-14T14:47:50.000Z</time>
      </trkpt>
      <trkpt lat="43.36346" lon="-1.46852">
        <ele>130.2</ele>
        <time>2021-12-14T14:47:51.000Z</time>
      </trkpt>
      <trkpt lat="43.36352" lon="-1.46851">
        <ele>130.3</ele>
        <time>2021-12-14T14:47:52.000Z</time>
      </trkpt>
      <trkpt lat="43.36357" lon="-1.4685">
        <ele>130.4</ele>
        <time>2021-12-14T14:47:53.000Z</time>
      </trkpt>
      <trkpt lat="43.36364" lon="-1.46849">
        <ele>130.4</ele>
        <time>2021-12-14T14:47:54.000Z</time>
      </trkpt>
      <trkpt lat="43.3637" lon="-1.46848">
        <ele>130.5</ele>
        <time>2021-12-14T14:47:55.000Z</time>
      </trkpt>
      <trkpt lat="43.36376" lon="-1.46847">
        <ele>130.5</ele>
        <time>2021-12-14T14:47:56.000Z</time>
      </trkpt>
      <trkpt lat="43.36382" lon="-1.46846">
        <ele>130.5</ele>
        <time>2021-12-14T14:47:57.000Z</time>
      </trkpt>
      <trkpt lat="43.36389" lon="-1.46844">
        <ele>130.6</ele>
        <time>2021-12-14T14:47:58.000Z</time>
      </trkpt>
      <trkpt lat="43.36395" lon="-1.46843">
        <ele>130.4</ele>
        <time>2021-12-14T14:47:59.000Z</time>
      </trkpt>
      <trkpt lat="43.36401" lon="-1.4684">
        <ele>130.1</ele>
        <time>2021-12-14T14:48:00.000Z</time>
      </trkpt>
      <trkpt lat="43.36407" lon="-1.46838">
        <ele>129.7</ele>
        <time>2021-12-14T14:48:01.000Z</time>
      </trkpt>
      <trkpt lat="43.36414" lon="-1.46835">
        <ele>129.3</ele>
        <time>2021-12-14T14:48:02.000Z</time>
      </trkpt>
      <trkpt lat="43.3642" lon="-1.46831">
        <ele>128.6</ele>
        <time>2021-12-14T14:48:03.000Z</time>
      </trkpt>
      <trkpt lat="43.36427" lon="-1.46827">
        <ele>127.7</ele>
        <time>2021-12-14T14:48:04.000Z</time>
      </trkpt>
      <trkpt lat="43.36433" lon="-1.46822">
        <ele>126.8</ele>
        <time>2021-12-14T14:48:05.000Z</time>
      </trkpt>
      <trkpt lat="43.3644" lon="-1.46816">
        <ele>125.8</ele>
        <time>2021-12-14T14:48:06.000Z</time>
      </trkpt>
      <trkpt lat="43.36447" lon="-1.46809">
        <ele>124.7</ele>
        <time>2021-12-14T14:48:07.000Z</time>
      </trkpt>
      <trkpt lat="43.36454" lon="-1.46801">
        <ele>123.2</ele>
        <time>2021-12-14T14:48:08.000Z</time>
      </trkpt>
      <trkpt lat="43.36462" lon="-1.46793">
        <ele>121.8</ele>
        <time>2021-12-14T14:48:09.000Z</time>
      </trkpt>
      <trkpt lat="43.36469" lon="-1.46784">
        <ele>121.1</ele>
        <time>2021-12-14T14:48:10.000Z</time>
      </trkpt>
      <trkpt lat="43.36477" lon="-1.46774">
        <ele>120</ele>
        <time>2021-12-14T14:48:11.000Z</time>
      </trkpt>
      <trkpt lat="43.36485" lon="-1.46764">
        <ele>118.4</ele>
        <time>2021-12-14T14:48:12.000Z</time>
      </trkpt>
      <trkpt lat="43.36493" lon="-1.46753">
        <ele>117.3</ele>
        <time>2021-12-14T14:48:13.000Z</time>
      </trkpt>
      <trkpt lat="43.36501" lon="-1.46742">
        <ele>116.3</ele>
        <time>2021-12-14T14:48:14.000Z</time>
      </trkpt>
      <trkpt lat="43.36509" lon="-1.46731">
        <ele>114.8</ele>
        <time>2021-12-14T14:48:15.000Z</time>
      </trkpt>
      <trkpt lat="43.36518" lon="-1.4672">
        <ele>113.6</ele>
        <time>2021-12-14T14:48:16.000Z</time>
      </trkpt>
      <trkpt lat="43.36526" lon="-1.46708">
        <ele>112.1</ele>
        <time>2021-12-14T14:48:17.000Z</time>
      </trkpt>
      <trkpt lat="43.36535" lon="-1.46697">
        <ele>110.4</ele>
        <time>2021-12-14T14:48:18.000Z</time>
      </trkpt>
      <trkpt lat="43.36543" lon="-1.46685">
        <ele>109.4</ele>
        <time>2021-12-14T14:48:19.000Z</time>
      </trkpt>
      <trkpt lat="43.36553" lon="-1.46674">
        <ele>108.9</ele>
        <time>2021-12-14T14:48:20.000Z</time>
      </trkpt>
      <trkpt lat="43.36562" lon="-1.46664">
        <ele>108.3</ele>
        <time>2021-12-14T14:48:21.000Z</time>
      </trkpt>
      <trkpt lat="43.36571" lon="-1.46655">
        <ele>107.3</ele>
        <time>2021-12-14T14:48:22.000Z</time>
      </trkpt>
      <trkpt lat="43.36581" lon="-1.46647">
        <ele>106.8</ele>
        <time>2021-12-14T14:48:23.000Z</time>
      </trkpt>
      <trkpt lat="43.36591" lon="-1.4664">
        <ele>106.7</ele>
        <time>2021-12-14T14:48:24.000Z</time>
      </trkpt>
      <trkpt lat="43.36601" lon="-1.46633">
        <ele>106.5</ele>
        <time>2021-12-14T14:48:25.000Z</time>
      </trkpt>
      <trkpt lat="43.36611" lon="-1.46627">
        <ele>106.5</ele>
        <time>2021-12-14T14:48:26.000Z</time>
      </trkpt>
      <trkpt lat="43.3662" lon="-1.4662">
        <ele>106.6</ele>
        <time>2021-12-14T14:48:27.000Z</time>
      </trkpt>
      <trkpt lat="43.36629" lon="-1.46614">
        <ele>106.8</ele>
        <time>2021-12-14T14:48:28.000Z</time>
      </trkpt>
      <trkpt lat="43.36637" lon="-1.46609">
        <ele>107.1</ele>
        <time>2021-12-14T14:48:29.000Z</time>
      </trkpt>
      <trkpt lat="43.36644" lon="-1.46603">
        <ele>107.5</ele>
        <time>2021-12-14T14:48:30.000Z</time>
      </trkpt>
      <trkpt lat="43.36651" lon="-1.46598">
        <ele>108.1</ele>
        <time>2021-12-14T14:48:31.000Z</time>
      </trkpt>
      <trkpt lat="43.36657" lon="-1.46593">
        <ele>108.8</ele>
        <time>2021-12-14T14:48:32.000Z</time>
      </trkpt>
      <trkpt lat="43.36663" lon="-1.46589">
        <ele>109.4</ele>
        <time>2021-12-14T14:48:33.000Z</time>
      </trkpt>
      <trkpt lat="43.36669" lon="-1.46585">
        <ele>110</ele>
        <time>2021-12-14T14:48:34.000Z</time>
      </trkpt>
      <trkpt lat="43.36673" lon="-1.46581">
        <ele>110.5</ele>
        <time>2021-12-14T14:48:35.000Z</time>
      </trkpt>
      <trkpt lat="43.36677" lon="-1.46577">
        <ele>110.9</ele>
        <time>2021-12-14T14:48:36.000Z</time>
      </trkpt>
      <trkpt lat="43.36682" lon="-1.46573">
        <ele>111.5</ele>
        <time>2021-12-14T14:48:37.000Z</time>
      </trkpt>
      <trkpt lat="43.36686" lon="-1.46569">
        <ele>112.1</ele>
        <time>2021-12-14T14:48:38.000Z</time>
      </trkpt>
      <trkpt lat="43.3669" lon="-1.46565">
        <ele>112.7</ele>
        <time>2021-12-14T14:48:39.000Z</time>
      </trkpt>
      <trkpt lat="43.36693" lon="-1.46561">
        <ele>113.4</ele>
        <time>2021-12-14T14:48:40.000Z</time>
      </trkpt>
      <trkpt lat="43.36697" lon="-1.46558">
        <ele>114.1</ele>
        <time>2021-12-14T14:48:41.000Z</time>
      </trkpt>
      <trkpt lat="43.36701" lon="-1.46554">
        <ele>114.7</ele>
        <time>2021-12-14T14:48:42.000Z</time>
      </trkpt>
      <trkpt lat="43.36704" lon="-1.4655">
        <ele>115.2</ele>
        <time>2021-12-14T14:48:43.000Z</time>
      </trkpt>
      <trkpt lat="43.36708" lon="-1.46547">
        <ele>115.6</ele>
        <time>2021-12-14T14:48:44.000Z</time>
      </trkpt>
      <trkpt lat="43.36712" lon="-1.46544">
        <ele>116</ele>
        <time>2021-12-14T14:48:45.000Z</time>
      </trkpt>
      <trkpt lat="43.36716" lon="-1.4654">
        <ele>116.5</ele>
        <time>2021-12-14T14:48:46.000Z</time>
      </trkpt>
      <trkpt lat="43.3672" lon="-1.46536">
        <ele>116.8</ele>
        <time>2021-12-14T14:48:47.000Z</time>
      </trkpt>
      <trkpt lat="43.36723" lon="-1.46532">
        <ele>117.1</ele>
        <time>2021-12-14T14:48:48.000Z</time>
      </trkpt>
      <trkpt lat="43.36727" lon="-1.46528">
        <ele>117.3</ele>
        <time>2021-12-14T14:48:49.000Z</time>
      </trkpt>
      <trkpt lat="43.36731" lon="-1.46524">
        <ele>117.6</ele>
        <time>2021-12-14T14:48:50.000Z</time>
      </trkpt>
      <trkpt lat="43.36734" lon="-1.4652">
        <ele>117.8</ele>
        <time>2021-12-14T14:48:51.000Z</time>
      </trkpt>
      <trkpt lat="43.36738" lon="-1.46516">
        <ele>117.8</ele>
        <time>2021-12-14T14:48:52.000Z</time>
      </trkpt>
      <trkpt lat="43.36741" lon="-1.46512">
        <ele>117.8</ele>
        <time>2021-12-14T14:48:53.000Z</time>
      </trkpt>
      <trkpt lat="43.36745" lon="-1.46507">
        <ele>117.6</ele>
        <time>2021-12-14T14:48:54.000Z</time>
      </trkpt>
      <trkpt lat="43.36748" lon="-1.46502">
        <ele>117.2</ele>
        <time>2021-12-14T14:48:55.000Z</time>
      </trkpt>
      <trkpt lat="43.36752" lon="-1.46498">
        <ele>117.2</ele>
        <time>2021-12-14T14:48:56.000Z</time>
      </trkpt>
      <trkpt lat="43.36756" lon="-1.46493">
        <ele>117.4</ele>
        <time>2021-12-14T14:48:57.000Z</time>
      </trkpt>
      <trkpt lat="43.36759" lon="-1.46487">
        <ele>117.5</ele>
        <time>2021-12-14T14:48:58.000Z</time>
      </trkpt>
      <trkpt lat="43.36763" lon="-1.46481">
        <ele>117.4</ele>
        <time>2021-12-14T14:48:59.000Z</time>
      </trkpt>
      <trkpt lat="43.36766" lon="-1.46475">
        <ele>117.2</ele>
        <time>2021-12-14T14:49:00.000Z</time>
      </trkpt>
      <trkpt lat="43.3677" lon="-1.46468">
        <ele>116.8</ele>
        <time>2021-12-14T14:49:01.000Z</time>
      </trkpt>
      <trkpt lat="43.36774" lon="-1.46462">
        <ele>116.4</ele>
        <time>2021-12-14T14:49:02.000Z</time>
      </trkpt>
      <trkpt lat="43.36778" lon="-1.46456">
        <ele>116</ele>
        <time>2021-12-14T14:49:03.000Z</time>
      </trkpt>
      <trkpt lat="43.36783" lon="-1.4645">
        <ele>115.7</ele>
        <time>2021-12-14T14:49:04.000Z</time>
      </trkpt>
      <trkpt lat="43.36788" lon="-1.46444">
        <ele>115.7</ele>
        <time>2021-12-14T14:49:05.000Z</time>
      </trkpt>
      <trkpt lat="43.36793" lon="-1.46439">
        <ele>115.8</ele>
        <time>2021-12-14T14:49:06.000Z</time>
      </trkpt>
      <trkpt lat="43.36798" lon="-1.46434">
        <ele>115.9</ele>
        <time>2021-12-14T14:49:07.000Z</time>
      </trkpt>
      <trkpt lat="43.36804" lon="-1.46431">
        <ele>116</ele>
        <time>2021-12-14T14:49:08.000Z</time>
      </trkpt>
      <trkpt lat="43.3681" lon="-1.46428">
        <ele>116.1</ele>
        <time>2021-12-14T14:49:09.000Z</time>
      </trkpt>
      <trkpt lat="43.36815" lon="-1.46426">
        <ele>116.2</ele>
        <time>2021-12-14T14:49:10.000Z</time>
      </trkpt>
      <trkpt lat="43.36822" lon="-1.46424">
        <ele>116.3</ele>
        <time>2021-12-14T14:49:11.000Z</time>
      </trkpt>
      <trkpt lat="43.36828" lon="-1.46423">
        <ele>116.3</ele>
        <time>2021-12-14T14:49:12.000Z</time>
      </trkpt>
      <trkpt lat="43.36835" lon="-1.46423">
        <ele>116.3</ele>
        <time>2021-12-14T14:49:13.000Z</time>
      </trkpt>
      <trkpt lat="43.36841" lon="-1.46422">
        <ele>116.1</ele>
        <time>2021-12-14T14:49:14.000Z</time>
      </trkpt>
      <trkpt lat="43.36848" lon="-1.46422">
        <ele>115.9</ele>
        <time>2021-12-14T14:49:15.000Z</time>
      </trkpt>
      <trkpt lat="43.36854" lon="-1.46421">
        <ele>115.7</ele>
        <time>2021-12-14T14:49:16.000Z</time>
      </trkpt>
      <trkpt lat="43.36861" lon="-1.46421">
        <ele>115.6</ele>
        <time>2021-12-14T14:49:17.000Z</time>
      </trkpt>
      <trkpt lat="43.36867" lon="-1.4642">
        <ele>115.2</ele>
        <time>2021-12-14T14:49:18.000Z</time>
      </trkpt>
      <trkpt lat="43.36873" lon="-1.46419">
        <ele>114.9</ele>
        <time>2021-12-14T14:49:19.000Z</time>
      </trkpt>
      <trkpt lat="43.3688" lon="-1.46418">
        <ele>114.6</ele>
        <time>2021-12-14T14:49:20.000Z</time>
      </trkpt>
      <trkpt lat="43.36886" lon="-1.46416">
        <ele>114.2</ele>
        <time>2021-12-14T14:49:21.000Z</time>
      </trkpt>
      <trkpt lat="43.36893" lon="-1.46415">
        <ele>113.8</ele>
        <time>2021-12-14T14:49:22.000Z</time>
      </trkpt>
      <trkpt lat="43.369" lon="-1.46413">
        <ele>113.4</ele>
        <time>2021-12-14T14:49:23.000Z</time>
      </trkpt>
      <trkpt lat="43.36907" lon="-1.46411">
        <ele>113</ele>
        <time>2021-12-14T14:49:24.000Z</time>
      </trkpt>
      <trkpt lat="43.36914" lon="-1.4641">
        <ele>112.5</ele>
        <time>2021-12-14T14:49:25.000Z</time>
      </trkpt>
      <trkpt lat="43.36921" lon="-1.46408">
        <ele>112.1</ele>
        <time>2021-12-14T14:49:26.000Z</time>
      </trkpt>
      <trkpt lat="43.36928" lon="-1.46405">
        <ele>111.7</ele>
        <time>2021-12-14T14:49:27.000Z</time>
      </trkpt>
      <trkpt lat="43.36935" lon="-1.46403">
        <ele>111.2</ele>
        <time>2021-12-14T14:49:28.000Z</time>
      </trkpt>
      <trkpt lat="43.36943" lon="-1.46401">
        <ele>110.6</ele>
        <time>2021-12-14T14:49:29.000Z</time>
      </trkpt>
      <trkpt lat="43.3695" lon="-1.46399">
        <ele>110.2</ele>
        <time>2021-12-14T14:49:30.000Z</time>
      </trkpt>
      <trkpt lat="43.36958" lon="-1.46397">
        <ele>110</ele>
        <time>2021-12-14T14:49:31.000Z</time>
      </trkpt>
      <trkpt lat="43.36965" lon="-1.46395">
        <ele>109.9</ele>
        <time>2021-12-14T14:49:32.000Z</time>
      </trkpt>
      <trkpt lat="43.36973" lon="-1.46393">
        <ele>109.8</ele>
        <time>2021-12-14T14:49:33.000Z</time>
      </trkpt>
      <trkpt lat="43.3698" lon="-1.46391">
        <ele>109.7</ele>
        <time>2021-12-14T14:49:34.000Z</time>
      </trkpt>
      <trkpt lat="43.36987" lon="-1.46389">
        <ele>109.5</ele>
        <time>2021-12-14T14:49:35.000Z</time>
      </trkpt>
      <trkpt lat="43.36994" lon="-1.46387">
        <ele>109.2</ele>
        <time>2021-12-14T14:49:36.000Z</time>
      </trkpt>
      <trkpt lat="43.37001" lon="-1.46385">
        <ele>109</ele>
        <time>2021-12-14T14:49:37.000Z</time>
      </trkpt>
      <trkpt lat="43.37008" lon="-1.46383">
        <ele>108.7</ele>
        <time>2021-12-14T14:49:38.000Z</time>
      </trkpt>
      <trkpt lat="43.37015" lon="-1.46381">
        <ele>108.5</ele>
        <time>2021-12-14T14:49:39.000Z</time>
      </trkpt>
      <trkpt lat="43.37022" lon="-1.46378">
        <ele>108.2</ele>
        <time>2021-12-14T14:49:40.000Z</time>
      </trkpt>
      <trkpt lat="43.37029" lon="-1.46376">
        <ele>107.9</ele>
        <time>2021-12-14T14:49:41.000Z</time>
      </trkpt>
      <trkpt lat="43.37037" lon="-1.46374">
        <ele>107.4</ele>
        <time>2021-12-14T14:49:42.000Z</time>
      </trkpt>
      <trkpt lat="43.37044" lon="-1.46371">
        <ele>106.8</ele>
        <time>2021-12-14T14:49:43.000Z</time>
      </trkpt>
      <trkpt lat="43.37052" lon="-1.46368">
        <ele>106.3</ele>
        <time>2021-12-14T14:49:44.000Z</time>
      </trkpt>
      <trkpt lat="43.37059" lon="-1.46365">
        <ele>105.8</ele>
        <time>2021-12-14T14:49:45.000Z</time>
      </trkpt>
      <trkpt lat="43.37067" lon="-1.46362">
        <ele>105.6</ele>
        <time>2021-12-14T14:49:46.000Z</time>
      </trkpt>
      <trkpt lat="43.37075" lon="-1.46359">
        <ele>105.2</ele>
        <time>2021-12-14T14:49:47.000Z</time>
      </trkpt>
      <trkpt lat="43.37083" lon="-1.46356">
        <ele>104.8</ele>
        <time>2021-12-14T14:49:48.000Z</time>
      </trkpt>
      <trkpt lat="43.37091" lon="-1.46353">
        <ele>104.1</ele>
        <time>2021-12-14T14:49:49.000Z</time>
      </trkpt>
      <trkpt lat="43.371" lon="-1.46349">
        <ele>103.4</ele>
        <time>2021-12-14T14:49:50.000Z</time>
      </trkpt>
      <trkpt lat="43.37108" lon="-1.46346">
        <ele>102.7</ele>
        <time>2021-12-14T14:49:51.000Z</time>
      </trkpt>
      <trkpt lat="43.37117" lon="-1.46343">
        <ele>102.1</ele>
        <time>2021-12-14T14:49:52.000Z</time>
      </trkpt>
      <trkpt lat="43.37125" lon="-1.46339">
        <ele>101.6</ele>
        <time>2021-12-14T14:49:53.000Z</time>
      </trkpt>
      <trkpt lat="43.37133" lon="-1.46336">
        <ele>101.2</ele>
        <time>2021-12-14T14:49:54.000Z</time>
      </trkpt>
      <trkpt lat="43.37142" lon="-1.46333">
        <ele>100.9</ele>
        <time>2021-12-14T14:49:55.000Z</time>
      </trkpt>
      <trkpt lat="43.3715" lon="-1.46329">
        <ele>100.5</ele>
        <time>2021-12-14T14:49:56.000Z</time>
      </trkpt>
      <trkpt lat="43.37158" lon="-1.46326">
        <ele>100.2</ele>
        <time>2021-12-14T14:49:57.000Z</time>
      </trkpt>
      <trkpt lat="43.37166" lon="-1.46323">
        <ele>100</ele>
        <time>2021-12-14T14:49:58.000Z</time>
      </trkpt>
      <trkpt lat="43.37173" lon="-1.4632">
        <ele>100</ele>
        <time>2021-12-14T14:49:59.000Z</time>
      </trkpt>
      <trkpt lat="43.3718" lon="-1.46317">
        <ele>100</ele>
        <time>2021-12-14T14:50:00.000Z</time>
      </trkpt>
      <trkpt lat="43.37187" lon="-1.46314">
        <ele>100</ele>
        <time>2021-12-14T14:50:01.000Z</time>
      </trkpt>
      <trkpt lat="43.37194" lon="-1.46311">
        <ele>100</ele>
        <time>2021-12-14T14:50:02.000Z</time>
      </trkpt>
      <trkpt lat="43.372" lon="-1.46308">
        <ele>100</ele>
        <time>2021-12-14T14:50:03.000Z</time>
      </trkpt>
      <trkpt lat="43.37206" lon="-1.46306">
        <ele>100</ele>
        <time>2021-12-14T14:50:04.000Z</time>
      </trkpt>
      <trkpt lat="43.37213" lon="-1.46304">
        <ele>100</ele>
        <time>2021-12-14T14:50:05.000Z</time>
      </trkpt>
      <trkpt lat="43.37219" lon="-1.46301">
        <ele>100</ele>
        <time>2021-12-14T14:50:06.000Z</time>
      </trkpt>
      <trkpt lat="43.37224" lon="-1.46299">
        <ele>100</ele>
        <time>2021-12-14T14:50:07.000Z</time>
      </trkpt>
      <trkpt lat="43.3723" lon="-1.46297">
        <ele>100.1</ele>
        <time>2021-12-14T14:50:08.000Z</time>
      </trkpt>
      <trkpt lat="43.37236" lon="-1.46295">
        <ele>100.2</ele>
        <time>2021-12-14T14:50:09.000Z</time>
      </trkpt>
      <trkpt lat="43.37242" lon="-1.46293">
        <ele>100.3</ele>
        <time>2021-12-14T14:50:10.000Z</time>
      </trkpt>
      <trkpt lat="43.37248" lon="-1.46291">
        <ele>100.5</ele>
        <time>2021-12-14T14:50:11.000Z</time>
      </trkpt>
      <trkpt lat="43.37254" lon="-1.46289">
        <ele>100.7</ele>
        <time>2021-12-14T14:50:12.000Z</time>
      </trkpt>
      <trkpt lat="43.3726" lon="-1.46287">
        <ele>100.9</ele>
        <time>2021-12-14T14:50:13.000Z</time>
      </trkpt>
      <trkpt lat="43.37266" lon="-1.46285">
        <ele>101.2</ele>
        <time>2021-12-14T14:50:14.000Z</time>
      </trkpt>
      <trkpt lat="43.37272" lon="-1.46284">
        <ele>101.4</ele>
        <time>2021-12-14T14:50:15.000Z</time>
      </trkpt>
      <trkpt lat="43.37278" lon="-1.46282">
        <ele>101.7</ele>
        <time>2021-12-14T14:50:16.000Z</time>
      </trkpt>
      <trkpt lat="43.37283" lon="-1.46281">
        <ele>101.8</ele>
        <time>2021-12-14T14:50:17.000Z</time>
      </trkpt>
      <trkpt lat="43.37289" lon="-1.4628">
        <ele>101.9</ele>
        <time>2021-12-14T14:50:18.000Z</time>
      </trkpt>
      <trkpt lat="43.37295" lon="-1.46279">
        <ele>102</ele>
        <time>2021-12-14T14:50:19.000Z</time>
      </trkpt>
      <trkpt lat="43.373" lon="-1.46277">
        <ele>102</ele>
        <time>2021-12-14T14:50:20.000Z</time>
      </trkpt>
      <trkpt lat="43.37306" lon="-1.46276">
        <ele>102.1</ele>
        <time>2021-12-14T14:50:21.000Z</time>
      </trkpt>
      <trkpt lat="43.37312" lon="-1.46275">
        <ele>102.4</ele>
        <time>2021-12-14T14:50:22.000Z</time>
      </trkpt>
      <trkpt lat="43.37317" lon="-1.46274">
        <ele>102.7</ele>
        <time>2021-12-14T14:50:23.000Z</time>
      </trkpt>
      <trkpt lat="43.37323" lon="-1.46273">
        <ele>102.9</ele>
        <time>2021-12-14T14:50:24.000Z</time>
      </trkpt>
      <trkpt lat="43.37329" lon="-1.46272">
        <ele>103.2</ele>
        <time>2021-12-14T14:50:25.000Z</time>
      </trkpt>
      <trkpt lat="43.37335" lon="-1.46271">
        <ele>103.4</ele>
        <time>2021-12-14T14:50:26.000Z</time>
      </trkpt>
      <trkpt lat="43.37342" lon="-1.4627">
        <ele>103.3</ele>
        <time>2021-12-14T14:50:27.000Z</time>
      </trkpt>
      <trkpt lat="43.37348" lon="-1.46269">
        <ele>103.2</ele>
        <time>2021-12-14T14:50:28.000Z</time>
      </trkpt>
      <trkpt lat="43.37354" lon="-1.46268">
        <ele>103.2</ele>
        <time>2021-12-14T14:50:29.000Z</time>
      </trkpt>
      <trkpt lat="43.37361" lon="-1.46268">
        <ele>103.1</ele>
        <time>2021-12-14T14:50:30.000Z</time>
      </trkpt>
      <trkpt lat="43.37367" lon="-1.46267">
        <ele>103.1</ele>
        <time>2021-12-14T14:50:31.000Z</time>
      </trkpt>
      <trkpt lat="43.37374" lon="-1.46266">
        <ele>103.1</ele>
        <time>2021-12-14T14:50:32.000Z</time>
      </trkpt>
      <trkpt lat="43.37381" lon="-1.46265">
        <ele>103</ele>
        <time>2021-12-14T14:50:33.000Z</time>
      </trkpt>
      <trkpt lat="43.37388" lon="-1.46264">
        <ele>103</ele>
        <time>2021-12-14T14:50:34.000Z</time>
      </trkpt>
      <trkpt lat="43.37394" lon="-1.46263">
        <ele>102.7</ele>
        <time>2021-12-14T14:50:35.000Z</time>
      </trkpt>
      <trkpt lat="43.37401" lon="-1.46262">
        <ele>102.2</ele>
        <time>2021-12-14T14:50:36.000Z</time>
      </trkpt>
      <trkpt lat="43.37408" lon="-1.46261">
        <ele>101.7</ele>
        <time>2021-12-14T14:50:37.000Z</time>
      </trkpt>
      <trkpt lat="43.37415" lon="-1.46259">
        <ele>101.1</ele>
        <time>2021-12-14T14:50:38.000Z</time>
      </trkpt>
      <trkpt lat="43.37422" lon="-1.46258">
        <ele>100.6</ele>
        <time>2021-12-14T14:50:39.000Z</time>
      </trkpt>
      <trkpt lat="43.37429" lon="-1.46257">
        <ele>100</ele>
        <time>2021-12-14T14:50:40.000Z</time>
      </trkpt>
      <trkpt lat="43.37437" lon="-1.46255">
        <ele>99.4</ele>
        <time>2021-12-14T14:50:41.000Z</time>
      </trkpt>
      <trkpt lat="43.37444" lon="-1.46254">
        <ele>98.9</ele>
        <time>2021-12-14T14:50:42.000Z</time>
      </trkpt>
      <trkpt lat="43.37452" lon="-1.46253">
        <ele>98.4</ele>
        <time>2021-12-14T14:50:43.000Z</time>
      </trkpt>
      <trkpt lat="43.37459" lon="-1.46252">
        <ele>97.9</ele>
        <time>2021-12-14T14:50:44.000Z</time>
      </trkpt>
      <trkpt lat="43.37467" lon="-1.4625">
        <ele>97.4</ele>
        <time>2021-12-14T14:50:45.000Z</time>
      </trkpt>
      <trkpt lat="43.37475" lon="-1.46249">
        <ele>96.9</ele>
        <time>2021-12-14T14:50:46.000Z</time>
      </trkpt>
      <trkpt lat="43.37483" lon="-1.46247">
        <ele>96.6</ele>
        <time>2021-12-14T14:50:47.000Z</time>
      </trkpt>
      <trkpt lat="43.37491" lon="-1.46245">
        <ele>96.2</ele>
        <time>2021-12-14T14:50:48.000Z</time>
      </trkpt>
      <trkpt lat="43.37499" lon="-1.46244">
        <ele>95.8</ele>
        <time>2021-12-14T14:50:49.000Z</time>
      </trkpt>
      <trkpt lat="43.37507" lon="-1.46242">
        <ele>95.3</ele>
        <time>2021-12-14T14:50:50.000Z</time>
      </trkpt>
      <trkpt lat="43.37515" lon="-1.4624">
        <ele>94.8</ele>
        <time>2021-12-14T14:50:51.000Z</time>
      </trkpt>
      <trkpt lat="43.37523" lon="-1.46239">
        <ele>94.3</ele>
        <time>2021-12-14T14:50:52.000Z</time>
      </trkpt>
      <trkpt lat="43.37532" lon="-1.46237">
        <ele>93.9</ele>
        <time>2021-12-14T14:50:53.000Z</time>
      </trkpt>
      <trkpt lat="43.3754" lon="-1.46235">
        <ele>93.6</ele>
        <time>2021-12-14T14:50:54.000Z</time>
      </trkpt>
      <trkpt lat="43.37548" lon="-1.46234">
        <ele>93.3</ele>
        <time>2021-12-14T14:50:55.000Z</time>
      </trkpt>
      <trkpt lat="43.37557" lon="-1.46232">
        <ele>92.9</ele>
        <time>2021-12-14T14:50:56.000Z</time>
      </trkpt>
      <trkpt lat="43.37566" lon="-1.46231">
        <ele>92.5</ele>
        <time>2021-12-14T14:50:57.000Z</time>
      </trkpt>
      <trkpt lat="43.37574" lon="-1.4623">
        <ele>92.2</ele>
        <time>2021-12-14T14:50:58.000Z</time>
      </trkpt>
      <trkpt lat="43.37583" lon="-1.46228">
        <ele>91.8</ele>
        <time>2021-12-14T14:50:59.000Z</time>
      </trkpt>
      <trkpt lat="43.37591" lon="-1.46226">
        <ele>91.6</ele>
        <time>2021-12-14T14:51:00.000Z</time>
      </trkpt>
      <trkpt lat="43.376" lon="-1.46225">
        <ele>91.4</ele>
        <time>2021-12-14T14:51:01.000Z</time>
      </trkpt>
      <trkpt lat="43.37608" lon="-1.46223">
        <ele>91.1</ele>
        <time>2021-12-14T14:51:02.000Z</time>
      </trkpt>
      <trkpt lat="43.37616" lon="-1.46221">
        <ele>90.9</ele>
        <time>2021-12-14T14:51:03.000Z</time>
      </trkpt>
      <trkpt lat="43.37625" lon="-1.46219">
        <ele>90.8</ele>
        <time>2021-12-14T14:51:04.000Z</time>
      </trkpt>
      <trkpt lat="43.37633" lon="-1.46217">
        <ele>90.6</ele>
        <time>2021-12-14T14:51:05.000Z</time>
      </trkpt>
      <trkpt lat="43.37641" lon="-1.46215">
        <ele>90.5</ele>
        <time>2021-12-14T14:51:06.000Z</time>
      </trkpt>
      <trkpt lat="43.37648" lon="-1.46212">
        <ele>90.4</ele>
        <time>2021-12-14T14:51:07.000Z</time>
      </trkpt>
      <trkpt lat="43.37656" lon="-1.46209">
        <ele>90.3</ele>
        <time>2021-12-14T14:51:08.000Z</time>
      </trkpt>
      <trkpt lat="43.37664" lon="-1.46205">
        <ele>90.3</ele>
        <time>2021-12-14T14:51:09.000Z</time>
      </trkpt>
      <trkpt lat="43.37671" lon="-1.46201">
        <ele>90.3</ele>
        <time>2021-12-14T14:51:10.000Z</time>
      </trkpt>
      <trkpt lat="43.37678" lon="-1.46196">
        <ele>90.4</ele>
        <time>2021-12-14T14:51:11.000Z</time>
      </trkpt>
      <trkpt lat="43.37684" lon="-1.46192">
        <ele>90.6</ele>
        <time>2021-12-14T14:51:12.000Z</time>
      </trkpt>
      <trkpt lat="43.37689" lon="-1.46187">
        <ele>90.8</ele>
        <time>2021-12-14T14:51:13.000Z</time>
      </trkpt>
      <trkpt lat="43.37694" lon="-1.46181">
        <ele>91</ele>
        <time>2021-12-14T14:51:14.000Z</time>
      </trkpt>
      <trkpt lat="43.37698" lon="-1.46176">
        <ele>91.3</ele>
        <time>2021-12-14T14:51:15.000Z</time>
      </trkpt>
      <trkpt lat="43.37703" lon="-1.4617">
        <ele>91.6</ele>
        <time>2021-12-14T14:51:16.000Z</time>
      </trkpt>
      <trkpt lat="43.37707" lon="-1.46165">
        <ele>91.9</ele>
        <time>2021-12-14T14:51:17.000Z</time>
      </trkpt>
      <trkpt lat="43.3771" lon="-1.4616">
        <ele>92.2</ele>
        <time>2021-12-14T14:51:18.000Z</time>
      </trkpt>
      <trkpt lat="43.37714" lon="-1.46154">
        <ele>92.4</ele>
        <time>2021-12-14T14:51:19.000Z</time>
      </trkpt>
      <trkpt lat="43.37718" lon="-1.46149">
        <ele>92.7</ele>
        <time>2021-12-14T14:51:20.000Z</time>
      </trkpt>
      <trkpt lat="43.37721" lon="-1.46144">
        <ele>92.9</ele>
        <time>2021-12-14T14:51:21.000Z</time>
      </trkpt>
      <trkpt lat="43.37725" lon="-1.46138">
        <ele>93.4</ele>
        <time>2021-12-14T14:51:22.000Z</time>
      </trkpt>
      <trkpt lat="43.37729" lon="-1.46133">
        <ele>93.9</ele>
        <time>2021-12-14T14:51:23.000Z</time>
      </trkpt>
      <trkpt lat="43.37733" lon="-1.46127">
        <ele>94.2</ele>
        <time>2021-12-14T14:51:24.000Z</time>
      </trkpt>
      <trkpt lat="43.37737" lon="-1.46122">
        <ele>94.5</ele>
        <time>2021-12-14T14:51:25.000Z</time>
      </trkpt>
      <trkpt lat="43.37741" lon="-1.46117">
        <ele>94.7</ele>
        <time>2021-12-14T14:51:26.000Z</time>
      </trkpt>
      <trkpt lat="43.37746" lon="-1.46111">
        <ele>94.7</ele>
        <time>2021-12-14T14:51:27.000Z</time>
      </trkpt>
      <trkpt lat="43.3775" lon="-1.46106">
        <ele>95</ele>
        <time>2021-12-14T14:51:28.000Z</time>
      </trkpt>
      <trkpt lat="43.37755" lon="-1.46101">
        <ele>95.4</ele>
        <time>2021-12-14T14:51:29.000Z</time>
      </trkpt>
      <trkpt lat="43.3776" lon="-1.46096">
        <ele>95.7</ele>
        <time>2021-12-14T14:51:30.000Z</time>
      </trkpt>
      <trkpt lat="43.37764" lon="-1.4609">
        <ele>96</ele>
        <time>2021-12-14T14:51:31.000Z</time>
      </trkpt>
      <trkpt lat="43.37769" lon="-1.46085">
        <ele>96.4</ele>
        <time>2021-12-14T14:51:32.000Z</time>
      </trkpt>
      <trkpt lat="43.37774" lon="-1.4608">
        <ele>96.6</ele>
        <time>2021-12-14T14:51:33.000Z</time>
      </trkpt>
      <trkpt lat="43.37779" lon="-1.46075">
        <ele>96.7</ele>
        <time>2021-12-14T14:51:34.000Z</time>
      </trkpt>
      <trkpt lat="43.37784" lon="-1.46069">
        <ele>96.7</ele>
        <time>2021-12-14T14:51:35.000Z</time>
      </trkpt>
      <trkpt lat="43.37788" lon="-1.46064">
        <ele>96.8</ele>
        <time>2021-12-14T14:51:36.000Z</time>
      </trkpt>
      <trkpt lat="43.37793" lon="-1.46058">
        <ele>97.1</ele>
        <time>2021-12-14T14:51:37.000Z</time>
      </trkpt>
      <trkpt lat="43.37798" lon="-1.46053">
        <ele>97.3</ele>
        <time>2021-12-14T14:51:38.000Z</time>
      </trkpt>
      <trkpt lat="43.37802" lon="-1.46047">
        <ele>97.5</ele>
        <time>2021-12-14T14:51:39.000Z</time>
      </trkpt>
      <trkpt lat="43.37807" lon="-1.46042">
        <ele>97.5</ele>
        <time>2021-12-14T14:51:40.000Z</time>
      </trkpt>
      <trkpt lat="43.37811" lon="-1.46036">
        <ele>97.5</ele>
        <time>2021-12-14T14:51:41.000Z</time>
      </trkpt>
      <trkpt lat="43.37816" lon="-1.46031">
        <ele>97.4</ele>
        <time>2021-12-14T14:51:42.000Z</time>
      </trkpt>
      <trkpt lat="43.3782" lon="-1.46025">
        <ele>97.5</ele>
        <time>2021-12-14T14:51:43.000Z</time>
      </trkpt>
      <trkpt lat="43.37825" lon="-1.46019">
        <ele>97.6</ele>
        <time>2021-12-14T14:51:44.000Z</time>
      </trkpt>
      <trkpt lat="43.37829" lon="-1.46013">
        <ele>97.8</ele>
        <time>2021-12-14T14:51:45.000Z</time>
      </trkpt>
      <trkpt lat="43.37834" lon="-1.46006">
        <ele>98</ele>
        <time>2021-12-14T14:51:46.000Z</time>
      </trkpt>
      <trkpt lat="43.37839" lon="-1.46">
        <ele>98</ele>
        <time>2021-12-14T14:51:47.000Z</time>
      </trkpt>
      <trkpt lat="43.37843" lon="-1.45993">
        <ele>97.8</ele>
        <time>2021-12-14T14:51:48.000Z</time>
      </trkpt>
      <trkpt lat="43.37848" lon="-1.45987">
        <ele>97.8</ele>
        <time>2021-12-14T14:51:49.000Z</time>
      </trkpt>
      <trkpt lat="43.37852" lon="-1.4598">
        <ele>97.8</ele>
        <time>2021-12-14T14:51:50.000Z</time>
      </trkpt>
      <trkpt lat="43.37856" lon="-1.45973">
        <ele>97.8</ele>
        <time>2021-12-14T14:51:51.000Z</time>
      </trkpt>
      <trkpt lat="43.3786" lon="-1.45966">
        <ele>97.7</ele>
        <time>2021-12-14T14:51:52.000Z</time>
      </trkpt>
      <trkpt lat="43.37864" lon="-1.45959">
        <ele>97.4</ele>
        <time>2021-12-14T14:51:53.000Z</time>
      </trkpt>
      <trkpt lat="43.37868" lon="-1.45952">
        <ele>97.1</ele>
        <time>2021-12-14T14:51:54.000Z</time>
      </trkpt>
      <trkpt lat="43.37872" lon="-1.45945">
        <ele>97</ele>
        <time>2021-12-14T14:51:55.000Z</time>
      </trkpt>
      <trkpt lat="43.37876" lon="-1.45938">
        <ele>97</ele>
        <time>2021-12-14T14:51:56.000Z</time>
      </trkpt>
      <trkpt lat="43.37881" lon="-1.4593">
        <ele>97</ele>
        <time>2021-12-14T14:51:57.000Z</time>
      </trkpt>
      <trkpt lat="43.37884" lon="-1.45923">
        <ele>97</ele>
        <time>2021-12-14T14:51:58.000Z</time>
      </trkpt>
      <trkpt lat="43.37888" lon="-1.45916">
        <ele>97</ele>
        <time>2021-12-14T14:51:59.000Z</time>
      </trkpt>
      <trkpt lat="43.37892" lon="-1.45909">
        <ele>96.8</ele>
        <time>2021-12-14T14:52:00.000Z</time>
      </trkpt>
      <trkpt lat="43.37896" lon="-1.45902">
        <ele>96.5</ele>
        <time>2021-12-14T14:52:01.000Z</time>
      </trkpt>
      <trkpt lat="43.37899" lon="-1.45895">
        <ele>96.2</ele>
        <time>2021-12-14T14:52:02.000Z</time>
      </trkpt>
      <trkpt lat="43.37903" lon="-1.45887">
        <ele>96</ele>
        <time>2021-12-14T14:52:03.000Z</time>
      </trkpt>
      <trkpt lat="43.37907" lon="-1.4588">
        <ele>96</ele>
        <time>2021-12-14T14:52:04.000Z</time>
      </trkpt>
      <trkpt lat="43.3791" lon="-1.45873">
        <ele>96</ele>
        <time>2021-12-14T14:52:05.000Z</time>
      </trkpt>
      <trkpt lat="43.37914" lon="-1.45865">
        <ele>96.1</ele>
        <time>2021-12-14T14:52:06.000Z</time>
      </trkpt>
      <trkpt lat="43.37918" lon="-1.45857">
        <ele>95.9</ele>
        <time>2021-12-14T14:52:07.000Z</time>
      </trkpt>
      <trkpt lat="43.37922" lon="-1.4585">
        <ele>95.5</ele>
        <time>2021-12-14T14:52:08.000Z</time>
      </trkpt>
      <trkpt lat="43.37925" lon="-1.45842">
        <ele>95.3</ele>
        <time>2021-12-14T14:52:09.000Z</time>
      </trkpt>
      <trkpt lat="43.37928" lon="-1.45835">
        <ele>95.1</ele>
        <time>2021-12-14T14:52:10.000Z</time>
      </trkpt>
      <trkpt lat="43.37932" lon="-1.45827">
        <ele>95.1</ele>
        <time>2021-12-14T14:52:11.000Z</time>
      </trkpt>
      <trkpt lat="43.37935" lon="-1.4582">
        <ele>95.1</ele>
        <time>2021-12-14T14:52:12.000Z</time>
      </trkpt>
      <trkpt lat="43.37939" lon="-1.45812">
        <ele>95.1</ele>
        <time>2021-12-14T14:52:13.000Z</time>
      </trkpt>
      <trkpt lat="43.37942" lon="-1.45805">
        <ele>95.2</ele>
        <time>2021-12-14T14:52:14.000Z</time>
      </trkpt>
      <trkpt lat="43.37946" lon="-1.45797">
        <ele>95.2</ele>
        <time>2021-12-14T14:52:15.000Z</time>
      </trkpt>
      <trkpt lat="43.37949" lon="-1.4579">
        <ele>95.1</ele>
        <time>2021-12-14T14:52:16.000Z</time>
      </trkpt>
      <trkpt lat="43.37953" lon="-1.45782">
        <ele>94.9</ele>
        <time>2021-12-14T14:52:17.000Z</time>
      </trkpt>
      <trkpt lat="43.37956" lon="-1.45775">
        <ele>94.8</ele>
        <time>2021-12-14T14:52:18.000Z</time>
      </trkpt>
      <trkpt lat="43.3796" lon="-1.45767">
        <ele>94.9</ele>
        <time>2021-12-14T14:52:19.000Z</time>
      </trkpt>
      <trkpt lat="43.37964" lon="-1.4576">
        <ele>95</ele>
        <time>2021-12-14T14:52:20.000Z</time>
      </trkpt>
      <trkpt lat="43.37967" lon="-1.45753">
        <ele>95.1</ele>
        <time>2021-12-14T14:52:21.000Z</time>
      </trkpt>
      <trkpt lat="43.37971" lon="-1.45746">
        <ele>95.2</ele>
        <time>2021-12-14T14:52:22.000Z</time>
      </trkpt>
      <trkpt lat="43.37975" lon="-1.45739">
        <ele>95</ele>
        <time>2021-12-14T14:52:23.000Z</time>
      </trkpt>
      <trkpt lat="43.37979" lon="-1.45732">
        <ele>94.8</ele>
        <time>2021-12-14T14:52:24.000Z</time>
      </trkpt>
      <trkpt lat="43.37983" lon="-1.45725">
        <ele>94.7</ele>
        <time>2021-12-14T14:52:25.000Z</time>
      </trkpt>
      <trkpt lat="43.37986" lon="-1.45717">
        <ele>94.6</ele>
        <time>2021-12-14T14:52:26.000Z</time>
      </trkpt>
      <trkpt lat="43.37989" lon="-1.4571">
        <ele>94.6</ele>
        <time>2021-12-14T14:52:27.000Z</time>
      </trkpt>
      <trkpt lat="43.37993" lon="-1.45702">
        <ele>94.5</ele>
        <time>2021-12-14T14:52:28.000Z</time>
      </trkpt>
      <trkpt lat="43.37995" lon="-1.45694">
        <ele>94.5</ele>
        <time>2021-12-14T14:52:29.000Z</time>
      </trkpt>
      <trkpt lat="43.37998" lon="-1.45686">
        <ele>94.5</ele>
        <time>2021-12-14T14:52:30.000Z</time>
      </trkpt>
      <trkpt lat="43.38" lon="-1.45678">
        <ele>94.6</ele>
        <time>2021-12-14T14:52:31.000Z</time>
      </trkpt>
      <trkpt lat="43.38002" lon="-1.4567">
        <ele>94.7</ele>
        <time>2021-12-14T14:52:32.000Z</time>
      </trkpt>
      <trkpt lat="43.38004" lon="-1.45661">
        <ele>94.7</ele>
        <time>2021-12-14T14:52:33.000Z</time>
      </trkpt>
      <trkpt lat="43.38005" lon="-1.45653">
        <ele>94.5</ele>
        <time>2021-12-14T14:52:34.000Z</time>
      </trkpt>
      <trkpt lat="43.38007" lon="-1.45645">
        <ele>94.3</ele>
        <time>2021-12-14T14:52:35.000Z</time>
      </trkpt>
      <trkpt lat="43.38008" lon="-1.45636">
        <ele>94.2</ele>
        <time>2021-12-14T14:52:36.000Z</time>
      </trkpt>
      <trkpt lat="43.38009" lon="-1.45628">
        <ele>94.3</ele>
        <time>2021-12-14T14:52:37.000Z</time>
      </trkpt>
      <trkpt lat="43.38011" lon="-1.45619">
        <ele>94.3</ele>
        <time>2021-12-14T14:52:38.000Z</time>
      </trkpt>
      <trkpt lat="43.38012" lon="-1.4561">
        <ele>94.2</ele>
        <time>2021-12-14T14:52:39.000Z</time>
      </trkpt>
      <trkpt lat="43.38013" lon="-1.45602">
        <ele>94.1</ele>
        <time>2021-12-14T14:52:40.000Z</time>
      </trkpt>
      <trkpt lat="43.38015" lon="-1.45593">
        <ele>93.9</ele>
        <time>2021-12-14T14:52:41.000Z</time>
      </trkpt>
      <trkpt lat="43.38016" lon="-1.45584">
        <ele>93.7</ele>
        <time>2021-12-14T14:52:42.000Z</time>
      </trkpt>
      <trkpt lat="43.38017" lon="-1.45576">
        <ele>93.7</ele>
        <time>2021-12-14T14:52:43.000Z</time>
      </trkpt>
      <trkpt lat="43.38018" lon="-1.45567">
        <ele>93.8</ele>
        <time>2021-12-14T14:52:44.000Z</time>
      </trkpt>
      <trkpt lat="43.38019" lon="-1.45559">
        <ele>93.8</ele>
        <time>2021-12-14T14:52:45.000Z</time>
      </trkpt>
      <trkpt lat="43.38021" lon="-1.4555">
        <ele>93.8</ele>
        <time>2021-12-14T14:52:46.000Z</time>
      </trkpt>
      <trkpt lat="43.38022" lon="-1.45542">
        <ele>93.7</ele>
        <time>2021-12-14T14:52:47.000Z</time>
      </trkpt>
      <trkpt lat="43.38024" lon="-1.45533">
        <ele>93.5</ele>
        <time>2021-12-14T14:52:48.000Z</time>
      </trkpt>
      <trkpt lat="43.38027" lon="-1.45525">
        <ele>93.2</ele>
        <time>2021-12-14T14:52:49.000Z</time>
      </trkpt>
      <trkpt lat="43.3803" lon="-1.45518">
        <ele>93</ele>
        <time>2021-12-14T14:52:50.000Z</time>
      </trkpt>
      <trkpt lat="43.38034" lon="-1.4551">
        <ele>92.9</ele>
        <time>2021-12-14T14:52:51.000Z</time>
      </trkpt>
      <trkpt lat="43.38038" lon="-1.45503">
        <ele>92.7</ele>
        <time>2021-12-14T14:52:52.000Z</time>
      </trkpt>
      <trkpt lat="43.38043" lon="-1.45497">
        <ele>92.6</ele>
        <time>2021-12-14T14:52:53.000Z</time>
      </trkpt>
      <trkpt lat="43.38048" lon="-1.4549">
        <ele>92.3</ele>
        <time>2021-12-14T14:52:54.000Z</time>
      </trkpt>
      <trkpt lat="43.38053" lon="-1.45485">
        <ele>91.9</ele>
        <time>2021-12-14T14:52:55.000Z</time>
      </trkpt>
      <trkpt lat="43.38059" lon="-1.4548">
        <ele>91.6</ele>
        <time>2021-12-14T14:52:56.000Z</time>
      </trkpt>
      <trkpt lat="43.38065" lon="-1.45477">
        <ele>91.6</ele>
        <time>2021-12-14T14:52:57.000Z</time>
      </trkpt>
      <trkpt lat="43.38071" lon="-1.45474">
        <ele>91.4</ele>
        <time>2021-12-14T14:52:58.000Z</time>
      </trkpt>
      <trkpt lat="43.38078" lon="-1.45471">
        <ele>91.2</ele>
        <time>2021-12-14T14:52:59.000Z</time>
      </trkpt>
      <trkpt lat="43.38085" lon="-1.4547">
        <ele>90.9</ele>
        <time>2021-12-14T14:53:00.000Z</time>
      </trkpt>
      <trkpt lat="43.38092" lon="-1.45471">
        <ele>90.7</ele>
        <time>2021-12-14T14:53:01.000Z</time>
      </trkpt>
      <trkpt lat="43.38099" lon="-1.45472">
        <ele>90.4</ele>
        <time>2021-12-14T14:53:02.000Z</time>
      </trkpt>
      <trkpt lat="43.38106" lon="-1.45474">
        <ele>90.1</ele>
        <time>2021-12-14T14:53:03.000Z</time>
      </trkpt>
      <trkpt lat="43.38113" lon="-1.45477">
        <ele>89.6</ele>
        <time>2021-12-14T14:53:04.000Z</time>
      </trkpt>
      <trkpt lat="43.38121" lon="-1.4548">
        <ele>88.8</ele>
        <time>2021-12-14T14:53:05.000Z</time>
      </trkpt>
      <trkpt lat="43.38128" lon="-1.45483">
        <ele>88</ele>
        <time>2021-12-14T14:53:06.000Z</time>
      </trkpt>
      <trkpt lat="43.38136" lon="-1.45487">
        <ele>87.2</ele>
        <time>2021-12-14T14:53:07.000Z</time>
      </trkpt>
      <trkpt lat="43.38144" lon="-1.45491">
        <ele>86.6</ele>
        <time>2021-12-14T14:53:08.000Z</time>
      </trkpt>
      <trkpt lat="43.38152" lon="-1.45495">
        <ele>86</ele>
        <time>2021-12-14T14:53:09.000Z</time>
      </trkpt>
      <trkpt lat="43.3816" lon="-1.45499">
        <ele>85.4</ele>
        <time>2021-12-14T14:53:10.000Z</time>
      </trkpt>
      <trkpt lat="43.38168" lon="-1.45503">
        <ele>84.9</ele>
        <time>2021-12-14T14:53:11.000Z</time>
      </trkpt>
      <trkpt lat="43.38176" lon="-1.45507">
        <ele>84.4</ele>
        <time>2021-12-14T14:53:12.000Z</time>
      </trkpt>
      <trkpt lat="43.38184" lon="-1.45511">
        <ele>84</ele>
        <time>2021-12-14T14:53:13.000Z</time>
      </trkpt>
      <trkpt lat="43.38192" lon="-1.45515">
        <ele>83.7</ele>
        <time>2021-12-14T14:53:14.000Z</time>
      </trkpt>
      <trkpt lat="43.382" lon="-1.45519">
        <ele>83.5</ele>
        <time>2021-12-14T14:53:15.000Z</time>
      </trkpt>
      <trkpt lat="43.38208" lon="-1.45523">
        <ele>83.4</ele>
        <time>2021-12-14T14:53:16.000Z</time>
      </trkpt>
      <trkpt lat="43.38216" lon="-1.45527">
        <ele>83.2</ele>
        <time>2021-12-14T14:53:17.000Z</time>
      </trkpt>
      <trkpt lat="43.38223" lon="-1.45532">
        <ele>83</ele>
        <time>2021-12-14T14:53:18.000Z</time>
      </trkpt>
      <trkpt lat="43.3823" lon="-1.45535">
        <ele>82.8</ele>
        <time>2021-12-14T14:53:19.000Z</time>
      </trkpt>
      <trkpt lat="43.38237" lon="-1.45539">
        <ele>82.7</ele>
        <time>2021-12-14T14:53:20.000Z</time>
      </trkpt>
      <trkpt lat="43.38244" lon="-1.45543">
        <ele>82.7</ele>
        <time>2021-12-14T14:53:21.000Z</time>
      </trkpt>
      <trkpt lat="43.38251" lon="-1.45547">
        <ele>82.7</ele>
        <time>2021-12-14T14:53:22.000Z</time>
      </trkpt>
      <trkpt lat="43.38257" lon="-1.4555">
        <ele>82.7</ele>
        <time>2021-12-14T14:53:23.000Z</time>
      </trkpt>
      <trkpt lat="43.38263" lon="-1.45552">
        <ele>82.8</ele>
        <time>2021-12-14T14:53:24.000Z</time>
      </trkpt>
      <trkpt lat="43.38269" lon="-1.45555">
        <ele>82.9</ele>
        <time>2021-12-14T14:53:25.000Z</time>
      </trkpt>
      <trkpt lat="43.38275" lon="-1.45556">
        <ele>83</ele>
        <time>2021-12-14T14:53:26.000Z</time>
      </trkpt>
      <trkpt lat="43.38282" lon="-1.45558">
        <ele>83</ele>
        <time>2021-12-14T14:53:27.000Z</time>
      </trkpt>
      <trkpt lat="43.38288" lon="-1.45559">
        <ele>83</ele>
        <time>2021-12-14T14:53:28.000Z</time>
      </trkpt>
      <trkpt lat="43.38294" lon="-1.4556">
        <ele>83.1</ele>
        <time>2021-12-14T14:53:29.000Z</time>
      </trkpt>
      <trkpt lat="43.383" lon="-1.45561">
        <ele>83.2</ele>
        <time>2021-12-14T14:53:30.000Z</time>
      </trkpt>
      <trkpt lat="43.38306" lon="-1.45562">
        <ele>83.3</ele>
        <time>2021-12-14T14:53:31.000Z</time>
      </trkpt>
      <trkpt lat="43.38312" lon="-1.45564">
        <ele>83.5</ele>
        <time>2021-12-14T14:53:32.000Z</time>
      </trkpt>
      <trkpt lat="43.38317" lon="-1.45565">
        <ele>83.8</ele>
        <time>2021-12-14T14:53:33.000Z</time>
      </trkpt>
      <trkpt lat="43.38323" lon="-1.45567">
        <ele>84</ele>
        <time>2021-12-14T14:53:34.000Z</time>
      </trkpt>
      <trkpt lat="43.38328" lon="-1.45568">
        <ele>84.3</ele>
        <time>2021-12-14T14:53:35.000Z</time>
      </trkpt>
      <trkpt lat="43.38334" lon="-1.45569">
        <ele>84.5</ele>
        <time>2021-12-14T14:53:36.000Z</time>
      </trkpt>
      <trkpt lat="43.38339" lon="-1.4557">
        <ele>84.6</ele>
        <time>2021-12-14T14:53:37.000Z</time>
      </trkpt>
      <trkpt lat="43.38345" lon="-1.45571">
        <ele>84.7</ele>
        <time>2021-12-14T14:53:38.000Z</time>
      </trkpt>
      <trkpt lat="43.38351" lon="-1.45572">
        <ele>84.9</ele>
        <time>2021-12-14T14:53:39.000Z</time>
      </trkpt>
      <trkpt lat="43.38357" lon="-1.45573">
        <ele>84.9</ele>
        <time>2021-12-14T14:53:40.000Z</time>
      </trkpt>
      <trkpt lat="43.38363" lon="-1.45575">
        <ele>85</ele>
        <time>2021-12-14T14:53:41.000Z</time>
      </trkpt>
      <trkpt lat="43.38368" lon="-1.45576">
        <ele>85.1</ele>
        <time>2021-12-14T14:53:42.000Z</time>
      </trkpt>
      <trkpt lat="43.38374" lon="-1.45577">
        <ele>85.1</ele>
        <time>2021-12-14T14:53:43.000Z</time>
      </trkpt>
      <trkpt lat="43.3838" lon="-1.45579">
        <ele>85.1</ele>
        <time>2021-12-14T14:53:44.000Z</time>
      </trkpt>
      <trkpt lat="43.38386" lon="-1.4558">
        <ele>85.1</ele>
        <time>2021-12-14T14:53:45.000Z</time>
      </trkpt>
      <trkpt lat="43.38391" lon="-1.45582">
        <ele>85.1</ele>
        <time>2021-12-14T14:53:46.000Z</time>
      </trkpt>
      <trkpt lat="43.38397" lon="-1.45583">
        <ele>85</ele>
        <time>2021-12-14T14:53:47.000Z</time>
      </trkpt>
      <trkpt lat="43.38403" lon="-1.45584">
        <ele>85</ele>
        <time>2021-12-14T14:53:48.000Z</time>
      </trkpt>
      <trkpt lat="43.3841" lon="-1.45585">
        <ele>84.9</ele>
        <time>2021-12-14T14:53:49.000Z</time>
      </trkpt>
      <trkpt lat="43.38416" lon="-1.45586">
        <ele>84.9</ele>
        <time>2021-12-14T14:53:50.000Z</time>
      </trkpt>
      <trkpt lat="43.38422" lon="-1.45588">
        <ele>84.8</ele>
        <time>2021-12-14T14:53:51.000Z</time>
      </trkpt>
      <trkpt lat="43.38429" lon="-1.45589">
        <ele>84.7</ele>
        <time>2021-12-14T14:53:52.000Z</time>
      </trkpt>
      <trkpt lat="43.38435" lon="-1.4559">
        <ele>84.6</ele>
        <time>2021-12-14T14:53:53.000Z</time>
      </trkpt>
      <trkpt lat="43.38442" lon="-1.45592">
        <ele>84.4</ele>
        <time>2021-12-14T14:53:54.000Z</time>
      </trkpt>
      <trkpt lat="43.38448" lon="-1.45593">
        <ele>84.2</ele>
        <time>2021-12-14T14:53:55.000Z</time>
      </trkpt>
      <trkpt lat="43.38455" lon="-1.45594">
        <ele>84</ele>
        <time>2021-12-14T14:53:56.000Z</time>
      </trkpt>
      <trkpt lat="43.38462" lon="-1.45596">
        <ele>83.7</ele>
        <time>2021-12-14T14:53:57.000Z</time>
      </trkpt>
      <trkpt lat="43.38469" lon="-1.45598">
        <ele>83.5</ele>
        <time>2021-12-14T14:53:58.000Z</time>
      </trkpt>
      <trkpt lat="43.38475" lon="-1.45599">
        <ele>83.2</ele>
        <time>2021-12-14T14:53:59.000Z</time>
      </trkpt>
      <trkpt lat="43.38482" lon="-1.45601">
        <ele>82.7</ele>
        <time>2021-12-14T14:54:00.000Z</time>
      </trkpt>
      <trkpt lat="43.38489" lon="-1.45602">
        <ele>82.1</ele>
        <time>2021-12-14T14:54:01.000Z</time>
      </trkpt>
      <trkpt lat="43.38497" lon="-1.45604">
        <ele>81.5</ele>
        <time>2021-12-14T14:54:02.000Z</time>
      </trkpt>
      <trkpt lat="43.38504" lon="-1.45606">
        <ele>81</ele>
        <time>2021-12-14T14:54:03.000Z</time>
      </trkpt>
      <trkpt lat="43.38511" lon="-1.45608">
        <ele>80.6</ele>
        <time>2021-12-14T14:54:04.000Z</time>
      </trkpt>
      <trkpt lat="43.38518" lon="-1.4561">
        <ele>80.4</ele>
        <time>2021-12-14T14:54:05.000Z</time>
      </trkpt>
      <trkpt lat="43.38524" lon="-1.45612">
        <ele>80</ele>
        <time>2021-12-14T14:54:06.000Z</time>
      </trkpt>
      <trkpt lat="43.38531" lon="-1.45614">
        <ele>79.7</ele>
        <time>2021-12-14T14:54:07.000Z</time>
      </trkpt>
      <trkpt lat="43.38538" lon="-1.45616">
        <ele>79.6</ele>
        <time>2021-12-14T14:54:08.000Z</time>
      </trkpt>
      <trkpt lat="43.38544" lon="-1.45617">
        <ele>79.6</ele>
        <time>2021-12-14T14:54:09.000Z</time>
      </trkpt>
      <trkpt lat="43.38551" lon="-1.45619">
        <ele>79.6</ele>
        <time>2021-12-14T14:54:10.000Z</time>
      </trkpt>
      <trkpt lat="43.38556" lon="-1.45621">
        <ele>79.7</ele>
        <time>2021-12-14T14:54:11.000Z</time>
      </trkpt>
      <trkpt lat="43.38562" lon="-1.45623">
        <ele>80.3</ele>
        <time>2021-12-14T14:54:12.000Z</time>
      </trkpt>
      <trkpt lat="43.38568" lon="-1.45624">
        <ele>80.8</ele>
        <time>2021-12-14T14:54:13.000Z</time>
      </trkpt>
      <trkpt lat="43.38573" lon="-1.45626">
        <ele>81.3</ele>
        <time>2021-12-14T14:54:14.000Z</time>
      </trkpt>
      <trkpt lat="43.38577" lon="-1.45628">
        <ele>81.7</ele>
        <time>2021-12-14T14:54:15.000Z</time>
      </trkpt>
      <trkpt lat="43.38582" lon="-1.4563">
        <ele>82.1</ele>
        <time>2021-12-14T14:54:16.000Z</time>
      </trkpt>
      <trkpt lat="43.38586" lon="-1.45631">
        <ele>82.5</ele>
        <time>2021-12-14T14:54:17.000Z</time>
      </trkpt>
      <trkpt lat="43.3859" lon="-1.45633">
        <ele>82.8</ele>
        <time>2021-12-14T14:54:18.000Z</time>
      </trkpt>
      <trkpt lat="43.38594" lon="-1.45634">
        <ele>83.1</ele>
        <time>2021-12-14T14:54:19.000Z</time>
      </trkpt>
      <trkpt lat="43.38598" lon="-1.45636">
        <ele>83.6</ele>
        <time>2021-12-14T14:54:20.000Z</time>
      </trkpt>
      <trkpt lat="43.38603" lon="-1.45638">
        <ele>84</ele>
        <time>2021-12-14T14:54:21.000Z</time>
      </trkpt>
      <trkpt lat="43.38607" lon="-1.4564">
        <ele>84.5</ele>
        <time>2021-12-14T14:54:22.000Z</time>
      </trkpt>
      <trkpt lat="43.38611" lon="-1.45643">
        <ele>85</ele>
        <time>2021-12-14T14:54:23.000Z</time>
      </trkpt>
      <trkpt lat="43.38615" lon="-1.45646">
        <ele>85.4</ele>
        <time>2021-12-14T14:54:24.000Z</time>
      </trkpt>
      <trkpt lat="43.38619" lon="-1.45649">
        <ele>85.8</ele>
        <time>2021-12-14T14:54:25.000Z</time>
      </trkpt>
      <trkpt lat="43.38623" lon="-1.45653">
        <ele>86.3</ele>
        <time>2021-12-14T14:54:26.000Z</time>
      </trkpt>
      <trkpt lat="43.38626" lon="-1.45657">
        <ele>86.8</ele>
        <time>2021-12-14T14:54:27.000Z</time>
      </trkpt>
      <trkpt lat="43.3863" lon="-1.45661">
        <ele>87.4</ele>
        <time>2021-12-14T14:54:28.000Z</time>
      </trkpt>
      <trkpt lat="43.38633" lon="-1.45665">
        <ele>88.1</ele>
        <time>2021-12-14T14:54:29.000Z</time>
      </trkpt>
      <trkpt lat="43.38636" lon="-1.4567">
        <ele>88.6</ele>
        <time>2021-12-14T14:54:30.000Z</time>
      </trkpt>
      <trkpt lat="43.38639" lon="-1.45675">
        <ele>89</ele>
        <time>2021-12-14T14:54:31.000Z</time>
      </trkpt>
      <trkpt lat="43.38641" lon="-1.4568">
        <ele>89.3</ele>
        <time>2021-12-14T14:54:32.000Z</time>
      </trkpt>
      <trkpt lat="43.38644" lon="-1.45685">
        <ele>89.6</ele>
        <time>2021-12-14T14:54:33.000Z</time>
      </trkpt>
      <trkpt lat="43.38647" lon="-1.45691">
        <ele>90.1</ele>
        <time>2021-12-14T14:54:34.000Z</time>
      </trkpt>
      <trkpt lat="43.38649" lon="-1.45697">
        <ele>90.4</ele>
        <time>2021-12-14T14:54:35.000Z</time>
      </trkpt>
      <trkpt lat="43.38652" lon="-1.45704">
        <ele>90.7</ele>
        <time>2021-12-14T14:54:36.000Z</time>
      </trkpt>
      <trkpt lat="43.38655" lon="-1.45712">
        <ele>91</ele>
        <time>2021-12-14T14:54:37.000Z</time>
      </trkpt>
      <trkpt lat="43.38657" lon="-1.45719">
        <ele>91.3</ele>
        <time>2021-12-14T14:54:38.000Z</time>
      </trkpt>
      <trkpt lat="43.38659" lon="-1.45726">
        <ele>91.4</ele>
        <time>2021-12-14T14:54:39.000Z</time>
      </trkpt>
      <trkpt lat="43.38662" lon="-1.45733">
        <ele>91.4</ele>
        <time>2021-12-14T14:54:40.000Z</time>
      </trkpt>
      <trkpt lat="43.38664" lon="-1.45739">
        <ele>91.4</ele>
        <time>2021-12-14T14:54:41.000Z</time>
      </trkpt>
      <trkpt lat="43.38667" lon="-1.45746">
        <ele>91.3</ele>
        <time>2021-12-14T14:54:42.000Z</time>
      </trkpt>
      <trkpt lat="43.3867" lon="-1.45753">
        <ele>91.3</ele>
        <time>2021-12-14T14:54:43.000Z</time>
      </trkpt>
      <trkpt lat="43.38672" lon="-1.45759">
        <ele>91.6</ele>
        <time>2021-12-14T14:54:44.000Z</time>
      </trkpt>
      <trkpt lat="43.38674" lon="-1.45766">
        <ele>91.8</ele>
        <time>2021-12-14T14:54:45.000Z</time>
      </trkpt>
      <trkpt lat="43.38677" lon="-1.45772">
        <ele>92.1</ele>
        <time>2021-12-14T14:54:46.000Z</time>
      </trkpt>
      <trkpt lat="43.38679" lon="-1.45779">
        <ele>92.4</ele>
        <time>2021-12-14T14:54:47.000Z</time>
      </trkpt>
      <trkpt lat="43.38681" lon="-1.45785">
        <ele>92.7</ele>
        <time>2021-12-14T14:54:48.000Z</time>
      </trkpt>
      <trkpt lat="43.38684" lon="-1.45792">
        <ele>93.1</ele>
        <time>2021-12-14T14:54:49.000Z</time>
      </trkpt>
      <trkpt lat="43.38687" lon="-1.45798">
        <ele>93.4</ele>
        <time>2021-12-14T14:54:50.000Z</time>
      </trkpt>
      <trkpt lat="43.3869" lon="-1.45804">
        <ele>93.6</ele>
        <time>2021-12-14T14:54:51.000Z</time>
      </trkpt>
      <trkpt lat="43.38693" lon="-1.45809">
        <ele>94.1</ele>
        <time>2021-12-14T14:54:52.000Z</time>
      </trkpt>
      <trkpt lat="43.38696" lon="-1.45815">
        <ele>94.8</ele>
        <time>2021-12-14T14:54:53.000Z</time>
      </trkpt>
      <trkpt lat="43.38699" lon="-1.4582">
        <ele>95.6</ele>
        <time>2021-12-14T14:54:54.000Z</time>
      </trkpt>
      <trkpt lat="43.38702" lon="-1.45825">
        <ele>96.4</ele>
        <time>2021-12-14T14:54:55.000Z</time>
      </trkpt>
      <trkpt lat="43.38705" lon="-1.4583">
        <ele>97.3</ele>
        <time>2021-12-14T14:54:56.000Z</time>
      </trkpt>
      <trkpt lat="43.38708" lon="-1.45836">
        <ele>98</ele>
        <time>2021-12-14T14:54:57.000Z</time>
      </trkpt>
      <trkpt lat="43.38711" lon="-1.45841">
        <ele>98.5</ele>
        <time>2021-12-14T14:54:58.000Z</time>
      </trkpt>
      <trkpt lat="43.38714" lon="-1.45847">
        <ele>98.8</ele>
        <time>2021-12-14T14:54:59.000Z</time>
      </trkpt>
      <trkpt lat="43.38717" lon="-1.45853">
        <ele>99</ele>
        <time>2021-12-14T14:55:00.000Z</time>
      </trkpt>
      <trkpt lat="43.3872" lon="-1.45859">
        <ele>99</ele>
        <time>2021-12-14T14:55:01.000Z</time>
      </trkpt>
      <trkpt lat="43.38723" lon="-1.45865">
        <ele>99.1</ele>
        <time>2021-12-14T14:55:02.000Z</time>
      </trkpt>
      <trkpt lat="43.38726" lon="-1.45871">
        <ele>99.3</ele>
        <time>2021-12-14T14:55:03.000Z</time>
      </trkpt>
      <trkpt lat="43.38729" lon="-1.45878">
        <ele>99.4</ele>
        <time>2021-12-14T14:55:04.000Z</time>
      </trkpt>
      <trkpt lat="43.38731" lon="-1.45885">
        <ele>99.4</ele>
        <time>2021-12-14T14:55:05.000Z</time>
      </trkpt>
      <trkpt lat="43.38733" lon="-1.45892">
        <ele>99.4</ele>
        <time>2021-12-14T14:55:06.000Z</time>
      </trkpt>
      <trkpt lat="43.38735" lon="-1.45899">
        <ele>99.3</ele>
        <time>2021-12-14T14:55:07.000Z</time>
      </trkpt>
      <trkpt lat="43.38737" lon="-1.45907">
        <ele>99.2</ele>
        <time>2021-12-14T14:55:08.000Z</time>
      </trkpt>
      <trkpt lat="43.38739" lon="-1.45915">
        <ele>99</ele>
        <time>2021-12-14T14:55:09.000Z</time>
      </trkpt>
      <trkpt lat="43.38741" lon="-1.45923">
        <ele>98.8</ele>
        <time>2021-12-14T14:55:10.000Z</time>
      </trkpt>
      <trkpt lat="43.38743" lon="-1.45932">
        <ele>98.5</ele>
        <time>2021-12-14T14:55:11.000Z</time>
      </trkpt>
      <trkpt lat="43.38745" lon="-1.45941">
        <ele>98.1</ele>
        <time>2021-12-14T14:55:12.000Z</time>
      </trkpt>
      <trkpt lat="43.38748" lon="-1.4595">
        <ele>97.7</ele>
        <time>2021-12-14T14:55:13.000Z</time>
      </trkpt>
      <trkpt lat="43.38751" lon="-1.4596">
        <ele>97.5</ele>
        <time>2021-12-14T14:55:14.000Z</time>
      </trkpt>
      <trkpt lat="43.38755" lon="-1.45969">
        <ele>97.4</ele>
        <time>2021-12-14T14:55:15.000Z</time>
      </trkpt>
      <trkpt lat="43.38759" lon="-1.45978">
        <ele>96.9</ele>
        <time>2021-12-14T14:55:16.000Z</time>
      </trkpt>
      <trkpt lat="43.38763" lon="-1.45989">
        <ele>95.9</ele>
        <time>2021-12-14T14:55:17.000Z</time>
      </trkpt>
      <trkpt lat="43.38768" lon="-1.45998">
        <ele>94.9</ele>
        <time>2021-12-14T14:55:18.000Z</time>
      </trkpt>
      <trkpt lat="43.38773" lon="-1.46007">
        <ele>94.2</ele>
        <time>2021-12-14T14:55:19.000Z</time>
      </trkpt>
      <trkpt lat="43.38779" lon="-1.46016">
        <ele>94</ele>
        <time>2021-12-14T14:55:20.000Z</time>
      </trkpt>
      <trkpt lat="43.38785" lon="-1.46025">
        <ele>93.9</ele>
        <time>2021-12-14T14:55:21.000Z</time>
      </trkpt>
      <trkpt lat="43.38791" lon="-1.46035">
        <ele>93.7</ele>
        <time>2021-12-14T14:55:22.000Z</time>
      </trkpt>
      <trkpt lat="43.38797" lon="-1.46045">
        <ele>93</ele>
        <time>2021-12-14T14:55:23.000Z</time>
      </trkpt>
      <trkpt lat="43.38804" lon="-1.46054">
        <ele>92.1</ele>
        <time>2021-12-14T14:55:24.000Z</time>
      </trkpt>
      <trkpt lat="43.38811" lon="-1.46063">
        <ele>90.8</ele>
        <time>2021-12-14T14:55:25.000Z</time>
      </trkpt>
      <trkpt lat="43.38819" lon="-1.46071">
        <ele>89.4</ele>
        <time>2021-12-14T14:55:26.000Z</time>
      </trkpt>
      <trkpt lat="43.38829" lon="-1.46077">
        <ele>88</ele>
        <time>2021-12-14T14:55:27.000Z</time>
      </trkpt>
      <trkpt lat="43.38839" lon="-1.46083">
        <ele>86.9</ele>
        <time>2021-12-14T14:55:28.000Z</time>
      </trkpt>
      <trkpt lat="43.3885" lon="-1.46087">
        <ele>85.8</ele>
        <time>2021-12-14T14:55:29.000Z</time>
      </trkpt>
      <trkpt lat="43.3886" lon="-1.46091">
        <ele>84.7</ele>
        <time>2021-12-14T14:55:30.000Z</time>
      </trkpt>
      <trkpt lat="43.38871" lon="-1.46094">
        <ele>83.1</ele>
        <time>2021-12-14T14:55:31.000Z</time>
      </trkpt>
      <trkpt lat="43.38883" lon="-1.46097">
        <ele>81.6</ele>
        <time>2021-12-14T14:55:32.000Z</time>
      </trkpt>
      <trkpt lat="43.38894" lon="-1.46099">
        <ele>80.3</ele>
        <time>2021-12-14T14:55:33.000Z</time>
      </trkpt>
      <trkpt lat="43.38907" lon="-1.461">
        <ele>79.1</ele>
        <time>2021-12-14T14:55:34.000Z</time>
      </trkpt>
      <trkpt lat="43.38919" lon="-1.46098">
        <ele>78.1</ele>
        <time>2021-12-14T14:55:35.000Z</time>
      </trkpt>
      <trkpt lat="43.38931" lon="-1.46093">
        <ele>76.6</ele>
        <time>2021-12-14T14:55:36.000Z</time>
      </trkpt>
      <trkpt lat="43.38942" lon="-1.46086">
        <ele>75.3</ele>
        <time>2021-12-14T14:55:37.000Z</time>
      </trkpt>
      <trkpt lat="43.38952" lon="-1.46077">
        <ele>73.4</ele>
        <time>2021-12-14T14:55:38.000Z</time>
      </trkpt>
      <trkpt lat="43.38961" lon="-1.46067">
        <ele>71.4</ele>
        <time>2021-12-14T14:55:39.000Z</time>
      </trkpt>
      <trkpt lat="43.3897" lon="-1.46055">
        <ele>69.6</ele>
        <time>2021-12-14T14:55:40.000Z</time>
      </trkpt>
      <trkpt lat="43.38978" lon="-1.46043">
        <ele>68.5</ele>
        <time>2021-12-14T14:55:41.000Z</time>
      </trkpt>
      <trkpt lat="43.38987" lon="-1.46032">
        <ele>68.1</ele>
        <time>2021-12-14T14:55:42.000Z</time>
      </trkpt>
      <trkpt lat="43.38995" lon="-1.46021">
        <ele>67.9</ele>
        <time>2021-12-14T14:55:43.000Z</time>
      </trkpt>
      <trkpt lat="43.39003" lon="-1.46011">
        <ele>67.9</ele>
        <time>2021-12-14T14:55:44.000Z</time>
      </trkpt>
      <trkpt lat="43.39011" lon="-1.46002">
        <ele>68.4</ele>
        <time>2021-12-14T14:55:45.000Z</time>
      </trkpt>
      <trkpt lat="43.39019" lon="-1.45993">
        <ele>68.4</ele>
        <time>2021-12-14T14:55:46.000Z</time>
      </trkpt>
      <trkpt lat="43.39027" lon="-1.45984">
        <ele>68.1</ele>
        <time>2021-12-14T14:55:47.000Z</time>
      </trkpt>
      <trkpt lat="43.39034" lon="-1.45977">
        <ele>67.9</ele>
        <time>2021-12-14T14:55:48.000Z</time>
      </trkpt>
      <trkpt lat="43.39041" lon="-1.4597">
        <ele>68</ele>
        <time>2021-12-14T14:55:49.000Z</time>
      </trkpt>
      <trkpt lat="43.39048" lon="-1.45963">
        <ele>67.9</ele>
        <time>2021-12-14T14:55:50.000Z</time>
      </trkpt>
      <trkpt lat="43.39054" lon="-1.45957">
        <ele>68</ele>
        <time>2021-12-14T14:55:51.000Z</time>
      </trkpt>
      <trkpt lat="43.39061" lon="-1.45951">
        <ele>67.9</ele>
        <time>2021-12-14T14:55:52.000Z</time>
      </trkpt>
      <trkpt lat="43.39067" lon="-1.45946">
        <ele>68</ele>
        <time>2021-12-14T14:55:53.000Z</time>
      </trkpt>
      <trkpt lat="43.39073" lon="-1.4594">
        <ele>67.8</ele>
        <time>2021-12-14T14:55:54.000Z</time>
      </trkpt>
      <trkpt lat="43.3908" lon="-1.45934">
        <ele>67.6</ele>
        <time>2021-12-14T14:55:55.000Z</time>
      </trkpt>
      <trkpt lat="43.39086" lon="-1.45928">
        <ele>67</ele>
        <time>2021-12-14T14:55:56.000Z</time>
      </trkpt>
      <trkpt lat="43.39093" lon="-1.45923">
        <ele>66.3</ele>
        <time>2021-12-14T14:55:57.000Z</time>
      </trkpt>
      <trkpt lat="43.39099" lon="-1.45918">
        <ele>66.3</ele>
        <time>2021-12-14T14:55:58.000Z</time>
      </trkpt>
      <trkpt lat="43.39106" lon="-1.45912">
        <ele>66.1</ele>
        <time>2021-12-14T14:55:59.000Z</time>
      </trkpt>
      <trkpt lat="43.39113" lon="-1.45907">
        <ele>65.7</ele>
        <time>2021-12-14T14:56:00.000Z</time>
      </trkpt>
      <trkpt lat="43.3912" lon="-1.45903">
        <ele>64.7</ele>
        <time>2021-12-14T14:56:01.000Z</time>
      </trkpt>
      <trkpt lat="43.39127" lon="-1.459">
        <ele>64</ele>
        <time>2021-12-14T14:56:02.000Z</time>
      </trkpt>
      <trkpt lat="43.39134" lon="-1.45897">
        <ele>63.5</ele>
        <time>2021-12-14T14:56:03.000Z</time>
      </trkpt>
      <trkpt lat="43.39141" lon="-1.45895">
        <ele>63.1</ele>
        <time>2021-12-14T14:56:04.000Z</time>
      </trkpt>
      <trkpt lat="43.39148" lon="-1.45894">
        <ele>63.1</ele>
        <time>2021-12-14T14:56:05.000Z</time>
      </trkpt>
      <trkpt lat="43.39155" lon="-1.45894">
        <ele>62.9</ele>
        <time>2021-12-14T14:56:06.000Z</time>
      </trkpt>
      <trkpt lat="43.39162" lon="-1.45894">
        <ele>62.7</ele>
        <time>2021-12-14T14:56:07.000Z</time>
      </trkpt>
      <trkpt lat="43.39169" lon="-1.45896">
        <ele>62.5</ele>
        <time>2021-12-14T14:56:08.000Z</time>
      </trkpt>
      <trkpt lat="43.39175" lon="-1.45897">
        <ele>62.4</ele>
        <time>2021-12-14T14:56:09.000Z</time>
      </trkpt>
      <trkpt lat="43.39182" lon="-1.459">
        <ele>62.2</ele>
        <time>2021-12-14T14:56:10.000Z</time>
      </trkpt>
      <trkpt lat="43.39188" lon="-1.45902">
        <ele>62</ele>
        <time>2021-12-14T14:56:11.000Z</time>
      </trkpt>
      <trkpt lat="43.39193" lon="-1.45905">
        <ele>61.8</ele>
        <time>2021-12-14T14:56:12.000Z</time>
      </trkpt>
      <trkpt lat="43.39198" lon="-1.45907">
        <ele>61.5</ele>
        <time>2021-12-14T14:56:13.000Z</time>
      </trkpt>
      <trkpt lat="43.39202" lon="-1.4591">
        <ele>61.2</ele>
        <time>2021-12-14T14:56:14.000Z</time>
      </trkpt>
      <trkpt lat="43.39206" lon="-1.45912">
        <ele>60.9</ele>
        <time>2021-12-14T14:56:15.000Z</time>
      </trkpt>
      <trkpt lat="43.3921" lon="-1.45914">
        <ele>60.6</ele>
        <time>2021-12-14T14:56:16.000Z</time>
      </trkpt>
      <trkpt lat="43.39213" lon="-1.45917">
        <ele>60.3</ele>
        <time>2021-12-14T14:56:17.000Z</time>
      </trkpt>
      <trkpt lat="43.39216" lon="-1.4592">
        <ele>59.8</ele>
        <time>2021-12-14T14:56:18.000Z</time>
      </trkpt>
      <trkpt lat="43.39219" lon="-1.45923">
        <ele>59.4</ele>
        <time>2021-12-14T14:56:19.000Z</time>
      </trkpt>
      <trkpt lat="43.39223" lon="-1.45926">
        <ele>58.9</ele>
        <time>2021-12-14T14:56:20.000Z</time>
      </trkpt>
      <trkpt lat="43.39228" lon="-1.45929">
        <ele>58.3</ele>
        <time>2021-12-14T14:56:21.000Z</time>
      </trkpt>
      <trkpt lat="43.39234" lon="-1.45934">
        <ele>57.7</ele>
        <time>2021-12-14T14:56:22.000Z</time>
      </trkpt>
      <trkpt lat="43.39239" lon="-1.45938">
        <ele>57.3</ele>
        <time>2021-12-14T14:56:23.000Z</time>
      </trkpt>
      <trkpt lat="43.39245" lon="-1.45942">
        <ele>57</ele>
        <time>2021-12-14T14:56:24.000Z</time>
      </trkpt>
      <trkpt lat="43.3925" lon="-1.45947">
        <ele>57.2</ele>
        <time>2021-12-14T14:56:25.000Z</time>
      </trkpt>
      <trkpt lat="43.39256" lon="-1.45953">
        <ele>57.7</ele>
        <time>2021-12-14T14:56:26.000Z</time>
      </trkpt>
      <trkpt lat="43.39261" lon="-1.45959">
        <ele>57.8</ele>
        <time>2021-12-14T14:56:27.000Z</time>
      </trkpt>
      <trkpt lat="43.39266" lon="-1.45964">
        <ele>57.8</ele>
        <time>2021-12-14T14:56:28.000Z</time>
      </trkpt>
      <trkpt lat="43.39271" lon="-1.45969">
        <ele>57.5</ele>
        <time>2021-12-14T14:56:29.000Z</time>
      </trkpt>
      <trkpt lat="43.39277" lon="-1.45974">
        <ele>57.1</ele>
        <time>2021-12-14T14:56:30.000Z</time>
      </trkpt>
      <trkpt lat="43.39282" lon="-1.4598">
        <ele>57</ele>
        <time>2021-12-14T14:56:31.000Z</time>
      </trkpt>
      <trkpt lat="43.39287" lon="-1.45986">
        <ele>57</ele>
        <time>2021-12-14T14:56:32.000Z</time>
      </trkpt>
      <trkpt lat="43.39292" lon="-1.45992">
        <ele>57</ele>
        <time>2021-12-14T14:56:33.000Z</time>
      </trkpt>
      <trkpt lat="43.39297" lon="-1.45998">
        <ele>57</ele>
        <time>2021-12-14T14:56:34.000Z</time>
      </trkpt>
      <trkpt lat="43.39302" lon="-1.46003">
        <ele>56.8</ele>
        <time>2021-12-14T14:56:35.000Z</time>
      </trkpt>
      <trkpt lat="43.39307" lon="-1.46009">
        <ele>56.6</ele>
        <time>2021-12-14T14:56:36.000Z</time>
      </trkpt>
      <trkpt lat="43.39312" lon="-1.46015">
        <ele>56.4</ele>
        <time>2021-12-14T14:56:37.000Z</time>
      </trkpt>
      <trkpt lat="43.39317" lon="-1.4602">
        <ele>56.2</ele>
        <time>2021-12-14T14:56:38.000Z</time>
      </trkpt>
      <trkpt lat="43.39322" lon="-1.46026">
        <ele>56</ele>
        <time>2021-12-14T14:56:39.000Z</time>
      </trkpt>
      <trkpt lat="43.39327" lon="-1.46032">
        <ele>55.8</ele>
        <time>2021-12-14T14:56:40.000Z</time>
      </trkpt>
      <trkpt lat="43.39332" lon="-1.46039">
        <ele>55.6</ele>
        <time>2021-12-14T14:56:41.000Z</time>
      </trkpt>
      <trkpt lat="43.39336" lon="-1.46046">
        <ele>55.4</ele>
        <time>2021-12-14T14:56:42.000Z</time>
      </trkpt>
      <trkpt lat="43.39341" lon="-1.46053">
        <ele>55.3</ele>
        <time>2021-12-14T14:56:43.000Z</time>
      </trkpt>
      <trkpt lat="43.39346" lon="-1.4606">
        <ele>55</ele>
        <time>2021-12-14T14:56:44.000Z</time>
      </trkpt>
      <trkpt lat="43.39351" lon="-1.46067">
        <ele>54.5</ele>
        <time>2021-12-14T14:56:45.000Z</time>
      </trkpt>
      <trkpt lat="43.39356" lon="-1.46075">
        <ele>54.2</ele>
        <time>2021-12-14T14:56:46.000Z</time>
      </trkpt>
      <trkpt lat="43.39362" lon="-1.46084">
        <ele>54</ele>
        <time>2021-12-14T14:56:47.000Z</time>
      </trkpt>
      <trkpt lat="43.39367" lon="-1.46092">
        <ele>53.5</ele>
        <time>2021-12-14T14:56:48.000Z</time>
      </trkpt>
      <trkpt lat="43.39372" lon="-1.46101">
        <ele>53.1</ele>
        <time>2021-12-14T14:56:49.000Z</time>
      </trkpt>
      <trkpt lat="43.39377" lon="-1.46111">
        <ele>52.8</ele>
        <time>2021-12-14T14:56:50.000Z</time>
      </trkpt>
      <trkpt lat="43.39382" lon="-1.4612">
        <ele>52.2</ele>
        <time>2021-12-14T14:56:51.000Z</time>
      </trkpt>
      <trkpt lat="43.39388" lon="-1.4613">
        <ele>51.8</ele>
        <time>2021-12-14T14:56:52.000Z</time>
      </trkpt>
      <trkpt lat="43.39394" lon="-1.46139">
        <ele>51.6</ele>
        <time>2021-12-14T14:56:53.000Z</time>
      </trkpt>
      <trkpt lat="43.39399" lon="-1.46148">
        <ele>51.1</ele>
        <time>2021-12-14T14:56:54.000Z</time>
      </trkpt>
      <trkpt lat="43.39405" lon="-1.46158">
        <ele>50.6</ele>
        <time>2021-12-14T14:56:55.000Z</time>
      </trkpt>
      <trkpt lat="43.39411" lon="-1.46167">
        <ele>50.1</ele>
        <time>2021-12-14T14:56:56.000Z</time>
      </trkpt>
      <trkpt lat="43.39416" lon="-1.46176">
        <ele>50.3</ele>
        <time>2021-12-14T14:56:57.000Z</time>
      </trkpt>
      <trkpt lat="43.39422" lon="-1.46185">
        <ele>50.6</ele>
        <time>2021-12-14T14:56:58.000Z</time>
      </trkpt>
      <trkpt lat="43.39428" lon="-1.46194">
        <ele>51.1</ele>
        <time>2021-12-14T14:56:59.000Z</time>
      </trkpt>
      <trkpt lat="43.39435" lon="-1.46203">
        <ele>50.5</ele>
        <time>2021-12-14T14:57:00.000Z</time>
      </trkpt>
      <trkpt lat="43.39441" lon="-1.46213">
        <ele>50</ele>
        <time>2021-12-14T14:57:01.000Z</time>
      </trkpt>
      <trkpt lat="43.39447" lon="-1.46222">
        <ele>49.5</ele>
        <time>2021-12-14T14:57:02.000Z</time>
      </trkpt>
      <trkpt lat="43.39453" lon="-1.4623">
        <ele>49.4</ele>
        <time>2021-12-14T14:57:03.000Z</time>
      </trkpt>
      <trkpt lat="43.39458" lon="-1.46239">
        <ele>49.5</ele>
        <time>2021-12-14T14:57:04.000Z</time>
      </trkpt>
      <trkpt lat="43.39464" lon="-1.46247">
        <ele>49.7</ele>
        <time>2021-12-14T14:57:05.000Z</time>
      </trkpt>
      <trkpt lat="43.3947" lon="-1.46256">
        <ele>49.9</ele>
        <time>2021-12-14T14:57:06.000Z</time>
      </trkpt>
      <trkpt lat="43.39475" lon="-1.46264">
        <ele>49.9</ele>
        <time>2021-12-14T14:57:07.000Z</time>
      </trkpt>
      <trkpt lat="43.39481" lon="-1.46272">
        <ele>50</ele>
        <time>2021-12-14T14:57:08.000Z</time>
      </trkpt>
      <trkpt lat="43.39487" lon="-1.46279">
        <ele>50.4</ele>
        <time>2021-12-14T14:57:09.000Z</time>
      </trkpt>
      <trkpt lat="43.39492" lon="-1.46286">
        <ele>50.1</ele>
        <time>2021-12-14T14:57:10.000Z</time>
      </trkpt>
      <trkpt lat="43.39498" lon="-1.46292">
        <ele>49.7</ele>
        <time>2021-12-14T14:57:11.000Z</time>
      </trkpt>
      <trkpt lat="43.39503" lon="-1.46299">
        <ele>49</ele>
        <time>2021-12-14T14:57:12.000Z</time>
      </trkpt>
      <trkpt lat="43.39508" lon="-1.46305">
        <ele>49.1</ele>
        <time>2021-12-14T14:57:13.000Z</time>
      </trkpt>
      <trkpt lat="43.39513" lon="-1.46311">
        <ele>49.5</ele>
        <time>2021-12-14T14:57:14.000Z</time>
      </trkpt>
      <trkpt lat="43.39519" lon="-1.46317">
        <ele>49.6</ele>
        <time>2021-12-14T14:57:15.000Z</time>
      </trkpt>
      <trkpt lat="43.39524" lon="-1.46323">
        <ele>49.2</ele>
        <time>2021-12-14T14:57:16.000Z</time>
      </trkpt>
      <trkpt lat="43.39529" lon="-1.46329">
        <ele>48.4</ele>
        <time>2021-12-14T14:57:17.000Z</time>
      </trkpt>
      <trkpt lat="43.39535" lon="-1.46335">
        <ele>48.5</ele>
        <time>2021-12-14T14:57:18.000Z</time>
      </trkpt>
      <trkpt lat="43.3954" lon="-1.46342">
        <ele>48.9</ele>
        <time>2021-12-14T14:57:19.000Z</time>
      </trkpt>
      <trkpt lat="43.39545" lon="-1.46349">
        <ele>48.7</ele>
        <time>2021-12-14T14:57:20.000Z</time>
      </trkpt>
      <trkpt lat="43.3955" lon="-1.46355">
        <ele>48.1</ele>
        <time>2021-12-14T14:57:21.000Z</time>
      </trkpt>
      <trkpt lat="43.39555" lon="-1.46361">
        <ele>47</ele>
        <time>2021-12-14T14:57:22.000Z</time>
      </trkpt>
      <trkpt lat="43.3956" lon="-1.46367">
        <ele>47.8</ele>
        <time>2021-12-14T14:57:23.000Z</time>
      </trkpt>
      <trkpt lat="43.39565" lon="-1.46372">
        <ele>48.4</ele>
        <time>2021-12-14T14:57:24.000Z</time>
      </trkpt>
      <trkpt lat="43.39569" lon="-1.46378">
        <ele>48.5</ele>
        <time>2021-12-14T14:57:25.000Z</time>
      </trkpt>
      <trkpt lat="43.39574" lon="-1.46384">
        <ele>48.2</ele>
        <time>2021-12-14T14:57:26.000Z</time>
      </trkpt>
      <trkpt lat="43.39579" lon="-1.4639">
        <ele>47.6</ele>
        <time>2021-12-14T14:57:27.000Z</time>
      </trkpt>
      <trkpt lat="43.39584" lon="-1.46396">
        <ele>47.7</ele>
        <time>2021-12-14T14:57:28.000Z</time>
      </trkpt>
      <trkpt lat="43.39589" lon="-1.46402">
        <ele>48.2</ele>
        <time>2021-12-14T14:57:29.000Z</time>
      </trkpt>
      <trkpt lat="43.39594" lon="-1.46408">
        <ele>48.5</ele>
        <time>2021-12-14T14:57:30.000Z</time>
      </trkpt>
      <trkpt lat="43.39599" lon="-1.46413">
        <ele>48.7</ele>
        <time>2021-12-14T14:57:31.000Z</time>
      </trkpt>
      <trkpt lat="43.39603" lon="-1.46418">
        <ele>48.7</ele>
        <time>2021-12-14T14:57:32.000Z</time>
      </trkpt>
      <trkpt lat="43.39608" lon="-1.46423">
        <ele>48.6</ele>
        <time>2021-12-14T14:57:33.000Z</time>
      </trkpt>
      <trkpt lat="43.39613" lon="-1.46427">
        <ele>48.9</ele>
        <time>2021-12-14T14:57:34.000Z</time>
      </trkpt>
      <trkpt lat="43.39617" lon="-1.46432">
        <ele>49.2</ele>
        <time>2021-12-14T14:57:35.000Z</time>
      </trkpt>
      <trkpt lat="43.39622" lon="-1.46437">
        <ele>49.6</ele>
        <time>2021-12-14T14:57:36.000Z</time>
      </trkpt>
      <trkpt lat="43.39627" lon="-1.46443">
        <ele>50.1</ele>
        <time>2021-12-14T14:57:37.000Z</time>
      </trkpt>
      <trkpt lat="43.39632" lon="-1.46449">
        <ele>50.4</ele>
        <time>2021-12-14T14:57:38.000Z</time>
      </trkpt>
      <trkpt lat="43.39637" lon="-1.46454">
        <ele>50.4</ele>
        <time>2021-12-14T14:57:39.000Z</time>
      </trkpt>
      <trkpt lat="43.39642" lon="-1.46459">
        <ele>50.2</ele>
        <time>2021-12-14T14:57:40.000Z</time>
      </trkpt>
      <trkpt lat="43.39647" lon="-1.46464">
        <ele>50.1</ele>
        <time>2021-12-14T14:57:41.000Z</time>
      </trkpt>
      <trkpt lat="43.39652" lon="-1.4647">
        <ele>50.2</ele>
        <time>2021-12-14T14:57:42.000Z</time>
      </trkpt>
      <trkpt lat="43.39658" lon="-1.46475">
        <ele>50.5</ele>
        <time>2021-12-14T14:57:43.000Z</time>
      </trkpt>
      <trkpt lat="43.39663" lon="-1.4648">
        <ele>50.7</ele>
        <time>2021-12-14T14:57:44.000Z</time>
      </trkpt>
      <trkpt lat="43.39668" lon="-1.46485">
        <ele>50.4</ele>
        <time>2021-12-14T14:57:45.000Z</time>
      </trkpt>
      <trkpt lat="43.39673" lon="-1.4649">
        <ele>49.8</ele>
        <time>2021-12-14T14:57:46.000Z</time>
      </trkpt>
      <trkpt lat="43.39678" lon="-1.46495">
        <ele>49.4</ele>
        <time>2021-12-14T14:57:47.000Z</time>
      </trkpt>
      <trkpt lat="43.39683" lon="-1.46499">
        <ele>49</ele>
        <time>2021-12-14T14:57:48.000Z</time>
      </trkpt>
      <trkpt lat="43.39689" lon="-1.46504">
        <ele>49.3</ele>
        <time>2021-12-14T14:57:49.000Z</time>
      </trkpt>
      <trkpt lat="43.39693" lon="-1.46507">
        <ele>49.4</ele>
        <time>2021-12-14T14:57:50.000Z</time>
      </trkpt>
      <trkpt lat="43.39699" lon="-1.46511">
        <ele>49.6</ele>
        <time>2021-12-14T14:57:51.000Z</time>
      </trkpt>
      <trkpt lat="43.39704" lon="-1.46514">
        <ele>49.9</ele>
        <time>2021-12-14T14:57:52.000Z</time>
      </trkpt>
      <trkpt lat="43.3971" lon="-1.46517">
        <ele>50</ele>
        <time>2021-12-14T14:57:53.000Z</time>
      </trkpt>
      <trkpt lat="43.39715" lon="-1.46519">
        <ele>50.1</ele>
        <time>2021-12-14T14:57:54.000Z</time>
      </trkpt>
      <trkpt lat="43.39721" lon="-1.46522">
        <ele>50</ele>
        <time>2021-12-14T14:57:55.000Z</time>
      </trkpt>
      <trkpt lat="43.39727" lon="-1.46525">
        <ele>49.7</ele>
        <time>2021-12-14T14:57:56.000Z</time>
      </trkpt>
      <trkpt lat="43.39732" lon="-1.46527">
        <ele>49.5</ele>
        <time>2021-12-14T14:57:57.000Z</time>
      </trkpt>
      <trkpt lat="43.39738" lon="-1.46529">
        <ele>49.6</ele>
        <time>2021-12-14T14:57:58.000Z</time>
      </trkpt>
      <trkpt lat="43.39744" lon="-1.46531">
        <ele>49.8</ele>
        <time>2021-12-14T14:57:59.000Z</time>
      </trkpt>
      <trkpt lat="43.3975" lon="-1.46532">
        <ele>50</ele>
        <time>2021-12-14T14:58:00.000Z</time>
      </trkpt>
      <trkpt lat="43.39756" lon="-1.46534">
        <ele>50.2</ele>
        <time>2021-12-14T14:58:01.000Z</time>
      </trkpt>
      <trkpt lat="43.39762" lon="-1.46535">
        <ele>50.4</ele>
        <time>2021-12-14T14:58:02.000Z</time>
      </trkpt>
      <trkpt lat="43.39768" lon="-1.46535">
        <ele>50.6</ele>
        <time>2021-12-14T14:58:03.000Z</time>
      </trkpt>
      <trkpt lat="43.39774" lon="-1.46536">
        <ele>50.9</ele>
        <time>2021-12-14T14:58:04.000Z</time>
      </trkpt>
      <trkpt lat="43.39779" lon="-1.46536">
        <ele>51.1</ele>
        <time>2021-12-14T14:58:05.000Z</time>
      </trkpt>
      <trkpt lat="43.39785" lon="-1.46537">
        <ele>51.3</ele>
        <time>2021-12-14T14:58:06.000Z</time>
      </trkpt>
      <trkpt lat="43.39792" lon="-1.46537">
        <ele>51.5</ele>
        <time>2021-12-14T14:58:07.000Z</time>
      </trkpt>
      <trkpt lat="43.39797" lon="-1.46537">
        <ele>51.7</ele>
        <time>2021-12-14T14:58:08.000Z</time>
      </trkpt>
      <trkpt lat="43.39803" lon="-1.46536">
        <ele>51.9</ele>
        <time>2021-12-14T14:58:09.000Z</time>
      </trkpt>
      <trkpt lat="43.39809" lon="-1.46535">
        <ele>51.9</ele>
        <time>2021-12-14T14:58:10.000Z</time>
      </trkpt>
      <trkpt lat="43.39815" lon="-1.46534">
        <ele>51.7</ele>
        <time>2021-12-14T14:58:11.000Z</time>
      </trkpt>
      <trkpt lat="43.39821" lon="-1.46533">
        <ele>51.6</ele>
        <time>2021-12-14T14:58:12.000Z</time>
      </trkpt>
      <trkpt lat="43.39826" lon="-1.46531">
        <ele>51.3</ele>
        <time>2021-12-14T14:58:13.000Z</time>
      </trkpt>
      <trkpt lat="43.39832" lon="-1.46529">
        <ele>51.1</ele>
        <time>2021-12-14T14:58:14.000Z</time>
      </trkpt>
      <trkpt lat="43.39837" lon="-1.46527">
        <ele>51.2</ele>
        <time>2021-12-14T14:58:15.000Z</time>
      </trkpt>
      <trkpt lat="43.39843" lon="-1.46525">
        <ele>51.5</ele>
        <time>2021-12-14T14:58:16.000Z</time>
      </trkpt>
      <trkpt lat="43.39848" lon="-1.46523">
        <ele>51.8</ele>
        <time>2021-12-14T14:58:17.000Z</time>
      </trkpt>
      <trkpt lat="43.39854" lon="-1.4652">
        <ele>51.9</ele>
        <time>2021-12-14T14:58:18.000Z</time>
      </trkpt>
      <trkpt lat="43.39859" lon="-1.46518">
        <ele>52</ele>
        <time>2021-12-14T14:58:19.000Z</time>
      </trkpt>
      <trkpt lat="43.39864" lon="-1.46515">
        <ele>52</ele>
        <time>2021-12-14T14:58:20.000Z</time>
      </trkpt>
      <trkpt lat="43.3987" lon="-1.46513">
        <ele>52</ele>
        <time>2021-12-14T14:58:21.000Z</time>
      </trkpt>
      <trkpt lat="43.39875" lon="-1.4651">
        <ele>52</ele>
        <time>2021-12-14T14:58:22.000Z</time>
      </trkpt>
      <trkpt lat="43.39881" lon="-1.46507">
        <ele>52</ele>
        <time>2021-12-14T14:58:23.000Z</time>
      </trkpt>
      <trkpt lat="43.39886" lon="-1.46504">
        <ele>52</ele>
        <time>2021-12-14T14:58:24.000Z</time>
      </trkpt>
      <trkpt lat="43.39891" lon="-1.46502">
        <ele>52</ele>
        <time>2021-12-14T14:58:25.000Z</time>
      </trkpt>
      <trkpt lat="43.39897" lon="-1.46499">
        <ele>52</ele>
        <time>2021-12-14T14:58:26.000Z</time>
      </trkpt>
      <trkpt lat="43.39902" lon="-1.46496">
        <ele>51.9</ele>
        <time>2021-12-14T14:58:27.000Z</time>
      </trkpt>
      <trkpt lat="43.39908" lon="-1.46493">
        <ele>51.9</ele>
        <time>2021-12-14T14:58:28.000Z</time>
      </trkpt>
      <trkpt lat="43.39913" lon="-1.4649">
        <ele>52</ele>
        <time>2021-12-14T14:58:29.000Z</time>
      </trkpt>
      <trkpt lat="43.39918" lon="-1.46486">
        <ele>52</ele>
        <time>2021-12-14T14:58:30.000Z</time>
      </trkpt>
      <trkpt lat="43.39922" lon="-1.46482">
        <ele>52.1</ele>
        <time>2021-12-14T14:58:31.000Z</time>
      </trkpt>
      <trkpt lat="43.39926" lon="-1.46478">
        <ele>52.3</ele>
        <time>2021-12-14T14:58:32.000Z</time>
      </trkpt>
      <trkpt lat="43.39929" lon="-1.46473">
        <ele>52.4</ele>
        <time>2021-12-14T14:58:33.000Z</time>
      </trkpt>
      <trkpt lat="43.39932" lon="-1.46467">
        <ele>52.5</ele>
        <time>2021-12-14T14:58:34.000Z</time>
      </trkpt>
      <trkpt lat="43.39934" lon="-1.46461">
        <ele>52.6</ele>
        <time>2021-12-14T14:58:35.000Z</time>
      </trkpt>
      <trkpt lat="43.39937" lon="-1.46455">
        <ele>52.7</ele>
        <time>2021-12-14T14:58:36.000Z</time>
      </trkpt>
      <trkpt lat="43.3994" lon="-1.46448">
        <ele>52.8</ele>
        <time>2021-12-14T14:58:37.000Z</time>
      </trkpt>
      <trkpt lat="43.39942" lon="-1.46441">
        <ele>52.9</ele>
        <time>2021-12-14T14:58:38.000Z</time>
      </trkpt>
      <trkpt lat="43.39944" lon="-1.46434">
        <ele>53</ele>
        <time>2021-12-14T14:58:39.000Z</time>
      </trkpt>
      <trkpt lat="43.39945" lon="-1.46427">
        <ele>53</ele>
        <time>2021-12-14T14:58:40.000Z</time>
      </trkpt>
      <trkpt lat="43.39945" lon="-1.46419">
        <ele>53</ele>
        <time>2021-12-14T14:58:41.000Z</time>
      </trkpt>
      <trkpt lat="43.39946" lon="-1.46411">
        <ele>53</ele>
        <time>2021-12-14T14:58:42.000Z</time>
      </trkpt>
      <trkpt lat="43.39946" lon="-1.46404">
        <ele>53</ele>
        <time>2021-12-14T14:58:43.000Z</time>
      </trkpt>
      <trkpt lat="43.39945" lon="-1.46397">
        <ele>53</ele>
        <time>2021-12-14T14:58:44.000Z</time>
      </trkpt>
      <trkpt lat="43.39943" lon="-1.46389">
        <ele>53</ele>
        <time>2021-12-14T14:58:45.000Z</time>
      </trkpt>
      <trkpt lat="43.39941" lon="-1.46381">
        <ele>53</ele>
        <time>2021-12-14T14:58:46.000Z</time>
      </trkpt>
      <trkpt lat="43.39938" lon="-1.46374">
        <ele>53</ele>
        <time>2021-12-14T14:58:47.000Z</time>
      </trkpt>
      <trkpt lat="43.39935" lon="-1.46366">
        <ele>53</ele>
        <time>2021-12-14T14:58:48.000Z</time>
      </trkpt>
      <trkpt lat="43.39932" lon="-1.46359">
        <ele>53</ele>
        <time>2021-12-14T14:58:49.000Z</time>
      </trkpt>
      <trkpt lat="43.39929" lon="-1.46351">
        <ele>52.9</ele>
        <time>2021-12-14T14:58:50.000Z</time>
      </trkpt>
      <trkpt lat="43.39925" lon="-1.46344">
        <ele>52.8</ele>
        <time>2021-12-14T14:58:51.000Z</time>
      </trkpt>
      <trkpt lat="43.39921" lon="-1.46336">
        <ele>52.9</ele>
        <time>2021-12-14T14:58:52.000Z</time>
      </trkpt>
      <trkpt lat="43.39917" lon="-1.46329">
        <ele>52.8</ele>
        <time>2021-12-14T14:58:53.000Z</time>
      </trkpt>
      <trkpt lat="43.39914" lon="-1.4632">
        <ele>52.6</ele>
        <time>2021-12-14T14:58:54.000Z</time>
      </trkpt>
      <trkpt lat="43.3991" lon="-1.46312">
        <ele>52.4</ele>
        <time>2021-12-14T14:58:55.000Z</time>
      </trkpt>
      <trkpt lat="43.39906" lon="-1.46303">
        <ele>52.2</ele>
        <time>2021-12-14T14:58:56.000Z</time>
      </trkpt>
      <trkpt lat="43.39902" lon="-1.46294">
        <ele>51.7</ele>
        <time>2021-12-14T14:58:57.000Z</time>
      </trkpt>
      <trkpt lat="43.39898" lon="-1.46285">
        <ele>51.2</ele>
        <time>2021-12-14T14:58:58.000Z</time>
      </trkpt>
      <trkpt lat="43.39894" lon="-1.46276">
        <ele>50.6</ele>
        <time>2021-12-14T14:58:59.000Z</time>
      </trkpt>
      <trkpt lat="43.3989" lon="-1.46266">
        <ele>50.1</ele>
        <time>2021-12-14T14:59:00.000Z</time>
      </trkpt>
      <trkpt lat="43.39886" lon="-1.46256">
        <ele>49.7</ele>
        <time>2021-12-14T14:59:01.000Z</time>
      </trkpt>
      <trkpt lat="43.39882" lon="-1.46246">
        <ele>49.1</ele>
        <time>2021-12-14T14:59:02.000Z</time>
      </trkpt>
      <trkpt lat="43.39877" lon="-1.46235">
        <ele>48.6</ele>
        <time>2021-12-14T14:59:03.000Z</time>
      </trkpt>
      <trkpt lat="43.39872" lon="-1.46225">
        <ele>48.6</ele>
        <time>2021-12-14T14:59:04.000Z</time>
      </trkpt>
      <trkpt lat="43.39866" lon="-1.46215">
        <ele>48.3</ele>
        <time>2021-12-14T14:59:05.000Z</time>
      </trkpt>
      <trkpt lat="43.3986" lon="-1.46205">
        <ele>48</ele>
        <time>2021-12-14T14:59:06.000Z</time>
      </trkpt>
      <trkpt lat="43.39854" lon="-1.46195">
        <ele>47.7</ele>
        <time>2021-12-14T14:59:07.000Z</time>
      </trkpt>
      <trkpt lat="43.39847" lon="-1.46186">
        <ele>46.6</ele>
        <time>2021-12-14T14:59:08.000Z</time>
      </trkpt>
      <trkpt lat="43.39839" lon="-1.46177">
        <ele>45.4</ele>
        <time>2021-12-14T14:59:09.000Z</time>
      </trkpt>
      <trkpt lat="43.39831" lon="-1.46169">
        <ele>44.2</ele>
        <time>2021-12-14T14:59:10.000Z</time>
      </trkpt>
      <trkpt lat="43.39823" lon="-1.46161">
        <ele>43.9</ele>
        <time>2021-12-14T14:59:11.000Z</time>
      </trkpt>
      <trkpt lat="43.39814" lon="-1.46153">
        <ele>43.6</ele>
        <time>2021-12-14T14:59:12.000Z</time>
      </trkpt>
      <trkpt lat="43.39805" lon="-1.46145">
        <ele>42.9</ele>
        <time>2021-12-14T14:59:13.000Z</time>
      </trkpt>
      <trkpt lat="43.39796" lon="-1.46138">
        <ele>41.5</ele>
        <time>2021-12-14T14:59:14.000Z</time>
      </trkpt>
      <trkpt lat="43.39786" lon="-1.4613">
        <ele>40.6</ele>
        <time>2021-12-14T14:59:15.000Z</time>
      </trkpt>
      <trkpt lat="43.39777" lon="-1.46123">
        <ele>39.7</ele>
        <time>2021-12-14T14:59:16.000Z</time>
      </trkpt>
      <trkpt lat="43.39767" lon="-1.46116">
        <ele>38.4</ele>
        <time>2021-12-14T14:59:17.000Z</time>
      </trkpt>
      <trkpt lat="43.39757" lon="-1.46109">
        <ele>36.8</ele>
        <time>2021-12-14T14:59:18.000Z</time>
      </trkpt>
      <trkpt lat="43.39747" lon="-1.46102">
        <ele>36.4</ele>
        <time>2021-12-14T14:59:19.000Z</time>
      </trkpt>
      <trkpt lat="43.39737" lon="-1.46095">
        <ele>36.4</ele>
        <time>2021-12-14T14:59:20.000Z</time>
      </trkpt>
      <trkpt lat="43.39727" lon="-1.46088">
        <ele>35.3</ele>
        <time>2021-12-14T14:59:21.000Z</time>
      </trkpt>
      <trkpt lat="43.39717" lon="-1.46081">
        <ele>34.2</ele>
        <time>2021-12-14T14:59:22.000Z</time>
      </trkpt>
      <trkpt lat="43.39707" lon="-1.46074">
        <ele>34</ele>
        <time>2021-12-14T14:59:23.000Z</time>
      </trkpt>
      <trkpt lat="43.39697" lon="-1.46068">
        <ele>34</ele>
        <time>2021-12-14T14:59:24.000Z</time>
      </trkpt>
      <trkpt lat="43.39687" lon="-1.46062">
        <ele>33.1</ele>
        <time>2021-12-14T14:59:25.000Z</time>
      </trkpt>
      <trkpt lat="43.39677" lon="-1.46056">
        <ele>32.1</ele>
        <time>2021-12-14T14:59:26.000Z</time>
      </trkpt>
      <trkpt lat="43.39668" lon="-1.46051">
        <ele>31.6</ele>
        <time>2021-12-14T14:59:27.000Z</time>
      </trkpt>
      <trkpt lat="43.39659" lon="-1.46046">
        <ele>31.8</ele>
        <time>2021-12-14T14:59:28.000Z</time>
      </trkpt>
      <trkpt lat="43.3965" lon="-1.46042">
        <ele>31.9</ele>
        <time>2021-12-14T14:59:29.000Z</time>
      </trkpt>
      <trkpt lat="43.39641" lon="-1.46038">
        <ele>32</ele>
        <time>2021-12-14T14:59:30.000Z</time>
      </trkpt>
      <trkpt lat="43.39632" lon="-1.46034">
        <ele>32</ele>
        <time>2021-12-14T14:59:31.000Z</time>
      </trkpt>
      <trkpt lat="43.39624" lon="-1.46031">
        <ele>32</ele>
        <time>2021-12-14T14:59:32.000Z</time>
      </trkpt>
      <trkpt lat="43.39616" lon="-1.46029">
        <ele>31.9</ele>
        <time>2021-12-14T14:59:33.000Z</time>
      </trkpt>
      <trkpt lat="43.39608" lon="-1.46026">
        <ele>31.9</ele>
        <time>2021-12-14T14:59:34.000Z</time>
      </trkpt>
      <trkpt lat="43.396" lon="-1.46024">
        <ele>32</ele>
        <time>2021-12-14T14:59:35.000Z</time>
      </trkpt>
      <trkpt lat="43.39592" lon="-1.46022">
        <ele>32</ele>
        <time>2021-12-14T14:59:36.000Z</time>
      </trkpt>
      <trkpt lat="43.39585" lon="-1.46019">
        <ele>32</ele>
        <time>2021-12-14T14:59:37.000Z</time>
      </trkpt>
      <trkpt lat="43.39578" lon="-1.46017">
        <ele>32.3</ele>
        <time>2021-12-14T14:59:38.000Z</time>
      </trkpt>
      <trkpt lat="43.39572" lon="-1.46015">
        <ele>32.7</ele>
        <time>2021-12-14T14:59:39.000Z</time>
      </trkpt>
      <trkpt lat="43.39565" lon="-1.46013">
        <ele>33</ele>
        <time>2021-12-14T14:59:40.000Z</time>
      </trkpt>
      <trkpt lat="43.39559" lon="-1.46011">
        <ele>33.2</ele>
        <time>2021-12-14T14:59:41.000Z</time>
      </trkpt>
      <trkpt lat="43.39553" lon="-1.46008">
        <ele>33.4</ele>
        <time>2021-12-14T14:59:42.000Z</time>
      </trkpt>
      <trkpt lat="43.39547" lon="-1.46006">
        <ele>33.3</ele>
        <time>2021-12-14T14:59:43.000Z</time>
      </trkpt>
      <trkpt lat="43.39542" lon="-1.46004">
        <ele>33.2</ele>
        <time>2021-12-14T14:59:44.000Z</time>
      </trkpt>
      <trkpt lat="43.39536" lon="-1.46002">
        <ele>33</ele>
        <time>2021-12-14T14:59:45.000Z</time>
      </trkpt>
      <trkpt lat="43.3953" lon="-1.45999">
        <ele>32.9</ele>
        <time>2021-12-14T14:59:46.000Z</time>
      </trkpt>
      <trkpt lat="43.39525" lon="-1.45996">
        <ele>33.3</ele>
        <time>2021-12-14T14:59:47.000Z</time>
      </trkpt>
      <trkpt lat="43.39519" lon="-1.45993">
        <ele>33.8</ele>
        <time>2021-12-14T14:59:48.000Z</time>
      </trkpt>
      <trkpt lat="43.39514" lon="-1.4599">
        <ele>34.1</ele>
        <time>2021-12-14T14:59:49.000Z</time>
      </trkpt>
      <trkpt lat="43.39508" lon="-1.45987">
        <ele>34.3</ele>
        <time>2021-12-14T14:59:50.000Z</time>
      </trkpt>
      <trkpt lat="43.39502" lon="-1.45983">
        <ele>34.2</ele>
        <time>2021-12-14T14:59:51.000Z</time>
      </trkpt>
      <trkpt lat="43.39496" lon="-1.4598">
        <ele>34.2</ele>
        <time>2021-12-14T14:59:52.000Z</time>
      </trkpt>
      <trkpt lat="43.39491" lon="-1.45976">
        <ele>34.2</ele>
        <time>2021-12-14T14:59:53.000Z</time>
      </trkpt>
      <trkpt lat="43.39485" lon="-1.45973">
        <ele>34.3</ele>
        <time>2021-12-14T14:59:54.000Z</time>
      </trkpt>
      <trkpt lat="43.39479" lon="-1.4597">
        <ele>34.8</ele>
        <time>2021-12-14T14:59:55.000Z</time>
      </trkpt>
      <trkpt lat="43.39473" lon="-1.45967">
        <ele>35.2</ele>
        <time>2021-12-14T14:59:56.000Z</time>
      </trkpt>
      <trkpt lat="43.39467" lon="-1.45965">
        <ele>35.7</ele>
        <time>2021-12-14T14:59:57.000Z</time>
      </trkpt>
      <trkpt lat="43.39461" lon="-1.45962">
        <ele>36.1</ele>
        <time>2021-12-14T14:59:58.000Z</time>
      </trkpt>
      <trkpt lat="43.39455" lon="-1.4596">
        <ele>36.2</ele>
        <time>2021-12-14T14:59:59.000Z</time>
      </trkpt>
      <trkpt lat="43.39448" lon="-1.45957">
        <ele>36.1</ele>
        <time>2021-12-14T15:00:00.000Z</time>
      </trkpt>
      <trkpt lat="43.39442" lon="-1.45953">
        <ele>35.9</ele>
        <time>2021-12-14T15:00:01.000Z</time>
      </trkpt>
      <trkpt lat="43.39437" lon="-1.45949">
        <ele>35.8</ele>
        <time>2021-12-14T15:00:02.000Z</time>
      </trkpt>
      <trkpt lat="43.39431" lon="-1.45944">
        <ele>35.3</ele>
        <time>2021-12-14T15:00:03.000Z</time>
      </trkpt>
      <trkpt lat="43.39426" lon="-1.45937">
        <ele>34.9</ele>
        <time>2021-12-14T15:00:04.000Z</time>
      </trkpt>
      <trkpt lat="43.39422" lon="-1.4593">
        <ele>33.6</ele>
        <time>2021-12-14T15:00:05.000Z</time>
      </trkpt>
      <trkpt lat="43.39418" lon="-1.45921">
        <ele>31.4</ele>
        <time>2021-12-14T15:00:06.000Z</time>
      </trkpt>
      <trkpt lat="43.39415" lon="-1.45912">
        <ele>30.4</ele>
        <time>2021-12-14T15:00:07.000Z</time>
      </trkpt>
      <trkpt lat="43.39413" lon="-1.45901">
        <ele>30.7</ele>
        <time>2021-12-14T15:00:08.000Z</time>
      </trkpt>
      <trkpt lat="43.39413" lon="-1.4589">
        <ele>30.6</ele>
        <time>2021-12-14T15:00:09.000Z</time>
      </trkpt>
      <trkpt lat="43.39413" lon="-1.45879">
        <ele>30.1</ele>
        <time>2021-12-14T15:00:10.000Z</time>
      </trkpt>
      <trkpt lat="43.39413" lon="-1.45868">
        <ele>29.6</ele>
        <time>2021-12-14T15:00:11.000Z</time>
      </trkpt>
      <trkpt lat="43.39414" lon="-1.45857">
        <ele>28.9</ele>
        <time>2021-12-14T15:00:12.000Z</time>
      </trkpt>
      <trkpt lat="43.39416" lon="-1.45846">
        <ele>28</ele>
        <time>2021-12-14T15:00:13.000Z</time>
      </trkpt>
      <trkpt lat="43.39418" lon="-1.45835">
        <ele>27.1</ele>
        <time>2021-12-14T15:00:14.000Z</time>
      </trkpt>
      <trkpt lat="43.3942" lon="-1.45826">
        <ele>27</ele>
        <time>2021-12-14T15:00:15.000Z</time>
      </trkpt>
      <trkpt lat="43.39422" lon="-1.45816">
        <ele>27</ele>
        <time>2021-12-14T15:00:16.000Z</time>
      </trkpt>
      <trkpt lat="43.39425" lon="-1.45806">
        <ele>27</ele>
        <time>2021-12-14T15:00:17.000Z</time>
      </trkpt>
      <trkpt lat="43.39427" lon="-1.45797">
        <ele>26.9</ele>
        <time>2021-12-14T15:00:18.000Z</time>
      </trkpt>
      <trkpt lat="43.3943" lon="-1.45788">
        <ele>26.7</ele>
        <time>2021-12-14T15:00:19.000Z</time>
      </trkpt>
      <trkpt lat="43.39433" lon="-1.45779">
        <ele>26.4</ele>
        <time>2021-12-14T15:00:20.000Z</time>
      </trkpt>
      <trkpt lat="43.39436" lon="-1.4577">
        <ele>26.1</ele>
        <time>2021-12-14T15:00:21.000Z</time>
      </trkpt>
      <trkpt lat="43.39439" lon="-1.4576">
        <ele>25.7</ele>
        <time>2021-12-14T15:00:22.000Z</time>
      </trkpt>
      <trkpt lat="43.39442" lon="-1.45751">
        <ele>25.2</ele>
        <time>2021-12-14T15:00:23.000Z</time>
      </trkpt>
      <trkpt lat="43.39445" lon="-1.45742">
        <ele>25</ele>
        <time>2021-12-14T15:00:24.000Z</time>
      </trkpt>
      <trkpt lat="43.39449" lon="-1.45732">
        <ele>24.9</ele>
        <time>2021-12-14T15:00:25.000Z</time>
      </trkpt>
      <trkpt lat="43.39452" lon="-1.45723">
        <ele>24.7</ele>
        <time>2021-12-14T15:00:26.000Z</time>
      </trkpt>
      <trkpt lat="43.39456" lon="-1.45714">
        <ele>24.5</ele>
        <time>2021-12-14T15:00:27.000Z</time>
      </trkpt>
      <trkpt lat="43.3946" lon="-1.45704">
        <ele>24.1</ele>
        <time>2021-12-14T15:00:28.000Z</time>
      </trkpt>
      <trkpt lat="43.39464" lon="-1.45695">
        <ele>23.6</ele>
        <time>2021-12-14T15:00:29.000Z</time>
      </trkpt>
      <trkpt lat="43.39468" lon="-1.45686">
        <ele>23.3</ele>
        <time>2021-12-14T15:00:30.000Z</time>
      </trkpt>
      <trkpt lat="43.39472" lon="-1.45677">
        <ele>23</ele>
        <time>2021-12-14T15:00:31.000Z</time>
      </trkpt>
      <trkpt lat="43.39476" lon="-1.45668">
        <ele>23.1</ele>
        <time>2021-12-14T15:00:32.000Z</time>
      </trkpt>
      <trkpt lat="43.3948" lon="-1.4566">
        <ele>23.4</ele>
        <time>2021-12-14T15:00:33.000Z</time>
      </trkpt>
      <trkpt lat="43.39484" lon="-1.45652">
        <ele>23.5</ele>
        <time>2021-12-14T15:00:34.000Z</time>
      </trkpt>
      <trkpt lat="43.39487" lon="-1.45643">
        <ele>23.5</ele>
        <time>2021-12-14T15:00:35.000Z</time>
      </trkpt>
      <trkpt lat="43.39491" lon="-1.45636">
        <ele>23.2</ele>
        <time>2021-12-14T15:00:36.000Z</time>
      </trkpt>
      <trkpt lat="43.39496" lon="-1.45628">
        <ele>22.8</ele>
        <time>2021-12-14T15:00:37.000Z</time>
      </trkpt>
      <trkpt lat="43.395" lon="-1.45622">
        <ele>22.4</ele>
        <time>2021-12-14T15:00:38.000Z</time>
      </trkpt>
      <trkpt lat="43.39505" lon="-1.45616">
        <ele>22.2</ele>
        <time>2021-12-14T15:00:39.000Z</time>
      </trkpt>
      <trkpt lat="43.3951" lon="-1.45611">
        <ele>22</ele>
        <time>2021-12-14T15:00:40.000Z</time>
      </trkpt>
      <trkpt lat="43.39515" lon="-1.45607">
        <ele>22</ele>
        <time>2021-12-14T15:00:41.000Z</time>
      </trkpt>
      <trkpt lat="43.3952" lon="-1.45604">
        <ele>22</ele>
        <time>2021-12-14T15:00:42.000Z</time>
      </trkpt>
      <trkpt lat="43.39525" lon="-1.45601">
        <ele>22</ele>
        <time>2021-12-14T15:00:43.000Z</time>
      </trkpt>
      <trkpt lat="43.39529" lon="-1.45599">
        <ele>22</ele>
        <time>2021-12-14T15:00:44.000Z</time>
      </trkpt>
      <trkpt lat="43.39533" lon="-1.45597">
        <ele>21.9</ele>
        <time>2021-12-14T15:00:45.000Z</time>
      </trkpt>
      <trkpt lat="43.39536" lon="-1.45595">
        <ele>21.8</ele>
        <time>2021-12-14T15:00:46.000Z</time>
      </trkpt>
      <trkpt lat="43.39539" lon="-1.45594">
        <ele>21.8</ele>
        <time>2021-12-14T15:00:47.000Z</time>
      </trkpt>
      <trkpt lat="43.39541" lon="-1.45592">
        <ele>21.7</ele>
        <time>2021-12-14T15:00:48.000Z</time>
      </trkpt>
      <trkpt lat="43.39542" lon="-1.4559">
        <ele>21.6</ele>
        <time>2021-12-14T15:00:49.000Z</time>
      </trkpt>
      <trkpt lat="43.39543" lon="-1.45589">
        <ele>21.6</ele>
        <time>2021-12-14T15:00:50.000Z</time>
      </trkpt>
      <trkpt lat="43.39543" lon="-1.45589">
        <ele>21.5</ele>
        <time>2021-12-14T15:00:51.000Z</time>
      </trkpt>
      <trkpt lat="43.39544" lon="-1.45587">
        <ele>21.5</ele>
        <time>2021-12-14T15:00:52.000Z</time>
      </trkpt>
      <trkpt lat="43.39547" lon="-1.45583">
        <ele>21.3</ele>
        <time>2021-12-14T15:00:53.000Z</time>
      </trkpt>
      <trkpt lat="43.39547" lon="-1.45583">
        <ele>21.3</ele>
        <time>2021-12-14T15:00:54.000Z</time>
      </trkpt>
      <trkpt lat="43.39547" lon="-1.45583">
        <ele>21.3</ele>
        <time>2021-12-14T15:00:55.000Z</time>
      </trkpt>
      <trkpt lat="43.39547" lon="-1.45583">
        <ele>21.3</ele>
        <time>2021-12-14T15:00:56.000Z</time>
      </trkpt>
      <trkpt lat="43.39547" lon="-1.45582">
        <ele>21.3</ele>
        <time>2021-12-14T15:00:57.000Z</time>
      </trkpt>
      <trkpt lat="43.39547" lon="-1.45582">
        <ele>21.3</ele>
        <time>2021-12-14T15:00:58.000Z</time>
      </trkpt>
      <trkpt lat="43.39548" lon="-1.45581">
        <ele>21.3</ele>
        <time>2021-12-14T15:00:59.000Z</time>
      </trkpt>
      <trkpt lat="43.39551" lon="-1.45578">
        <ele>21.2</ele>
        <time>2021-12-14T15:01:00.000Z</time>
      </trkpt>
      <trkpt lat="43.39551" lon="-1.45578">
        <ele>21.2</ele>
        <time>2021-12-14T15:01:01.000Z</time>
      </trkpt>
      <trkpt lat="43.39551" lon="-1.45578">
        <ele>21.2</ele>
        <time>2021-12-14T15:01:02.000Z</time>
      </trkpt>
      <trkpt lat="43.39551" lon="-1.45578">
        <ele>21.2</ele>
        <time>2021-12-14T15:01:03.000Z</time>
      </trkpt>
      <trkpt lat="43.39551" lon="-1.45578">
        <ele>21.2</ele>
        <time>2021-12-14T15:01:04.000Z</time>
      </trkpt>
      <trkpt lat="43.39551" lon="-1.45577">
        <ele>21.2</ele>
        <time>2021-12-14T15:01:05.000Z</time>
      </trkpt>
      <trkpt lat="43.39551" lon="-1.45573">
        <ele>21.2</ele>
        <time>2021-12-14T15:01:06.000Z</time>
      </trkpt>
      <trkpt lat="43.39551" lon="-1.45573">
        <ele>21.2</ele>
        <time>2021-12-14T15:01:07.000Z</time>
      </trkpt>
      <trkpt lat="43.39551" lon="-1.45572">
        <ele>21.2</ele>
        <time>2021-12-14T15:01:08.000Z</time>
      </trkpt>
      <trkpt lat="43.39552" lon="-1.45571">
        <ele>21.1</ele>
        <time>2021-12-14T15:01:09.000Z</time>
      </trkpt>
      <trkpt lat="43.39552" lon="-1.45571">
        <ele>21.1</ele>
        <time>2021-12-14T15:01:10.000Z</time>
      </trkpt>
      <trkpt lat="43.39553" lon="-1.45571">
        <ele>21.1</ele>
        <time>2021-12-14T15:01:11.000Z</time>
      </trkpt>
      <trkpt lat="43.39554" lon="-1.45572">
        <ele>21.1</ele>
        <time>2021-12-14T15:01:12.000Z</time>
      </trkpt>
      <trkpt lat="43.39554" lon="-1.45572">
        <ele>21</ele>
        <time>2021-12-14T15:01:13.000Z</time>
      </trkpt>
      <trkpt lat="43.39555" lon="-1.45572">
        <ele>21</ele>
        <time>2021-12-14T15:01:14.000Z</time>
      </trkpt>
      <trkpt lat="43.39555" lon="-1.45573">
        <ele>21</ele>
        <time>2021-12-14T15:01:15.000Z</time>
      </trkpt>
    </trkseg>
  </trk>
</gpx>